<?xml version='1.0' encoding='UTF-8'?><gpx version="1.1" creator="JPX - https://github.com/jenetics/jpx" xmlns="http://www.topografix.com/GPX/1/1"><trk><trkseg><trkpt lat="46.02246383715185" lon="9.376574947628171"><ele>672.0</ele><time>2026-04-25T13:58:26Z</time></trkpt><trkpt lat="46.02247366717951" lon="9.37646873674347"><ele>672.0</ele><time>2026-04-25T13:58:31Z</time></trkpt><trkpt lat="46.02245074978792" lon="9.376588244239409"><ele>672.0</ele><time>2026-04-25T13:58:54Z</time></trkpt><trkpt lat="46.022516271904394" lon="9.376561986611632"><ele>672.0</ele><time>2026-04-25T13:59:54.999Z</time></trkpt><trkpt lat="46.02248187377624" lon="9.376641534124905"><ele>672.0</ele><time>2026-04-25T14:00:03.999Z</time></trkpt><trkpt lat="46.02241838696352" lon="9.376691436810509"><ele>672.0</ele><time>2026-04-25T14:00:07.999Z</time></trkpt><trkpt lat="46.02233840767749" lon="9.376691549708426"><ele>672.0</ele><time>2026-04-25T14:00:10.999Z</time></trkpt><trkpt lat="46.022249064899505" lon="9.376650564335044"><ele>672.0</ele><time>2026-04-25T14:00:13.999Z</time></trkpt><trkpt lat="46.02217508883252" lon="9.37662762355752"><ele>672.0</ele><time>2026-04-25T14:00:15.999Z</time></trkpt><trkpt lat="46.022062113516405" lon="9.376683496941178"><ele>672.0</ele><time>2026-04-25T14:00:18Z</time></trkpt><trkpt lat="46.02200214155846" lon="9.376734768703406"><ele>672.0</ele><time>2026-04-25T14:00:19Z</time></trkpt><trkpt lat="46.02193807872849" lon="9.376811501470245"><ele>672.0</ele><time>2026-04-25T14:00:20Z</time></trkpt><trkpt lat="46.021841642883324" lon="9.376896134857628"><ele>672.0</ele><time>2026-04-25T14:00:22Z</time></trkpt><trkpt lat="46.02178566511" lon="9.376967510973762"><ele>672.0</ele><time>2026-04-25T14:00:23Z</time></trkpt><trkpt lat="46.02170529810907" lon="9.377066299078983"><ele>672.0</ele><time>2026-04-25T14:00:25Z</time></trkpt><trkpt lat="46.02164666296973" lon="9.377145820685707"><ele>672.0</ele><time>2026-04-25T14:00:27Z</time></trkpt><trkpt lat="46.02157454835579" lon="9.3771977718495"><ele>672.0</ele><time>2026-04-25T14:00:29Z</time></trkpt><trkpt lat="46.02147487177756" lon="9.377248855828434"><ele>672.0</ele><time>2026-04-25T14:00:31Z</time></trkpt><trkpt lat="46.02141358700119" lon="9.377281029191805"><ele>674.4000000000001</ele><time>2026-04-25T14:00:32Z</time></trkpt><trkpt lat="46.02130238733154" lon="9.377299676005867"><ele>676.8000000000001</ele><time>2026-04-25T14:00:34Z</time></trkpt><trkpt lat="46.02120404092886" lon="9.377312692515837"><ele>679.2</ele><time>2026-04-25T14:00:36Z</time></trkpt><trkpt lat="46.02113982546988" lon="9.377292013901165"><ele>681.6</ele><time>2026-04-25T14:00:38Z</time></trkpt><trkpt lat="46.02102680782443" lon="9.377261219906652"><ele>684.0</ele><time>2026-04-25T14:00:51Z</time></trkpt><trkpt lat="46.02093138112804" lon="9.377213436107548"><ele>684.0</ele><time>2026-04-25T14:00:53Z</time></trkpt><trkpt lat="46.02085051858206" lon="9.377207412057277"><ele>684.0</ele><time>2026-04-25T14:00:55Z</time></trkpt><trkpt lat="46.020774661409874" lon="9.377236717232279"><ele>684.0</ele><time>2026-04-25T14:00:58Z</time></trkpt><trkpt lat="46.02072690442637" lon="9.377340392725374"><ele>684.0</ele><time>2026-04-25T14:01:01Z</time></trkpt><trkpt lat="46.02072550310428" lon="9.377445597843193"><ele>684.0</ele><time>2026-04-25T14:01:02Z</time></trkpt><trkpt lat="46.020662440702765" lon="9.377513348441008"><ele>684.0</ele><time>2026-04-25T14:01:04Z</time></trkpt><trkpt lat="46.02058195052685" lon="9.37760993458106"><ele>681.4000000000001</ele><time>2026-04-25T14:01:06Z</time></trkpt><trkpt lat="46.020488154398315" lon="9.377676330931793"><ele>678.8</ele><time>2026-04-25T14:01:08Z</time></trkpt><trkpt lat="46.020422361363565" lon="9.377720634618226"><ele>676.2</ele><time>2026-04-25T14:01:11Z</time></trkpt><trkpt lat="46.02028434876398" lon="9.377825128487267"><ele>673.5999999999999</ele><time>2026-04-25T14:01:12Z</time></trkpt><trkpt lat="46.020230267575286" lon="9.377873148408069"><ele>671.0</ele><time>2026-04-25T14:01:13Z</time></trkpt><trkpt lat="46.020130239886036" lon="9.377957468524372"><ele>674.0</ele><time>2026-04-25T14:01:15Z</time></trkpt><trkpt lat="46.02006514314809" lon="9.37802921614166"><ele>677.0</ele><time>2026-04-25T14:01:17Z</time></trkpt><trkpt lat="46.020015922952645" lon="9.378088684537419"><ele>680.0</ele><time>2026-04-25T14:01:20Z</time></trkpt><trkpt lat="46.019948503740196" lon="9.378144602223074"><ele>683.0</ele><time>2026-04-25T14:01:22Z</time></trkpt><trkpt lat="46.01985940176944" lon="9.37822965018328"><ele>686.0</ele><time>2026-04-25T14:01:25Z</time></trkpt><trkpt lat="46.019788676228245" lon="9.378280220251177"><ele>689.0</ele><time>2026-04-25T14:01:28Z</time></trkpt><trkpt lat="46.019694205681475" lon="9.37828613649963"><ele>689.0</ele><time>2026-04-25T14:01:32Z</time></trkpt><trkpt lat="46.019602241269794" lon="9.378283532642358"><ele>689.0</ele><time>2026-04-25T14:01:36Z</time></trkpt><trkpt lat="46.01952310354203" lon="9.378288571475121"><ele>689.0</ele><time>2026-04-25T14:01:39Z</time></trkpt><trkpt lat="46.01942057365227" lon="9.378364428226803"><ele>689.0</ele><time>2026-04-25T14:01:41Z</time></trkpt><trkpt lat="46.019344330955875" lon="9.378402079735912"><ele>689.0</ele><time>2026-04-25T14:01:43Z</time></trkpt><trkpt lat="46.01926940031702" lon="9.378417481524204"><ele>689.0</ele><time>2026-04-25T14:01:45Z</time></trkpt><trkpt lat="46.01916964714615" lon="9.378403957382842"><ele>688.6666666666666</ele><time>2026-04-25T14:01:48Z</time></trkpt><trkpt lat="46.01910442827673" lon="9.378408535712467"><ele>688.3333333333333</ele><time>2026-04-25T14:01:49.999Z</time></trkpt><trkpt lat="46.019014990585916" lon="9.37841666090007"><ele>688.0</ele><time>2026-04-25T14:01:52.999Z</time></trkpt><trkpt lat="46.01893319226601" lon="9.378443336791635"><ele>687.6666666666666</ele><time>2026-04-25T14:01:55.999Z</time></trkpt><trkpt lat="46.01887417218411" lon="9.3785289501604"><ele>687.3333333333334</ele><time>2026-04-25T14:01:58.999Z</time></trkpt><trkpt lat="46.018815508393935" lon="9.378603213218108"><ele>687.0</ele><time>2026-04-25T14:02:00.999Z</time></trkpt><trkpt lat="46.01873832605301" lon="9.378618814985318"><ele>687.0</ele><time>2026-04-25T14:02:02.999Z</time></trkpt><trkpt lat="46.01863779225504" lon="9.3786773707582"><ele>687.0</ele><time>2026-04-25T14:02:05.999Z</time></trkpt><trkpt lat="46.0185073700376" lon="9.378706273194949"><ele>687.0</ele><time>2026-04-25T14:02:07.999Z</time></trkpt><trkpt lat="46.01840516274646" lon="9.378738063653234"><ele>687.0</ele><time>2026-04-25T14:02:09.999Z</time></trkpt><trkpt lat="46.01830837126459" lon="9.378748334360342"><ele>687.0</ele><time>2026-04-25T14:02:11.999Z</time></trkpt><trkpt lat="46.0182115277091" lon="9.378749558683268"><ele>685.8333333333334</ele><time>2026-04-25T14:02:14.999Z</time></trkpt><trkpt lat="46.018122719336574" lon="9.378758435874865"><ele>684.6666666666666</ele><time>2026-04-25T14:02:16.999Z</time></trkpt><trkpt lat="46.01801887987679" lon="9.378778504677944"><ele>683.5</ele><time>2026-04-25T14:02:19.999Z</time></trkpt><trkpt lat="46.017933252770774" lon="9.378776708040164"><ele>682.3333333333333</ele><time>2026-04-25T14:02:23Z</time></trkpt><trkpt lat="46.01785921160517" lon="9.378819597684128"><ele>681.1666666666666</ele><time>2026-04-25T14:02:26Z</time></trkpt><trkpt lat="46.017778944317136" lon="9.378804003795493"><ele>680.0</ele><time>2026-04-25T14:02:28Z</time></trkpt><trkpt lat="46.01767581459642" lon="9.378799968467934"><ele>680.0</ele><time>2026-04-25T14:02:30Z</time></trkpt><trkpt lat="46.01760955947305" lon="9.378834057594696"><ele>680.0</ele><time>2026-04-25T14:02:32Z</time></trkpt><trkpt lat="46.017454654713475" lon="9.378900192691935"><ele>680.0</ele><time>2026-04-25T14:02:34Z</time></trkpt><trkpt lat="46.017391061130716" lon="9.378970778691524"><ele>680.0</ele><time>2026-04-25T14:02:35Z</time></trkpt><trkpt lat="46.017231413101506" lon="9.378972425949124"><ele>680.8333333333333</ele><time>2026-04-25T14:02:36Z</time></trkpt><trkpt lat="46.01716849181799" lon="9.37902001114364"><ele>681.6666666666666</ele><time>2026-04-25T14:02:38Z</time></trkpt><trkpt lat="46.01710300628019" lon="9.37909508165293"><ele>682.5</ele><time>2026-04-25T14:02:40Z</time></trkpt><trkpt lat="46.01704918748497" lon="9.379164401489948"><ele>683.3333333333334</ele><time>2026-04-25T14:02:42Z</time></trkpt><trkpt lat="46.016999743276" lon="9.379265496905212"><ele>684.1666666666667</ele><time>2026-04-25T14:02:45Z</time></trkpt><trkpt lat="46.01694919135777" lon="9.379331601194755"><ele>685.0</ele><time>2026-04-25T14:02:47Z</time></trkpt><trkpt lat="46.01690343945838" lon="9.379413413557797"><ele>685.0</ele><time>2026-04-25T14:02:49Z</time></trkpt><trkpt lat="46.01685098575501" lon="9.379501548562576"><ele>685.0</ele><time>2026-04-25T14:02:51Z</time></trkpt><trkpt lat="46.01680543778311" lon="9.379612305847587"><ele>685.0</ele><time>2026-04-25T14:02:53Z</time></trkpt><trkpt lat="46.01673907915093" lon="9.379731925408484"><ele>685.0</ele><time>2026-04-25T14:02:56Z</time></trkpt><trkpt lat="46.01666751233759" lon="9.379843428106062"><ele>685.0</ele><time>2026-04-25T14:02:59Z</time></trkpt><trkpt lat="46.0165689077206" lon="9.379901105656835"><ele>684.1666666666667</ele><time>2026-04-25T14:03:01Z</time></trkpt><trkpt lat="46.01651529274159" lon="9.379950344327819"><ele>683.3333333333334</ele><time>2026-04-25T14:03:02Z</time></trkpt><trkpt lat="46.01643834655638" lon="9.380043518558896"><ele>682.5</ele><time>2026-04-25T14:03:04Z</time></trkpt><trkpt lat="46.01634633767087" lon="9.380074320545338"><ele>681.6666666666666</ele><time>2026-04-25T14:03:06Z</time></trkpt><trkpt lat="46.01625140393259" lon="9.38016008007504"><ele>680.8333333333333</ele><time>2026-04-25T14:03:08Z</time></trkpt><trkpt lat="46.01619002914574" lon="9.38022046658534"><ele>680.0</ele><time>2026-04-25T14:03:09Z</time></trkpt><trkpt lat="46.016128792144094" lon="9.380255509046759"><ele>680.0</ele><time>2026-04-25T14:03:10Z</time></trkpt><trkpt lat="46.01603109416336" lon="9.380310131498753"><ele>680.0</ele><time>2026-04-25T14:03:12Z</time></trkpt><trkpt lat="46.01596293814973" lon="9.38036810614672"><ele>680.0</ele><time>2026-04-25T14:03:13Z</time></trkpt><trkpt lat="46.01589187854693" lon="9.380427141719608"><ele>680.0</ele><time>2026-04-25T14:03:14Z</time></trkpt><trkpt lat="46.01583162703855" lon="9.380468225131784"><ele>680.0</ele><time>2026-04-25T14:03:15Z</time></trkpt><trkpt lat="46.01574006282377" lon="9.380533525266678"><ele>680.0</ele><time>2026-04-25T14:03:17Z</time></trkpt><trkpt lat="46.01566740849174" lon="9.380630724981529"><ele>680.5</ele><time>2026-04-25T14:03:19Z</time></trkpt><trkpt lat="46.015585356248" lon="9.380740670079017"><ele>681.0</ele><time>2026-04-25T14:03:21Z</time></trkpt><trkpt lat="46.0155340965952" lon="9.380815967065129"><ele>681.5</ele><time>2026-04-25T14:03:23Z</time></trkpt><trkpt lat="46.015499613371766" lon="9.380897431302413"><ele>682.0</ele><time>2026-04-25T14:03:25Z</time></trkpt><trkpt lat="46.015463828799206" lon="9.38103781222494"><ele>682.5</ele><time>2026-04-25T14:03:29Z</time></trkpt><trkpt lat="46.01544145906655" lon="9.381159295834218"><ele>683.0</ele><time>2026-04-25T14:03:31Z</time></trkpt><trkpt lat="46.01538138188718" lon="9.381235514124313"><ele>683.0</ele><time>2026-04-25T14:03:34Z</time></trkpt><trkpt lat="46.01532156929215" lon="9.381278532434145"><ele>683.0</ele><time>2026-04-25T14:03:36Z</time></trkpt><trkpt lat="46.015236478966855" lon="9.381315095608553"><ele>683.0</ele><time>2026-04-25T14:03:38Z</time></trkpt><trkpt lat="46.01516796933529" lon="9.38137653674341"><ele>683.0</ele><time>2026-04-25T14:03:40Z</time></trkpt><trkpt lat="46.015126664525305" lon="9.381455222905322"><ele>683.0</ele><time>2026-04-25T14:03:42Z</time></trkpt><trkpt lat="46.015099044392144" lon="9.381544300084972"><ele>683.0</ele><time>2026-04-25T14:03:45Z</time></trkpt><trkpt lat="46.01506283216954" lon="9.381652078009052"><ele>682.2</ele><time>2026-04-25T14:03:47.999Z</time></trkpt><trkpt lat="46.01498617081098" lon="9.38172339653853"><ele>681.4</ele><time>2026-04-25T14:03:50.999Z</time></trkpt><trkpt lat="46.01488137296189" lon="9.381738588761634"><ele>680.6</ele><time>2026-04-25T14:03:52.999Z</time></trkpt><trkpt lat="46.014807108471935" lon="9.381813665670583"><ele>679.8000000000001</ele><time>2026-04-25T14:03:54.999Z</time></trkpt><trkpt lat="46.01477175761659" lon="9.381909611602927"><ele>679.0</ele><time>2026-04-25T14:03:56.999Z</time></trkpt><trkpt lat="46.01471147057017" lon="9.382014346956204"><ele>679.0</ele><time>2026-04-25T14:03:58.999Z</time></trkpt><trkpt lat="46.01462214249239" lon="9.382103051014083"><ele>679.0</ele><time>2026-04-25T14:04:00.999Z</time></trkpt><trkpt lat="46.01455339266695" lon="9.382203457680697"><ele>679.0</ele><time>2026-04-25T14:04:02.999Z</time></trkpt><trkpt lat="46.0145068091117" lon="9.382318687527507"><ele>679.0</ele><time>2026-04-25T14:04:04.999Z</time></trkpt><trkpt lat="46.014438495296254" lon="9.382391254747025"><ele>679.0</ele><time>2026-04-25T14:04:06.999Z</time></trkpt><trkpt lat="46.014357688804544" lon="9.382447519615472"><ele>676.8333333333334</ele><time>2026-04-25T14:04:08.999Z</time></trkpt><trkpt lat="46.01427835955077" lon="9.382521477791993"><ele>674.6666666666667</ele><time>2026-04-25T14:04:10.999Z</time></trkpt><trkpt lat="46.01417881400899" lon="9.382590239661717"><ele>672.5</ele><time>2026-04-25T14:04:12.999Z</time></trkpt><trkpt lat="46.014148749583114" lon="9.382672589912142"><ele>670.3333333333334</ele><time>2026-04-25T14:04:15.999Z</time></trkpt><trkpt lat="46.014106191368754" lon="9.382767551702143"><ele>668.1666666666666</ele><time>2026-04-25T14:04:18.999Z</time></trkpt><trkpt lat="46.014064520132585" lon="9.382836278998507"><ele>666.0</ele><time>2026-04-25T14:04:20.999Z</time></trkpt><trkpt lat="46.01399893743958" lon="9.382933366901987"><ele>666.0</ele><time>2026-04-25T14:04:23.999Z</time></trkpt><trkpt lat="46.013947852573956" lon="9.38300135215673"><ele>666.0</ele><time>2026-04-25T14:04:25.999Z</time></trkpt><trkpt lat="46.013920963339146" lon="9.383117466367258"><ele>666.0</ele><time>2026-04-25T14:04:27.999Z</time></trkpt><trkpt lat="46.01385979793568" lon="9.383147923586346"><ele>666.0</ele><time>2026-04-25T14:04:30Z</time></trkpt><trkpt lat="46.013823301295204" lon="9.383264844096898"><ele>666.0</ele><time>2026-04-25T14:04:32Z</time></trkpt><trkpt lat="46.01373973913662" lon="9.383389141009431"><ele>666.0</ele><time>2026-04-25T14:04:34Z</time></trkpt><trkpt lat="46.013696280264575" lon="9.383480355938618"><ele>669.6666666666666</ele><time>2026-04-25T14:04:35Z</time></trkpt><trkpt lat="46.01365039448989" lon="9.383605423371346"><ele>673.3333333333334</ele><time>2026-04-25T14:04:37Z</time></trkpt><trkpt lat="46.013587346696774" lon="9.383655780105478"><ele>677.0</ele><time>2026-04-25T14:04:42Z</time></trkpt><trkpt lat="46.01365080956191" lon="9.38360823583246"><ele>680.6666666666667</ele><time>2026-04-25T14:05:43Z</time></trkpt><trkpt lat="46.013701990755166" lon="9.38353248883722"><ele>684.3333333333334</ele><time>2026-04-25T14:05:52Z</time></trkpt><trkpt lat="46.013753985022596" lon="9.38345569303865"><ele>688.0</ele><time>2026-04-25T14:07:33Z</time></trkpt><trkpt lat="46.01379791962794" lon="9.3833652684584"><ele>688.0</ele><time>2026-04-25T14:07:37Z</time></trkpt><trkpt lat="46.01383544861056" lon="9.383277829981898"><ele>688.0</ele><time>2026-04-25T14:07:41Z</time></trkpt><trkpt lat="46.013881598049295" lon="9.383167849156733"><ele>688.0</ele><time>2026-04-25T14:07:45Z</time></trkpt><trkpt lat="46.013948263273875" lon="9.383065211545249"><ele>688.0</ele><time>2026-04-25T14:07:46Z</time></trkpt><trkpt lat="46.014003050498665" lon="9.38298828169256"><ele>688.0</ele><time>2026-04-25T14:07:47Z</time></trkpt><trkpt lat="46.01407802579168" lon="9.382899389731364"><ele>688.0</ele><time>2026-04-25T14:07:49Z</time></trkpt><trkpt lat="46.01412463169886" lon="9.382831776485476"><ele>689.6666666666667</ele><time>2026-04-25T14:07:50Z</time></trkpt><trkpt lat="46.01419938074446" lon="9.382762358112215"><ele>691.3333333333334</ele><time>2026-04-25T14:07:52Z</time></trkpt><trkpt lat="46.01426077966246" lon="9.382693428540414"><ele>693.0</ele><time>2026-04-25T14:07:54Z</time></trkpt><trkpt lat="46.01432043740844" lon="9.382641790736322"><ele>694.6666666666666</ele><time>2026-04-25T14:07:57Z</time></trkpt><trkpt lat="46.01437589700118" lon="9.382577894000269"><ele>696.3333333333333</ele><time>2026-04-25T14:07:59Z</time></trkpt><trkpt lat="46.01442652526004" lon="9.382489330558085"><ele>698.0</ele><time>2026-04-25T14:08:01.999Z</time></trkpt><trkpt lat="46.01446104281572" lon="9.382413094232982"><ele>697.9999999999999</ele><time>2026-04-25T14:08:03.999Z</time></trkpt><trkpt lat="46.014516417801715" lon="9.382342316259804"><ele>698.0</ele><time>2026-04-25T14:08:06.999Z</time></trkpt><trkpt lat="46.01455577422937" lon="9.38227051613598"><ele>698.0</ele><time>2026-04-25T14:08:09.999Z</time></trkpt><trkpt lat="46.014611153756526" lon="9.38220649422484"><ele>698.0</ele><time>2026-04-25T14:08:12.999Z</time></trkpt><trkpt lat="46.01465554848311" lon="9.382140838471514"><ele>698.0</ele><time>2026-04-25T14:08:15.999Z</time></trkpt><trkpt lat="46.0147090547594" lon="9.38208860997515"><ele>697.9999999999999</ele><time>2026-04-25T14:08:17.999Z</time></trkpt><trkpt lat="46.01480440772267" lon="9.382043609419574"><ele>698.0</ele><time>2026-04-25T14:08:20.999Z</time></trkpt><trkpt lat="46.01485572928263" lon="9.38197502040844"><ele>699.5</ele><time>2026-04-25T14:08:23.999Z</time></trkpt><trkpt lat="46.014899191707975" lon="9.381880044697299"><ele>701.0</ele><time>2026-04-25T14:08:26.999Z</time></trkpt><trkpt lat="46.01495635714631" lon="9.38180949847985"><ele>702.5</ele><time>2026-04-25T14:08:29.999Z</time></trkpt><trkpt lat="46.015011698652565" lon="9.381735671633862"><ele>704.0</ele><time>2026-04-25T14:08:32.999Z</time></trkpt><trkpt lat="46.01534747883365" lon="9.381307964994175"><ele>700.5</ele><time>2026-04-25T14:08:36.999Z</time></trkpt><trkpt lat="46.01540957914221" lon="9.381203670753404"><ele>697.0</ele><time>2026-04-25T14:08:38.999Z</time></trkpt><trkpt lat="46.01545825755449" lon="9.381068314062514"><ele>693.5</ele><time>2026-04-25T14:08:41Z</time></trkpt><trkpt lat="46.01549387086189" lon="9.38098342735168"><ele>690.0</ele><time>2026-04-25T14:08:43Z</time></trkpt><trkpt lat="46.01552830354837" lon="9.38089141813756"><ele>686.5</ele><time>2026-04-25T14:08:46Z</time></trkpt><trkpt lat="46.015596226153974" lon="9.380813178218686"><ele>683.0</ele><time>2026-04-25T14:08:49Z</time></trkpt><trkpt lat="46.01565805202578" lon="9.380750480902842"><ele>683.0</ele><time>2026-04-25T14:08:51Z</time></trkpt><trkpt lat="46.015778994522684" lon="9.38067455416228"><ele>683.0</ele><time>2026-04-25T14:08:53Z</time></trkpt><trkpt lat="46.01584162003689" lon="9.380636827742473"><ele>683.0</ele><time>2026-04-25T14:08:54Z</time></trkpt><trkpt lat="46.01594628840902" lon="9.380566112984479"><ele>683.0</ele><time>2026-04-25T14:08:56Z</time></trkpt><trkpt lat="46.01603060251273" lon="9.380542504198056"><ele>683.0</ele><time>2026-04-25T14:08:58Z</time></trkpt><trkpt lat="46.016003220786615" lon="9.380632286288465"><ele>682.5714285714286</ele><time>2026-04-25T14:08:59Z</time></trkpt><trkpt lat="46.01606302421381" lon="9.380598637091595"><ele>682.1428571428571</ele><time>2026-04-25T14:09:00Z</time></trkpt><trkpt lat="46.016130488482496" lon="9.380568781895708"><ele>681.7142857142858</ele><time>2026-04-25T14:09:01Z</time></trkpt><trkpt lat="46.016195290439526" lon="9.380560112131135"><ele>681.2857142857142</ele><time>2026-04-25T14:09:02Z</time></trkpt><trkpt lat="46.01627267256989" lon="9.38055129605445"><ele>680.8571428571428</ele><time>2026-04-25T14:09:03Z</time></trkpt><trkpt lat="46.016349514755625" lon="9.380531368064691"><ele>680.4285714285714</ele><time>2026-04-25T14:09:04Z</time></trkpt><trkpt lat="46.016421394669536" lon="9.380518874069748"><ele>680.0</ele><time>2026-04-25T14:09:05Z</time></trkpt><trkpt lat="46.0164885070658" lon="9.380504904998428"><ele>680.0</ele><time>2026-04-25T14:09:06Z</time></trkpt><trkpt lat="46.016600829910836" lon="9.380486948695467"><ele>680.0</ele><time>2026-04-25T14:09:08Z</time></trkpt><trkpt lat="46.01668228633404" lon="9.380475024371073"><ele>680.0</ele><time>2026-04-25T14:09:10Z</time></trkpt><trkpt lat="46.01677097634519" lon="9.380514844658963"><ele>680.0</ele><time>2026-04-25T14:09:12Z</time></trkpt><trkpt lat="46.01684870254997" lon="9.380570997237099"><ele>680.0</ele><time>2026-04-25T14:09:14Z</time></trkpt><trkpt lat="46.01692623380482" lon="9.380669128157008"><ele>688.1666666666666</ele><time>2026-04-25T14:09:16Z</time></trkpt><trkpt lat="46.016982739917864" lon="9.38073900057599"><ele>696.3333333333333</ele><time>2026-04-25T14:09:18Z</time></trkpt><trkpt lat="46.01707628359659" lon="9.380771829505887"><ele>704.5</ele><time>2026-04-25T14:09:20Z</time></trkpt><trkpt lat="46.01713552079087" lon="9.380818772159444"><ele>712.6666666666666</ele><time>2026-04-25T14:09:23Z</time></trkpt><trkpt lat="46.01723337276505" lon="9.38089411515292"><ele>720.8333333333334</ele><time>2026-04-25T14:09:25Z</time></trkpt><trkpt lat="46.01731801553934" lon="9.380939896828254"><ele>729.0</ele><time>2026-04-25T14:09:26Z</time></trkpt><trkpt lat="46.01738667248479" lon="9.380968477302273"><ele>729.0</ele><time>2026-04-25T14:09:27Z</time></trkpt><trkpt lat="46.01744925561494" lon="9.380993014057706"><ele>729.0</ele><time>2026-04-25T14:09:28Z</time></trkpt><trkpt lat="46.0175597792128" lon="9.380978518547066"><ele>729.0</ele><time>2026-04-25T14:09:30Z</time></trkpt><trkpt lat="46.01764406530236" lon="9.380990257599715"><ele>729.0</ele><time>2026-04-25T14:09:32Z</time></trkpt><trkpt lat="46.017697045626996" lon="9.380938425260332"><ele>729.0</ele><time>2026-04-25T14:09:36Z</time></trkpt><trkpt lat="46.01777891467617" lon="9.380894361000705"><ele>729.0</ele><time>2026-04-25T14:09:59Z</time></trkpt><trkpt lat="46.017831324073775" lon="9.380835605207105"><ele>731.5</ele><time>2026-04-25T14:10:08.999Z</time></trkpt><trkpt lat="46.01790366342825" lon="9.380805607078967"><ele>734.0</ele><time>2026-04-25T14:10:32.999Z</time></trkpt><trkpt lat="46.01796188194022" lon="9.38074750570157"><ele>736.5</ele><time>2026-04-25T14:10:35.999Z</time></trkpt><trkpt lat="46.018015764704" lon="9.38069689974438"><ele>739.0</ele><time>2026-04-25T14:10:37.999Z</time></trkpt><trkpt lat="46.01807633295855" lon="9.380637049157057"><ele>741.5</ele><time>2026-04-25T14:10:39.999Z</time></trkpt><trkpt lat="46.018159997887864" lon="9.380589927883424"><ele>744.0</ele><time>2026-04-25T14:10:43.999Z</time></trkpt><trkpt lat="46.01826015453021" lon="9.380566709480055"><ele>743.6666666666666</ele><time>2026-04-25T14:10:45.999Z</time></trkpt><trkpt lat="46.018343030864735" lon="9.380519428573521"><ele>743.3333333333334</ele><time>2026-04-25T14:10:48Z</time></trkpt><trkpt lat="46.0184096625138" lon="9.380466037794138"><ele>743.0</ele><time>2026-04-25T14:10:50Z</time></trkpt><trkpt lat="46.018475482182716" lon="9.380465722094527"><ele>742.6666666666667</ele><time>2026-04-25T14:10:51Z</time></trkpt><trkpt lat="46.018563324235835" lon="9.380470589911091"><ele>742.3333333333334</ele><time>2026-04-25T14:10:53Z</time></trkpt><trkpt lat="46.01863839547518" lon="9.380485994313188"><ele>742.0</ele><time>2026-04-25T14:10:55Z</time></trkpt><trkpt lat="46.018714216757076" lon="9.380573036508267"><ele>745.8</ele><time>2026-04-25T14:10:57Z</time></trkpt><trkpt lat="46.01882014387374" lon="9.38057186020039"><ele>749.6</ele><time>2026-04-25T14:10:59Z</time></trkpt><trkpt lat="46.01893040435942" lon="9.380603967234382"><ele>753.4</ele><time>2026-04-25T14:11:01Z</time></trkpt><trkpt lat="46.01899903953304" lon="9.380643310854063"><ele>757.1999999999999</ele><time>2026-04-25T14:11:02Z</time></trkpt><trkpt lat="46.01909012713451" lon="9.380670242571579"><ele>761.0</ele><time>2026-04-25T14:11:03Z</time></trkpt><trkpt lat="46.0191778136549" lon="9.380696392001742"><ele>761.0</ele><time>2026-04-25T14:11:04Z</time></trkpt><trkpt lat="46.01925379016341" lon="9.380744972001665"><ele>761.0</ele><time>2026-04-25T14:11:05Z</time></trkpt><trkpt lat="46.01932810416767" lon="9.380774744432916"><ele>761.0</ele><time>2026-04-25T14:11:06Z</time></trkpt><trkpt lat="46.01940118262831" lon="9.380798302965806"><ele>761.0</ele><time>2026-04-25T14:11:07Z</time></trkpt><trkpt lat="46.01946821553258" lon="9.380809331232971"><ele>761.0</ele><time>2026-04-25T14:11:08Z</time></trkpt><trkpt lat="46.01956333815275" lon="9.380871973096301"><ele>761.0</ele><time>2026-04-25T14:11:10Z</time></trkpt><trkpt lat="46.0196386584148" lon="9.380926321832124"><ele>761.0</ele><time>2026-04-25T14:11:12Z</time></trkpt><trkpt lat="46.0197259497807" lon="9.380894403116756"><ele>761.0</ele><time>2026-04-25T14:11:14Z</time></trkpt><trkpt lat="46.019806023923515" lon="9.38089834928661"><ele>761.0</ele><time>2026-04-25T14:11:16Z</time></trkpt><trkpt lat="46.01987818464223" lon="9.380937633846337"><ele>761.0</ele><time>2026-04-25T14:11:18Z</time></trkpt><trkpt lat="46.01994095630228" lon="9.380969906668037"><ele>761.0</ele><time>2026-04-25T14:11:20Z</time></trkpt><trkpt lat="46.02001425204449" lon="9.38094249540485"><ele>761.0</ele><time>2026-04-25T14:11:22Z</time></trkpt><trkpt lat="46.0200843864869" lon="9.380888613941517"><ele>759.5999999999999</ele><time>2026-04-25T14:11:24Z</time></trkpt><trkpt lat="46.020200726365616" lon="9.380883524846665"><ele>758.2</ele><time>2026-04-25T14:11:26Z</time></trkpt><trkpt lat="46.02028341135236" lon="9.380898333447666"><ele>756.8</ele><time>2026-04-25T14:11:28Z</time></trkpt><trkpt lat="46.02036509328414" lon="9.380931894909088"><ele>755.4000000000001</ele><time>2026-04-25T14:11:30Z</time></trkpt><trkpt lat="46.0204491285316" lon="9.380966506382732"><ele>754.0</ele><time>2026-04-25T14:11:32Z</time></trkpt><trkpt lat="46.02054052182254" lon="9.381006426194057"><ele>754.0</ele><time>2026-04-25T14:11:34Z</time></trkpt><trkpt lat="46.020636423339546" lon="9.381047840321754"><ele>754.0</ele><time>2026-04-25T14:11:36Z</time></trkpt><trkpt lat="46.0207310123069" lon="9.38100936225454"><ele>754.0</ele><time>2026-04-25T14:11:38Z</time></trkpt><trkpt lat="46.020834638702965" lon="9.380895099672115"><ele>754.0</ele><time>2026-04-25T14:11:40Z</time></trkpt><trkpt lat="46.02089684332495" lon="9.3808269642985"><ele>754.0</ele><time>2026-04-25T14:11:41Z</time></trkpt><trkpt lat="46.02096474735382" lon="9.380769121790854"><ele>752.5</ele><time>2026-04-25T14:11:42Z</time></trkpt><trkpt lat="46.02103285639763" lon="9.380715582083093"><ele>751.0</ele><time>2026-04-25T14:11:43Z</time></trkpt><trkpt lat="46.02111042203348" lon="9.380661507822827"><ele>749.5</ele><time>2026-04-25T14:11:44Z</time></trkpt><trkpt lat="46.021191065022805" lon="9.380600352320753"><ele>748.0</ele><time>2026-04-25T14:11:45Z</time></trkpt><trkpt lat="46.021247871975945" lon="9.380560980478792"><ele>746.5</ele><time>2026-04-25T14:11:46Z</time></trkpt><trkpt lat="46.021304433153055" lon="9.38050558708847"><ele>745.0</ele><time>2026-04-25T14:11:47Z</time></trkpt><trkpt lat="46.0213639687944" lon="9.380434496171997"><ele>745.0</ele><time>2026-04-25T14:11:48Z</time></trkpt><trkpt lat="46.02142219171962" lon="9.380356381377334"><ele>745.0</ele><time>2026-04-25T14:11:49Z</time></trkpt><trkpt lat="46.021489048266865" lon="9.380256061016848"><ele>745.0</ele><time>2026-04-25T14:11:50Z</time></trkpt><trkpt lat="46.021563777561134" lon="9.380127458898652"><ele>745.0</ele><time>2026-04-25T14:11:51Z</time></trkpt><trkpt lat="46.02164407679725" lon="9.380002193109524"><ele>745.0</ele><time>2026-04-25T14:11:52Z</time></trkpt><trkpt lat="46.021704045647674" lon="9.37990212290102"><ele>745.6</ele><time>2026-04-25T14:11:53Z</time></trkpt><trkpt lat="46.02178471673138" lon="9.37980755587987"><ele>746.2</ele><time>2026-04-25T14:11:54Z</time></trkpt><trkpt lat="46.0218653374072" lon="9.379715446351415"><ele>746.8</ele><time>2026-04-25T14:11:55Z</time></trkpt><trkpt lat="46.02193516817822" lon="9.379616214138037"><ele>747.4</ele><time>2026-04-25T14:11:56Z</time></trkpt><trkpt lat="46.02200923585614" lon="9.379531203495203"><ele>748.0</ele><time>2026-04-25T14:11:57Z</time></trkpt><trkpt lat="46.02205652965842" lon="9.379445407340402"><ele>748.0</ele><time>2026-04-25T14:11:58Z</time></trkpt><trkpt lat="46.022092545978474" lon="9.379349117974247"><ele>748.0</ele><time>2026-04-25T14:11:59Z</time></trkpt><trkpt lat="46.022128678130635" lon="9.379243098005203"><ele>748.0</ele><time>2026-04-25T14:12:00Z</time></trkpt><trkpt lat="46.022158767564754" lon="9.379159733909376"><ele>748.0</ele><time>2026-04-25T14:12:01Z</time></trkpt><trkpt lat="46.022201689165044" lon="9.37908765020946"><ele>748.0</ele><time>2026-04-25T14:12:02Z</time></trkpt><trkpt lat="46.022255596887234" lon="9.379033456939194"><ele>748.0</ele><time>2026-04-25T14:12:02.999Z</time></trkpt><trkpt lat="46.02232761303483" lon="9.379024032709468"><ele>748.0</ele><time>2026-04-25T14:12:05.999Z</time></trkpt><trkpt lat="46.02221866863717" lon="9.379079218039566"><ele>748.0</ele><time>2026-04-25T14:12:09.999Z</time></trkpt><trkpt lat="46.02217727230336" lon="9.37915679853811"><ele>748.0</ele><time>2026-04-25T14:12:10.999Z</time></trkpt><trkpt lat="46.02219786787696" lon="9.379268906943663"><ele>748.0</ele><time>2026-04-25T14:12:11.999Z</time></trkpt><trkpt lat="46.022216017826196" lon="9.379396170992043"><ele>748.0</ele><time>2026-04-25T14:12:12.999Z</time></trkpt><trkpt lat="46.02223444601536" lon="9.379500144177742"><ele>748.0</ele><time>2026-04-25T14:12:13.999Z</time></trkpt><trkpt lat="46.02221939126862" lon="9.379617989330608"><ele>748.0</ele><time>2026-04-25T14:12:15.999Z</time></trkpt><trkpt lat="46.02210667276816" lon="9.379749343976972"><ele>753.25</ele><time>2026-04-25T14:12:17.999Z</time></trkpt><trkpt lat="46.02202214997633" lon="9.379881429284946"><ele>758.5</ele><time>2026-04-25T14:12:18.999Z</time></trkpt><trkpt lat="46.02192837246318" lon="9.380034693779272"><ele>763.75</ele><time>2026-04-25T14:12:19.999Z</time></trkpt><trkpt lat="46.02185201933361" lon="9.380165226487394"><ele>769.0</ele><time>2026-04-25T14:12:20.999Z</time></trkpt><trkpt lat="46.021779219916745" lon="9.380269072970476"><ele>769.0</ele><time>2026-04-25T14:12:21.999Z</time></trkpt><trkpt lat="46.02171757198962" lon="9.380377558779653"><ele>769.0</ele><time>2026-04-25T14:12:22.999Z</time></trkpt><trkpt lat="46.02166309936797" lon="9.380521945606091"><ele>769.0</ele><time>2026-04-25T14:12:23.999Z</time></trkpt><trkpt lat="46.021607620025264" lon="9.38071936258748"><ele>769.0</ele><time>2026-04-25T14:12:24.999Z</time></trkpt><trkpt lat="46.02153081883165" lon="9.380932598603732"><ele>768.4000000000001</ele><time>2026-04-25T14:12:25.999Z</time></trkpt><trkpt lat="46.021460926812395" lon="9.38110167983742"><ele>767.8</ele><time>2026-04-25T14:12:26.999Z</time></trkpt><trkpt lat="46.02140037300703" lon="9.381210453733631"><ele>767.2</ele><time>2026-04-25T14:12:27.999Z</time></trkpt><trkpt lat="46.021340663392344" lon="9.381321942238712"><ele>766.5999999999999</ele><time>2026-04-25T14:12:28.999Z</time></trkpt><trkpt lat="46.021280995083394" lon="9.381395200337591"><ele>766.0</ele><time>2026-04-25T14:12:29.999Z</time></trkpt><trkpt lat="46.021224439333686" lon="9.381515179000798"><ele>770.1999999999999</ele><time>2026-04-25T14:12:31.999Z</time></trkpt><trkpt lat="46.02129209986807" lon="9.3816572677937"><ele>774.4</ele><time>2026-04-25T14:12:33.999Z</time></trkpt><trkpt lat="46.02139432819144" lon="9.381589772537142"><ele>778.6</ele><time>2026-04-25T14:12:34.999Z</time></trkpt><trkpt lat="46.02149862875589" lon="9.38157945524394"><ele>782.8</ele><time>2026-04-25T14:12:35.999Z</time></trkpt><trkpt lat="46.02159239199006" lon="9.381552644582838"><ele>787.0</ele><time>2026-04-25T14:12:36.999Z</time></trkpt><trkpt lat="46.02167566986018" lon="9.38152967581354"><ele>787.0</ele><time>2026-04-25T14:12:38.999Z</time></trkpt><trkpt lat="46.02165273599095" lon="9.38166783658835"><ele>787.0</ele><time>2026-04-25T14:12:40.999Z</time></trkpt><trkpt lat="46.02159262198573" lon="9.3817576950552"><ele>787.0</ele><time>2026-04-25T14:12:41.999Z</time></trkpt><trkpt lat="46.02150741612679" lon="9.381857194256419"><ele>787.0</ele><time>2026-04-25T14:12:42.999Z</time></trkpt><trkpt lat="46.02141739400582" lon="9.381964739928394"><ele>787.0</ele><time>2026-04-25T14:12:43.999Z</time></trkpt><trkpt lat="46.02131181895211" lon="9.382060029675609"><ele>787.0</ele><time>2026-04-25T14:12:44.999Z</time></trkpt><trkpt lat="46.02120199837957" lon="9.382166050273481"><ele>787.0</ele><time>2026-04-25T14:12:45.999Z</time></trkpt><trkpt lat="46.02111227153863" lon="9.38223216578818"><ele>787.0</ele><time>2026-04-25T14:12:46.999Z</time></trkpt><trkpt lat="46.021028888790404" lon="9.382311766904563"><ele>787.0</ele><time>2026-04-25T14:12:47.999Z</time></trkpt><trkpt lat="46.02095445960656" lon="9.382380684289013"><ele>787.0</ele><time>2026-04-25T14:12:48.999Z</time></trkpt><trkpt lat="46.02089569533659" lon="9.382423626079019"><ele>789.4000000000001</ele><time>2026-04-25T14:12:49.999Z</time></trkpt><trkpt lat="46.020841252293984" lon="9.382498633821234"><ele>791.8000000000001</ele><time>2026-04-25T14:12:50.999Z</time></trkpt><trkpt lat="46.02081638512504" lon="9.382636999642726"><ele>794.2</ele><time>2026-04-25T14:12:51.999Z</time></trkpt><trkpt lat="46.02081208704382" lon="9.38280866861859"><ele>796.6</ele><time>2026-04-25T14:12:53Z</time></trkpt><trkpt lat="46.02079564010349" lon="9.382966771974052"><ele>799.0</ele><time>2026-04-25T14:12:54Z</time></trkpt><trkpt lat="46.02074938891726" lon="9.383059159360295"><ele>802.3333333333333</ele><time>2026-04-25T14:12:55Z</time></trkpt><trkpt lat="46.02070656560033" lon="9.383129432903505"><ele>805.6666666666666</ele><time>2026-04-25T14:12:56Z</time></trkpt><trkpt lat="46.02068105317499" lon="9.383247508722562"><ele>809.0</ele><time>2026-04-25T14:13:08Z</time></trkpt><trkpt lat="46.02075144829488" lon="9.383323870019092"><ele>812.3333333333333</ele><time>2026-04-25T14:13:10Z</time></trkpt><trkpt lat="46.0208250655882" lon="9.383295659766146"><ele>815.6666666666666</ele><time>2026-04-25T14:13:11Z</time></trkpt><trkpt lat="46.02090819794753" lon="9.38322810146777"><ele>819.0</ele><time>2026-04-25T14:13:12Z</time></trkpt><trkpt lat="46.02099740424034" lon="9.38316953342273"><ele>816.75</ele><time>2026-04-25T14:13:13Z</time></trkpt><trkpt lat="46.0210929532051" lon="9.383109399681514"><ele>814.5</ele><time>2026-04-25T14:13:14Z</time></trkpt><trkpt lat="46.021214878846436" lon="9.383032817939482"><ele>812.25</ele><time>2026-04-25T14:13:15Z</time></trkpt><trkpt lat="46.02134183032486" lon="9.382947021157678"><ele>810.0</ele><time>2026-04-25T14:13:16Z</time></trkpt><trkpt lat="46.02146440441548" lon="9.382852727216344"><ele>810.0</ele><time>2026-04-25T14:13:17Z</time></trkpt><trkpt lat="46.02155939088536" lon="9.38277457548181"><ele>810.0</ele><time>2026-04-25T14:13:18Z</time></trkpt><trkpt lat="46.02164649842109" lon="9.38272043573773"><ele>810.0</ele><time>2026-04-25T14:13:19Z</time></trkpt><trkpt lat="46.02173235730214" lon="9.38267606265556"><ele>810.0</ele><time>2026-04-25T14:13:20Z</time></trkpt><trkpt lat="46.02180683109412" lon="9.382643048901794"><ele>810.0</ele><time>2026-04-25T14:13:21Z</time></trkpt><trkpt lat="46.021868929360394" lon="9.382599834620844"><ele>810.0</ele><time>2026-04-25T14:13:22Z</time></trkpt><trkpt lat="46.02197033325756" lon="9.382524299587924"><ele>809.0</ele><time>2026-04-25T14:13:24Z</time></trkpt><trkpt lat="46.02208461831092" lon="9.382436799870582"><ele>808.0</ele><time>2026-04-25T14:13:26Z</time></trkpt><trkpt lat="46.022166221132466" lon="9.382343875136838"><ele>807.0</ele><time>2026-04-25T14:13:28Z</time></trkpt><trkpt lat="46.02223507259373" lon="9.382274664532021"><ele>806.0</ele><time>2026-04-25T14:13:33Z</time></trkpt><trkpt lat="46.02229310988843" lon="9.38219897207104"><ele>805.0</ele><time>2026-04-25T14:13:34Z</time></trkpt><trkpt lat="46.02234779461613" lon="9.382086790335661"><ele>805.0</ele><time>2026-04-25T14:13:35Z</time></trkpt><trkpt lat="46.02240739476065" lon="9.381965072825755"><ele>805.0</ele><time>2026-04-25T14:13:36Z</time></trkpt><trkpt lat="46.02245734006583" lon="9.38183337950809"><ele>805.0</ele><time>2026-04-25T14:13:37Z</time></trkpt><trkpt lat="46.022502505888134" lon="9.381701760084443"><ele>805.0</ele><time>2026-04-25T14:13:38Z</time></trkpt><trkpt lat="46.02256744233493" lon="9.38163416770323"><ele>805.0</ele><time>2026-04-25T14:13:39Z</time></trkpt><trkpt lat="46.022653474083754" lon="9.381534345675345"><ele>809.4999999999999</ele><time>2026-04-25T14:13:41Z</time></trkpt><trkpt lat="46.02270234432956" lon="9.381616051959293"><ele>814.0</ele><time>2026-04-25T14:13:43Z</time></trkpt><trkpt lat="46.022660246625044" lon="9.381758611461466"><ele>818.5</ele><time>2026-04-25T14:13:45Z</time></trkpt><trkpt lat="46.02260336531622" lon="9.381880406762056"><ele>823.0</ele><time>2026-04-25T14:13:47Z</time></trkpt><trkpt lat="46.02259727289905" lon="9.381972922510796"><ele>827.4999999999999</ele><time>2026-04-25T14:13:48Z</time></trkpt><trkpt lat="46.022573580729734" lon="9.382063826628722"><ele>832.0</ele><time>2026-04-25T14:13:50Z</time></trkpt><trkpt lat="46.02253227527234" lon="9.382152081161749"><ele>831.9999999999999</ele><time>2026-04-25T14:16:39.999Z</time></trkpt><trkpt lat="46.02259152045399" lon="9.382085097810073"><ele>832.0</ele><time>2026-04-25T14:18:57.999Z</time></trkpt><trkpt lat="46.02255899088745" lon="9.382231323201047"><ele>832.0</ele><time>2026-04-25T14:20:25.999Z</time></trkpt><trkpt lat="46.02252370117607" lon="9.38232276209808"><ele>832.0</ele><time>2026-04-25T14:20:26.999Z</time></trkpt><trkpt lat="46.022470408221174" lon="9.382436055935926"><ele>831.9999999999999</ele><time>2026-04-25T14:20:27.999Z</time></trkpt><trkpt lat="46.02240833446923" lon="9.382530131077075"><ele>832.0</ele><time>2026-04-25T14:20:28.999Z</time></trkpt><trkpt lat="46.02235007884637" lon="9.382600691372021"><ele>831.0</ele><time>2026-04-25T14:20:29.999Z</time></trkpt><trkpt lat="46.022287522538484" lon="9.382727038705449"><ele>830.0</ele><time>2026-04-25T14:20:30.999Z</time></trkpt><trkpt lat="46.02223003084563" lon="9.382889551952978"><ele>829.0</ele><time>2026-04-25T14:20:31.999Z</time></trkpt><trkpt lat="46.02216268150442" lon="9.383015575165576"><ele>828.0</ele><time>2026-04-25T14:20:32.999Z</time></trkpt><trkpt lat="46.022064175702674" lon="9.383183401027203"><ele>834.25</ele><time>2026-04-25T14:20:33.999Z</time></trkpt><trkpt lat="46.02197169440031" lon="9.383305570837939"><ele>840.5</ele><time>2026-04-25T14:20:34.999Z</time></trkpt><trkpt lat="46.021879437439694" lon="9.383434412759364"><ele>846.75</ele><time>2026-04-25T14:20:35.999Z</time></trkpt><trkpt lat="46.021791150557036" lon="9.383559336522914"><ele>853.0</ele><time>2026-04-25T14:20:36.999Z</time></trkpt><trkpt lat="46.0216979494023" lon="9.383706237311104"><ele>854.5</ele><time>2026-04-25T14:20:37.999Z</time></trkpt><trkpt lat="46.02161242401469" lon="9.383857621428"><ele>856.0</ele><time>2026-04-25T14:20:38.999Z</time></trkpt><trkpt lat="46.02154068863471" lon="9.383990309185242"><ele>857.5</ele><time>2026-04-25T14:20:39.999Z</time></trkpt><trkpt lat="46.021460965785664" lon="9.384144106308304"><ele>859.0</ele><time>2026-04-25T14:20:40.999Z</time></trkpt><trkpt lat="46.02138290813015" lon="9.384290247967881"><ele>859.0</ele><time>2026-04-25T14:20:41.999Z</time></trkpt><trkpt lat="46.02128787133722" lon="9.384406975952029"><ele>859.0</ele><time>2026-04-25T14:20:42.999Z</time></trkpt><trkpt lat="46.02121814514514" lon="9.384515635742384"><ele>859.0</ele><time>2026-04-25T14:20:43.999Z</time></trkpt><trkpt lat="46.02114454236881" lon="9.384643705687392"><ele>859.0</ele><time>2026-04-25T14:20:44.999Z</time></trkpt><trkpt lat="46.02105646168116" lon="9.384772883704867"><ele>862.1666666666666</ele><time>2026-04-25T14:20:45.999Z</time></trkpt><trkpt lat="46.020975911327874" lon="9.384883285916688"><ele>865.3333333333333</ele><time>2026-04-25T14:20:46.999Z</time></trkpt><trkpt lat="46.020920049798335" lon="9.384987805664414"><ele>868.5</ele><time>2026-04-25T14:20:47.999Z</time></trkpt><trkpt lat="46.02085145457813" lon="9.385046046305066"><ele>871.6666666666667</ele><time>2026-04-25T14:20:49.999Z</time></trkpt><trkpt lat="46.02076728634831" lon="9.385020758343273"><ele>874.8333333333334</ele><time>2026-04-25T14:20:51.999Z</time></trkpt><trkpt lat="46.020702189832754" lon="9.384980654567697"><ele>878.0</ele><time>2026-04-25T14:20:52.999Z</time></trkpt><trkpt lat="46.02061100202713" lon="9.38500160330863"><ele>878.0</ele><time>2026-04-25T14:20:54.999Z</time></trkpt><trkpt lat="46.02063440516452" lon="9.385164443053325"><ele>878.0</ele><time>2026-04-25T14:20:56.999Z</time></trkpt><trkpt lat="46.020792110571634" lon="9.385216753776435"><ele>878.0</ele><time>2026-04-25T14:20:58.999Z</time></trkpt><trkpt lat="46.02086809903855" lon="9.385245603316047"><ele>878.0</ele><time>2026-04-25T14:20:59.999Z</time></trkpt><trkpt lat="46.02093789636309" lon="9.385254842735671"><ele>878.0</ele><time>2026-04-25T14:21:00.999Z</time></trkpt><trkpt lat="46.021001168413626" lon="9.385231608765263"><ele>879.0</ele><time>2026-04-25T14:21:01.999Z</time></trkpt><trkpt lat="46.02112685332826" lon="9.385134174314263"><ele>880.0</ele><time>2026-04-25T14:21:03.999Z</time></trkpt><trkpt lat="46.021254081279295" lon="9.385072229064223"><ele>881.0</ele><time>2026-04-25T14:21:04.999Z</time></trkpt><trkpt lat="46.02135917191407" lon="9.38503077212163"><ele>882.0</ele><time>2026-04-25T14:21:05.999Z</time></trkpt><trkpt lat="46.02145602114071" lon="9.384992319082409"><ele>882.0</ele><time>2026-04-25T14:21:06.999Z</time></trkpt><trkpt lat="46.02155304867882" lon="9.384954436179964"><ele>882.0</ele><time>2026-04-25T14:21:07.999Z</time></trkpt><trkpt lat="46.02165609618124" lon="9.384914517418425"><ele>882.0</ele><time>2026-04-25T14:21:08.999Z</time></trkpt><trkpt lat="46.021758350074734" lon="9.384847953685865"><ele>882.0</ele><time>2026-04-25T14:21:09.999Z</time></trkpt><trkpt lat="46.02186466121029" lon="9.38482739536519"><ele>882.0</ele><time>2026-04-25T14:21:10.999Z</time></trkpt><trkpt lat="46.021953630697936" lon="9.384778692734052"><ele>883.4000000000001</ele><time>2026-04-25T14:21:11.999Z</time></trkpt><trkpt lat="46.022045301217204" lon="9.384709525292722"><ele>884.8000000000001</ele><time>2026-04-25T14:21:12.999Z</time></trkpt><trkpt lat="46.022133210138705" lon="9.384628295047467"><ele>886.2</ele><time>2026-04-25T14:21:13.999Z</time></trkpt><trkpt lat="46.02221960839628" lon="9.384535678561186"><ele>887.6</ele><time>2026-04-25T14:21:14.999Z</time></trkpt><trkpt lat="46.02230005679019" lon="9.384445279397735"><ele>889.0</ele><time>2026-04-25T14:21:15.999Z</time></trkpt><trkpt lat="46.02237579658601" lon="9.384388588800123"><ele>889.0</ele><time>2026-04-25T14:21:16.999Z</time></trkpt><trkpt lat="46.02247112745666" lon="9.384350259892503"><ele>889.0000000000001</ele><time>2026-04-25T14:21:17.999Z</time></trkpt><trkpt lat="46.02257427213177" lon="9.384271807972274"><ele>889.0000000000001</ele><time>2026-04-25T14:21:18.999Z</time></trkpt><trkpt lat="46.02265829439507" lon="9.38416850285726"><ele>889.0</ele><time>2026-04-25T14:21:19.999Z</time></trkpt><trkpt lat="46.022745618140945" lon="9.384103047994783"><ele>889.0</ele><time>2026-04-25T14:21:20.999Z</time></trkpt><trkpt lat="46.02282856656902" lon="9.384046217592088"><ele>888.8333333333333</ele><time>2026-04-25T14:21:21.999Z</time></trkpt><trkpt lat="46.022895045147294" lon="9.383999965354327"><ele>888.6666666666666</ele><time>2026-04-25T14:21:22.999Z</time></trkpt><trkpt lat="46.022958130637754" lon="9.383954563415852"><ele>888.5</ele><time>2026-04-25T14:21:23.999Z</time></trkpt><trkpt lat="46.023033847248776" lon="9.38389187652208"><ele>888.3333333333333</ele><time>2026-04-25T14:21:24.999Z</time></trkpt><trkpt lat="46.02310088165513" lon="9.38380206587047"><ele>888.1666666666666</ele><time>2026-04-25T14:21:25.999Z</time></trkpt><trkpt lat="46.0231569353953" lon="9.383723677880095"><ele>888.0</ele><time>2026-04-25T14:21:26.999Z</time></trkpt><trkpt lat="46.02324426856028" lon="9.383637421119294"><ele>888.0</ele><time>2026-04-25T14:21:28.999Z</time></trkpt><trkpt lat="46.023309053265244" lon="9.383599829995443"><ele>888.0</ele><time>2026-04-25T14:21:29.999Z</time></trkpt><trkpt lat="46.02338838877713" lon="9.383571351069962"><ele>888.0</ele><time>2026-04-25T14:21:30.999Z</time></trkpt><trkpt lat="46.02348082224253" lon="9.383556023988362"><ele>888.0</ele><time>2026-04-25T14:21:31.999Z</time></trkpt><trkpt lat="46.02356582439414" lon="9.38356277641638"><ele>888.0</ele><time>2026-04-25T14:21:32.999Z</time></trkpt><trkpt lat="46.02365221595805" lon="9.383571176712428"><ele>888.0</ele><time>2026-04-25T14:21:33.999Z</time></trkpt><trkpt lat="46.023753975951806" lon="9.383572611498659"><ele>894.0</ele><time>2026-04-25T14:21:34.999Z</time></trkpt><trkpt lat="46.02386044475642" lon="9.383574168309895"><ele>900.0</ele><time>2026-04-25T14:21:35.999Z</time></trkpt><trkpt lat="46.02396931216574" lon="9.38357995065181"><ele>906.0</ele><time>2026-04-25T14:21:36.999Z</time></trkpt><trkpt lat="46.02405786176677" lon="9.383587533336543"><ele>912.0</ele><time>2026-04-25T14:21:37.999Z</time></trkpt><trkpt lat="46.02415511377978" lon="9.383591016667268"><ele>918.0</ele><time>2026-04-25T14:21:39.999Z</time></trkpt><trkpt lat="46.02417655818997" lon="9.383679160655078"><ele>918.0</ele><time>2026-04-25T14:21:42.999Z</time></trkpt><trkpt lat="46.02403580074598" lon="9.383688721891792"><ele>918.0</ele><time>2026-04-25T14:21:45.999Z</time></trkpt><trkpt lat="46.02395805955276" lon="9.383691128865296"><ele>918.0</ele><time>2026-04-25T14:21:46.999Z</time></trkpt><trkpt lat="46.02390652233456" lon="9.38375241114727"><ele>918.0</ele><time>2026-04-25T14:21:47.999Z</time></trkpt><trkpt lat="46.0238376872158" lon="9.38379849933768"><ele>918.0</ele><time>2026-04-25T14:21:48.999Z</time></trkpt><trkpt lat="46.023753405116665" lon="9.383846707093968"><ele>925.0</ele><time>2026-04-25T14:21:49.999Z</time></trkpt><trkpt lat="46.02366266648672" lon="9.38389104179292"><ele>932.0</ele><time>2026-04-25T14:21:50.999Z</time></trkpt><trkpt lat="46.023545702178225" lon="9.383966434727546"><ele>939.0</ele><time>2026-04-25T14:21:51.999Z</time></trkpt><trkpt lat="46.02345621525693" lon="9.384078305032157"><ele>946.0</ele><time>2026-04-25T14:21:52.999Z</time></trkpt><trkpt lat="46.0233705412864" lon="9.384172219222233"><ele>940.8333333333333</ele><time>2026-04-25T14:21:53.999Z</time></trkpt><trkpt lat="46.02329948838845" lon="9.384263572875232"><ele>935.6666666666666</ele><time>2026-04-25T14:21:54.999Z</time></trkpt><trkpt lat="46.02324560899705" lon="9.384335010388648"><ele>930.5</ele><time>2026-04-25T14:21:55.999Z</time></trkpt><trkpt lat="46.023179758486954" lon="9.384435655390844"><ele>925.3333333333333</ele><time>2026-04-25T14:21:57.999Z</time></trkpt><trkpt lat="46.023115125380244" lon="9.384518416145676"><ele>920.1666666666666</ele><time>2026-04-25T14:21:59.999Z</time></trkpt><trkpt lat="46.02306019299521" lon="9.384573712109901"><ele>915.0</ele><time>2026-04-25T14:22:00.999Z</time></trkpt><trkpt lat="46.02297379071808" lon="9.384666489406365"><ele>920.1666666666666</ele><time>2026-04-25T14:22:02.999Z</time></trkpt><trkpt lat="46.02294944834977" lon="9.384758284073676"><ele>925.3333333333333</ele><time>2026-04-25T14:22:03.999Z</time></trkpt><trkpt lat="46.02290271402572" lon="9.384835927804522"><ele>930.5</ele><time>2026-04-25T14:22:04.999Z</time></trkpt><trkpt lat="46.02287442315793" lon="9.38492228568772"><ele>935.6666666666666</ele><time>2026-04-25T14:22:05.999Z</time></trkpt><trkpt lat="46.02284466382902" lon="9.385012240825414"><ele>940.8333333333333</ele><time>2026-04-25T14:22:06.999Z</time></trkpt><trkpt lat="46.022768075952484" lon="9.385181839312821"><ele>946.0</ele><time>2026-04-25T14:22:08.999Z</time></trkpt><trkpt lat="46.022668632032826" lon="9.385268311578628"><ele>945.9999999999999</ele><time>2026-04-25T14:22:09.999Z</time></trkpt><trkpt lat="46.02258683786841" lon="9.385332886290923"><ele>946.0</ele><time>2026-04-25T14:22:10.999Z</time></trkpt><trkpt lat="46.02252554160311" lon="9.385410358772056"><ele>946.0</ele><time>2026-04-25T14:22:11.999Z</time></trkpt><trkpt lat="46.02246560449509" lon="9.385493138645268"><ele>946.0</ele><time>2026-04-25T14:22:12.999Z</time></trkpt><trkpt lat="46.022414120065356" lon="9.385606843948995"><ele>945.9999999999999</ele><time>2026-04-25T14:22:13.999Z</time></trkpt><trkpt lat="46.02235654863282" lon="9.385681112763006"><ele>946.0</ele><time>2026-04-25T14:22:14.999Z</time></trkpt><trkpt lat="46.022298834857395" lon="9.38580539986604"><ele>945.5999999999999</ele><time>2026-04-25T14:22:15.999Z</time></trkpt><trkpt lat="46.02222735619312" lon="9.385925351795818"><ele>945.1999999999999</ele><time>2026-04-25T14:22:16.999Z</time></trkpt><trkpt lat="46.02218636068801" lon="9.386041533138247"><ele>944.8000000000001</ele><time>2026-04-25T14:22:17.999Z</time></trkpt><trkpt lat="46.02214450902153" lon="9.386144389310012"><ele>944.4000000000001</ele><time>2026-04-25T14:22:18.999Z</time></trkpt><trkpt lat="46.02210294457584" lon="9.38625108341778"><ele>944.0</ele><time>2026-04-25T14:22:19.999Z</time></trkpt><trkpt lat="46.02202149371804" lon="9.386340985307456"><ele>949.8000000000001</ele><time>2026-04-25T14:22:20.999Z</time></trkpt><trkpt lat="46.021935471666445" lon="9.386407966465638"><ele>955.6000000000001</ele><time>2026-04-25T14:22:21.999Z</time></trkpt><trkpt lat="46.02185120903529" lon="9.386463257613899"><ele>961.4</ele><time>2026-04-25T14:22:22.999Z</time></trkpt><trkpt lat="46.021774501592326" lon="9.386544310345645"><ele>967.2</ele><time>2026-04-25T14:22:23.999Z</time></trkpt><trkpt lat="46.02171005283487" lon="9.386644533931374"><ele>973.0</ele><time>2026-04-25T14:22:24.999Z</time></trkpt><trkpt lat="46.02165801511963" lon="9.386748089805561"><ele>973.6666666666666</ele><time>2026-04-25T14:22:25.999Z</time></trkpt><trkpt lat="46.02161338806874" lon="9.386837159135293"><ele>974.3333333333333</ele><time>2026-04-25T14:22:26.999Z</time></trkpt><trkpt lat="46.02154652144636" lon="9.38700048382072"><ele>975.0</ele><time>2026-04-25T14:22:28.999Z</time></trkpt><trkpt lat="46.02148872378636" lon="9.387063078061763"><ele>975.6666666666667</ele><time>2026-04-25T14:22:29.999Z</time></trkpt><trkpt lat="46.021407577069134" lon="9.387094237019106"><ele>976.3333333333334</ele><time>2026-04-25T14:22:30.999Z</time></trkpt><trkpt lat="46.0213525113277" lon="9.38714191910506"><ele>977.0</ele><time>2026-04-25T14:22:31.999Z</time></trkpt><trkpt lat="46.02121896788687" lon="9.387251064631762"><ele>977.0</ele><time>2026-04-25T14:22:33.999Z</time></trkpt><trkpt lat="46.0211458380404" lon="9.387385009767447"><ele>977.0</ele><time>2026-04-25T14:22:34.999Z</time></trkpt><trkpt lat="46.02105949149939" lon="9.387481846883635"><ele>977.0</ele><time>2026-04-25T14:22:35.999Z</time></trkpt><trkpt lat="46.02094970155572" lon="9.387590155161591"><ele>977.0</ele><time>2026-04-25T14:22:36.999Z</time></trkpt><trkpt lat="46.02087932709824" lon="9.387689599814484"><ele>978.25</ele><time>2026-04-25T14:22:37.999Z</time></trkpt><trkpt lat="46.02079063924161" lon="9.387750734045241"><ele>979.5</ele><time>2026-04-25T14:22:38.999Z</time></trkpt><trkpt lat="46.02069495619214" lon="9.387847232617743"><ele>980.75</ele><time>2026-04-25T14:22:39.999Z</time></trkpt><trkpt lat="46.02062015564742" lon="9.388001185709806"><ele>982.0</ele><time>2026-04-25T14:22:40.999Z</time></trkpt><trkpt lat="46.020561601781665" lon="9.388126985956205"><ele>982.0</ele><time>2026-04-25T14:22:41.999Z</time></trkpt><trkpt lat="46.02050043354599" lon="9.388312155404074"><ele>982.0</ele><time>2026-04-25T14:22:43.999Z</time></trkpt><trkpt lat="46.020473249896106" lon="9.388440922249607"><ele>982.0</ele><time>2026-04-25T14:22:44.999Z</time></trkpt><trkpt lat="46.02043225533575" lon="9.388582993793136"><ele>982.0</ele><time>2026-04-25T14:22:46.999Z</time></trkpt><trkpt lat="46.02030832879385" lon="9.388641692645923"><ele>982.0</ele><time>2026-04-25T14:22:48.999Z</time></trkpt><trkpt lat="46.02022245014433" lon="9.38866736050837"><ele>982.0</ele><time>2026-04-25T14:22:49.999Z</time></trkpt><trkpt lat="46.02012844107339" lon="9.388698400115702"><ele>982.0</ele><time>2026-04-25T14:22:50.999Z</time></trkpt><trkpt lat="46.020030171469784" lon="9.388746162794376"><ele>982.0</ele><time>2026-04-25T14:22:51.999Z</time></trkpt><trkpt lat="46.019943926098385" lon="9.388741291597771"><ele>982.0</ele><time>2026-04-25T14:22:52.999Z</time></trkpt><trkpt lat="46.019865127194656" lon="9.388752489029567"><ele>983.1666666666666</ele><time>2026-04-25T14:22:53.999Z</time></trkpt><trkpt lat="46.01975032429098" lon="9.388785752743043"><ele>984.3333333333333</ele><time>2026-04-25T14:22:55.999Z</time></trkpt><trkpt lat="46.01967823602798" lon="9.388872113655324"><ele>985.5</ele><time>2026-04-25T14:22:57.999Z</time></trkpt><trkpt lat="46.01966149642992" lon="9.38896158801767"><ele>986.6666666666667</ele><time>2026-04-25T14:22:58.999Z</time></trkpt><trkpt lat="46.019623602440774" lon="9.389057274865692"><ele>987.8333333333334</ele><time>2026-04-25T14:22:59.999Z</time></trkpt><trkpt lat="46.01958429575665" lon="9.389140565449805"><ele>989.0</ele><time>2026-04-25T14:23:00.999Z</time></trkpt><trkpt lat="46.019540152101044" lon="9.389223460031376"><ele>989.0000000000001</ele><time>2026-04-25T14:23:01.999Z</time></trkpt><trkpt lat="46.019488401106294" lon="9.389300577941043"><ele>989.0</ele><time>2026-04-25T14:23:02.999Z</time></trkpt><trkpt lat="46.01942867612362" lon="9.389372565160365"><ele>989.0</ele><time>2026-04-25T14:23:03.999Z</time></trkpt><trkpt lat="46.019369267187535" lon="9.389479826221848"><ele>989.0</ele><time>2026-04-25T14:23:04.999Z</time></trkpt><trkpt lat="46.019300771925515" lon="9.389580292352456"><ele>989.0000000000001</ele><time>2026-04-25T14:23:05.999Z</time></trkpt><trkpt lat="46.019270141538584" lon="9.389681841529024"><ele>989.0</ele><time>2026-04-25T14:23:06.999Z</time></trkpt><trkpt lat="46.01923365916259" lon="9.389762493524913"><ele>991.5000000000001</ele><time>2026-04-25T14:23:07.999Z</time></trkpt><trkpt lat="46.01921325749178" lon="9.389867541769023"><ele>994.0</ele><time>2026-04-25T14:23:08.999Z</time></trkpt><trkpt lat="46.01920732798128" lon="9.389965801136851"><ele>996.5</ele><time>2026-04-25T14:23:09.999Z</time></trkpt><trkpt lat="46.019206374147835" lon="9.39008611965251"><ele>999.0</ele><time>2026-04-25T14:23:10.999Z</time></trkpt><trkpt lat="46.01922255506367" lon="9.390199272303521"><ele>1001.5000000000001</ele><time>2026-04-25T14:23:12.999Z</time></trkpt><trkpt lat="46.01915106462507" lon="9.390249248187022"><ele>1004.0</ele><time>2026-04-25T14:23:14.999Z</time></trkpt><trkpt lat="46.019070415329054" lon="9.390306023788778"><ele>1002.2</ele><time>2026-04-25T14:23:16.999Z</time></trkpt><trkpt lat="46.018975218625705" lon="9.390379331277272"><ele>1000.4000000000001</ele><time>2026-04-25T14:23:18.999Z</time></trkpt><trkpt lat="46.01892185244308" lon="9.390437665064027"><ele>998.6</ele><time>2026-04-25T14:23:19.999Z</time></trkpt><trkpt lat="46.018850812880494" lon="9.3904738560291"><ele>996.8</ele><time>2026-04-25T14:23:20.999Z</time></trkpt><trkpt lat="46.018764216319894" lon="9.390571697503844"><ele>995.0</ele><time>2026-04-25T14:23:23Z</time></trkpt><trkpt lat="46.01872099343195" lon="9.390693635041837"><ele>995.0</ele><time>2026-04-25T14:23:25Z</time></trkpt><trkpt lat="46.018698262522676" lon="9.39081664835783"><ele>995.0</ele><time>2026-04-25T14:23:27Z</time></trkpt><trkpt lat="46.01883168052825" lon="9.390760293085203"><ele>995.0</ele><time>2026-04-25T14:23:29Z</time></trkpt><trkpt lat="46.018881092475944" lon="9.390702099332911"><ele>995.0</ele><time>2026-04-25T14:23:33Z</time></trkpt><trkpt lat="46.01899659885591" lon="9.390619346965789"><ele>995.0</ele><time>2026-04-25T14:23:35Z</time></trkpt><trkpt lat="46.01906894527271" lon="9.390588503311472"><ele>996.8</ele><time>2026-04-25T14:23:36Z</time></trkpt><trkpt lat="46.01916118818971" lon="9.390556178701374"><ele>998.6</ele><time>2026-04-25T14:23:38Z</time></trkpt><trkpt lat="46.01926618036752" lon="9.390519288458362"><ele>1000.4000000000001</ele><time>2026-04-25T14:23:40Z</time></trkpt><trkpt lat="46.01934352994285" lon="9.39048535411576"><ele>1002.2</ele><time>2026-04-25T14:23:41Z</time></trkpt><trkpt lat="46.019336466387706" lon="9.390327249106628"><ele>1004.0</ele><time>2026-04-25T14:23:42Z</time></trkpt><trkpt lat="46.01942602164405" lon="9.390290011458035"><ele>1004.0</ele><time>2026-04-25T14:23:43Z</time></trkpt><trkpt lat="46.0194989601134" lon="9.390122754990893"><ele>1004.0</ele><time>2026-04-25T14:23:45Z</time></trkpt><trkpt lat="46.0195797774606" lon="9.39002863498462"><ele>1004.0</ele><time>2026-04-25T14:23:46Z</time></trkpt><trkpt lat="46.01967628940407" lon="9.389943782207862"><ele>1004.0</ele><time>2026-04-25T14:23:47Z</time></trkpt><trkpt lat="46.01978081626606" lon="9.389864291515298"><ele>1004.0</ele><time>2026-04-25T14:23:48Z</time></trkpt><trkpt lat="46.01988273344298" lon="9.38976556884743"><ele>1004.0000000000001</ele><time>2026-04-25T14:23:49Z</time></trkpt><trkpt lat="46.01997617200132" lon="9.389686597909078"><ele>1004.0000000000001</ele><time>2026-04-25T14:23:50Z</time></trkpt><trkpt lat="46.02006427704867" lon="9.38962716999985"><ele>1004.0</ele><time>2026-04-25T14:23:51Z</time></trkpt><trkpt lat="46.02017342505121" lon="9.389604375028384"><ele>1004.0</ele><time>2026-04-25T14:23:52Z</time></trkpt><trkpt lat="46.02029000830615" lon="9.38956858366319"><ele>1006.6</ele><time>2026-04-25T14:23:53Z</time></trkpt><trkpt lat="46.020402766365386" lon="9.389538042889631"><ele>1009.2</ele><time>2026-04-25T14:23:54Z</time></trkpt><trkpt lat="46.02049196163924" lon="9.389515606383965"><ele>1011.8000000000001</ele><time>2026-04-25T14:23:55Z</time></trkpt><trkpt lat="46.02056695165403" lon="9.389497798005761"><ele>1014.4000000000001</ele><time>2026-04-25T14:23:56Z</time></trkpt><trkpt lat="46.0206293828429" lon="9.389481345013847"><ele>1017.0</ele><time>2026-04-25T14:23:57Z</time></trkpt><trkpt lat="46.02073278932571" lon="9.389353915285382"><ele>1017.0</ele><time>2026-04-25T14:23:59Z</time></trkpt><trkpt lat="46.020757112844265" lon="9.389259484185171"><ele>1017.0</ele><time>2026-04-25T14:24:00Z</time></trkpt><trkpt lat="46.0208217013423" lon="9.389108796627397"><ele>1017.0</ele><time>2026-04-25T14:24:02Z</time></trkpt><trkpt lat="46.02086336375132" lon="9.389017230390309"><ele>1017.0</ele><time>2026-04-25T14:24:03Z</time></trkpt><trkpt lat="46.02092475369367" lon="9.388909092444381"><ele>1017.0</ele><time>2026-04-25T14:24:04Z</time></trkpt><trkpt lat="46.02098356817271" lon="9.388826648784557"><ele>1017.0</ele><time>2026-04-25T14:24:05Z</time></trkpt><trkpt lat="46.02104809498931" lon="9.388747821007229"><ele>1016.0</ele><time>2026-04-25T14:24:06Z</time></trkpt><trkpt lat="46.02111539924724" lon="9.388687531978562"><ele>1015.0</ele><time>2026-04-25T14:24:07Z</time></trkpt><trkpt lat="46.0211841889943" lon="9.388639895816558"><ele>1014.0</ele><time>2026-04-25T14:24:08Z</time></trkpt><trkpt lat="46.02125538832753" lon="9.388599371392058"><ele>1013.0</ele><time>2026-04-25T14:24:09Z</time></trkpt><trkpt lat="46.021340364824276" lon="9.38855557370147"><ele>1012.0</ele><time>2026-04-25T14:24:10Z</time></trkpt><trkpt lat="46.02141631456539" lon="9.388491694929936"><ele>1011.0</ele><time>2026-04-25T14:24:11Z</time></trkpt><trkpt lat="46.02149467870059" lon="9.388445716929043"><ele>1010.9999999999999</ele><time>2026-04-25T14:24:12Z</time></trkpt><trkpt lat="46.02156978566434" lon="9.388416028891376"><ele>1011.0</ele><time>2026-04-25T14:24:13Z</time></trkpt><trkpt lat="46.02163654284226" lon="9.388393147194963"><ele>1010.9999999999999</ele><time>2026-04-25T14:24:14Z</time></trkpt><trkpt lat="46.02170405490897" lon="9.388370603986607"><ele>1010.9999999999999</ele><time>2026-04-25T14:24:15Z</time></trkpt><trkpt lat="46.02177285831439" lon="9.388372561090844"><ele>1011.0</ele><time>2026-04-25T14:24:16Z</time></trkpt><trkpt lat="46.02184629951894" lon="9.388393126499945"><ele>1010.9999999999999</ele><time>2026-04-25T14:24:17Z</time></trkpt><trkpt lat="46.02191281031274" lon="9.388393673396905"><ele>1010.9999999999999</ele><time>2026-04-25T14:24:18Z</time></trkpt><trkpt lat="46.021986667722814" lon="9.388376504590918"><ele>1017.8333333333334</ele><time>2026-04-25T14:24:19Z</time></trkpt><trkpt lat="46.02207363156806" lon="9.388316584704235"><ele>1024.6666666666667</ele><time>2026-04-25T14:24:20Z</time></trkpt><trkpt lat="46.02214032166713" lon="9.38826786812516"><ele>1031.5</ele><time>2026-04-25T14:24:21Z</time></trkpt><trkpt lat="46.02221819928473" lon="9.388214204854737"><ele>1038.3333333333335</ele><time>2026-04-25T14:24:22Z</time></trkpt><trkpt lat="46.022301426891815" lon="9.38815996361969"><ele>1045.1666666666667</ele><time>2026-04-25T14:24:23Z</time></trkpt><trkpt lat="46.0223848884719" lon="9.388110584507569"><ele>1052.0</ele><time>2026-04-25T14:24:24Z</time></trkpt><trkpt lat="46.02247040446808" lon="9.388065757078145"><ele>1050.8</ele><time>2026-04-25T14:24:25Z</time></trkpt><trkpt lat="46.022553988782015" lon="9.388027267607798"><ele>1049.6</ele><time>2026-04-25T14:24:26Z</time></trkpt><trkpt lat="46.02266400421891" lon="9.387974084975653"><ele>1048.3999999999999</ele><time>2026-04-25T14:24:27Z</time></trkpt><trkpt lat="46.02273324728738" lon="9.3879398121282"><ele>1047.2</ele><time>2026-04-25T14:24:28Z</time></trkpt><trkpt lat="46.0228267160392" lon="9.387918849633799"><ele>1046.0</ele><time>2026-04-25T14:24:30Z</time></trkpt><trkpt lat="46.022937161664046" lon="9.387920844837478"><ele>1046.0</ele><time>2026-04-25T14:24:32Z</time></trkpt><trkpt lat="46.02299952790529" lon="9.387945235812793"><ele>1046.0</ele><time>2026-04-25T14:24:33Z</time></trkpt><trkpt lat="46.023075708088314" lon="9.387994723462887"><ele>1046.0</ele><time>2026-04-25T14:24:34Z</time></trkpt><trkpt lat="46.02316826019619" lon="9.388014132351744"><ele>1046.0</ele><time>2026-04-25T14:24:35Z</time></trkpt><trkpt lat="46.02326112967169" lon="9.387986078208431"><ele>1046.0</ele><time>2026-04-25T14:24:36Z</time></trkpt><trkpt lat="46.02334738353364" lon="9.387892079281203"><ele>1046.0</ele><time>2026-04-25T14:24:37Z</time></trkpt><trkpt lat="46.023422543724635" lon="9.387818466820894"><ele>1049.6</ele><time>2026-04-25T14:24:39Z</time></trkpt><trkpt lat="46.023496572885655" lon="9.387786739898125"><ele>1053.1999999999998</ele><time>2026-04-25T14:24:41Z</time></trkpt><trkpt lat="46.0236294289364" lon="9.387817088788232"><ele>1056.8000000000002</ele><time>2026-04-25T14:24:43Z</time></trkpt><trkpt lat="46.023716968888955" lon="9.387815018846437"><ele>1060.4</ele><time>2026-04-25T14:24:44Z</time></trkpt><trkpt lat="46.02378677926404" lon="9.387821955294546"><ele>1064.0</ele><time>2026-04-25T14:24:45Z</time></trkpt><trkpt lat="46.0238707397713" lon="9.387820700731849"><ele>1064.0</ele><time>2026-04-25T14:24:47Z</time></trkpt><trkpt lat="46.02394856003042" lon="9.387887940645042"><ele>1064.0</ele><time>2026-04-25T14:24:48Z</time></trkpt><trkpt lat="46.024004285059156" lon="9.387964673708384"><ele>1064.0</ele><time>2026-04-25T14:24:49Z</time></trkpt><trkpt lat="46.02404872203104" lon="9.3880595910903"><ele>1064.0</ele><time>2026-04-25T14:24:50Z</time></trkpt><trkpt lat="46.024097694546576" lon="9.38817463809993"><ele>1064.0</ele><time>2026-04-25T14:24:51Z</time></trkpt><trkpt lat="46.02413860320291" lon="9.388293825134225"><ele>1064.0</ele><time>2026-04-25T14:24:52Z</time></trkpt><trkpt lat="46.024177949603825" lon="9.388428347908716"><ele>1068.6000000000001</ele><time>2026-04-25T14:24:53Z</time></trkpt><trkpt lat="46.0242144533477" lon="9.38858239890061"><ele>1073.2</ele><time>2026-04-25T14:24:54Z</time></trkpt><trkpt lat="46.02424660016232" lon="9.388730758055557"><ele>1077.8000000000002</ele><time>2026-04-25T14:24:55Z</time></trkpt><trkpt lat="46.02428527595431" lon="9.388884250399743"><ele>1082.4</ele><time>2026-04-25T14:24:56Z</time></trkpt><trkpt lat="46.02432573200434" lon="9.389024985089286"><ele>1087.0</ele><time>2026-04-25T14:24:57Z</time></trkpt><trkpt lat="46.02436426400899" lon="9.389158524050053"><ele>1089.6666666666665</ele><time>2026-04-25T14:24:58Z</time></trkpt><trkpt lat="46.02439199472046" lon="9.389270507039406"><ele>1092.3333333333333</ele><time>2026-04-25T14:24:59Z</time></trkpt><trkpt lat="46.024414413425184" lon="9.389377599568467"><ele>1095.0</ele><time>2026-04-25T14:25:01Z</time></trkpt><trkpt lat="46.0243436328881" lon="9.389344492655002"><ele>1097.6666666666667</ele><time>2026-04-25T14:25:06Z</time></trkpt><trkpt lat="46.024311115869" lon="9.389246612142422"><ele>1100.3333333333335</ele><time>2026-04-25T14:25:07Z</time></trkpt><trkpt lat="46.024268696273445" lon="9.389145642978322"><ele>1103.0</ele><time>2026-04-25T14:25:08Z</time></trkpt><trkpt lat="46.02420944613641" lon="9.389052886207388"><ele>1101.0</ele><time>2026-04-25T14:25:09Z</time></trkpt><trkpt lat="46.024135050196215" lon="9.388932673186744"><ele>1099.0</ele><time>2026-04-25T14:25:10Z</time></trkpt><trkpt lat="46.024088074241384" lon="9.388843727171741"><ele>1097.0</ele><time>2026-04-25T14:25:11Z</time></trkpt><trkpt lat="46.024043061731106" lon="9.388749032432354"><ele>1095.0</ele><time>2026-04-25T14:25:12Z</time></trkpt><trkpt lat="46.02399044395972" lon="9.388678140451455"><ele>1093.0</ele><time>2026-04-25T14:25:13Z</time></trkpt><trkpt lat="46.023931128678264" lon="9.388633430842516"><ele>1091.0</ele><time>2026-04-25T14:25:14Z</time></trkpt><trkpt lat="46.02386788973228" lon="9.38860032280553"><ele>1091.0</ele><time>2026-04-25T14:25:15Z</time></trkpt><trkpt lat="46.02380146097863" lon="9.388572699401204"><ele>1091.0</ele><time>2026-04-25T14:25:16Z</time></trkpt><trkpt lat="46.023717080990856" lon="9.388578602671254"><ele>1091.0</ele><time>2026-04-25T14:25:17Z</time></trkpt><trkpt lat="46.02360007098913" lon="9.388599955145075"><ele>1091.0</ele><time>2026-04-25T14:25:19Z</time></trkpt><trkpt lat="46.02351618801347" lon="9.388643515467617"><ele>1091.0</ele><time>2026-04-25T14:25:20Z</time></trkpt><trkpt lat="46.0234524372231" lon="9.388686414798173"><ele>1091.0</ele><time>2026-04-25T14:25:21Z</time></trkpt><trkpt lat="46.02335866173187" lon="9.388773582637844"><ele>1093.8333333333335</ele><time>2026-04-25T14:25:23Z</time></trkpt><trkpt lat="46.02327700286724" lon="9.388908764148669"><ele>1096.6666666666667</ele><time>2026-04-25T14:25:25Z</time></trkpt><trkpt lat="46.02321717116598" lon="9.388965839999734"><ele>1099.5</ele><time>2026-04-25T14:25:26Z</time></trkpt><trkpt lat="46.02316067993995" lon="9.389041852079945"><ele>1102.3333333333333</ele><time>2026-04-25T14:25:27Z</time></trkpt><trkpt lat="46.02311048141565" lon="9.389111582363284"><ele>1105.1666666666665</ele><time>2026-04-25T14:25:28Z</time></trkpt><trkpt lat="46.02303179063268" lon="9.389183938849655"><ele>1108.0</ele><time>2026-04-25T14:25:29Z</time></trkpt><trkpt lat="46.02294348752466" lon="9.389250394482898"><ele>1108.0</ele><time>2026-04-25T14:25:30Z</time></trkpt><trkpt lat="46.02286789912356" lon="9.389304383503774"><ele>1108.0</ele><time>2026-04-25T14:25:31Z</time></trkpt><trkpt lat="46.022795622650776" lon="9.389360016163176"><ele>1108.0</ele><time>2026-04-25T14:25:32Z</time></trkpt><trkpt lat="46.02270137333367" lon="9.38942415912125"><ele>1108.0</ele><time>2026-04-25T14:25:33Z</time></trkpt><trkpt lat="46.02259125110467" lon="9.389475714799385"><ele>1108.0</ele><time>2026-04-25T14:25:34Z</time></trkpt><trkpt lat="46.022507904719546" lon="9.38955695918207"><ele>1109.0</ele><time>2026-04-25T14:25:35Z</time></trkpt><trkpt lat="46.02243121182004" lon="9.389642276855215"><ele>1110.0</ele><time>2026-04-25T14:25:36Z</time></trkpt><trkpt lat="46.02235623100344" lon="9.389723469702293"><ele>1111.0</ele><time>2026-04-25T14:25:37Z</time></trkpt><trkpt lat="46.022280609333514" lon="9.38982766185783"><ele>1112.0</ele><time>2026-04-25T14:25:38Z</time></trkpt><trkpt lat="46.022212387937124" lon="9.389929218871796"><ele>1113.0</ele><time>2026-04-25T14:25:39Z</time></trkpt><trkpt lat="46.02213654822908" lon="9.390030132495651"><ele>1113.0</ele><time>2026-04-25T14:25:40Z</time></trkpt><trkpt lat="46.02207296911055" lon="9.390115019176667"><ele>1113.0</ele><time>2026-04-25T14:25:41Z</time></trkpt><trkpt lat="46.02201263544704" lon="9.390163776605275"><ele>1113.0</ele><time>2026-04-25T14:25:42Z</time></trkpt><trkpt lat="46.02195393756912" lon="9.390207451269909"><ele>1113.0</ele><time>2026-04-25T14:25:43Z</time></trkpt><trkpt lat="46.02189287427774" lon="9.390257333688105"><ele>1113.0</ele><time>2026-04-25T14:25:44Z</time></trkpt><trkpt lat="46.02182978383729" lon="9.390316883402011"><ele>1113.0</ele><time>2026-04-25T14:25:45Z</time></trkpt><trkpt lat="46.021720280036526" lon="9.390488253464815"><ele>1112.8</ele><time>2026-04-25T14:25:47Z</time></trkpt><trkpt lat="46.02166829569629" lon="9.39062238388963"><ele>1112.6</ele><time>2026-04-25T14:25:48Z</time></trkpt><trkpt lat="46.02162130940032" lon="9.390736266125852"><ele>1112.4</ele><time>2026-04-25T14:25:49Z</time></trkpt><trkpt lat="46.021573790090926" lon="9.390864747471326"><ele>1112.2</ele><time>2026-04-25T14:25:50Z</time></trkpt><trkpt lat="46.021519557796104" lon="9.390959842349899"><ele>1112.0</ele><time>2026-04-25T14:25:51Z</time></trkpt><trkpt lat="46.02147410486582" lon="9.391047567143735"><ele>1112.0</ele><time>2026-04-25T14:25:52Z</time></trkpt><trkpt lat="46.02140495430365" lon="9.391089945609393"><ele>1112.0</ele><time>2026-04-25T14:25:53Z</time></trkpt><trkpt lat="46.02133132578769" lon="9.391139053402647"><ele>1112.0</ele><time>2026-04-25T14:25:54Z</time></trkpt><trkpt lat="46.021250149072195" lon="9.391204231040284"><ele>1112.0</ele><time>2026-04-25T14:25:55Z</time></trkpt><trkpt lat="46.02120045106043" lon="9.391262220057223"><ele>1112.0</ele><time>2026-04-25T14:25:56Z</time></trkpt><trkpt lat="46.02111120023103" lon="9.391427503009002"><ele>1115.6666666666667</ele><time>2026-04-25T14:25:58Z</time></trkpt><trkpt lat="46.021070594913596" lon="9.391526192438088"><ele>1119.3333333333335</ele><time>2026-04-25T14:25:59Z</time></trkpt><trkpt lat="46.021027800343205" lon="9.391642890364194"><ele>1123.0</ele><time>2026-04-25T14:26:00Z</time></trkpt><trkpt lat="46.02099821911206" lon="9.391767263368674"><ele>1126.6666666666667</ele><time>2026-04-25T14:26:01Z</time></trkpt><trkpt lat="46.02095479266265" lon="9.391868514215139"><ele>1130.3333333333333</ele><time>2026-04-25T14:26:02Z</time></trkpt><trkpt lat="46.02091861918959" lon="9.391958746953412"><ele>1134.0</ele><time>2026-04-25T14:26:03Z</time></trkpt><trkpt lat="46.02087383839417" lon="9.392104530406213"><ele>1132.142857142857</ele><time>2026-04-25T14:26:05Z</time></trkpt><trkpt lat="46.02085251543948" lon="9.392244664988711"><ele>1130.2857142857142</ele><time>2026-04-25T14:26:07Z</time></trkpt><trkpt lat="46.02081229530117" lon="9.392317174256336"><ele>1128.4285714285716</ele><time>2026-04-25T14:26:08Z</time></trkpt><trkpt lat="46.02076766792135" lon="9.392411888010676"><ele>1126.5714285714284</ele><time>2026-04-25T14:26:09Z</time></trkpt><trkpt lat="46.02073788508028" lon="9.392498885217783"><ele>1124.7142857142858</ele><time>2026-04-25T14:26:10Z</time></trkpt><trkpt lat="46.02071946502094" lon="9.392591671350377"><ele>1122.857142857143</ele><time>2026-04-25T14:26:11Z</time></trkpt><trkpt lat="46.02068060105478" lon="9.392663890334928"><ele>1121.0</ele><time>2026-04-25T14:26:12Z</time></trkpt><trkpt lat="46.02062366439048" lon="9.39273635270372"><ele>1121.0</ele><time>2026-04-25T14:26:13Z</time></trkpt><trkpt lat="46.0205421075998" lon="9.392798646278385"><ele>1121.0</ele><time>2026-04-25T14:26:14Z</time></trkpt><trkpt lat="46.020455838054744" lon="9.39288003370525"><ele>1121.0</ele><time>2026-04-25T14:26:16Z</time></trkpt><trkpt lat="46.02040629163653" lon="9.392950060197313"><ele>1121.0</ele><time>2026-04-25T14:26:17Z</time></trkpt><trkpt lat="46.0203566975684" lon="9.393017333000802"><ele>1121.0</ele><time>2026-04-25T14:26:18Z</time></trkpt><trkpt lat="46.020304394706095" lon="9.393126195443406"><ele>1121.0</ele><time>2026-04-25T14:26:19Z</time></trkpt><trkpt lat="46.020274681464784" lon="9.393254044214176"><ele>1123.8333333333335</ele><time>2026-04-25T14:26:20Z</time></trkpt><trkpt lat="46.020260764088015" lon="9.393370562529443"><ele>1126.6666666666667</ele><time>2026-04-25T14:26:21Z</time></trkpt><trkpt lat="46.02025395914414" lon="9.393504627835824"><ele>1129.5</ele><time>2026-04-25T14:26:22Z</time></trkpt><trkpt lat="46.02026072295436" lon="9.39365460399441"><ele>1132.3333333333333</ele><time>2026-04-25T14:26:23Z</time></trkpt><trkpt lat="46.02028505956137" lon="9.39378461955805"><ele>1135.1666666666665</ele><time>2026-04-25T14:26:24Z</time></trkpt><trkpt lat="46.02030383283887" lon="9.39388338028531"><ele>1138.0</ele><time>2026-04-25T14:26:25Z</time></trkpt><trkpt lat="46.020318303228194" lon="9.39397739873644"><ele>1141.6</ele><time>2026-04-25T14:26:26Z</time></trkpt><trkpt lat="46.020331446322714" lon="9.3941110620924"><ele>1145.1999999999998</ele><time>2026-04-25T14:26:27Z</time></trkpt><trkpt lat="46.02034060301777" lon="9.39424922403947"><ele>1148.8</ele><time>2026-04-25T14:26:28Z</time></trkpt><trkpt lat="46.020347880042564" lon="9.394379981029896"><ele>1152.3999999999999</ele><time>2026-04-25T14:26:29Z</time></trkpt><trkpt lat="46.020374389594295" lon="9.39453671603467"><ele>1156.0</ele><time>2026-04-25T14:26:31Z</time></trkpt><trkpt lat="46.020364772166666" lon="9.394631302339308"><ele>1160.6</ele><time>2026-04-25T14:26:32Z</time></trkpt><trkpt lat="46.020379250580106" lon="9.394742103203178"><ele>1165.1999999999998</ele><time>2026-04-25T14:26:34Z</time></trkpt><trkpt lat="46.02032303597268" lon="9.394852574789525"><ele>1169.8000000000002</ele><time>2026-04-25T14:26:36Z</time></trkpt><trkpt lat="46.02023311383312" lon="9.394970610304918"><ele>1174.4</ele><time>2026-04-25T14:26:38Z</time></trkpt><trkpt lat="46.02015358528963" lon="9.395083444824271"><ele>1179.0</ele><time>2026-04-25T14:26:40Z</time></trkpt><trkpt lat="46.02012938455126" lon="9.395185642358323"><ele>1179.0</ele><time>2026-04-25T14:26:41Z</time></trkpt><trkpt lat="46.02010144015667" lon="9.395286855176838"><ele>1179.0</ele><time>2026-04-25T14:26:42Z</time></trkpt><trkpt lat="46.02006845085459" lon="9.39539704912351"><ele>1179.0</ele><time>2026-04-25T14:26:43Z</time></trkpt><trkpt lat="46.020026871070804" lon="9.395532144367161"><ele>1179.0</ele><time>2026-04-25T14:26:45Z</time></trkpt><trkpt lat="46.01995439315313" lon="9.395646239666807"><ele>1179.0</ele><time>2026-04-25T14:26:47Z</time></trkpt><trkpt lat="46.0198819235707" lon="9.395672679648774"><ele>1179.0</ele><time>2026-04-25T14:26:48Z</time></trkpt><trkpt lat="46.01982007119747" lon="9.395730697809878"><ele>1179.2</ele><time>2026-04-25T14:26:49Z</time></trkpt><trkpt lat="46.019741557697664" lon="9.395785457315284"><ele>1179.4</ele><time>2026-04-25T14:26:50Z</time></trkpt><trkpt lat="46.0196764062375" lon="9.395866928281645"><ele>1179.6</ele><time>2026-04-25T14:26:51Z</time></trkpt><trkpt lat="46.01958877533337" lon="9.39596386141537"><ele>1179.8</ele><time>2026-04-25T14:26:52Z</time></trkpt><trkpt lat="46.019509478586" lon="9.396086094673567"><ele>1180.0</ele><time>2026-04-25T14:26:53Z</time></trkpt><trkpt lat="46.01943992319147" lon="9.396183640968093"><ele>1180.0000000000002</ele><time>2026-04-25T14:26:54Z</time></trkpt><trkpt lat="46.01939687337017" lon="9.39625611255521"><ele>1180.0</ele><time>2026-04-25T14:26:55Z</time></trkpt><trkpt lat="46.019332984115636" lon="9.396349718870534"><ele>1180.0</ele><time>2026-04-25T14:26:57Z</time></trkpt><trkpt lat="46.01928654696071" lon="9.396412337896985"><ele>1180.0</ele><time>2026-04-25T14:26:58Z</time></trkpt><trkpt lat="46.01926072076036" lon="9.396512783593378"><ele>1180.0</ele><time>2026-04-25T14:26:59Z</time></trkpt><trkpt lat="46.019245779429696" lon="9.39662144401976"><ele>1180.0000000000002</ele><time>2026-04-25T14:27:00Z</time></trkpt><trkpt lat="46.01922905264964" lon="9.396723047704606"><ele>1180.0</ele><time>2026-04-25T14:27:01Z</time></trkpt><trkpt lat="46.01918264721734" lon="9.396856259119382"><ele>1184.0</ele><time>2026-04-25T14:27:03Z</time></trkpt><trkpt lat="46.01916186382784" lon="9.396944531360026"><ele>1188.0</ele><time>2026-04-25T14:27:06Z</time></trkpt><trkpt lat="46.019275151678926" lon="9.397052779686689"><ele>1192.0</ele><time>2026-04-25T14:27:09Z</time></trkpt><trkpt lat="46.01931747522403" lon="9.396907108930742"><ele>1196.0</ele><time>2026-04-25T14:27:10Z</time></trkpt><trkpt lat="46.01935529137114" lon="9.396802191185362"><ele>1200.0</ele><time>2026-04-25T14:27:11Z</time></trkpt><trkpt lat="46.019423234632995" lon="9.396698589909281"><ele>1200.0</ele><time>2026-04-25T14:27:13Z</time></trkpt><trkpt lat="46.019538789747266" lon="9.39662824115454"><ele>1200.0</ele><time>2026-04-25T14:27:15Z</time></trkpt><trkpt lat="46.019616340301475" lon="9.396596193092442"><ele>1200.0</ele><time>2026-04-25T14:27:16Z</time></trkpt><trkpt lat="46.01969252520547" lon="9.39656993849497"><ele>1200.0</ele><time>2026-04-25T14:27:17Z</time></trkpt><trkpt lat="46.01977452543718" lon="9.39655730735928"><ele>1200.0</ele><time>2026-04-25T14:27:18Z</time></trkpt><trkpt lat="46.01986152333672" lon="9.39656060866836"><ele>1200.0</ele><time>2026-04-25T14:27:19Z</time></trkpt><trkpt lat="46.01994378586002" lon="9.396572257464552"><ele>1200.0</ele><time>2026-04-25T14:27:20Z</time></trkpt><trkpt lat="46.02002666656145" lon="9.39658108248819"><ele>1200.0</ele><time>2026-04-25T14:27:21Z</time></trkpt><trkpt lat="46.020106242587815" lon="9.396579272848006"><ele>1200.0</ele><time>2026-04-25T14:27:22Z</time></trkpt><trkpt lat="46.020193184663505" lon="9.396567073120991"><ele>1200.0</ele><time>2026-04-25T14:27:23Z</time></trkpt><trkpt lat="46.02028188641945" lon="9.39655372473483"><ele>1200.0</ele><time>2026-04-25T14:27:24Z</time></trkpt><trkpt lat="46.02035487147857" lon="9.396545682328746"><ele>1201.4</ele><time>2026-04-25T14:27:25Z</time></trkpt><trkpt lat="46.02044170940483" lon="9.396529345733574"><ele>1202.8</ele><time>2026-04-25T14:27:27Z</time></trkpt><trkpt lat="46.0205450217077" lon="9.396420379134888"><ele>1204.2</ele><time>2026-04-25T14:27:29Z</time></trkpt><trkpt lat="46.02058373738392" lon="9.396326098021461"><ele>1205.6</ele><time>2026-04-25T14:27:30Z</time></trkpt><trkpt lat="46.02064218201217" lon="9.396217610127685"><ele>1207.0</ele><time>2026-04-25T14:27:31Z</time></trkpt><trkpt lat="46.02069673384088" lon="9.396125015732983"><ele>1207.0</ele><time>2026-04-25T14:27:32Z</time></trkpt><trkpt lat="46.02075378539154" lon="9.396033846779416"><ele>1207.0</ele><time>2026-04-25T14:27:33Z</time></trkpt><trkpt lat="46.020823319409814" lon="9.395930304745546"><ele>1207.0</ele><time>2026-04-25T14:27:34Z</time></trkpt><trkpt lat="46.02089892696389" lon="9.39580125100429"><ele>1207.0</ele><time>2026-04-25T14:27:35Z</time></trkpt><trkpt lat="46.020970837405486" lon="9.395695057545852"><ele>1207.0</ele><time>2026-04-25T14:27:36Z</time></trkpt><trkpt lat="46.021042779240574" lon="9.395616439635933"><ele>1207.8</ele><time>2026-04-25T14:27:37Z</time></trkpt><trkpt lat="46.021107577382544" lon="9.39553030389493"><ele>1208.6</ele><time>2026-04-25T14:27:38Z</time></trkpt><trkpt lat="46.02117256764345" lon="9.395448000497325"><ele>1209.3999999999999</ele><time>2026-04-25T14:27:39Z</time></trkpt><trkpt lat="46.02122885483501" lon="9.395376515834196"><ele>1210.2</ele><time>2026-04-25T14:27:40Z</time></trkpt><trkpt lat="46.02132282560977" lon="9.395278269649301"><ele>1211.0</ele><time>2026-04-25T14:27:42Z</time></trkpt><trkpt lat="46.02144648830105" lon="9.39524293194537"><ele>1211.0</ele><time>2026-04-25T14:27:44Z</time></trkpt><trkpt lat="46.02158363128491" lon="9.395215077639289"><ele>1211.0</ele><time>2026-04-25T14:27:46Z</time></trkpt><trkpt lat="46.02165288657293" lon="9.395199620793871"><ele>1211.0</ele><time>2026-04-25T14:27:47Z</time></trkpt><trkpt lat="46.021715149257105" lon="9.395181329776138"><ele>1211.0</ele><time>2026-04-25T14:27:48Z</time></trkpt><trkpt lat="46.02178586545849" lon="9.395160964112156"><ele>1211.0</ele><time>2026-04-25T14:27:49Z</time></trkpt><trkpt lat="46.02188023729931" lon="9.395145443153314"><ele>1211.0</ele><time>2026-04-25T14:27:51Z</time></trkpt><trkpt lat="46.02196799969547" lon="9.39516686042116"><ele>1216.5</ele><time>2026-04-25T14:27:53Z</time></trkpt><trkpt lat="46.02202180937485" lon="9.395223434822778"><ele>1222.0</ele><time>2026-04-25T14:27:54Z</time></trkpt><trkpt lat="46.02208584136686" lon="9.3953288646982"><ele>1227.5</ele><time>2026-04-25T14:27:56Z</time></trkpt><trkpt lat="46.022142230956526" lon="9.395430011895218"><ele>1233.0</ele><time>2026-04-25T14:27:58Z</time></trkpt><trkpt lat="46.0221742472531" lon="9.395508866018648"><ele>1238.5</ele><time>2026-04-25T14:27:59Z</time></trkpt><trkpt lat="46.02219423982648" lon="9.395595161449716"><ele>1244.0</ele><time>2026-04-25T14:28:00Z</time></trkpt><trkpt lat="46.02222149707418" lon="9.39573128050098"><ele>1248.5</ele><time>2026-04-25T14:28:02Z</time></trkpt><trkpt lat="46.02224014332861" lon="9.395872524141597"><ele>1253.0</ele><time>2026-04-25T14:28:04Z</time></trkpt><trkpt lat="46.0222916827598" lon="9.395961817931306"><ele>1257.5</ele><time>2026-04-25T14:28:05Z</time></trkpt><trkpt lat="46.022358745005675" lon="9.396049066197712"><ele>1262.0</ele><time>2026-04-25T14:28:06Z</time></trkpt><trkpt lat="46.02241530467993" lon="9.396116101016455"><ele>1266.5</ele><time>2026-04-25T14:28:07Z</time></trkpt><trkpt lat="46.02246971066423" lon="9.396183887114884"><ele>1271.0</ele><time>2026-04-25T14:28:09Z</time></trkpt><trkpt lat="46.02255220206842" lon="9.396308879521412"><ele>1274.1999999999998</ele><time>2026-04-25T14:28:11Z</time></trkpt><trkpt lat="46.02260770006956" lon="9.396457128974633"><ele>1277.3999999999999</ele><time>2026-04-25T14:28:13Z</time></trkpt><trkpt lat="46.02262698417101" lon="9.39658552324902"><ele>1280.6</ele><time>2026-04-25T14:28:15Z</time></trkpt><trkpt lat="46.022619014926896" lon="9.396682273078211"><ele>1283.8</ele><time>2026-04-25T14:28:16Z</time></trkpt><trkpt lat="46.022646586518746" lon="9.39687517682794"><ele>1287.0</ele><time>2026-04-25T14:28:18Z</time></trkpt><trkpt lat="46.02267483036729" lon="9.397019009773384"><ele>1287.0</ele><time>2026-04-25T14:28:19Z</time></trkpt><trkpt lat="46.02266349029756" lon="9.397159019735746"><ele>1287.0</ele><time>2026-04-25T14:28:20Z</time></trkpt><trkpt lat="46.022682200205466" lon="9.397280571920305"><ele>1287.0</ele><time>2026-04-25T14:28:21Z</time></trkpt><trkpt lat="46.02271227716421" lon="9.397400462960281"><ele>1287.0</ele><time>2026-04-25T14:28:22Z</time></trkpt><trkpt lat="46.022760517750186" lon="9.397535257596598"><ele>1287.0</ele><time>2026-04-25T14:28:23Z</time></trkpt><trkpt lat="46.022807466782986" lon="9.397648593934893"><ele>1289.8</ele><time>2026-04-25T14:28:24Z</time></trkpt><trkpt lat="46.02284976313632" lon="9.397747894209644"><ele>1292.6</ele><time>2026-04-25T14:28:25Z</time></trkpt><trkpt lat="46.02289998877655" lon="9.39785730456727"><ele>1295.3999999999999</ele><time>2026-04-25T14:28:26Z</time></trkpt><trkpt lat="46.022964321417405" lon="9.397996629198103"><ele>1298.1999999999998</ele><time>2026-04-25T14:28:27Z</time></trkpt><trkpt lat="46.023001569345624" lon="9.398112220103108"><ele>1301.0</ele><time>2026-04-25T14:28:28Z</time></trkpt><trkpt lat="46.02302810340411" lon="9.398215103852587"><ele>1305.0</ele><time>2026-04-25T14:28:29Z</time></trkpt><trkpt lat="46.02305074969758" lon="9.39832854160606"><ele>1309.0</ele><time>2026-04-25T14:28:30Z</time></trkpt><trkpt lat="46.02304610864952" lon="9.398434098067423"><ele>1313.0</ele><time>2026-04-25T14:28:31Z</time></trkpt><trkpt lat="46.02306250507936" lon="9.398545652428405"><ele>1317.0</ele><time>2026-04-25T14:28:32Z</time></trkpt><trkpt lat="46.02309429874561" lon="9.39869372749719"><ele>1321.0</ele><time>2026-04-25T14:28:33Z</time></trkpt><trkpt lat="46.023126371098634" lon="9.398809123936468"><ele>1325.0</ele><time>2026-04-25T14:28:34Z</time></trkpt><trkpt lat="46.02315999355691" lon="9.398911138510389"><ele>1322.8</ele><time>2026-04-25T14:28:35Z</time></trkpt><trkpt lat="46.02320777943709" lon="9.399028552974855"><ele>1320.6</ele><time>2026-04-25T14:28:36Z</time></trkpt><trkpt lat="46.023253960898046" lon="9.399132577983623"><ele>1318.4</ele><time>2026-04-25T14:28:37Z</time></trkpt><trkpt lat="46.02329226978381" lon="9.399225049219503"><ele>1316.2</ele><time>2026-04-25T14:28:38Z</time></trkpt><trkpt lat="46.02334180370253" lon="9.399373179393459"><ele>1314.0</ele><time>2026-04-25T14:28:40Z</time></trkpt><trkpt lat="46.02338660409166" lon="9.399547281809731"><ele>1314.0</ele><time>2026-04-25T14:28:42Z</time></trkpt><trkpt lat="46.023418087539355" lon="9.399650969796452"><ele>1314.0</ele><time>2026-04-25T14:28:43Z</time></trkpt><trkpt lat="46.02348512999788" lon="9.399767952011977"><ele>1314.0</ele><time>2026-04-25T14:28:45Z</time></trkpt><trkpt lat="46.0235118993575" lon="9.399855406647271"><ele>1314.0</ele><time>2026-04-25T14:28:48Z</time></trkpt><trkpt lat="46.02356254995068" lon="9.399953627314098"><ele>1314.0</ele><time>2026-04-25T14:28:50Z</time></trkpt><trkpt lat="46.02360113486863" lon="9.400028450208236"><ele>1314.0</ele><time>2026-04-25T14:28:51Z</time></trkpt><trkpt lat="46.02366974576197" lon="9.400170861678427"><ele>1318.0</ele><time>2026-04-25T14:28:53Z</time></trkpt><trkpt lat="46.02370877792909" lon="9.400272516324884"><ele>1322.0</ele><time>2026-04-25T14:28:54Z</time></trkpt><trkpt lat="46.023752065254634" lon="9.400360789849238"><ele>1326.0</ele><time>2026-04-25T14:28:55Z</time></trkpt><trkpt lat="46.02378804150136" lon="9.400463500441406"><ele>1330.0</ele><time>2026-04-25T14:28:57Z</time></trkpt><trkpt lat="46.023810402200944" lon="9.400580900517504"><ele>1334.0</ele><time>2026-04-25T14:28:59Z</time></trkpt><trkpt lat="46.02387558781161" lon="9.40072833919814"><ele>1338.0</ele><time>2026-04-25T14:29:01Z</time></trkpt><trkpt lat="46.02393744369871" lon="9.400878561736665"><ele>1341.4285714285716</ele><time>2026-04-25T14:29:03Z</time></trkpt><trkpt lat="46.02396760380825" lon="9.400963098521435"><ele>1344.857142857143</ele><time>2026-04-25T14:29:04Z</time></trkpt><trkpt lat="46.02396806253706" lon="9.401058545582664"><ele>1348.2857142857142</ele><time>2026-04-25T14:29:05Z</time></trkpt><trkpt lat="46.023984288910626" lon="9.401162695879933"><ele>1351.7142857142858</ele><time>2026-04-25T14:29:06Z</time></trkpt><trkpt lat="46.024002622305176" lon="9.401273522568212"><ele>1355.142857142857</ele><time>2026-04-25T14:29:07Z</time></trkpt><trkpt lat="46.024000492357054" lon="9.401375643861998"><ele>1358.5714285714287</ele><time>2026-04-25T14:29:08Z</time></trkpt><trkpt lat="46.02402119093895" lon="9.401479484479621"><ele>1362.0</ele><time>2026-04-25T14:29:10Z</time></trkpt><trkpt lat="46.0239698958434" lon="9.401260962602"><ele>1362.0</ele><time>2026-04-25T14:29:20Z</time></trkpt><trkpt lat="46.02382757348011" lon="9.401196862392853"><ele>1362.0</ele><time>2026-04-25T14:29:21Z</time></trkpt><trkpt lat="46.02377931293618" lon="9.401126559881046"><ele>1362.0</ele><time>2026-04-25T14:29:22Z</time></trkpt><trkpt lat="46.023681966380686" lon="9.401023257254446"><ele>1362.0</ele><time>2026-04-25T14:29:24Z</time></trkpt><trkpt lat="46.023590025537615" lon="9.400943451404082"><ele>1362.0</ele><time>2026-04-25T14:29:26Z</time></trkpt><trkpt lat="46.023480665195265" lon="9.40100350795431"><ele>1362.0</ele><time>2026-04-25T14:29:28Z</time></trkpt><trkpt lat="46.02343448679231" lon="9.40107315792186"><ele>1362.0</ele><time>2026-04-25T14:29:29Z</time></trkpt><trkpt lat="46.02334634533095" lon="9.401118213765752"><ele>1362.0</ele><time>2026-04-25T14:29:31Z</time></trkpt><trkpt lat="46.02330007852665" lon="9.401055003651418"><ele>1362.0</ele><time>2026-04-25T14:29:33Z</time></trkpt><trkpt lat="46.02321739079828" lon="9.400904565439182"><ele>1362.0</ele><time>2026-04-25T14:29:35Z</time></trkpt><trkpt lat="46.02315408725915" lon="9.400812864557818"><ele>1362.0</ele><time>2026-04-25T14:29:36Z</time></trkpt><trkpt lat="46.023084825348946" lon="9.400698575181512"><ele>1362.8333333333333</ele><time>2026-04-25T14:29:37Z</time></trkpt><trkpt lat="46.023037044818295" lon="9.400607263956672"><ele>1363.6666666666667</ele><time>2026-04-25T14:29:38Z</time></trkpt><trkpt lat="46.02297738782581" lon="9.40050985883975"><ele>1364.5</ele><time>2026-04-25T14:29:39Z</time></trkpt><trkpt lat="46.02290141454571" lon="9.400426791909732"><ele>1365.3333333333335</ele><time>2026-04-25T14:29:40Z</time></trkpt><trkpt lat="46.02282173635877" lon="9.400367803630779"><ele>1366.1666666666667</ele><time>2026-04-25T14:29:41Z</time></trkpt><trkpt lat="46.02276653348635" lon="9.400304159574526"><ele>1367.0</ele><time>2026-04-25T14:29:42Z</time></trkpt><trkpt lat="46.02269948452029" lon="9.40022518510743"><ele>1367.0</ele><time>2026-04-25T14:29:43Z</time></trkpt><trkpt lat="46.02262337759519" lon="9.400139674229743"><ele>1367.0</ele><time>2026-04-25T14:29:44Z</time></trkpt><trkpt lat="46.02255207642475" lon="9.400061091018705"><ele>1367.0</ele><time>2026-04-25T14:29:45Z</time></trkpt><trkpt lat="46.022489825959646" lon="9.400015254686254"><ele>1367.0</ele><time>2026-04-25T14:29:46Z</time></trkpt><trkpt lat="46.02242991965445" lon="9.399972179646989"><ele>1367.0</ele><time>2026-04-25T14:29:47Z</time></trkpt><trkpt lat="46.022350467322426" lon="9.399874952696662"><ele>1367.0</ele><time>2026-04-25T14:29:49Z</time></trkpt><trkpt lat="46.02228949182701" lon="9.399849354249433"><ele>1367.0</ele><time>2026-04-25T14:29:52Z</time></trkpt><trkpt lat="46.022275639969955" lon="9.399958159512295"><ele>1367.0</ele><time>2026-04-25T14:29:55Z</time></trkpt><trkpt lat="46.02234309778855" lon="9.400072133321366"><ele>1367.0</ele><time>2026-04-25T14:29:57Z</time></trkpt><trkpt lat="46.02237695040084" lon="9.400150930204866"><ele>1367.0</ele><time>2026-04-25T14:29:58Z</time></trkpt><trkpt lat="46.022414682764456" lon="9.400229478474749"><ele>1367.0</ele><time>2026-04-25T14:29:59Z</time></trkpt><trkpt lat="46.02245683104979" lon="9.40032764203999"><ele>1367.0</ele><time>2026-04-25T14:30:00Z</time></trkpt><trkpt lat="46.022506055988686" lon="9.400442866834114"><ele>1370.5</ele><time>2026-04-25T14:30:01Z</time></trkpt><trkpt lat="46.02255165497868" lon="9.400556348399709"><ele>1374.0</ele><time>2026-04-25T14:30:02Z</time></trkpt><trkpt lat="46.02260212732383" lon="9.400667724422911"><ele>1377.5</ele><time>2026-04-25T14:30:03Z</time></trkpt><trkpt lat="46.02264802705601" lon="9.400756899288435"><ele>1381.0</ele><time>2026-04-25T14:30:04Z</time></trkpt><trkpt lat="46.02269295903663" lon="9.400853288816922"><ele>1384.5</ele><time>2026-04-25T14:30:06Z</time></trkpt><trkpt lat="46.02263299100358" lon="9.400915703233311"><ele>1388.0</ele><time>2026-04-25T14:30:09Z</time></trkpt><trkpt lat="46.02256121322213" lon="9.400847571328644"><ele>1388.0</ele><time>2026-04-25T14:30:12Z</time></trkpt><trkpt lat="46.02251452465512" lon="9.400776536192652"><ele>1388.0</ele><time>2026-04-25T14:30:13Z</time></trkpt><trkpt lat="46.02245281247082" lon="9.400721152915969"><ele>1388.0</ele><time>2026-04-25T14:30:14Z</time></trkpt><trkpt lat="46.022396006482396" lon="9.400651115884932"><ele>1388.0</ele><time>2026-04-25T14:30:15Z</time></trkpt><trkpt lat="46.02233420905972" lon="9.400592858721627"><ele>1388.0</ele><time>2026-04-25T14:30:16Z</time></trkpt><trkpt lat="46.022276050841384" lon="9.400554275858473"><ele>1388.0</ele><time>2026-04-25T14:30:17Z</time></trkpt><trkpt lat="46.02215794377591" lon="9.400536211188216"><ele>1387.0</ele><time>2026-04-25T14:30:19Z</time></trkpt><trkpt lat="46.02208001936038" lon="9.400564912956662"><ele>1386.0</ele><time>2026-04-25T14:30:20Z</time></trkpt><trkpt lat="46.02200520177988" lon="9.40061081049647"><ele>1385.0</ele><time>2026-04-25T14:30:21Z</time></trkpt><trkpt lat="46.021949343597115" lon="9.400674120437127"><ele>1384.0</ele><time>2026-04-25T14:30:22Z</time></trkpt><trkpt lat="46.02189648181289" lon="9.400751953867264"><ele>1383.0</ele><time>2026-04-25T14:30:23Z</time></trkpt><trkpt lat="46.02181607627584" lon="9.400888394187858"><ele>1382.0</ele><time>2026-04-25T14:30:25Z</time></trkpt><trkpt lat="46.02178792058672" lon="9.400974035492162"><ele>1381.9999999999998</ele><time>2026-04-25T14:30:26Z</time></trkpt><trkpt lat="46.02177708509394" lon="9.40107740064212"><ele>1382.0</ele><time>2026-04-25T14:30:27Z</time></trkpt><trkpt lat="46.02177088154009" lon="9.401185852548862"><ele>1382.0</ele><time>2026-04-25T14:30:28Z</time></trkpt><trkpt lat="46.02175890768142" lon="9.40128689763998"><ele>1382.0</ele><time>2026-04-25T14:30:29Z</time></trkpt><trkpt lat="46.021759852833" lon="9.401389006768264"><ele>1382.0</ele><time>2026-04-25T14:30:30Z</time></trkpt><trkpt lat="46.021776630467215" lon="9.401490848614216"><ele>1381.9999999999998</ele><time>2026-04-25T14:30:31Z</time></trkpt><trkpt lat="46.02179219655993" lon="9.401586904823493"><ele>1382.0</ele><time>2026-04-25T14:30:32Z</time></trkpt><trkpt lat="46.021792927630045" lon="9.401710802030975"><ele>1381.8333333333335</ele><time>2026-04-25T14:30:34Z</time></trkpt><trkpt lat="46.02173775591755" lon="9.401803844695648"><ele>1381.6666666666667</ele><time>2026-04-25T14:30:36Z</time></trkpt><trkpt lat="46.02164537421733" lon="9.401921761516766"><ele>1381.5</ele><time>2026-04-25T14:30:38Z</time></trkpt><trkpt lat="46.02159834805253" lon="9.401997306141995"><ele>1381.3333333333333</ele><time>2026-04-25T14:30:39Z</time></trkpt><trkpt lat="46.02155241465603" lon="9.402093644846431"><ele>1381.1666666666665</ele><time>2026-04-25T14:30:40Z</time></trkpt><trkpt lat="46.021517506178085" lon="9.402185469175668"><ele>1381.0</ele><time>2026-04-25T14:30:41Z</time></trkpt><trkpt lat="46.02144754065737" lon="9.402301008381883"><ele>1383.1666666666665</ele><time>2026-04-25T14:30:43Z</time></trkpt><trkpt lat="46.021380898192234" lon="9.402359154855858"><ele>1385.3333333333333</ele><time>2026-04-25T14:30:44Z</time></trkpt><trkpt lat="46.02130088703429" lon="9.402421332564556"><ele>1387.5</ele><time>2026-04-25T14:30:45Z</time></trkpt><trkpt lat="46.02123247235284" lon="9.402494121690298"><ele>1389.6666666666667</ele><time>2026-04-25T14:30:46Z</time></trkpt><trkpt lat="46.021147055254694" lon="9.402601184444416"><ele>1391.8333333333335</ele><time>2026-04-25T14:30:48Z</time></trkpt><trkpt lat="46.02111903564444" lon="9.402706515607758"><ele>1394.0</ele><time>2026-04-25T14:30:50Z</time></trkpt><trkpt lat="46.021126616919375" lon="9.40279935711464"><ele>1394.0</ele><time>2026-04-25T14:30:51Z</time></trkpt><trkpt lat="46.02113840087005" lon="9.402889664676795"><ele>1394.0</ele><time>2026-04-25T14:30:52Z</time></trkpt><trkpt lat="46.02116089857928" lon="9.40298007792242"><ele>1394.0</ele><time>2026-04-25T14:30:55Z</time></trkpt><trkpt lat="46.021249162288804" lon="9.402931013048908"><ele>1394.0</ele><time>2026-04-25T14:30:58Z</time></trkpt><trkpt lat="46.021305827454874" lon="9.402808770800318"><ele>1394.0</ele><time>2026-04-25T14:31:00Z</time></trkpt><trkpt lat="46.02140322761717" lon="9.402732932038555"><ele>1394.0</ele><time>2026-04-25T14:31:02Z</time></trkpt><trkpt lat="46.02147122065153" lon="9.402685641497653"><ele>1394.0</ele><time>2026-04-25T14:31:03Z</time></trkpt><trkpt lat="46.021536307384515" lon="9.402623917330914"><ele>1394.0</ele><time>2026-04-25T14:31:04Z</time></trkpt><trkpt lat="46.021598850286395" lon="9.402568849479765"><ele>1394.0</ele><time>2026-04-25T14:31:05Z</time></trkpt><trkpt lat="46.02166907774103" lon="9.402532421277002"><ele>1394.0</ele><time>2026-04-25T14:31:06Z</time></trkpt><trkpt lat="46.02174225158004" lon="9.40252737348474"><ele>1394.0</ele><time>2026-04-25T14:31:07Z</time></trkpt><trkpt lat="46.02182977614554" lon="9.40254218983406"><ele>1394.0</ele><time>2026-04-25T14:31:08Z</time></trkpt><trkpt lat="46.0219173088014" lon="9.402576647176529"><ele>1399.3333333333335</ele><time>2026-04-25T14:31:09Z</time></trkpt><trkpt lat="46.02198214451487" lon="9.402605781370882"><ele>1404.6666666666667</ele><time>2026-04-25T14:31:10Z</time></trkpt><trkpt lat="46.02204028484833" lon="9.402651249125466"><ele>1410.0</ele><time>2026-04-25T14:31:12Z</time></trkpt><trkpt lat="46.02200276661686" lon="9.402755669606329"><ele>1415.3333333333333</ele><time>2026-04-25T14:31:15Z</time></trkpt><trkpt lat="46.02190679769863" lon="9.40274797019178"><ele>1420.6666666666665</ele><time>2026-04-25T14:31:17Z</time></trkpt><trkpt lat="46.02182325630563" lon="9.402741060978478"><ele>1426.0</ele><time>2026-04-25T14:31:18Z</time></trkpt><trkpt lat="46.02174006841656" lon="9.402789467525343"><ele>1426.0</ele><time>2026-04-25T14:31:20Z</time></trkpt><trkpt lat="46.02173829537869" lon="9.402886571948688"><ele>1426.0</ele><time>2026-04-25T14:31:22Z</time></trkpt><trkpt lat="46.021826141346054" lon="9.402930701343427"><ele>1426.0</ele><time>2026-04-25T14:31:24Z</time></trkpt><trkpt lat="46.02189567018996" lon="9.40294942054166"><ele>1426.0</ele><time>2026-04-25T14:31:25Z</time></trkpt><trkpt lat="46.021969718274875" lon="9.403013459233316"><ele>1426.0</ele><time>2026-04-25T14:31:26Z</time></trkpt><trkpt lat="46.02203346543769" lon="9.40309475136862"><ele>1426.0</ele><time>2026-04-25T14:31:27Z</time></trkpt><trkpt lat="46.022097430146694" lon="9.403163809382262"><ele>1429.3333333333333</ele><time>2026-04-25T14:31:27.999Z</time></trkpt><trkpt lat="46.02215768657287" lon="9.403203234722882"><ele>1432.6666666666665</ele><time>2026-04-25T14:31:28.999Z</time></trkpt><trkpt lat="46.02222400653506" lon="9.403201725854245"><ele>1436.0</ele><time>2026-04-25T14:31:29.999Z</time></trkpt><trkpt lat="46.02229146917872" lon="9.403190303037809"><ele>1439.3333333333333</ele><time>2026-04-25T14:31:30.999Z</time></trkpt><trkpt lat="46.02240011322237" lon="9.403249025900639"><ele>1442.6666666666667</ele><time>2026-04-25T14:31:32.999Z</time></trkpt><trkpt lat="46.02244975691895" lon="9.403326943235536"><ele>1446.0</ele><time>2026-04-25T14:31:33.999Z</time></trkpt><trkpt lat="46.02243996591845" lon="9.403445564735511"><ele>1446.0</ele><time>2026-04-25T14:31:36.999Z</time></trkpt><trkpt lat="46.022314906568155" lon="9.40349299867202"><ele>1446.0</ele><time>2026-04-25T14:31:38.999Z</time></trkpt><trkpt lat="46.02223982710676" lon="9.403513177894514"><ele>1446.0</ele><time>2026-04-25T14:31:39.999Z</time></trkpt><trkpt lat="46.02217626117823" lon="9.40354327338255"><ele>1446.0</ele><time>2026-04-25T14:31:40.999Z</time></trkpt><trkpt lat="46.02209929992772" lon="9.403581340921212"><ele>1446.0</ele><time>2026-04-25T14:31:41.999Z</time></trkpt><trkpt lat="46.02201971627239" lon="9.403617067766472"><ele>1446.0</ele><time>2026-04-25T14:31:42.999Z</time></trkpt><trkpt lat="46.02195705226059" lon="9.403645886721904"><ele>1446.0</ele><time>2026-04-25T14:31:43.999Z</time></trkpt><trkpt lat="46.02186990766037" lon="9.403712321205088"><ele>1446.0</ele><time>2026-04-25T14:31:46Z</time></trkpt><trkpt lat="46.02182616946399" lon="9.403798532052031"><ele>1446.0</ele><time>2026-04-25T14:31:47Z</time></trkpt><trkpt lat="46.02180945056862" lon="9.403886155035424"><ele>1446.0</ele><time>2026-04-25T14:31:48Z</time></trkpt><trkpt lat="46.02182063922601" lon="9.40407849798103"><ele>1446.0</ele><time>2026-04-25T14:31:50Z</time></trkpt><trkpt lat="46.02183055895047" lon="9.404210878419912"><ele>1448.8</ele><time>2026-04-25T14:31:51Z</time></trkpt><trkpt lat="46.021843604115155" lon="9.404376120276355"><ele>1451.6</ele><time>2026-04-25T14:31:53Z</time></trkpt><trkpt lat="46.02181038146043" lon="9.404518896343765"><ele>1454.4</ele><time>2026-04-25T14:31:55Z</time></trkpt><trkpt lat="46.02176649555033" lon="9.404608124094395"><ele>1457.2</ele><time>2026-04-25T14:31:56Z</time></trkpt><trkpt lat="46.021717662454314" lon="9.404695339027299"><ele>1460.0</ele><time>2026-04-25T14:31:57Z</time></trkpt><trkpt lat="46.0216698337111" lon="9.404805289191666"><ele>1459.0</ele><time>2026-04-25T14:31:58Z</time></trkpt><trkpt lat="46.021620884784305" lon="9.40490344197721"><ele>1458.0</ele><time>2026-04-25T14:31:59Z</time></trkpt><trkpt lat="46.021560279998575" lon="9.404978671376048"><ele>1457.0</ele><time>2026-04-25T14:32:00Z</time></trkpt><trkpt lat="46.02148754053185" lon="9.405054879193159"><ele>1456.0</ele><time>2026-04-25T14:32:01Z</time></trkpt><trkpt lat="46.021405555671905" lon="9.405132262859238"><ele>1455.0</ele><time>2026-04-25T14:32:02Z</time></trkpt><trkpt lat="46.021332200886675" lon="9.405208289835397"><ele>1454.0</ele><time>2026-04-25T14:32:03Z</time></trkpt><trkpt lat="46.021260231846966" lon="9.40528970096431"><ele>1454.0</ele><time>2026-04-25T14:32:04Z</time></trkpt><trkpt lat="46.02119899813363" lon="9.40536492453541"><ele>1454.0</ele><time>2026-04-25T14:32:05Z</time></trkpt><trkpt lat="46.02114145148458" lon="9.405434281524798"><ele>1454.0</ele><time>2026-04-25T14:32:06Z</time></trkpt><trkpt lat="46.02109167586011" lon="9.405491146388139"><ele>1454.0</ele><time>2026-04-25T14:32:07Z</time></trkpt><trkpt lat="46.02105181572016" lon="9.405570408736963"><ele>1454.0</ele><time>2026-04-25T14:32:10Z</time></trkpt><trkpt lat="46.021115954072656" lon="9.405595429296884"><ele>1454.0</ele><time>2026-04-25T14:32:13Z</time></trkpt><trkpt lat="46.02123469762306" lon="9.405519795675087"><ele>1454.0</ele><time>2026-04-25T14:32:15Z</time></trkpt><trkpt lat="46.021318082504536" lon="9.40548727705892"><ele>1454.0</ele><time>2026-04-25T14:32:16Z</time></trkpt><trkpt lat="46.02138368721593" lon="9.40547941048287"><ele>1454.0</ele><time>2026-04-25T14:32:17Z</time></trkpt><trkpt lat="46.02145381583677" lon="9.405453930254122"><ele>1454.0</ele><time>2026-04-25T14:32:18Z</time></trkpt><trkpt lat="46.02152956924004" lon="9.405435553162741"><ele>1454.0</ele><time>2026-04-25T14:32:19Z</time></trkpt><trkpt lat="46.02160806906382" lon="9.405434199127074"><ele>1454.0</ele><time>2026-04-25T14:32:20Z</time></trkpt><trkpt lat="46.02169470028751" lon="9.405435707591526"><ele>1460.4</ele><time>2026-04-25T14:32:21Z</time></trkpt><trkpt lat="46.02177699152845" lon="9.405439620337892"><ele>1466.8000000000002</ele><time>2026-04-25T14:32:22Z</time></trkpt><trkpt lat="46.02187076085525" lon="9.405430168866163"><ele>1473.1999999999998</ele><time>2026-04-25T14:32:23Z</time></trkpt><trkpt lat="46.02195644031319" lon="9.405416807875254"><ele>1479.6</ele><time>2026-04-25T14:32:24Z</time></trkpt><trkpt lat="46.022056713057545" lon="9.405387186571035"><ele>1486.0</ele><time>2026-04-25T14:32:25Z</time></trkpt><trkpt lat="46.022152756477574" lon="9.405400442396033"><ele>1486.0</ele><time>2026-04-25T14:32:26Z</time></trkpt><trkpt lat="46.02223067558966" lon="9.4054175208505"><ele>1486.0</ele><time>2026-04-25T14:32:27Z</time></trkpt><trkpt lat="46.0223090286999" lon="9.40546007576402"><ele>1486.0</ele><time>2026-04-25T14:32:29Z</time></trkpt><trkpt lat="46.02240802798197" lon="9.405525594311039"><ele>1486.0</ele><time>2026-04-25T14:32:31Z</time></trkpt><trkpt lat="46.022469431581825" lon="9.405575139177841"><ele>1486.0</ele><time>2026-04-25T14:33:05Z</time></trkpt><trkpt lat="46.0224247853326" lon="9.40566866366485"><ele>1486.0</ele><time>2026-04-25T14:33:07Z</time></trkpt><trkpt lat="46.02236017406171" lon="9.405662388292201"><ele>1520.0</ele><time>2026-04-25T14:33:08Z</time></trkpt><trkpt lat="46.02225762858014" lon="9.405615003615548"><ele>1520.0</ele><time>2026-04-25T14:33:10Z</time></trkpt><trkpt lat="46.02219480977171" lon="9.405641689648569"><ele>1520.0</ele><time>2026-04-25T14:33:26.999Z</time></trkpt><trkpt lat="46.02213473692703" lon="9.405677283607734"><ele>1520.0</ele><time>2026-04-25T14:33:35.999Z</time></trkpt></trkseg><trkseg><trkpt lat="46.022203593631396" lon="9.405676855688906"><ele>1520.0</ele><time>2026-04-25T14:45:52Z</time></trkpt><trkpt lat="46.0222945225236" lon="9.405633510870096"><ele>1520.0</ele><time>2026-04-25T14:45:54Z</time></trkpt><trkpt lat="46.022364274343474" lon="9.405640081183606"><ele>1520.0</ele><time>2026-04-25T14:45:56Z</time></trkpt><trkpt lat="46.022426488995286" lon="9.405607451311148"><ele>1520.0</ele><time>2026-04-25T14:45:59Z</time></trkpt><trkpt lat="46.02241122845734" lon="9.405508973246514"><ele>1520.0</ele><time>2026-04-25T14:46:02Z</time></trkpt><trkpt lat="46.02233786524329" lon="9.405472187671224"><ele>1520.0</ele><time>2026-04-25T14:46:04Z</time></trkpt><trkpt lat="46.02226229225385" lon="9.405445382155323"><ele>1513.2</ele><time>2026-04-25T14:46:06Z</time></trkpt><trkpt lat="46.02219072777438" lon="9.405410891622617"><ele>1506.4</ele><time>2026-04-25T14:46:08Z</time></trkpt><trkpt lat="46.02208648232558" lon="9.405391667854115"><ele>1499.6</ele><time>2026-04-25T14:46:10Z</time></trkpt><trkpt lat="46.02197966667559" lon="9.405395392562394"><ele>1492.8</ele><time>2026-04-25T14:46:12Z</time></trkpt><trkpt lat="46.02187541537481" lon="9.40542422687486"><ele>1486.0</ele><time>2026-04-25T14:46:14Z</time></trkpt><trkpt lat="46.02179066608612" lon="9.405440257567593"><ele>1486.0</ele><time>2026-04-25T14:46:16Z</time></trkpt><trkpt lat="46.02169753242137" lon="9.405454843441886"><ele>1486.0</ele><time>2026-04-25T14:46:18Z</time></trkpt><trkpt lat="46.02160712760897" lon="9.405449504395019"><ele>1486.0</ele><time>2026-04-25T14:46:20Z</time></trkpt><trkpt lat="46.02153695021258" lon="9.405437290738275"><ele>1486.0</ele><time>2026-04-25T14:46:22Z</time></trkpt><trkpt lat="46.02145589997402" lon="9.405440013883705"><ele>1486.0</ele><time>2026-04-25T14:46:24Z</time></trkpt><trkpt lat="46.021362470000426" lon="9.40545642550671"><ele>1486.0</ele><time>2026-04-25T14:46:26Z</time></trkpt><trkpt lat="46.02126213438447" lon="9.405491971449033"><ele>1484.5</ele><time>2026-04-25T14:46:28Z</time></trkpt><trkpt lat="46.02117883572773" lon="9.405540034632587"><ele>1483.0</ele><time>2026-04-25T14:46:30Z</time></trkpt><trkpt lat="46.021120012433855" lon="9.405593061676361"><ele>1481.5</ele><time>2026-04-25T14:46:33Z</time></trkpt><trkpt lat="46.02106315211774" lon="9.405521566603703"><ele>1480.0</ele><time>2026-04-25T14:46:38Z</time></trkpt><trkpt lat="46.02112996165384" lon="9.405421333041156"><ele>1478.5</ele><time>2026-04-25T14:46:41Z</time></trkpt><trkpt lat="46.02121053010346" lon="9.405332764539304"><ele>1477.0</ele><time>2026-04-25T14:46:43Z</time></trkpt><trkpt lat="46.021269493199775" lon="9.405280582738214"><ele>1478.8</ele><time>2026-04-25T14:46:44Z</time></trkpt><trkpt lat="46.02132207158524" lon="9.405229605708998"><ele>1480.6</ele><time>2026-04-25T14:46:45Z</time></trkpt><trkpt lat="46.02141899720266" lon="9.405116653300498"><ele>1482.3999999999999</ele><time>2026-04-25T14:46:47Z</time></trkpt><trkpt lat="46.02151239004396" lon="9.40504053054143"><ele>1484.1999999999998</ele><time>2026-04-25T14:46:49Z</time></trkpt><trkpt lat="46.021591572250145" lon="9.404960903234533"><ele>1486.0</ele><time>2026-04-25T14:46:51Z</time></trkpt><trkpt lat="46.021664935399464" lon="9.404841211699205"><ele>1486.0</ele><time>2026-04-25T14:46:53Z</time></trkpt><trkpt lat="46.02172700462115" lon="9.404712986434935"><ele>1486.0</ele><time>2026-04-25T14:46:55Z</time></trkpt><trkpt lat="46.0217748595202" lon="9.404569234367948"><ele>1486.0</ele><time>2026-04-25T14:46:57Z</time></trkpt><trkpt lat="46.02180936106686" lon="9.404435686191812"><ele>1486.0</ele><time>2026-04-25T14:46:59Z</time></trkpt><trkpt lat="46.0218246839491" lon="9.404303517179915"><ele>1486.0</ele><time>2026-04-25T14:47:01Z</time></trkpt><trkpt lat="46.02181352179102" lon="9.404167789771275"><ele>1480.8</ele><time>2026-04-25T14:47:03Z</time></trkpt><trkpt lat="46.02179865284472" lon="9.404029088453399"><ele>1475.6</ele><time>2026-04-25T14:47:05.001Z</time></trkpt><trkpt lat="46.02179730099757" lon="9.403904193705939"><ele>1470.4</ele><time>2026-04-25T14:47:07.001Z</time></trkpt><trkpt lat="46.021832559728715" lon="9.403776414608593"><ele>1465.2</ele><time>2026-04-25T14:47:09.001Z</time></trkpt><trkpt lat="46.02189579525297" lon="9.403678449918191"><ele>1460.0</ele><time>2026-04-25T14:47:11.001Z</time></trkpt><trkpt lat="46.021990816285246" lon="9.403613013798335"><ele>1457.2</ele><time>2026-04-25T14:47:13.001Z</time></trkpt><trkpt lat="46.022099435563774" lon="9.403568280810912"><ele>1454.4</ele><time>2026-04-25T14:47:15.001Z</time></trkpt><trkpt lat="46.0221988710057" lon="9.403532991394574"><ele>1451.6</ele><time>2026-04-25T14:47:17.001Z</time></trkpt><trkpt lat="46.02228904607726" lon="9.403489134946511"><ele>1448.8</ele><time>2026-04-25T14:47:19.001Z</time></trkpt><trkpt lat="46.022366690429855" lon="9.403459249559246"><ele>1446.0</ele><time>2026-04-25T14:47:21.001Z</time></trkpt><trkpt lat="46.02243058118652" lon="9.40344580124239"><ele>1446.0</ele><time>2026-04-25T14:47:23.001Z</time></trkpt><trkpt lat="46.02244657104878" lon="9.403332172002346"><ele>1446.0</ele><time>2026-04-25T14:47:28.001Z</time></trkpt><trkpt lat="46.02238581784669" lon="9.403251333035781"><ele>1446.0</ele><time>2026-04-25T14:47:30.001Z</time></trkpt><trkpt lat="46.02230021659914" lon="9.403191408533447"><ele>1446.0</ele><time>2026-04-25T14:47:32.001Z</time></trkpt><trkpt lat="46.02221755067969" lon="9.403190849189935"><ele>1446.0</ele><time>2026-04-25T14:47:34.001Z</time></trkpt><trkpt lat="46.02213787572777" lon="9.403188265670572"><ele>1446.0</ele><time>2026-04-25T14:47:36.001Z</time></trkpt><trkpt lat="46.02205848598383" lon="9.403129908636446"><ele>1446.0</ele><time>2026-04-25T14:47:38.001Z</time></trkpt><trkpt lat="46.021989574956756" lon="9.40304227932481"><ele>1446.0</ele><time>2026-04-25T14:47:40.001Z</time></trkpt><trkpt lat="46.02191773444184" lon="9.402953572114107"><ele>1446.0</ele><time>2026-04-25T14:47:42.001Z</time></trkpt><trkpt lat="46.02184780470639" lon="9.40291439720516"><ele>1446.0</ele><time>2026-04-25T14:47:44.001Z</time></trkpt><trkpt lat="46.02178293024943" lon="9.402916457314221"><ele>1446.0</ele><time>2026-04-25T14:47:46.001Z</time></trkpt><trkpt lat="46.021740331624635" lon="9.402848112297802"><ele>1446.0</ele><time>2026-04-25T14:47:49.001Z</time></trkpt><trkpt lat="46.021779142772985" lon="9.402764055643926"><ele>1442.6666666666667</ele><time>2026-04-25T14:47:51.001Z</time></trkpt><trkpt lat="46.021875143307035" lon="9.402737390772808"><ele>1439.3333333333333</ele><time>2026-04-25T14:47:53.001Z</time></trkpt><trkpt lat="46.02196863337387" lon="9.402747457148468"><ele>1436.0</ele><time>2026-04-25T14:47:55.001Z</time></trkpt><trkpt lat="46.02203715684079" lon="9.402763377114109"><ele>1432.6666666666665</ele><time>2026-04-25T14:47:57.001Z</time></trkpt><trkpt lat="46.02206701643342" lon="9.402663046255002"><ele>1429.3333333333333</ele><time>2026-04-25T14:48:00.001Z</time></trkpt><trkpt lat="46.02199981525998" lon="9.402597268125389"><ele>1426.0</ele><time>2026-04-25T14:48:02.001Z</time></trkpt><trkpt lat="46.0218988328922" lon="9.402582820110771"><ele>1426.0</ele><time>2026-04-25T14:48:04.001Z</time></trkpt><trkpt lat="46.021796758214116" lon="9.40254570196597"><ele>1426.0</ele><time>2026-04-25T14:48:06.001Z</time></trkpt><trkpt lat="46.021698177857076" lon="9.402552587539573"><ele>1426.0</ele><time>2026-04-25T14:48:08.001Z</time></trkpt><trkpt lat="46.0216083861386" lon="9.402607219200434"><ele>1426.0</ele><time>2026-04-25T14:48:10.001Z</time></trkpt><trkpt lat="46.02152117388187" lon="9.402666570920552"><ele>1426.0</ele><time>2026-04-25T14:48:12.001Z</time></trkpt><trkpt lat="46.02145121904508" lon="9.402729601916139"><ele>1420.6666666666665</ele><time>2026-04-25T14:48:14.001Z</time></trkpt><trkpt lat="46.021364548328506" lon="9.402796514797329"><ele>1415.3333333333333</ele><time>2026-04-25T14:48:16.001Z</time></trkpt><trkpt lat="46.02129416337554" lon="9.402870058420763"><ele>1410.0</ele><time>2026-04-25T14:48:18.001Z</time></trkpt><trkpt lat="46.021244695723134" lon="9.402987501379258"><ele>1404.6666666666667</ele><time>2026-04-25T14:48:21.001Z</time></trkpt><trkpt lat="46.021164489305775" lon="9.402979153710405"><ele>1399.3333333333335</ele><time>2026-04-25T14:48:24.001Z</time></trkpt><trkpt lat="46.02114228918668" lon="9.402865763055582"><ele>1394.0</ele><time>2026-04-25T14:48:26.001Z</time></trkpt><trkpt lat="46.021142941639596" lon="9.402730740436205"><ele>1394.0</ele><time>2026-04-25T14:48:28.001Z</time></trkpt><trkpt lat="46.021169394815786" lon="9.40260705464389"><ele>1394.0</ele><time>2026-04-25T14:48:30.001Z</time></trkpt><trkpt lat="46.02123044600849" lon="9.40251718059599"><ele>1394.0</ele><time>2026-04-25T14:48:32.001Z</time></trkpt><trkpt lat="46.02133033282723" lon="9.402445894385547"><ele>1394.0</ele><time>2026-04-25T14:48:34.001Z</time></trkpt><trkpt lat="46.02141241291915" lon="9.402344893108038"><ele>1394.0</ele><time>2026-04-25T14:48:36.001Z</time></trkpt><trkpt lat="46.02148711568451" lon="9.402263135022656"><ele>1391.8333333333335</ele><time>2026-04-25T14:48:38.001Z</time></trkpt><trkpt lat="46.02153981075601" lon="9.40214326468567"><ele>1389.6666666666667</ele><time>2026-04-25T14:48:40.001Z</time></trkpt><trkpt lat="46.02159301872244" lon="9.402038269597428"><ele>1387.5</ele><time>2026-04-25T14:48:42.001Z</time></trkpt><trkpt lat="46.02163462756074" lon="9.401961952529243"><ele>1385.3333333333333</ele><time>2026-04-25T14:48:44.001Z</time></trkpt><trkpt lat="46.02167495275763" lon="9.40188528349039"><ele>1383.1666666666665</ele><time>2026-04-25T14:48:46.001Z</time></trkpt><trkpt lat="46.02172804375083" lon="9.40181824815383"><ele>1381.0</ele><time>2026-04-25T14:48:48.001Z</time></trkpt><trkpt lat="46.02178287347015" lon="9.4017029941549"><ele>1381.25</ele><time>2026-04-25T14:48:50.001Z</time></trkpt><trkpt lat="46.02176252595131" lon="9.401539654218412"><ele>1381.5</ele><time>2026-04-25T14:48:52.001Z</time></trkpt><trkpt lat="46.0217218254674" lon="9.40139046559451"><ele>1381.75</ele><time>2026-04-25T14:48:54.001Z</time></trkpt><trkpt lat="46.02173183803861" lon="9.401224809284566"><ele>1382.0</ele><time>2026-04-25T14:48:56.001Z</time></trkpt><trkpt lat="46.02176055753662" lon="9.401054263682294"><ele>1382.0</ele><time>2026-04-25T14:48:58.001Z</time></trkpt><trkpt lat="46.02179385920824" lon="9.400888592222275"><ele>1382.0</ele><time>2026-04-25T14:49:00.001Z</time></trkpt><trkpt lat="46.02187095074585" lon="9.4007705453199"><ele>1382.0</ele><time>2026-04-25T14:49:02.001Z</time></trkpt><trkpt lat="46.02194204608541" lon="9.400699591328605"><ele>1382.0</ele><time>2026-04-25T14:49:04.001Z</time></trkpt><trkpt lat="46.0220049541814" lon="9.400623811066605"><ele>1382.0</ele><time>2026-04-25T14:49:06.001Z</time></trkpt><trkpt lat="46.02208574924864" lon="9.400565643759387"><ele>1382.0</ele><time>2026-04-25T14:49:08.001Z</time></trkpt><trkpt lat="46.02219003306854" lon="9.40054562140069"><ele>1382.0</ele><time>2026-04-25T14:49:10.001Z</time></trkpt><trkpt lat="46.022305514010434" lon="9.400588492308747"><ele>1382.0</ele><time>2026-04-25T14:49:12.001Z</time></trkpt><trkpt lat="46.022426880955976" lon="9.400681750140734"><ele>1382.0</ele><time>2026-04-25T14:49:14.001Z</time></trkpt><trkpt lat="46.0224799472054" lon="9.400743280291767"><ele>1382.0</ele><time>2026-04-25T14:49:15.001Z</time></trkpt><trkpt lat="46.02255823538016" lon="9.400842799759538"><ele>1383.0</ele><time>2026-04-25T14:49:17.001Z</time></trkpt><trkpt lat="46.02262471897689" lon="9.40090971081212"><ele>1384.0</ele><time>2026-04-25T14:49:20.001Z</time></trkpt><trkpt lat="46.02268271535193" lon="9.400847407493965"><ele>1385.0</ele><time>2026-04-25T14:49:24.001Z</time></trkpt><trkpt lat="46.02261603977695" lon="9.400706075117535"><ele>1386.0</ele><time>2026-04-25T14:49:27.001Z</time></trkpt><trkpt lat="46.02257641381196" lon="9.400622458520077"><ele>1387.0</ele><time>2026-04-25T14:49:28.001Z</time></trkpt><trkpt lat="46.022536648970096" lon="9.400534419378095"><ele>1388.0</ele><time>2026-04-25T14:49:29.001Z</time></trkpt><trkpt lat="46.02250338597174" lon="9.40045244700795"><ele>1383.4</ele><time>2026-04-25T14:49:30.001Z</time></trkpt><trkpt lat="46.02247210767034" lon="9.400372492389105"><ele>1378.8000000000002</ele><time>2026-04-25T14:49:31.001Z</time></trkpt><trkpt lat="46.02240254271552" lon="9.400221420333564"><ele>1374.2</ele><time>2026-04-25T14:49:33.001Z</time></trkpt><trkpt lat="46.02233817330265" lon="9.400101408717754"><ele>1369.6</ele><time>2026-04-25T14:49:35.001Z</time></trkpt><trkpt lat="46.02229537622573" lon="9.399979820840905"><ele>1365.0</ele><time>2026-04-25T14:49:37.001Z</time></trkpt><trkpt lat="46.02225668433711" lon="9.399905183121119"><ele>1365.0</ele><time>2026-04-25T14:49:39.001Z</time></trkpt><trkpt lat="46.02230512636249" lon="9.39983383764865"><ele>1365.0</ele><time>2026-04-25T14:49:42.001Z</time></trkpt><trkpt lat="46.02237799976366" lon="9.399895283453931"><ele>1365.0</ele><time>2026-04-25T14:49:44.001Z</time></trkpt><trkpt lat="46.02245554637173" lon="9.399991631923628"><ele>1365.0</ele><time>2026-04-25T14:49:46.001Z</time></trkpt><trkpt lat="46.022557824886604" lon="9.400078003418859"><ele>1365.0</ele><time>2026-04-25T14:49:48.001Z</time></trkpt><trkpt lat="46.02265355747249" lon="9.400167905176986"><ele>1365.5</ele><time>2026-04-25T14:49:50.001Z</time></trkpt><trkpt lat="46.02274315558307" lon="9.400281020243977"><ele>1366.0</ele><time>2026-04-25T14:49:52.001Z</time></trkpt><trkpt lat="46.02282429952076" lon="9.40036730452315"><ele>1366.5</ele><time>2026-04-25T14:49:54.001Z</time></trkpt><trkpt lat="46.02290907158038" lon="9.400476446115595"><ele>1367.0</ele><time>2026-04-25T14:49:56.001Z</time></trkpt><trkpt lat="46.02300211135894" lon="9.400587303651259"><ele>1366.0</ele><time>2026-04-25T14:49:58.001Z</time></trkpt><trkpt lat="46.023087413443726" lon="9.400704286682103"><ele>1365.0</ele><time>2026-04-25T14:50:00.001Z</time></trkpt><trkpt lat="46.023168496375504" lon="9.400843179255615"><ele>1364.0</ele><time>2026-04-25T14:50:02.001Z</time></trkpt><trkpt lat="46.02324361496297" lon="9.400948916667359"><ele>1363.0</ele><time>2026-04-25T14:50:04.001Z</time></trkpt><trkpt lat="46.02329137137054" lon="9.401037441248446"><ele>1362.0</ele><time>2026-04-25T14:50:06.001Z</time></trkpt><trkpt lat="46.02334717176821" lon="9.40109316440243"><ele>1362.0</ele><time>2026-04-25T14:50:08.001Z</time></trkpt><trkpt lat="46.02342791234131" lon="9.401072153477989"><ele>1362.0</ele><time>2026-04-25T14:50:10.001Z</time></trkpt><trkpt lat="46.023499635742844" lon="9.40097130899932"><ele>1362.0</ele><time>2026-04-25T14:50:12.001Z</time></trkpt><trkpt lat="46.02356246598983" lon="9.400922804555652"><ele>1362.0</ele><time>2026-04-25T14:50:14.001Z</time></trkpt><trkpt lat="46.023659849319145" lon="9.40096531671752"><ele>1362.0</ele><time>2026-04-25T14:50:16.001Z</time></trkpt><trkpt lat="46.02374480839918" lon="9.401060193909094"><ele>1362.0</ele><time>2026-04-25T14:50:18.001Z</time></trkpt><trkpt lat="46.02382645318889" lon="9.401194016434085"><ele>1362.0</ele><time>2026-04-25T14:50:20.001Z</time></trkpt><trkpt lat="46.02390373479558" lon="9.401318064000034"><ele>1362.0</ele><time>2026-04-25T14:50:22.001Z</time></trkpt><trkpt lat="46.02394671878298" lon="9.401445870501759"><ele>1362.0</ele><time>2026-04-25T14:50:24.001Z</time></trkpt><trkpt lat="46.02398745153582" lon="9.401529257926166"><ele>1362.0</ele><time>2026-04-25T14:50:26.001Z</time></trkpt><trkpt lat="46.024033107115294" lon="9.401615782558808"><ele>1362.0</ele><time>2026-04-25T14:50:29.001Z</time></trkpt><trkpt lat="46.02407704085159" lon="9.401517089834918"><ele>1362.0</ele><time>2026-04-25T14:50:34.001Z</time></trkpt><trkpt lat="46.02403775815907" lon="9.401370099274335"><ele>1362.0</ele><time>2026-04-25T14:50:36.001Z</time></trkpt><trkpt lat="46.02401625630594" lon="9.401206694575743"><ele>1362.0</ele><time>2026-04-25T14:50:38.002Z</time></trkpt><trkpt lat="46.02400585651639" lon="9.401116639820147"><ele>1362.0</ele><time>2026-04-25T14:50:39.002Z</time></trkpt><trkpt lat="46.02399506111533" lon="9.401024929881709"><ele>1362.0</ele><time>2026-04-25T14:50:40.002Z</time></trkpt><trkpt lat="46.02396453818471" lon="9.400867576458541"><ele>1362.0</ele><time>2026-04-25T14:50:42.002Z</time></trkpt><trkpt lat="46.02392668745924" lon="9.400724566372654"><ele>1362.0</ele><time>2026-04-25T14:50:44.001Z</time></trkpt><trkpt lat="46.023892207696974" lon="9.400643447951213"><ele>1362.0</ele><time>2026-04-25T14:50:45.001Z</time></trkpt><trkpt lat="46.02385505279706" lon="9.400563154608811"><ele>1362.0</ele><time>2026-04-25T14:50:46.001Z</time></trkpt><trkpt lat="46.023797060054065" lon="9.40042469721831"><ele>1362.0</ele><time>2026-04-25T14:50:48.001Z</time></trkpt><trkpt lat="46.02377715243225" lon="9.40026232403701"><ele>1357.1999999999998</ele><time>2026-04-25T14:50:50.001Z</time></trkpt><trkpt lat="46.02372669697225" lon="9.4001671114599"><ele>1352.4</ele><time>2026-04-25T14:50:52.001Z</time></trkpt><trkpt lat="46.02366606099748" lon="9.40003390881335"><ele>1347.6</ele><time>2026-04-25T14:50:54.001Z</time></trkpt><trkpt lat="46.02358822047701" lon="9.399945843809206"><ele>1342.8000000000002</ele><time>2026-04-25T14:50:56.001Z</time></trkpt><trkpt lat="46.023517087766145" lon="9.399820717602836"><ele>1338.0</ele><time>2026-04-25T14:50:58.001Z</time></trkpt><trkpt lat="46.02346514575444" lon="9.399624842327265"><ele>1339.5714285714287</ele><time>2026-04-25T14:51:00.001Z</time></trkpt><trkpt lat="46.023441237896165" lon="9.399528594888762"><ele>1341.142857142857</ele><time>2026-04-25T14:51:01.001Z</time></trkpt><trkpt lat="46.02341229750068" lon="9.399442332212207"><ele>1342.7142857142858</ele><time>2026-04-25T14:51:02.001Z</time></trkpt><trkpt lat="46.02337306946276" lon="9.399357707458147"><ele>1344.2857142857142</ele><time>2026-04-25T14:51:03.001Z</time></trkpt><trkpt lat="46.02334132676656" lon="9.399271032760527"><ele>1345.857142857143</ele><time>2026-04-25T14:51:04.001Z</time></trkpt><trkpt lat="46.02330185651086" lon="9.399186251384927"><ele>1347.4285714285713</ele><time>2026-04-25T14:51:05.001Z</time></trkpt><trkpt lat="46.02327058476138" lon="9.39909660361954"><ele>1349.0</ele><time>2026-04-25T14:51:06.001Z</time></trkpt><trkpt lat="46.02324051057068" lon="9.398998907698582"><ele>1349.0</ele><time>2026-04-25T14:51:07.001Z</time></trkpt><trkpt lat="46.02321274582091" lon="9.398893630169308"><ele>1349.0</ele><time>2026-04-25T14:51:08.001Z</time></trkpt><trkpt lat="46.023179275025036" lon="9.398791494616935"><ele>1349.0</ele><time>2026-04-25T14:51:09.001Z</time></trkpt><trkpt lat="46.02315292188995" lon="9.398687097544967"><ele>1349.0</ele><time>2026-04-25T14:51:10.001Z</time></trkpt><trkpt lat="46.02312342430283" lon="9.398583081064471"><ele>1349.0</ele><time>2026-04-25T14:51:11.001Z</time></trkpt><trkpt lat="46.023113237662166" lon="9.398484124941286"><ele>1349.0</ele><time>2026-04-25T14:51:12.001Z</time></trkpt><trkpt lat="46.023092691065784" lon="9.398328413636028"><ele>1343.0</ele><time>2026-04-25T14:51:14.001Z</time></trkpt><trkpt lat="46.02304241560237" lon="9.398188395539627"><ele>1337.0</ele><time>2026-04-25T14:51:16.001Z</time></trkpt><trkpt lat="46.022998023637754" lon="9.39800129530511"><ele>1331.0</ele><time>2026-04-25T14:51:18.001Z</time></trkpt><trkpt lat="46.022964537582425" lon="9.39791177434963"><ele>1325.0</ele><time>2026-04-25T14:51:19.001Z</time></trkpt><trkpt lat="46.0229001177098" lon="9.397742140518861"><ele>1321.5714285714287</ele><time>2026-04-25T14:51:21.001Z</time></trkpt><trkpt lat="46.022879255349636" lon="9.397641847968023"><ele>1318.142857142857</ele><time>2026-04-25T14:51:22.001Z</time></trkpt><trkpt lat="46.02282725669933" lon="9.397563202739251"><ele>1314.7142857142858</ele><time>2026-04-25T14:51:23.001Z</time></trkpt><trkpt lat="46.02280333139176" lon="9.397457070435077"><ele>1311.2857142857142</ele><time>2026-04-25T14:51:24.001Z</time></trkpt><trkpt lat="46.02276434474428" lon="9.397372793621477"><ele>1307.857142857143</ele><time>2026-04-25T14:51:25.001Z</time></trkpt><trkpt lat="46.02273571630082" lon="9.397284597714162"><ele>1304.4285714285713</ele><time>2026-04-25T14:51:26.001Z</time></trkpt><trkpt lat="46.022721248851596" lon="9.397191744380807"><ele>1301.0</ele><time>2026-04-25T14:51:27.001Z</time></trkpt><trkpt lat="46.022700195839136" lon="9.397033479061362"><ele>1298.1999999999998</ele><time>2026-04-25T14:51:29.001Z</time></trkpt><trkpt lat="46.02267023508501" lon="9.39687253084667"><ele>1295.3999999999999</ele><time>2026-04-25T14:51:31.001Z</time></trkpt><trkpt lat="46.022673477543826" lon="9.39677873350656"><ele>1292.6</ele><time>2026-04-25T14:51:32.001Z</time></trkpt><trkpt lat="46.02264418162968" lon="9.39665035285865"><ele>1289.8</ele><time>2026-04-25T14:51:34.001Z</time></trkpt><trkpt lat="46.022634831502636" lon="9.396481060179298"><ele>1287.0</ele><time>2026-04-25T14:51:36.001Z</time></trkpt><trkpt lat="46.02259979582209" lon="9.39633127197842"><ele>1284.1999999999998</ele><time>2026-04-25T14:51:38.001Z</time></trkpt><trkpt lat="46.022532868984" lon="9.396233300029907"><ele>1281.3999999999999</ele><time>2026-04-25T14:51:40.001Z</time></trkpt><trkpt lat="46.02245391473151" lon="9.396100124541034"><ele>1278.6</ele><time>2026-04-25T14:51:42.001Z</time></trkpt><trkpt lat="46.02237501189244" lon="9.396005619329182"><ele>1275.8</ele><time>2026-04-25T14:51:44.001Z</time></trkpt><trkpt lat="46.022302884267134" lon="9.395883149313818"><ele>1273.0</ele><time>2026-04-25T14:51:46.001Z</time></trkpt><trkpt lat="46.02226825155471" lon="9.395725514671954"><ele>1273.0</ele><time>2026-04-25T14:51:48.001Z</time></trkpt><trkpt lat="46.022239775422285" lon="9.395551704505744"><ele>1273.0</ele><time>2026-04-25T14:51:50.001Z</time></trkpt><trkpt lat="46.0221803226028" lon="9.395417978319584"><ele>1273.0</ele><time>2026-04-25T14:51:52.001Z</time></trkpt><trkpt lat="46.02210163171418" lon="9.395282190736403"><ele>1273.0</ele><time>2026-04-25T14:51:54.001Z</time></trkpt><trkpt lat="46.02202715839126" lon="9.395179956208729"><ele>1267.2</ele><time>2026-04-25T14:51:56.001Z</time></trkpt><trkpt lat="46.021939272542234" lon="9.39510738482722"><ele>1261.4</ele><time>2026-04-25T14:51:58.001Z</time></trkpt><trkpt lat="46.02182657403686" lon="9.395105143716556"><ele>1255.6000000000001</ele><time>2026-04-25T14:52:00.001Z</time></trkpt><trkpt lat="46.02172428594293" lon="9.39512997085384"><ele>1249.8</ele><time>2026-04-25T14:52:02.001Z</time></trkpt><trkpt lat="46.02161059971614" lon="9.395161120732189"><ele>1244.0</ele><time>2026-04-25T14:52:04.001Z</time></trkpt><trkpt lat="46.021498938520395" lon="9.395208143814298"><ele>1242.8333333333335</ele><time>2026-04-25T14:52:06.001Z</time></trkpt><trkpt lat="46.02137902130279" lon="9.395213357611436"><ele>1241.6666666666667</ele><time>2026-04-25T14:52:08.001Z</time></trkpt><trkpt lat="46.02131609473117" lon="9.395240487695043"><ele>1240.5</ele><time>2026-04-25T14:52:09.001Z</time></trkpt><trkpt lat="46.02125390031959" lon="9.395285930469063"><ele>1239.3333333333333</ele><time>2026-04-25T14:52:10.001Z</time></trkpt><trkpt lat="46.02120153205002" lon="9.395347426856922"><ele>1238.1666666666665</ele><time>2026-04-25T14:52:11.001Z</time></trkpt><trkpt lat="46.021108383004965" lon="9.39546572605869"><ele>1237.0</ele><time>2026-04-25T14:52:13.001Z</time></trkpt><trkpt lat="46.02105723038225" lon="9.395531972579276"><ele>1237.0</ele><time>2026-04-25T14:52:14.001Z</time></trkpt><trkpt lat="46.02101104347962" lon="9.395594397003238"><ele>1237.0</ele><time>2026-04-25T14:52:15.001Z</time></trkpt><trkpt lat="46.02096578192466" lon="9.395659178893403"><ele>1237.0</ele><time>2026-04-25T14:52:16.001Z</time></trkpt><trkpt lat="46.02091894940462" lon="9.395726209540003"><ele>1237.0</ele><time>2026-04-25T14:52:17.001Z</time></trkpt><trkpt lat="46.020880897268746" lon="9.395800690248384"><ele>1237.0</ele><time>2026-04-25T14:52:18.001Z</time></trkpt><trkpt lat="46.02077506355865" lon="9.395902676206738"><ele>1237.0</ele><time>2026-04-25T14:52:20.001Z</time></trkpt><trkpt lat="46.020679557240385" lon="9.396014148276"><ele>1235.8333333333333</ele><time>2026-04-25T14:52:22.001Z</time></trkpt><trkpt lat="46.02063349402708" lon="9.396097522431889"><ele>1234.6666666666665</ele><time>2026-04-25T14:52:23.001Z</time></trkpt><trkpt lat="46.02059470176733" lon="9.39618842895191"><ele>1233.5</ele><time>2026-04-25T14:52:24.001Z</time></trkpt><trkpt lat="46.02052225693194" lon="9.39631065612209"><ele>1232.3333333333333</ele><time>2026-04-25T14:52:26.001Z</time></trkpt><trkpt lat="46.02046515601974" lon="9.3964170910539"><ele>1231.1666666666667</ele><time>2026-04-25T14:52:28.001Z</time></trkpt><trkpt lat="46.02038028420245" lon="9.396472251239688"><ele>1230.0</ele><time>2026-04-25T14:52:30.001Z</time></trkpt><trkpt lat="46.02029034177394" lon="9.396480918339977"><ele>1230.0</ele><time>2026-04-25T14:52:32.001Z</time></trkpt><trkpt lat="46.02018388731367" lon="9.396485562350952"><ele>1230.0</ele><time>2026-04-25T14:52:34.001Z</time></trkpt><trkpt lat="46.02011152976333" lon="9.39650616062117"><ele>1230.0</ele><time>2026-04-25T14:52:35.001Z</time></trkpt><trkpt lat="46.01998711935379" lon="9.39650602717018"><ele>1230.0</ele><time>2026-04-25T14:52:37.001Z</time></trkpt><trkpt lat="46.01991872472501" lon="9.39649697094341"><ele>1230.0</ele><time>2026-04-25T14:52:38.001Z</time></trkpt><trkpt lat="46.01985597630058" lon="9.396488623894212"><ele>1230.0</ele><time>2026-04-25T14:52:39.001Z</time></trkpt><trkpt lat="46.01978883432382" lon="9.396476328926003"><ele>1225.0</ele><time>2026-04-25T14:52:40.001Z</time></trkpt><trkpt lat="46.01972635757795" lon="9.39649438705418"><ele>1220.0</ele><time>2026-04-25T14:52:41.001Z</time></trkpt><trkpt lat="46.019664344177244" lon="9.39651882140174"><ele>1215.0</ele><time>2026-04-25T14:52:42.002Z</time></trkpt><trkpt lat="46.01960110620229" lon="9.396555246067189"><ele>1210.0</ele><time>2026-04-25T14:52:43.002Z</time></trkpt><trkpt lat="46.019507771942266" lon="9.396608503982366"><ele>1205.0</ele><time>2026-04-25T14:52:45.002Z</time></trkpt><trkpt lat="46.01942560702091" lon="9.396645214230913"><ele>1200.0</ele><time>2026-04-25T14:52:47.002Z</time></trkpt><trkpt lat="46.019332794548056" lon="9.396768072088523"><ele>1200.0</ele><time>2026-04-25T14:52:49.001Z</time></trkpt><trkpt lat="46.01930066222158" lon="9.396847871704312"><ele>1200.0</ele><time>2026-04-25T14:52:50.001Z</time></trkpt><trkpt lat="46.01926122632252" lon="9.396943514077536"><ele>1200.0</ele><time>2026-04-25T14:52:52.001Z</time></trkpt><trkpt lat="46.019213466634895" lon="9.39687382775692"><ele>1200.0</ele><time>2026-04-25T14:52:58.001Z</time></trkpt><trkpt lat="46.01925335206404" lon="9.396768425825998"><ele>1200.0</ele><time>2026-04-25T14:53:00.001Z</time></trkpt><trkpt lat="46.01927876360945" lon="9.396649005738453"><ele>1200.0</ele><time>2026-04-25T14:53:02.001Z</time></trkpt><trkpt lat="46.01929153895612" lon="9.396535962664759"><ele>1200.0</ele><time>2026-04-25T14:53:04.001Z</time></trkpt><trkpt lat="46.01932905921994" lon="9.39639567205786"><ele>1200.0</ele><time>2026-04-25T14:53:06.001Z</time></trkpt><trkpt lat="46.01941490093888" lon="9.396288609883758"><ele>1200.0</ele><time>2026-04-25T14:53:08.001Z</time></trkpt><trkpt lat="46.01950613153783" lon="9.396173771873451"><ele>1200.0</ele><time>2026-04-25T14:53:10.001Z</time></trkpt><trkpt lat="46.0195472144319" lon="9.396095839569789"><ele>1200.0</ele><time>2026-04-25T14:53:11.001Z</time></trkpt><trkpt lat="46.01960182036271" lon="9.396023744296349"><ele>1201.1666666666667</ele><time>2026-04-25T14:53:12.001Z</time></trkpt><trkpt lat="46.01966422534543" lon="9.39595644258787"><ele>1202.3333333333333</ele><time>2026-04-25T14:53:13.001Z</time></trkpt><trkpt lat="46.01972045142428" lon="9.395888997973486"><ele>1203.5</ele><time>2026-04-25T14:53:14.001Z</time></trkpt><trkpt lat="46.019786341557115" lon="9.395855490027952"><ele>1204.6666666666665</ele><time>2026-04-25T14:53:15.001Z</time></trkpt><trkpt lat="46.01987553692481" lon="9.395762769604945"><ele>1205.8333333333333</ele><time>2026-04-25T14:53:17.001Z</time></trkpt><trkpt lat="46.0199721473748" lon="9.395704398258209"><ele>1207.0</ele><time>2026-04-25T14:53:19.001Z</time></trkpt><trkpt lat="46.020060045124026" lon="9.395607116365877"><ele>1201.4</ele><time>2026-04-25T14:53:21.001Z</time></trkpt><trkpt lat="46.0200847679624" lon="9.3954744368969"><ele>1195.8000000000002</ele><time>2026-04-25T14:53:23.001Z</time></trkpt><trkpt lat="46.020123779667365" lon="9.395322644358696"><ele>1190.2</ele><time>2026-04-25T14:53:25.001Z</time></trkpt><trkpt lat="46.02016877394738" lon="9.395165545211125"><ele>1184.6000000000001</ele><time>2026-04-25T14:53:27.001Z</time></trkpt><trkpt lat="46.02024258044671" lon="9.395067502647747"><ele>1179.0</ele><time>2026-04-25T14:53:29.001Z</time></trkpt><trkpt lat="46.020304845731324" lon="9.394947340364615"><ele>1179.0</ele><time>2026-04-25T14:53:31.001Z</time></trkpt><trkpt lat="46.02035689168777" lon="9.394813673095719"><ele>1179.0</ele><time>2026-04-25T14:53:33.001Z</time></trkpt><trkpt lat="46.02040011198554" lon="9.394641020725555"><ele>1179.0</ele><time>2026-04-25T14:53:35.001Z</time></trkpt><trkpt lat="46.02038574210803" lon="9.394461380175171"><ele>1179.0</ele><time>2026-04-25T14:53:37.001Z</time></trkpt><trkpt lat="46.020366664501125" lon="9.394371896286499"><ele>1179.0</ele><time>2026-04-25T14:53:38.001Z</time></trkpt><trkpt lat="46.02036278002942" lon="9.394171241987655"><ele>1175.1666666666667</ele><time>2026-04-25T14:53:40.001Z</time></trkpt><trkpt lat="46.02034710800054" lon="9.394061593473927"><ele>1171.3333333333333</ele><time>2026-04-25T14:53:41.001Z</time></trkpt><trkpt lat="46.02034995775844" lon="9.393957640743277"><ele>1167.5</ele><time>2026-04-25T14:53:42.001Z</time></trkpt><trkpt lat="46.02032576770891" lon="9.393850224812413"><ele>1163.6666666666665</ele><time>2026-04-25T14:53:43.001Z</time></trkpt><trkpt lat="46.020320650829845" lon="9.39374891395954"><ele>1159.8333333333333</ele><time>2026-04-25T14:53:44.001Z</time></trkpt><trkpt lat="46.020311485910945" lon="9.39364972466505"><ele>1156.0</ele><time>2026-04-25T14:53:45.001Z</time></trkpt><trkpt lat="46.02029767753489" lon="9.393489568186128"><ele>1152.3999999999999</ele><time>2026-04-25T14:53:47.001Z</time></trkpt><trkpt lat="46.020304934216774" lon="9.393313758334015"><ele>1148.8</ele><time>2026-04-25T14:53:49.001Z</time></trkpt><trkpt lat="46.02033006451154" lon="9.393171644145955"><ele>1145.1999999999998</ele><time>2026-04-25T14:53:51.001Z</time></trkpt><trkpt lat="46.0203667992151" lon="9.39309252964834"><ele>1141.6</ele><time>2026-04-25T14:53:52.001Z</time></trkpt><trkpt lat="46.020414319050836" lon="9.393020394667847"><ele>1138.0</ele><time>2026-04-25T14:53:53.001Z</time></trkpt><trkpt lat="46.02049450645985" lon="9.392921334977332"><ele>1135.1666666666665</ele><time>2026-04-25T14:53:55.001Z</time></trkpt><trkpt lat="46.020556155334425" lon="9.39288070070622"><ele>1132.3333333333333</ele><time>2026-04-25T14:53:56.001Z</time></trkpt><trkpt lat="46.02061637842062" lon="9.39280567756102"><ele>1129.5</ele><time>2026-04-25T14:53:57.001Z</time></trkpt><trkpt lat="46.02068777346483" lon="9.392755669414601"><ele>1126.6666666666667</ele><time>2026-04-25T14:53:58.001Z</time></trkpt><trkpt lat="46.02075114272314" lon="9.392654522835993"><ele>1123.8333333333335</ele><time>2026-04-25T14:53:59.001Z</time></trkpt><trkpt lat="46.020794349154045" lon="9.392545979691766"><ele>1121.0</ele><time>2026-04-25T14:54:00.001Z</time></trkpt><trkpt lat="46.02082888443634" lon="9.39242695262874"><ele>1123.1666666666667</ele><time>2026-04-25T14:54:01.001Z</time></trkpt><trkpt lat="46.020854823927486" lon="9.39233047996579"><ele>1125.3333333333335</ele><time>2026-04-25T14:54:02.001Z</time></trkpt><trkpt lat="46.02089867835609" lon="9.392176178344885"><ele>1127.5</ele><time>2026-04-25T14:54:04.001Z</time></trkpt><trkpt lat="46.0209232228097" lon="9.392091203644219"><ele>1129.6666666666667</ele><time>2026-04-25T14:54:05.001Z</time></trkpt><trkpt lat="46.02096495524801" lon="9.391946723075584"><ele>1131.8333333333333</ele><time>2026-04-25T14:54:07.001Z</time></trkpt><trkpt lat="46.02099883894162" lon="9.391838355779091"><ele>1134.0</ele><time>2026-04-25T14:54:08.001Z</time></trkpt><trkpt lat="46.02103498144634" lon="9.391729167502858"><ele>1134.0</ele><time>2026-04-25T14:54:09.001Z</time></trkpt><trkpt lat="46.02107164125595" lon="9.391624152655815"><ele>1134.0</ele><time>2026-04-25T14:54:10.001Z</time></trkpt><trkpt lat="46.021111887890214" lon="9.391518785561466"><ele>1134.0</ele><time>2026-04-25T14:54:11.001Z</time></trkpt><trkpt lat="46.02115829125749" lon="9.39141220451995"><ele>1134.0</ele><time>2026-04-25T14:54:12.001Z</time></trkpt><trkpt lat="46.021199188352405" lon="9.391334155168618"><ele>1134.0</ele><time>2026-04-25T14:54:13.001Z</time></trkpt><trkpt lat="46.02128976688954" lon="9.391201873817138"><ele>1134.0</ele><time>2026-04-25T14:54:15.001Z</time></trkpt><trkpt lat="46.02137139456663" lon="9.391139124179258"><ele>1135.6666666666667</ele><time>2026-04-25T14:54:16.001Z</time></trkpt><trkpt lat="46.02142817571504" lon="9.39109716072374"><ele>1137.3333333333333</ele><time>2026-04-25T14:54:17.001Z</time></trkpt><trkpt lat="46.021507256001506" lon="9.391043572479163"><ele>1139.0</ele><time>2026-04-25T14:54:18.001Z</time></trkpt><trkpt lat="46.02156571239798" lon="9.390934710305054"><ele>1140.6666666666665</ele><time>2026-04-25T14:54:19.001Z</time></trkpt><trkpt lat="46.021610977461705" lon="9.390841801711943"><ele>1142.3333333333333</ele><time>2026-04-25T14:54:20.001Z</time></trkpt><trkpt lat="46.02165702376666" lon="9.390746106910754"><ele>1144.0</ele><time>2026-04-25T14:54:21.001Z</time></trkpt><trkpt lat="46.02169090196201" lon="9.390663555821654"><ele>1144.0</ele><time>2026-04-25T14:54:22.001Z</time></trkpt><trkpt lat="46.02171824270945" lon="9.390563920558606"><ele>1144.0</ele><time>2026-04-25T14:54:23.001Z</time></trkpt><trkpt lat="46.02175584678302" lon="9.390485886469621"><ele>1144.0</ele><time>2026-04-25T14:54:24.001Z</time></trkpt><trkpt lat="46.021803464293136" lon="9.390408009385908"><ele>1144.0</ele><time>2026-04-25T14:54:25.001Z</time></trkpt><trkpt lat="46.02187130836756" lon="9.390330748555428"><ele>1144.0</ele><time>2026-04-25T14:54:26.001Z</time></trkpt><trkpt lat="46.02193548150861" lon="9.390281360214443"><ele>1144.0</ele><time>2026-04-25T14:54:27.001Z</time></trkpt><trkpt lat="46.021999628804" lon="9.390216330362021"><ele>1138.8333333333333</ele><time>2026-04-25T14:54:28.001Z</time></trkpt><trkpt lat="46.02206420802345" lon="9.390167491497923"><ele>1133.6666666666665</ele><time>2026-04-25T14:54:29.001Z</time></trkpt><trkpt lat="46.022119343893905" lon="9.390104365380244"><ele>1128.5</ele><time>2026-04-25T14:54:30.001Z</time></trkpt><trkpt lat="46.022185616653985" lon="9.390019205451244"><ele>1123.3333333333333</ele><time>2026-04-25T14:54:31.001Z</time></trkpt><trkpt lat="46.022249074112175" lon="9.389934012851631"><ele>1118.1666666666667</ele><time>2026-04-25T14:54:32.001Z</time></trkpt><trkpt lat="46.02231269924672" lon="9.389853360053799"><ele>1113.0</ele><time>2026-04-25T14:54:33.001Z</time></trkpt><trkpt lat="46.02237092245908" lon="9.389779879345587"><ele>1113.0</ele><time>2026-04-25T14:54:34.001Z</time></trkpt><trkpt lat="46.02243205504402" lon="9.389697685607686"><ele>1113.0</ele><time>2026-04-25T14:54:35.001Z</time></trkpt><trkpt lat="46.02249357676123" lon="9.389613829614476"><ele>1113.0</ele><time>2026-04-25T14:54:36.001Z</time></trkpt><trkpt lat="46.02256687399981" lon="9.389541061932507"><ele>1113.0</ele><time>2026-04-25T14:54:37.001Z</time></trkpt><trkpt lat="46.022661107749244" lon="9.389488245756992"><ele>1113.0</ele><time>2026-04-25T14:54:38.001Z</time></trkpt><trkpt lat="46.022759158804135" lon="9.38943185040534"><ele>1112.1666666666667</ele><time>2026-04-25T14:54:39.001Z</time></trkpt><trkpt lat="46.02284229274465" lon="9.38937484018512"><ele>1111.3333333333333</ele><time>2026-04-25T14:54:40.001Z</time></trkpt><trkpt lat="46.02291745582564" lon="9.389321479202877"><ele>1110.5</ele><time>2026-04-25T14:54:41.001Z</time></trkpt><trkpt lat="46.02298826697747" lon="9.389267829293498"><ele>1109.6666666666665</ele><time>2026-04-25T14:54:42.001Z</time></trkpt><trkpt lat="46.0230597838664" lon="9.389210486700598"><ele>1108.8333333333333</ele><time>2026-04-25T14:54:43.001Z</time></trkpt><trkpt lat="46.02312292274244" lon="9.389156367865176"><ele>1108.0</ele><time>2026-04-25T14:54:44.001Z</time></trkpt><trkpt lat="46.02318163028047" lon="9.389098227229969"><ele>1108.0</ele><time>2026-04-25T14:54:45.001Z</time></trkpt><trkpt lat="46.02326776854815" lon="9.388985571594223"><ele>1108.0</ele><time>2026-04-25T14:54:47.001Z</time></trkpt><trkpt lat="46.023340257331434" lon="9.388870853062809"><ele>1108.0</ele><time>2026-04-25T14:54:49.001Z</time></trkpt><trkpt lat="46.02340439220912" lon="9.38878724070569"><ele>1108.0</ele><time>2026-04-25T14:54:51.001Z</time></trkpt><trkpt lat="46.02347926297774" lon="9.388686795101203"><ele>1108.0</ele><time>2026-04-25T14:54:53.001Z</time></trkpt><trkpt lat="46.02359818200375" lon="9.388629896459816"><ele>1110.4</ele><time>2026-04-25T14:54:55.001Z</time></trkpt><trkpt lat="46.023699755156244" lon="9.388609158911159"><ele>1112.8</ele><time>2026-04-25T14:54:57.001Z</time></trkpt><trkpt lat="46.023795500592435" lon="9.38865116963471"><ele>1115.2</ele><time>2026-04-25T14:54:59.001Z</time></trkpt><trkpt lat="46.02386116095394" lon="9.388675479125357"><ele>1117.6</ele><time>2026-04-25T14:55:00.001Z</time></trkpt><trkpt lat="46.023921275109416" lon="9.388729124853807"><ele>1120.0</ele><time>2026-04-25T14:55:01.001Z</time></trkpt><trkpt lat="46.024010032405954" lon="9.388848560194377"><ele>1120.0</ele><time>2026-04-25T14:55:03.001Z</time></trkpt><trkpt lat="46.02405327606525" lon="9.38893088021515"><ele>1120.0</ele><time>2026-04-25T14:55:04.001Z</time></trkpt><trkpt lat="46.02410659238111" lon="9.38901773743155"><ele>1120.0</ele><time>2026-04-25T14:55:05.001Z</time></trkpt><trkpt lat="46.02415326020305" lon="9.389097463064946"><ele>1120.0</ele><time>2026-04-25T14:55:06.001Z</time></trkpt><trkpt lat="46.02420631956864" lon="9.38915791842598"><ele>1120.0</ele><time>2026-04-25T14:55:07.001Z</time></trkpt><trkpt lat="46.02425892734759" lon="9.389285976990246"><ele>1120.0</ele><time>2026-04-25T14:55:09.001Z</time></trkpt><trkpt lat="46.024311553677656" lon="9.389399891351081"><ele>1117.1666666666665</ele><time>2026-04-25T14:55:11.001Z</time></trkpt><trkpt lat="46.02438678976814" lon="9.389482288468205"><ele>1114.3333333333333</ele><time>2026-04-25T14:55:14.001Z</time></trkpt><trkpt lat="46.024465338818295" lon="9.389428995345202"><ele>1111.5</ele><time>2026-04-25T14:55:16.001Z</time></trkpt><trkpt lat="46.024481747114116" lon="9.389327683058596"><ele>1108.6666666666667</ele><time>2026-04-25T14:55:17.001Z</time></trkpt><trkpt lat="46.02442191203802" lon="9.389223031136648"><ele>1105.8333333333335</ele><time>2026-04-25T14:55:18.001Z</time></trkpt><trkpt lat="46.02438910564871" lon="9.389119769000345"><ele>1103.0</ele><time>2026-04-25T14:55:19.001Z</time></trkpt><trkpt lat="46.02435197074141" lon="9.388991071650466"><ele>1103.0</ele><time>2026-04-25T14:55:20.001Z</time></trkpt><trkpt lat="46.02431115077941" lon="9.388847459968249"><ele>1103.0</ele><time>2026-04-25T14:55:21.001Z</time></trkpt><trkpt lat="46.024277079497296" lon="9.388711591368851"><ele>1103.0</ele><time>2026-04-25T14:55:22.001Z</time></trkpt><trkpt lat="46.02425175654391" lon="9.38859369751239"><ele>1103.0</ele><time>2026-04-25T14:55:23.001Z</time></trkpt><trkpt lat="46.02422782801132" lon="9.3884851881143"><ele>1103.0</ele><time>2026-04-25T14:55:24.001Z</time></trkpt><trkpt lat="46.0241951807103" lon="9.388375703253168"><ele>1101.0</ele><time>2026-04-25T14:55:25.001Z</time></trkpt><trkpt lat="46.02416534651752" lon="9.388250624829084"><ele>1099.0</ele><time>2026-04-25T14:55:26.001Z</time></trkpt><trkpt lat="46.02412583851905" lon="9.388135985888514"><ele>1097.0</ele><time>2026-04-25T14:55:27.001Z</time></trkpt><trkpt lat="46.02407799796121" lon="9.388034058448369"><ele>1095.0</ele><time>2026-04-25T14:55:28.001Z</time></trkpt><trkpt lat="46.024027506020694" lon="9.387945821852211"><ele>1093.0</ele><time>2026-04-25T14:55:29.001Z</time></trkpt><trkpt lat="46.02397855413453" lon="9.387885875789994"><ele>1091.0</ele><time>2026-04-25T14:55:30.001Z</time></trkpt><trkpt lat="46.02390956935544" lon="9.387793013033567"><ele>1086.5</ele><time>2026-04-25T14:55:32.001Z</time></trkpt><trkpt lat="46.02382991844966" lon="9.387801904034784"><ele>1082.0</ele><time>2026-04-25T14:55:33.001Z</time></trkpt><trkpt lat="46.02376072699604" lon="9.387769637264537"><ele>1077.5</ele><time>2026-04-25T14:55:34.001Z</time></trkpt><trkpt lat="46.02367074684423" lon="9.38776795402073"><ele>1073.0</ele><time>2026-04-25T14:55:35.001Z</time></trkpt><trkpt lat="46.02360024943004" lon="9.387765242232755"><ele>1068.5</ele><time>2026-04-25T14:55:36.001Z</time></trkpt><trkpt lat="46.02350647200245" lon="9.387741997065383"><ele>1064.0</ele><time>2026-04-25T14:55:38.001Z</time></trkpt><trkpt lat="46.023390675214486" lon="9.387790303073462"><ele>1064.0</ele><time>2026-04-25T14:55:40.001Z</time></trkpt><trkpt lat="46.02332788423013" lon="9.38784682577925"><ele>1064.0</ele><time>2026-04-25T14:55:41.001Z</time></trkpt><trkpt lat="46.02327745811765" lon="9.387902827434814"><ele>1064.0</ele><time>2026-04-25T14:55:42.001Z</time></trkpt><trkpt lat="46.02321300927015" lon="9.387931838316712"><ele>1064.0</ele><time>2026-04-25T14:55:43.001Z</time></trkpt><trkpt lat="46.02313611364632" lon="9.38794062108881"><ele>1064.0</ele><time>2026-04-25T14:55:44.001Z</time></trkpt><trkpt lat="46.02304075330697" lon="9.387902477210597"><ele>1064.0</ele><time>2026-04-25T14:55:45.001Z</time></trkpt><trkpt lat="46.02298294579291" lon="9.387861703311161"><ele>1064.0</ele><time>2026-04-25T14:55:46.001Z</time></trkpt><trkpt lat="46.02285197780622" lon="9.38782202652274"><ele>1061.6000000000001</ele><time>2026-04-25T14:55:48.001Z</time></trkpt><trkpt lat="46.02276552240172" lon="9.387854305618372"><ele>1059.2</ele><time>2026-04-25T14:55:49.001Z</time></trkpt><trkpt lat="46.02267160069006" lon="9.387893133949113"><ele>1056.8000000000002</ele><time>2026-04-25T14:55:50.001Z</time></trkpt><trkpt lat="46.02258531915532" lon="9.387934693944688"><ele>1054.4</ele><time>2026-04-25T14:55:51.001Z</time></trkpt><trkpt lat="46.02250427167906" lon="9.387979646838037"><ele>1052.0</ele><time>2026-04-25T14:55:52.001Z</time></trkpt><trkpt lat="46.022420752015464" lon="9.388017031764726"><ele>1052.0</ele><time>2026-04-25T14:55:53.001Z</time></trkpt><trkpt lat="46.0223451953375" lon="9.388050859708173"><ele>1052.0</ele><time>2026-04-25T14:55:54.001Z</time></trkpt><trkpt lat="46.02227524512874" lon="9.388117108895827"><ele>1052.0</ele><time>2026-04-25T14:55:55.001Z</time></trkpt><trkpt lat="46.022218207509624" lon="9.38817153787115"><ele>1052.0</ele><time>2026-04-25T14:55:56.001Z</time></trkpt><trkpt lat="46.022144031554326" lon="9.388212129462435"><ele>1052.0</ele><time>2026-04-25T14:55:57.001Z</time></trkpt><trkpt lat="46.02208642511868" lon="9.388276170141388"><ele>1052.0</ele><time>2026-04-25T14:55:58.001Z</time></trkpt><trkpt lat="46.022015164469956" lon="9.38829877930571"><ele>1052.0</ele><time>2026-04-25T14:55:59.001Z</time></trkpt><trkpt lat="46.02194179385055" lon="9.388312694746629"><ele>1052.0</ele><time>2026-04-25T14:56:00.001Z</time></trkpt><trkpt lat="46.021830688458046" lon="9.388318154272355"><ele>1052.0</ele><time>2026-04-25T14:56:02.001Z</time></trkpt><trkpt lat="46.021748672609135" lon="9.388283734312969"><ele>1052.0</ele><time>2026-04-25T14:56:03.001Z</time></trkpt><trkpt lat="46.02168088722391" lon="9.388294362789772"><ele>1052.0</ele><time>2026-04-25T14:56:04.001Z</time></trkpt><trkpt lat="46.02160869157398" lon="9.388322666786634"><ele>1052.0</ele><time>2026-04-25T14:56:05.001Z</time></trkpt><trkpt lat="46.021543331599915" lon="9.388351771377243"><ele>1046.142857142857</ele><time>2026-04-25T14:56:06.001Z</time></trkpt><trkpt lat="46.02147291593714" lon="9.388396132798666"><ele>1040.2857142857142</ele><time>2026-04-25T14:56:07.001Z</time></trkpt><trkpt lat="46.021403673273724" lon="9.388444669124489"><ele>1034.4285714285713</ele><time>2026-04-25T14:56:08.001Z</time></trkpt><trkpt lat="46.02133906144691" lon="9.388495790285525"><ele>1028.5714285714284</ele><time>2026-04-25T14:56:09.001Z</time></trkpt><trkpt lat="46.0212725708744" lon="9.388542454387277"><ele>1022.7142857142857</ele><time>2026-04-25T14:56:10.001Z</time></trkpt><trkpt lat="46.02119884322915" lon="9.388570011803125"><ele>1016.8571428571427</ele><time>2026-04-25T14:56:11.001Z</time></trkpt><trkpt lat="46.0211356546247" lon="9.388604210690241"><ele>1010.9999999999999</ele><time>2026-04-25T14:56:12.001Z</time></trkpt><trkpt lat="46.02107324857427" lon="9.388650038199442"><ele>1011.0</ele><time>2026-04-25T14:56:13.001Z</time></trkpt><trkpt lat="46.02101053210462" lon="9.38871092633232"><ele>1011.0</ele><time>2026-04-25T14:56:14.001Z</time></trkpt><trkpt lat="46.02094302026914" lon="9.388803132801208"><ele>1011.0</ele><time>2026-04-25T14:56:15.001Z</time></trkpt><trkpt lat="46.02088464386136" lon="9.388913160326648"><ele>1011.0</ele><time>2026-04-25T14:56:16Z</time></trkpt><trkpt lat="46.020825575627406" lon="9.389012581066435"><ele>1011.0</ele><time>2026-04-25T14:56:17Z</time></trkpt><trkpt lat="46.02078976100089" lon="9.389092051039443"><ele>1011.0</ele><time>2026-04-25T14:56:18Z</time></trkpt><trkpt lat="46.0207550750575" lon="9.38917208393069"><ele>1012.0</ele><time>2026-04-25T14:56:19Z</time></trkpt><trkpt lat="46.02072175972971" lon="9.389249454393408"><ele>1013.0</ele><time>2026-04-25T14:56:20Z</time></trkpt><trkpt lat="46.020674992214765" lon="9.389358290055911"><ele>1014.0</ele><time>2026-04-25T14:56:22Z</time></trkpt><trkpt lat="46.02060214918639" lon="9.389418876737919"><ele>1015.0</ele><time>2026-04-25T14:56:23Z</time></trkpt><trkpt lat="46.020519657101914" lon="9.389436177688838"><ele>1016.0</ele><time>2026-04-25T14:56:24Z</time></trkpt><trkpt lat="46.020449168957455" lon="9.389453333604816"><ele>1017.0</ele><time>2026-04-25T14:56:25Z</time></trkpt><trkpt lat="46.020372053765485" lon="9.389473229134216"><ele>1017.0</ele><time>2026-04-25T14:56:26Z</time></trkpt><trkpt lat="46.02027726588327" lon="9.389499202956898"><ele>1017.0</ele><time>2026-04-25T14:56:27Z</time></trkpt><trkpt lat="46.020193927649174" lon="9.389525697554912"><ele>1017.0</ele><time>2026-04-25T14:56:28Z</time></trkpt><trkpt lat="46.0201082670424" lon="9.389534501162897"><ele>1017.0</ele><time>2026-04-25T14:56:29Z</time></trkpt><trkpt lat="46.020025914866906" lon="9.389582823187455"><ele>1017.0</ele><time>2026-04-25T14:56:30Z</time></trkpt><trkpt lat="46.0199422815591" lon="9.389643648229365"><ele>1014.4000000000001</ele><time>2026-04-25T14:56:31Z</time></trkpt><trkpt lat="46.0198666525564" lon="9.389739634808246"><ele>1011.8000000000001</ele><time>2026-04-25T14:56:32Z</time></trkpt><trkpt lat="46.019780200057134" lon="9.389811309019377"><ele>1009.2</ele><time>2026-04-25T14:56:33Z</time></trkpt><trkpt lat="46.019703599232415" lon="9.389859268910403"><ele>1006.6</ele><time>2026-04-25T14:56:34Z</time></trkpt><trkpt lat="46.01962836069461" lon="9.389921276341841"><ele>1004.0</ele><time>2026-04-25T14:56:35Z</time></trkpt><trkpt lat="46.01956926050156" lon="9.389997161446777"><ele>1004.0</ele><time>2026-04-25T14:56:36Z</time></trkpt><trkpt lat="46.019502329954854" lon="9.390058450447357"><ele>1004.0000000000001</ele><time>2026-04-25T14:56:37Z</time></trkpt><trkpt lat="46.019449184156464" lon="9.390111334863061"><ele>1004.0000000000001</ele><time>2026-04-25T14:56:38Z</time></trkpt><trkpt lat="46.01939587427811" lon="9.39024674024244"><ele>1004.0</ele><time>2026-04-25T14:56:40Z</time></trkpt><trkpt lat="46.01935348165662" lon="9.390368351209709"><ele>1004.0</ele><time>2026-04-25T14:56:42Z</time></trkpt><trkpt lat="46.01923251796515" lon="9.390458233742244"><ele>1002.2</ele><time>2026-04-25T14:56:44Z</time></trkpt><trkpt lat="46.01912467973756" lon="9.390494516733282"><ele>1000.4000000000001</ele><time>2026-04-25T14:56:45Z</time></trkpt><trkpt lat="46.01906037521349" lon="9.390517448689549"><ele>998.6</ele><time>2026-04-25T14:56:46Z</time></trkpt><trkpt lat="46.0189389050446" lon="9.390572596009713"><ele>996.8</ele><time>2026-04-25T14:56:48Z</time></trkpt><trkpt lat="46.0188580470733" lon="9.39062972767865"><ele>995.0</ele><time>2026-04-25T14:56:50Z</time></trkpt><trkpt lat="46.01881806096747" lon="9.390706915469764"><ele>995.0000000000001</ele><time>2026-04-25T14:56:52Z</time></trkpt><trkpt lat="46.01874527440114" lon="9.390730212908247"><ele>995.0</ele><time>2026-04-25T14:56:56.001Z</time></trkpt><trkpt lat="46.01875475740989" lon="9.390617814200585"><ele>995.0</ele><time>2026-04-25T14:56:58.001Z</time></trkpt><trkpt lat="46.01881572839336" lon="9.390531733498067"><ele>995.0</ele><time>2026-04-25T14:57:00.001Z</time></trkpt><trkpt lat="46.018909581539425" lon="9.390430389225905"><ele>995.0000000000001</ele><time>2026-04-25T14:57:02.001Z</time></trkpt><trkpt lat="46.018976786876145" lon="9.390366599513603"><ele>995.0</ele><time>2026-04-25T14:57:03.001Z</time></trkpt><trkpt lat="46.01905340462044" lon="9.390393002285812"><ele>997.25</ele><time>2026-04-25T14:57:04.001Z</time></trkpt><trkpt lat="46.01914456459474" lon="9.390340862679249"><ele>999.5</ele><time>2026-04-25T14:57:06.001Z</time></trkpt><trkpt lat="46.01922163645212" lon="9.390269054951757"><ele>1001.75</ele><time>2026-04-25T14:57:08.001Z</time></trkpt><trkpt lat="46.01923743365961" lon="9.390065940557674"><ele>1004.0</ele><time>2026-04-25T14:57:10.001Z</time></trkpt><trkpt lat="46.01924288605537" lon="9.38987864224165"><ele>1004.0</ele><time>2026-04-25T14:57:12.001Z</time></trkpt><trkpt lat="46.01929153215776" lon="9.389681234201785"><ele>1004.0</ele><time>2026-04-25T14:57:14.001Z</time></trkpt><trkpt lat="46.01934645680552" lon="9.389571862039217"><ele>1004.0</ele><time>2026-04-25T14:57:15.001Z</time></trkpt><trkpt lat="46.01942390232546" lon="9.389475021165337"><ele>1004.0</ele><time>2026-04-25T14:57:16.001Z</time></trkpt><trkpt lat="46.01950180903527" lon="9.389351542199726"><ele>1001.0</ele><time>2026-04-25T14:57:17.001Z</time></trkpt><trkpt lat="46.019574320516824" lon="9.389243880634632"><ele>998.0000000000001</ele><time>2026-04-25T14:57:18.001Z</time></trkpt><trkpt lat="46.01963083774491" lon="9.389142909278092"><ele>995.0000000000001</ele><time>2026-04-25T14:57:19.001Z</time></trkpt><trkpt lat="46.01967778680828" lon="9.389024545046045"><ele>992.0</ele><time>2026-04-25T14:57:20.001Z</time></trkpt><trkpt lat="46.019717780418276" lon="9.388892260839222"><ele>989.0</ele><time>2026-04-25T14:57:22.001Z</time></trkpt><trkpt lat="46.019807560416496" lon="9.388801235536448"><ele>987.8333333333334</ele><time>2026-04-25T14:57:24.001Z</time></trkpt><trkpt lat="46.01987997251338" lon="9.388798185456281"><ele>986.6666666666667</ele><time>2026-04-25T14:57:25.001Z</time></trkpt><trkpt lat="46.01997555121083" lon="9.388785092843198"><ele>985.5</ele><time>2026-04-25T14:57:26.001Z</time></trkpt><trkpt lat="46.02006341196619" lon="9.388752067053545"><ele>984.3333333333333</ele><time>2026-04-25T14:57:27.001Z</time></trkpt><trkpt lat="46.02014326150772" lon="9.388742529092728"><ele>983.1666666666666</ele><time>2026-04-25T14:57:28.001Z</time></trkpt><trkpt lat="46.02021545181943" lon="9.388718693498447"><ele>982.0</ele><time>2026-04-25T14:57:29.001Z</time></trkpt><trkpt lat="46.0202862169338" lon="9.388695328548856"><ele>981.9999999999999</ele><time>2026-04-25T14:57:30.001Z</time></trkpt><trkpt lat="46.020363755945716" lon="9.38866394103034"><ele>982.0</ele><time>2026-04-25T14:57:31.001Z</time></trkpt><trkpt lat="46.02043603272334" lon="9.388619662714099"><ele>982.0</ele><time>2026-04-25T14:57:32.001Z</time></trkpt><trkpt lat="46.020496407307895" lon="9.38855277915574"><ele>982.0</ele><time>2026-04-25T14:57:33.001Z</time></trkpt><trkpt lat="46.02052210327138" lon="9.388447308151743"><ele>981.9999999999999</ele><time>2026-04-25T14:57:34.001Z</time></trkpt><trkpt lat="46.02053011661647" lon="9.388346638784272"><ele>982.0</ele><time>2026-04-25T14:57:35.001Z</time></trkpt><trkpt lat="46.02055047684529" lon="9.388238245010298"><ele>981.9999999999999</ele><time>2026-04-25T14:57:36.001Z</time></trkpt><trkpt lat="46.02058716892786" lon="9.388158593952287"><ele>982.0</ele><time>2026-04-25T14:57:37.001Z</time></trkpt><trkpt lat="46.02063283821456" lon="9.388072196176337"><ele>982.0</ele><time>2026-04-25T14:57:38.001Z</time></trkpt><trkpt lat="46.020693656475764" lon="9.387973487693579"><ele>982.0</ele><time>2026-04-25T14:57:39.001Z</time></trkpt><trkpt lat="46.020760466224885" lon="9.387891472539224"><ele>981.9999999999999</ele><time>2026-04-25T14:57:40.001Z</time></trkpt><trkpt lat="46.020844544434816" lon="9.38780338777877"><ele>982.0</ele><time>2026-04-25T14:57:41.001Z</time></trkpt><trkpt lat="46.02093476773903" lon="9.387722473503155"><ele>981.1666666666666</ele><time>2026-04-25T14:57:42.001Z</time></trkpt><trkpt lat="46.02100209064029" lon="9.387618221168339"><ele>980.3333333333333</ele><time>2026-04-25T14:57:43.001Z</time></trkpt><trkpt lat="46.02107660279351" lon="9.387533055510968"><ele>979.5</ele><time>2026-04-25T14:57:44Z</time></trkpt><trkpt lat="46.02113056928629" lon="9.387444545595452"><ele>978.6666666666667</ele><time>2026-04-25T14:57:45Z</time></trkpt><trkpt lat="46.02118137181192" lon="9.387354976744959"><ele>977.8333333333334</ele><time>2026-04-25T14:57:46Z</time></trkpt><trkpt lat="46.02123779819685" lon="9.38729087742321"><ele>977.0</ele><time>2026-04-25T14:57:47Z</time></trkpt><trkpt lat="46.02130183883293" lon="9.38722988847398"><ele>977.0000000000001</ele><time>2026-04-25T14:57:48Z</time></trkpt><trkpt lat="46.021384437790715" lon="9.387210184187818"><ele>977.0</ele><time>2026-04-25T14:57:49Z</time></trkpt><trkpt lat="46.02144861638931" lon="9.387158214056557"><ele>977.0</ele><time>2026-04-25T14:57:50Z</time></trkpt><trkpt lat="46.0215075133196" lon="9.387107903684605"><ele>977.0</ele><time>2026-04-25T14:57:51Z</time></trkpt><trkpt lat="46.0215951852495" lon="9.386974081337659"><ele>977.0000000000001</ele><time>2026-04-25T14:57:53Z</time></trkpt><trkpt lat="46.02161884440042" lon="9.386884661092695"><ele>977.0</ele><time>2026-04-25T14:57:54Z</time></trkpt><trkpt lat="46.02166055277771" lon="9.386796145213118"><ele>976.3333333333334</ele><time>2026-04-25T14:57:55Z</time></trkpt><trkpt lat="46.02171154236409" lon="9.386725235788417"><ele>975.6666666666667</ele><time>2026-04-25T14:57:56Z</time></trkpt><trkpt lat="46.02176640143304" lon="9.386653538252306"><ele>975.0</ele><time>2026-04-25T14:57:57Z</time></trkpt><trkpt lat="46.02183086931481" lon="9.38657202922777"><ele>974.3333333333333</ele><time>2026-04-25T14:57:58Z</time></trkpt><trkpt lat="46.02191414695836" lon="9.386497146959377"><ele>973.6666666666666</ele><time>2026-04-25T14:57:59Z</time></trkpt><trkpt lat="46.0220054973097" lon="9.386417694590694"><ele>973.0</ele><time>2026-04-25T14:58:00Z</time></trkpt><trkpt lat="46.022090405514355" lon="9.386333733334732"><ele>967.2</ele><time>2026-04-25T14:58:01Z</time></trkpt><trkpt lat="46.022159516038315" lon="9.3862045051508"><ele>961.4</ele><time>2026-04-25T14:58:02Z</time></trkpt><trkpt lat="46.022214040393656" lon="9.386051059241858"><ele>955.6000000000001</ele><time>2026-04-25T14:58:03Z</time></trkpt><trkpt lat="46.02227145236414" lon="9.38591350833111"><ele>949.8000000000001</ele><time>2026-04-25T14:58:04Z</time></trkpt><trkpt lat="46.02232559629383" lon="9.38579829868112"><ele>944.0</ele><time>2026-04-25T14:58:05Z</time></trkpt><trkpt lat="46.022384841261314" lon="9.385705903088965"><ele>944.0000000000001</ele><time>2026-04-25T14:58:06Z</time></trkpt><trkpt lat="46.022445470329494" lon="9.385622654874078"><ele>944.0</ele><time>2026-04-25T14:58:07Z</time></trkpt><trkpt lat="46.022500133435386" lon="9.385546429983396"><ele>944.0</ele><time>2026-04-25T14:58:08Z</time></trkpt><trkpt lat="46.02254663320825" lon="9.385479462245018"><ele>944.0</ele><time>2026-04-25T14:58:09Z</time></trkpt><trkpt lat="46.02264560989023" lon="9.385364273298126"><ele>944.0000000000001</ele><time>2026-04-25T14:58:11Z</time></trkpt><trkpt lat="46.022727334818406" lon="9.385306150977748"><ele>944.0</ele><time>2026-04-25T14:58:12Z</time></trkpt><trkpt lat="46.0227910881261" lon="9.385246264810588"><ele>944.3333333333334</ele><time>2026-04-25T14:58:13Z</time></trkpt><trkpt lat="46.022849082559716" lon="9.385184001953835"><ele>944.6666666666667</ele><time>2026-04-25T14:58:14Z</time></trkpt><trkpt lat="46.02288760735508" lon="9.385086881539689"><ele>945.0</ele><time>2026-04-25T14:58:15Z</time></trkpt><trkpt lat="46.022911981291045" lon="9.38499551114336"><ele>945.3333333333333</ele><time>2026-04-25T14:58:16Z</time></trkpt><trkpt lat="46.02296690941547" lon="9.384856617074322"><ele>945.6666666666666</ele><time>2026-04-25T14:58:18Z</time></trkpt><trkpt lat="46.02300105533433" lon="9.384776312739822"><ele>946.0</ele><time>2026-04-25T14:58:19Z</time></trkpt><trkpt lat="46.023039466218016" lon="9.384700660757607"><ele>946.0</ele><time>2026-04-25T14:58:20Z</time></trkpt><trkpt lat="46.02309233298686" lon="9.384623706856045"><ele>945.9999999999999</ele><time>2026-04-25T14:58:21Z</time></trkpt><trkpt lat="46.023160344155976" lon="9.384533070754093"><ele>945.9999999999999</ele><time>2026-04-25T14:58:22Z</time></trkpt><trkpt lat="46.02323067691879" lon="9.384438084923978"><ele>946.0</ele><time>2026-04-25T14:58:23Z</time></trkpt><trkpt lat="46.0233012039203" lon="9.384341915879636"><ele>946.0</ele><time>2026-04-25T14:58:24Z</time></trkpt><trkpt lat="46.02336815049294" lon="9.384251638514398"><ele>945.9999999999999</ele><time>2026-04-25T14:58:25Z</time></trkpt><trkpt lat="46.02343916760986" lon="9.384155872030611"><ele>946.0</ele><time>2026-04-25T14:58:26Z</time></trkpt><trkpt lat="46.023502463395246" lon="9.384071961473863"><ele>946.0</ele><time>2026-04-25T14:58:27Z</time></trkpt><trkpt lat="46.02356444693313" lon="9.384002604851698"><ele>946.0</ele><time>2026-04-25T14:58:28Z</time></trkpt><trkpt lat="46.02363146812548" lon="9.383946384090851"><ele>945.9999999999999</ele><time>2026-04-25T14:58:29Z</time></trkpt><trkpt lat="46.023706119904006" lon="9.383904482209376"><ele>946.0</ele><time>2026-04-25T14:58:30Z</time></trkpt><trkpt lat="46.02378964140875" lon="9.383841931829645"><ele>942.0</ele><time>2026-04-25T14:58:31Z</time></trkpt><trkpt lat="46.02386944739615" lon="9.38380366038242"><ele>937.9999999999999</ele><time>2026-04-25T14:58:32Z</time></trkpt><trkpt lat="46.023932323701" lon="9.383772878641436"><ele>933.9999999999999</ele><time>2026-04-25T14:58:33Z</time></trkpt><trkpt lat="46.02404373991018" lon="9.383758869638633"><ele>930.0</ele><time>2026-04-25T14:58:35Z</time></trkpt><trkpt lat="46.02412318150784" lon="9.383759855313286"><ele>926.0</ele><time>2026-04-25T14:58:37Z</time></trkpt><trkpt lat="46.02419402740205" lon="9.383583498190527"><ele>924.6666666666667</ele><time>2026-04-25T14:58:42Z</time></trkpt><trkpt lat="46.024123691090146" lon="9.383547973579523"><ele>923.3333333333334</ele><time>2026-04-25T14:58:43Z</time></trkpt><trkpt lat="46.02404453350047" lon="9.383537030528302"><ele>922.0</ele><time>2026-04-25T14:58:44Z</time></trkpt><trkpt lat="46.0239672539484" lon="9.38355063349416"><ele>920.6666666666667</ele><time>2026-04-25T14:58:45Z</time></trkpt><trkpt lat="46.02388793622265" lon="9.38350908425628"><ele>919.3333333333334</ele><time>2026-04-25T14:58:46Z</time></trkpt><trkpt lat="46.02382434598888" lon="9.383493472670164"><ele>918.0</ele><time>2026-04-25T14:58:47Z</time></trkpt><trkpt lat="46.02372020193875" lon="9.383498845734179"><ele>918.0</ele><time>2026-04-25T14:58:49Z</time></trkpt><trkpt lat="46.02356597593423" lon="9.383479668942046"><ele>918.0</ele><time>2026-04-25T14:58:51Z</time></trkpt><trkpt lat="46.02349411789423" lon="9.383482842669821"><ele>918.0</ele><time>2026-04-25T14:58:52Z</time></trkpt><trkpt lat="46.023378094911315" lon="9.383497321119085"><ele>918.0</ele><time>2026-04-25T14:58:54Z</time></trkpt><trkpt lat="46.02328651734354" lon="9.383535301947228"><ele>918.0</ele><time>2026-04-25T14:58:56Z</time></trkpt><trkpt lat="46.023226968123005" lon="9.383585089426207"><ele>917.5</ele><time>2026-04-25T14:58:57Z</time></trkpt><trkpt lat="46.02315917163562" lon="9.383676255544358"><ele>917.0</ele><time>2026-04-25T14:58:58Z</time></trkpt><trkpt lat="46.02309444963506" lon="9.383743980082759"><ele>916.5</ele><time>2026-04-25T14:58:59Z</time></trkpt><trkpt lat="46.02304036821877" lon="9.383836388645971"><ele>916.0</ele><time>2026-04-25T14:59:00.001Z</time></trkpt><trkpt lat="46.02294421401572" lon="9.383879891087048"><ele>915.5</ele><time>2026-04-25T14:59:01.001Z</time></trkpt><trkpt lat="46.02286498319023" lon="9.383941240657768"><ele>915.0</ele><time>2026-04-25T14:59:02.001Z</time></trkpt><trkpt lat="46.02278710076308" lon="9.38399542685346"><ele>915.0</ele><time>2026-04-25T14:59:03.001Z</time></trkpt><trkpt lat="46.022709403968236" lon="9.384027215953974"><ele>915.0</ele><time>2026-04-25T14:59:04.001Z</time></trkpt><trkpt lat="46.02263615681989" lon="9.384115995092618"><ele>915.0</ele><time>2026-04-25T14:59:05.001Z</time></trkpt><trkpt lat="46.022559848103064" lon="9.384175707584808"><ele>915.0</ele><time>2026-04-25T14:59:06.001Z</time></trkpt><trkpt lat="46.022494014962646" lon="9.384254671186767"><ele>915.0</ele><time>2026-04-25T14:59:07.001Z</time></trkpt><trkpt lat="46.02240918496526" lon="9.384297562352964"><ele>915.0</ele><time>2026-04-25T14:59:08.001Z</time></trkpt><trkpt lat="46.022337060320524" lon="9.384334576896766"><ele>915.3333333333334</ele><time>2026-04-25T14:59:09.001Z</time></trkpt><trkpt lat="46.02226039200445" lon="9.384395292401322"><ele>915.6666666666667</ele><time>2026-04-25T14:59:10.001Z</time></trkpt><trkpt lat="46.02220594569378" lon="9.384459448791347"><ele>916.0</ele><time>2026-04-25T14:59:11.001Z</time></trkpt><trkpt lat="46.02214861827888" lon="9.384525746592336"><ele>916.3333333333334</ele><time>2026-04-25T14:59:12.001Z</time></trkpt><trkpt lat="46.022073768735424" lon="9.384599135523583"><ele>916.6666666666667</ele><time>2026-04-25T14:59:13.001Z</time></trkpt><trkpt lat="46.02201346385607" lon="9.384653803763122"><ele>917.0</ele><time>2026-04-25T14:59:14.001Z</time></trkpt><trkpt lat="46.02194117610467" lon="9.384688195270208"><ele>917.0000000000001</ele><time>2026-04-25T14:59:15.001Z</time></trkpt><trkpt lat="46.02186830819373" lon="9.384749933753104"><ele>917.0</ele><time>2026-04-25T14:59:16.001Z</time></trkpt><trkpt lat="46.021781998754285" lon="9.384788142278508"><ele>917.0</ele><time>2026-04-25T14:59:17.001Z</time></trkpt><trkpt lat="46.021708046890566" lon="9.384818583753617"><ele>917.0</ele><time>2026-04-25T14:59:18.001Z</time></trkpt><trkpt lat="46.0216285098896" lon="9.384850973455222"><ele>917.0000000000001</ele><time>2026-04-25T14:59:19.001Z</time></trkpt><trkpt lat="46.02155097637266" lon="9.384881008578445"><ele>917.0</ele><time>2026-04-25T14:59:20.001Z</time></trkpt><trkpt lat="46.02147132020283" lon="9.384911887176942"><ele>911.1666666666667</ele><time>2026-04-25T14:59:21.001Z</time></trkpt><trkpt lat="46.02139355405565" lon="9.384942763536513"><ele>905.3333333333334</ele><time>2026-04-25T14:59:22.001Z</time></trkpt><trkpt lat="46.02131551834905" lon="9.384973746755524"><ele>899.5</ele><time>2026-04-25T14:59:23.001Z</time></trkpt><trkpt lat="46.02123173482838" lon="9.384986918282952"><ele>893.6666666666667</ele><time>2026-04-25T14:59:24.001Z</time></trkpt><trkpt lat="46.021158348706486" lon="9.385042204431652"><ele>887.8333333333334</ele><time>2026-04-25T14:59:25.001Z</time></trkpt><trkpt lat="46.021081473345525" lon="9.385061369179182"><ele>882.0</ele><time>2026-04-25T14:59:26.001Z</time></trkpt><trkpt lat="46.021014258219246" lon="9.385111842779182"><ele>882.0</ele><time>2026-04-25T14:59:27.001Z</time></trkpt><trkpt lat="46.02094981796499" lon="9.385144846321307"><ele>882.0</ele><time>2026-04-25T14:59:28.001Z</time></trkpt><trkpt lat="46.02084275216214" lon="9.385182558791596"><ele>882.0</ele><time>2026-04-25T14:59:30Z</time></trkpt><trkpt lat="46.02076795393809" lon="9.385132063566761"><ele>882.0</ele><time>2026-04-25T14:59:31Z</time></trkpt><trkpt lat="46.020707653414156" lon="9.385083416244568"><ele>882.0</ele><time>2026-04-25T14:59:32Z</time></trkpt><trkpt lat="46.02064581357091" lon="9.385051258772021"><ele>882.0</ele><time>2026-04-25T14:59:34Z</time></trkpt><trkpt lat="46.020678379541046" lon="9.384949627543246"><ele>882.0</ele><time>2026-04-25T14:59:36Z</time></trkpt><trkpt lat="46.02074709565868" lon="9.38494599493972"><ele>882.0</ele><time>2026-04-25T14:59:37Z</time></trkpt><trkpt lat="46.02081554353589" lon="9.384982367952375"><ele>882.0</ele><time>2026-04-25T14:59:38Z</time></trkpt><trkpt lat="46.02092181688573" lon="9.384980176243507"><ele>882.0</ele><time>2026-04-25T14:59:40Z</time></trkpt><trkpt lat="46.02100988308847" lon="9.38483441133035"><ele>882.0</ele><time>2026-04-25T14:59:42Z</time></trkpt><trkpt lat="46.021085565879936" lon="9.384799384615487"><ele>882.0</ele><time>2026-04-25T14:59:43Z</time></trkpt><trkpt lat="46.02113902956812" lon="9.384724628117116"><ele>882.0</ele><time>2026-04-25T14:59:44Z</time></trkpt><trkpt lat="46.021176375965" lon="9.384628653799895"><ele>882.0</ele><time>2026-04-25T14:59:45Z</time></trkpt><trkpt lat="46.02122704658198" lon="9.384549674817459"><ele>882.0</ele><time>2026-04-25T14:59:46Z</time></trkpt><trkpt lat="46.021278596791326" lon="9.384467721932488"><ele>882.0</ele><time>2026-04-25T14:59:47Z</time></trkpt><trkpt lat="46.021325804565336" lon="9.384388127507938"><ele>882.0</ele><time>2026-04-25T14:59:48Z</time></trkpt><trkpt lat="46.021392498095615" lon="9.384319745915306"><ele>878.1666666666666</ele><time>2026-04-25T14:59:49Z</time></trkpt><trkpt lat="46.021432963396684" lon="9.384219667058684"><ele>874.3333333333333</ele><time>2026-04-25T14:59:50Z</time></trkpt><trkpt lat="46.02148713460963" lon="9.384133017743869"><ele>870.5</ele><time>2026-04-25T14:59:51Z</time></trkpt><trkpt lat="46.02153972705858" lon="9.384038866424987"><ele>866.6666666666666</ele><time>2026-04-25T14:59:52Z</time></trkpt><trkpt lat="46.02158894102868" lon="9.383942066006696"><ele>862.8333333333333</ele><time>2026-04-25T14:59:53Z</time></trkpt><trkpt lat="46.02164457372768" lon="9.383849931848122"><ele>859.0</ele><time>2026-04-25T14:59:54Z</time></trkpt><trkpt lat="46.02170322801775" lon="9.383759770723058"><ele>857.9999999999999</ele><time>2026-04-25T14:59:55Z</time></trkpt><trkpt lat="46.021755115720765" lon="9.383665418393011"><ele>857.0</ele><time>2026-04-25T14:59:56Z</time></trkpt><trkpt lat="46.02180738571414" lon="9.383574742956817"><ele>856.0</ele><time>2026-04-25T14:59:57Z</time></trkpt><trkpt lat="46.021864749723534" lon="9.383498450590494"><ele>855.0</ele><time>2026-04-25T14:59:58Z</time></trkpt><trkpt lat="46.021921976436786" lon="9.38342681072291"><ele>853.9999999999999</ele><time>2026-04-25T14:59:59Z</time></trkpt><trkpt lat="46.02197603323737" lon="9.383354811946864"><ele>853.0</ele><time>2026-04-25T15:00:00Z</time></trkpt><trkpt lat="46.02202627198263" lon="9.38329534613869"><ele>853.0</ele><time>2026-04-25T15:00:01Z</time></trkpt><trkpt lat="46.022079148294495" lon="9.383222881846713"><ele>853.0</ele><time>2026-04-25T15:00:02Z</time></trkpt><trkpt lat="46.02212330040571" lon="9.383150396260795"><ele>853.0</ele><time>2026-04-25T15:00:03Z</time></trkpt><trkpt lat="46.022169857678456" lon="9.383072795504626"><ele>853.0</ele><time>2026-04-25T15:00:04Z</time></trkpt><trkpt lat="46.022216390717375" lon="9.382989715839244"><ele>853.0</ele><time>2026-04-25T15:00:05Z</time></trkpt><trkpt lat="46.02225587648802" lon="9.382907244513571"><ele>853.0</ele><time>2026-04-25T15:00:06Z</time></trkpt><trkpt lat="46.02229184165196" lon="9.382811617030434"><ele>853.0</ele><time>2026-04-25T15:00:07Z</time></trkpt><trkpt lat="46.02236221756468" lon="9.382710453584188"><ele>853.4999999999999</ele><time>2026-04-25T15:00:08Z</time></trkpt><trkpt lat="46.02241523538651" lon="9.382608733220081"><ele>854.0</ele><time>2026-04-25T15:00:09Z</time></trkpt><trkpt lat="46.02245045402778" lon="9.382516452284946"><ele>854.5</ele><time>2026-04-25T15:00:10Z</time></trkpt><trkpt lat="46.022501449432625" lon="9.382432920670638"><ele>855.0</ele><time>2026-04-25T15:00:11Z</time></trkpt><trkpt lat="46.02254850668996" lon="9.382342187110815"><ele>855.4999999999999</ele><time>2026-04-25T15:00:12Z</time></trkpt><trkpt lat="46.02257581682631" lon="9.382234236821603"><ele>856.0</ele><time>2026-04-25T15:00:13Z</time></trkpt><trkpt lat="46.02259058864027" lon="9.382110209760674"><ele>851.9999999999999</ele><time>2026-04-25T15:00:14Z</time></trkpt><trkpt lat="46.02260073010699" lon="9.381986231952274"><ele>848.0</ele><time>2026-04-25T15:00:15Z</time></trkpt><trkpt lat="46.02260990722785" lon="9.381881958820125"><ele>844.0</ele><time>2026-04-25T15:00:16Z</time></trkpt><trkpt lat="46.02265238654182" lon="9.381801281553706"><ele>840.0</ele><time>2026-04-25T15:00:17Z</time></trkpt><trkpt lat="46.02266089451115" lon="9.38170259032633"><ele>835.9999999999999</ele><time>2026-04-25T15:00:18Z</time></trkpt><trkpt lat="46.02270620414993" lon="9.381594571665135"><ele>832.0</ele><time>2026-04-25T15:00:20Z</time></trkpt><trkpt lat="46.022702338598926" lon="9.38149443678447"><ele>832.0</ele><time>2026-04-25T15:00:22Z</time></trkpt><trkpt lat="46.022614647438154" lon="9.38147699525988"><ele>832.0</ele><time>2026-04-25T15:00:23Z</time></trkpt><trkpt lat="46.02257077459492" lon="9.381566258791324"><ele>832.0</ele><time>2026-04-25T15:00:24Z</time></trkpt><trkpt lat="46.02248861672514" lon="9.381688144180792"><ele>832.0</ele><time>2026-04-25T15:00:26Z</time></trkpt><trkpt lat="46.02243465584578" lon="9.381818506738464"><ele>832.0</ele><time>2026-04-25T15:00:28Z</time></trkpt><trkpt lat="46.02237685453468" lon="9.381965044714862"><ele>831.2</ele><time>2026-04-25T15:00:30Z</time></trkpt><trkpt lat="46.02231586499496" lon="9.3820972153426"><ele>830.4000000000001</ele><time>2026-04-25T15:00:32Z</time></trkpt><trkpt lat="46.02224256246675" lon="9.382200812761155"><ele>829.5999999999999</ele><time>2026-04-25T15:00:34Z</time></trkpt><trkpt lat="46.022194491788696" lon="9.382262750742711"><ele>828.8</ele><time>2026-04-25T15:00:36Z</time></trkpt><trkpt lat="46.0221293447508" lon="9.382339597295704"><ele>828.0</ele><time>2026-04-25T15:00:41Z</time></trkpt><trkpt lat="46.02204552098463" lon="9.382430705105273"><ele>828.0</ele><time>2026-04-25T15:00:43Z</time></trkpt><trkpt lat="46.02199041079732" lon="9.382477730341071"><ele>828.0</ele><time>2026-04-25T15:00:44Z</time></trkpt><trkpt lat="46.02188445230183" lon="9.382539326026762"><ele>828.0</ele><time>2026-04-25T15:00:46Z</time></trkpt><trkpt lat="46.0217940871374" lon="9.382610172998668"><ele>828.0</ele><time>2026-04-25T15:00:48Z</time></trkpt><trkpt lat="46.02172911165195" lon="9.382637088579614"><ele>828.0</ele><time>2026-04-25T15:00:49Z</time></trkpt><trkpt lat="46.021656128737376" lon="9.382678919998172"><ele>828.0</ele><time>2026-04-25T15:00:50Z</time></trkpt><trkpt lat="46.02156830330869" lon="9.382736872421269"><ele>828.1666666666666</ele><time>2026-04-25T15:00:51Z</time></trkpt><trkpt lat="46.02149135915233" lon="9.382789832052033"><ele>828.3333333333333</ele><time>2026-04-25T15:00:52Z</time></trkpt><trkpt lat="46.021419798071406" lon="9.3828510397167"><ele>828.5</ele><time>2026-04-25T15:00:53Z</time></trkpt><trkpt lat="46.02134957046675" lon="9.382907802848282"><ele>828.6666666666666</ele><time>2026-04-25T15:00:54Z</time></trkpt><trkpt lat="46.021276212579195" lon="9.382955538654118"><ele>828.8333333333333</ele><time>2026-04-25T15:00:55Z</time></trkpt><trkpt lat="46.02120534344429" lon="9.382996150988628"><ele>829.0</ele><time>2026-04-25T15:00:56Z</time></trkpt><trkpt lat="46.021135296796224" lon="9.383038742311783"><ele>828.9999999999999</ele><time>2026-04-25T15:00:57Z</time></trkpt><trkpt lat="46.02106441222661" lon="9.383079162515559"><ele>829.0</ele><time>2026-04-25T15:00:58Z</time></trkpt><trkpt lat="46.02099523254767" lon="9.383117753624742"><ele>829.0</ele><time>2026-04-25T15:00:59Z</time></trkpt><trkpt lat="46.02093624219238" lon="9.383157174169265"><ele>829.0</ele><time>2026-04-25T15:01:00Z</time></trkpt><trkpt lat="46.020849008677686" lon="9.383235776204943"><ele>828.9999999999999</ele><time>2026-04-25T15:01:02Z</time></trkpt><trkpt lat="46.020767418085676" lon="9.383267107539801"><ele>829.0</ele><time>2026-04-25T15:01:04Z</time></trkpt><trkpt lat="46.0207177987064" lon="9.383179285238167"><ele>827.3333333333333</ele><time>2026-04-25T15:01:06.001Z</time></trkpt><trkpt lat="46.020788018016894" lon="9.38302988253826"><ele>825.6666666666666</ele><time>2026-04-25T15:01:08.001Z</time></trkpt><trkpt lat="46.02080985692554" lon="9.382915628071487"><ele>824.0</ele><time>2026-04-25T15:01:09.001Z</time></trkpt><trkpt lat="46.020829722940874" lon="9.382820776783081"><ele>822.3333333333333</ele><time>2026-04-25T15:01:10.001Z</time></trkpt><trkpt lat="46.02083912252288" lon="9.382721935577086"><ele>820.6666666666666</ele><time>2026-04-25T15:01:11.001Z</time></trkpt><trkpt lat="46.02084254171543" lon="9.382625137614474"><ele>819.0</ele><time>2026-04-25T15:01:12.001Z</time></trkpt><trkpt lat="46.02086931667145" lon="9.382535409130266"><ele>817.2</ele><time>2026-04-25T15:01:13.001Z</time></trkpt><trkpt lat="46.02094839414315" lon="9.382421161706953"><ele>815.4000000000001</ele><time>2026-04-25T15:01:15.001Z</time></trkpt><trkpt lat="46.02105164913973" lon="9.38233099572565"><ele>813.6</ele><time>2026-04-25T15:01:17.001Z</time></trkpt><trkpt lat="46.02110813099865" lon="9.382283226060093"><ele>811.8</ele><time>2026-04-25T15:01:18.001Z</time></trkpt><trkpt lat="46.02122021886765" lon="9.382188426850416"><ele>810.0</ele><time>2026-04-25T15:01:20.001Z</time></trkpt><trkpt lat="46.02127713634311" lon="9.382142526669744"><ele>809.2857142857142</ele><time>2026-04-25T15:01:21.001Z</time></trkpt><trkpt lat="46.021337050875026" lon="9.3820945315184"><ele>808.5714285714286</ele><time>2026-04-25T15:01:22Z</time></trkpt><trkpt lat="46.02140941877823" lon="9.382030868398124"><ele>807.8571428571429</ele><time>2026-04-25T15:01:23Z</time></trkpt><trkpt lat="46.02146995815677" lon="9.381966185292573"><ele>807.1428571428571</ele><time>2026-04-25T15:01:24Z</time></trkpt><trkpt lat="46.021525401271795" lon="9.381896158013419"><ele>806.4285714285714</ele><time>2026-04-25T15:01:25Z</time></trkpt><trkpt lat="46.021569089939476" lon="9.38180931512453"><ele>805.7142857142857</ele><time>2026-04-25T15:01:26Z</time></trkpt><trkpt lat="46.021619890114536" lon="9.38174115810101"><ele>805.0</ele><time>2026-04-25T15:01:27Z</time></trkpt><trkpt lat="46.02168711120701" lon="9.381639091021555"><ele>800.5</ele><time>2026-04-25T15:01:29Z</time></trkpt><trkpt lat="46.02158503225545" lon="9.381504522430843"><ele>796.0</ele><time>2026-04-25T15:01:34Z</time></trkpt><trkpt lat="46.02148321634202" lon="9.381555253910298"><ele>791.5</ele><time>2026-04-25T15:01:36Z</time></trkpt><trkpt lat="46.021370390062245" lon="9.381578500033001"><ele>787.0</ele><time>2026-04-25T15:01:38Z</time></trkpt><trkpt lat="46.02127864772702" lon="9.381601601662743"><ele>787.0</ele><time>2026-04-25T15:01:40Z</time></trkpt><trkpt lat="46.021235364534625" lon="9.381492643738364"><ele>787.0</ele><time>2026-04-25T15:01:43Z</time></trkpt><trkpt lat="46.02129350910219" lon="9.381451425701341"><ele>787.0</ele><time>2026-04-25T15:01:44Z</time></trkpt><trkpt lat="46.021370800279485" lon="9.381354659849318"><ele>787.0</ele><time>2026-04-25T15:01:46Z</time></trkpt><trkpt lat="46.021436408263234" lon="9.381210523185922"><ele>787.0</ele><time>2026-04-25T15:01:48Z</time></trkpt><trkpt lat="46.02149211902375" lon="9.381126612614496"><ele>787.2</ele><time>2026-04-25T15:01:50Z</time></trkpt><trkpt lat="46.021539278889804" lon="9.38101553987373"><ele>787.4000000000001</ele><time>2026-04-25T15:03:29Z</time></trkpt><trkpt lat="46.021580917244634" lon="9.380894945878348"><ele>787.5999999999999</ele><time>2026-04-25T15:03:31Z</time></trkpt><trkpt lat="46.021630902107866" lon="9.380752420063175"><ele>787.8</ele><time>2026-04-25T15:03:33Z</time></trkpt><trkpt lat="46.0216922781351" lon="9.380607576904582"><ele>788.0</ele><time>2026-04-25T15:03:35Z</time></trkpt><trkpt lat="46.02173812858218" lon="9.38044683169611"><ele>784.2</ele><time>2026-04-25T15:03:37Z</time></trkpt><trkpt lat="46.021813867926255" lon="9.380322682352887"><ele>780.4</ele><time>2026-04-25T15:03:39Z</time></trkpt><trkpt lat="46.02188462158018" lon="9.380195157180017"><ele>776.6</ele><time>2026-04-25T15:03:41Z</time></trkpt><trkpt lat="46.021955863767026" lon="9.380083154425845"><ele>772.8000000000001</ele><time>2026-04-25T15:03:43Z</time></trkpt><trkpt lat="46.02202630507462" lon="9.379962145050884"><ele>769.0</ele><time>2026-04-25T15:03:45Z</time></trkpt><trkpt lat="46.02210939809311" lon="9.379845148330192"><ele>769.0</ele><time>2026-04-25T15:03:47Z</time></trkpt><trkpt lat="46.02218564774985" lon="9.379732435743856"><ele>769.0</ele><time>2026-04-25T15:03:49Z</time></trkpt><trkpt lat="46.02225795261309" lon="9.37962974982389"><ele>769.0</ele><time>2026-04-25T15:03:51Z</time></trkpt><trkpt lat="46.022283421125564" lon="9.379500588188817"><ele>769.0</ele><time>2026-04-25T15:03:53Z</time></trkpt><trkpt lat="46.022251200327936" lon="9.379296869434206"><ele>769.0</ele><time>2026-04-25T15:03:55Z</time></trkpt><trkpt lat="46.022261035348535" lon="9.379203770039682"><ele>770.2</ele><time>2026-04-25T15:03:56Z</time></trkpt><trkpt lat="46.02232606053645" lon="9.379079863409656"><ele>771.4000000000001</ele><time>2026-04-25T15:03:58Z</time></trkpt><trkpt lat="46.022454758414796" lon="9.379012147644339"><ele>772.6</ele><time>2026-04-25T15:04:00Z</time></trkpt><trkpt lat="46.02256268432769" lon="9.378973486498927"><ele>773.8</ele><time>2026-04-25T15:04:02Z</time></trkpt><trkpt lat="46.02261259377422" lon="9.37891092239538"><ele>775.0</ele><time>2026-04-25T15:04:03Z</time></trkpt><trkpt lat="46.02265476179052" lon="9.378709257002193"><ele>770.2</ele><time>2026-04-25T15:04:05Z</time></trkpt><trkpt lat="46.02273852191237" lon="9.378577909705285"><ele>765.4</ele><time>2026-04-25T15:04:07Z</time></trkpt><trkpt lat="46.022797425122015" lon="9.378533790986843"><ele>760.5999999999999</ele><time>2026-04-25T15:04:08Z</time></trkpt><trkpt lat="46.02287523693641" lon="9.378518284402208"><ele>755.8</ele><time>2026-04-25T15:04:09Z</time></trkpt><trkpt lat="46.02298596616341" lon="9.378491346263095"><ele>751.0</ele><time>2026-04-25T15:04:10Z</time></trkpt><trkpt lat="46.023086040528604" lon="9.378476693314743"><ele>751.0</ele><time>2026-04-25T15:04:11Z</time></trkpt><trkpt lat="46.023179486239826" lon="9.378497156895772"><ele>751.0</ele><time>2026-04-25T15:04:12Z</time></trkpt><trkpt lat="46.023283752010244" lon="9.378517603829676"><ele>751.0</ele><time>2026-04-25T15:04:13Z</time></trkpt><trkpt lat="46.02339765852713" lon="9.378522789704055"><ele>751.0</ele><time>2026-04-25T15:04:14Z</time></trkpt><trkpt lat="46.02348160430657" lon="9.378429836298517"><ele>751.0</ele><time>2026-04-25T15:04:15Z</time></trkpt><trkpt lat="46.0235694904401" lon="9.37832067203803"><ele>748.5</ele><time>2026-04-25T15:04:16Z</time></trkpt><trkpt lat="46.0236478745154" lon="9.378181056336244"><ele>746.0</ele><time>2026-04-25T15:04:17Z</time></trkpt><trkpt lat="46.02374091534643" lon="9.378077866073978"><ele>743.5</ele><time>2026-04-25T15:04:18Z</time></trkpt><trkpt lat="46.023824302546515" lon="9.377978900966145"><ele>741.0</ele><time>2026-04-25T15:04:19Z</time></trkpt><trkpt lat="46.02391614212007" lon="9.377907300200402"><ele>741.0</ele><time>2026-04-25T15:04:20Z</time></trkpt><trkpt lat="46.02401283470065" lon="9.37785391877348"><ele>741.0</ele><time>2026-04-25T15:04:21Z</time></trkpt><trkpt lat="46.02413230096383" lon="9.377837740475321"><ele>741.0</ele><time>2026-04-25T15:04:22Z</time></trkpt><trkpt lat="46.02429175760053" lon="9.377826703890104"><ele>741.0</ele><time>2026-04-25T15:04:23Z</time></trkpt><trkpt lat="46.0244527483662" lon="9.377814779904355"><ele>741.5</ele><time>2026-04-25T15:04:24Z</time></trkpt><trkpt lat="46.02459753614914" lon="9.377804195513955"><ele>742.0</ele><time>2026-04-25T15:04:25Z</time></trkpt><trkpt lat="46.024739363074325" lon="9.377795015824354"><ele>742.5</ele><time>2026-04-25T15:04:26Z</time></trkpt><trkpt lat="46.024861593274316" lon="9.377797766476782"><ele>743.0</ele><time>2026-04-25T15:04:27Z</time></trkpt><trkpt lat="46.02498221666105" lon="9.377832146056397"><ele>741.3333333333333</ele><time>2026-04-25T15:04:28Z</time></trkpt><trkpt lat="46.02512169615827" lon="9.377904711352558"><ele>739.6666666666666</ele><time>2026-04-25T15:04:29Z</time></trkpt><trkpt lat="46.02527814074453" lon="9.378004840534818"><ele>738.0</ele><time>2026-04-25T15:04:30Z</time></trkpt><trkpt lat="46.02541812646885" lon="9.378086705098253"><ele>738.75</ele><time>2026-04-25T15:04:31Z</time></trkpt><trkpt lat="46.02554934087101" lon="9.378171498214918"><ele>739.5</ele><time>2026-04-25T15:04:32Z</time></trkpt><trkpt lat="46.02565979555325" lon="9.37826388292953"><ele>740.25</ele><time>2026-04-25T15:04:33Z</time></trkpt><trkpt lat="46.0257495032504" lon="9.378368379155786"><ele>741.0</ele><time>2026-04-25T15:04:34Z</time></trkpt><trkpt lat="46.02584483729743" lon="9.378489181704625"><ele>741.0</ele><time>2026-04-25T15:04:35Z</time></trkpt><trkpt lat="46.02595182284933" lon="9.378622648410422"><ele>741.0</ele><time>2026-04-25T15:04:36Z</time></trkpt><trkpt lat="46.02607168391429" lon="9.378745946074373"><ele>741.0</ele><time>2026-04-25T15:04:37Z</time></trkpt><trkpt lat="46.02619419854941" lon="9.378871155909692"><ele>741.0</ele><time>2026-04-25T15:04:38Z</time></trkpt><trkpt lat="46.026329331142584" lon="9.379010255751236"><ele>736.6666666666666</ele><time>2026-04-25T15:04:39Z</time></trkpt><trkpt lat="46.0264659571405" lon="9.379146591201978"><ele>732.3333333333333</ele><time>2026-04-25T15:04:40Z</time></trkpt><trkpt lat="46.02660033491748" lon="9.379292791320358"><ele>728.0</ele><time>2026-04-25T15:04:41Z</time></trkpt><trkpt lat="46.026716746508946" lon="9.379429355963795"><ele>728.0</ele><time>2026-04-25T15:04:42Z</time></trkpt><trkpt lat="46.02683542182599" lon="9.379572924508166"><ele>728.0</ele><time>2026-04-25T15:04:43Z</time></trkpt><trkpt lat="46.026956538314025" lon="9.379723399332715"><ele>728.0</ele><time>2026-04-25T15:04:44Z</time></trkpt><trkpt lat="46.027071252140516" lon="9.37986386316955"><ele>727.5</ele><time>2026-04-25T15:04:45Z</time></trkpt><trkpt lat="46.02717864840975" lon="9.379994064261918"><ele>727.0</ele><time>2026-04-25T15:04:46Z</time></trkpt><trkpt lat="46.027279347295256" lon="9.38012080938399"><ele>726.5</ele><time>2026-04-25T15:04:47Z</time></trkpt><trkpt lat="46.0273916869563" lon="9.380262365404011"><ele>726.0</ele><time>2026-04-25T15:04:48Z</time></trkpt><trkpt lat="46.02751702515672" lon="9.380418996967546"><ele>730.5</ele><time>2026-04-25T15:04:49Z</time></trkpt><trkpt lat="46.02763100886798" lon="9.380562002912525"><ele>735.0</ele><time>2026-04-25T15:04:50Z</time></trkpt><trkpt lat="46.02773260389365" lon="9.380692562273927"><ele>739.5</ele><time>2026-04-25T15:04:51Z</time></trkpt><trkpt lat="46.027825495075774" lon="9.380825629838153"><ele>744.0</ele><time>2026-04-25T15:04:52Z</time></trkpt><trkpt lat="46.02793706719466" lon="9.38098221749559"><ele>744.0</ele><time>2026-04-25T15:04:53Z</time></trkpt><trkpt lat="46.028040155272976" lon="9.38111851743434"><ele>744.0</ele><time>2026-04-25T15:04:54Z</time></trkpt><trkpt lat="46.02813112121658" lon="9.381217925740092"><ele>744.0</ele><time>2026-04-25T15:04:55Z</time></trkpt><trkpt lat="46.02823017367547" lon="9.381324779365654"><ele>744.0</ele><time>2026-04-25T15:04:56Z</time></trkpt><trkpt lat="46.02832443898678" lon="9.381430980632876"><ele>741.0</ele><time>2026-04-25T15:04:57Z</time></trkpt><trkpt lat="46.02840709442383" lon="9.381543766761428"><ele>738.0</ele><time>2026-04-25T15:04:58Z</time></trkpt><trkpt lat="46.028476243298115" lon="9.381655859788594"><ele>735.0</ele><time>2026-04-25T15:04:59Z</time></trkpt><trkpt lat="46.02852582320876" lon="9.381758213686862"><ele>732.0</ele><time>2026-04-25T15:05:00Z</time></trkpt><trkpt lat="46.02856896615874" lon="9.38185079581966"><ele>729.0</ele><time>2026-04-25T15:05:01Z</time></trkpt><trkpt lat="46.02861784321941" lon="9.381922669308748"><ele>729.0</ele><time>2026-04-25T15:05:02Z</time></trkpt><trkpt lat="46.02870077035252" lon="9.381964707011225"><ele>729.0</ele><time>2026-04-25T15:05:03Z</time></trkpt><trkpt lat="46.02879674653005" lon="9.381925681250669"><ele>729.0</ele><time>2026-04-25T15:05:04Z</time></trkpt><trkpt lat="46.02886143630836" lon="9.381787771049481"><ele>729.0</ele><time>2026-04-25T15:05:05Z</time></trkpt><trkpt lat="46.028909408947136" lon="9.381640593049035"><ele>729.0</ele><time>2026-04-25T15:05:06Z</time></trkpt><trkpt lat="46.02895160312571" lon="9.381471285873614"><ele>725.8000000000001</ele><time>2026-04-25T15:05:07Z</time></trkpt><trkpt lat="46.02900314908422" lon="9.381295446266467"><ele>722.6</ele><time>2026-04-25T15:05:08Z</time></trkpt><trkpt lat="46.02905331958792" lon="9.38115301743311"><ele>719.4</ele><time>2026-04-25T15:05:09Z</time></trkpt><trkpt lat="46.02910916473193" lon="9.38102602339827"><ele>716.2</ele><time>2026-04-25T15:05:10Z</time></trkpt><trkpt lat="46.029177264866625" lon="9.380929816028061"><ele>713.0</ele><time>2026-04-25T15:05:11Z</time></trkpt><trkpt lat="46.029272745942336" lon="9.380844179130412"><ele>712.4</ele><time>2026-04-25T15:05:12Z</time></trkpt><trkpt lat="46.02939560742724" lon="9.380789238206816"><ele>711.8</ele><time>2026-04-25T15:05:13Z</time></trkpt><trkpt lat="46.02949582431515" lon="9.380716761339492"><ele>711.2</ele><time>2026-04-25T15:05:13.999Z</time></trkpt><trkpt lat="46.02958469104552" lon="9.38066235646336"><ele>710.6</ele><time>2026-04-25T15:05:14.999Z</time></trkpt><trkpt lat="46.02966329475636" lon="9.380637217143695"><ele>710.0</ele><time>2026-04-25T15:05:15.999Z</time></trkpt><trkpt lat="46.029739993511505" lon="9.380527821796623"><ele>710.0</ele><time>2026-04-25T15:05:18Z</time></trkpt><trkpt lat="46.02978887047647" lon="9.380414978443852"><ele>710.0</ele><time>2026-04-25T15:05:20Z</time></trkpt><trkpt lat="46.02983664792645" lon="9.380273273270843"><ele>710.0</ele><time>2026-04-25T15:05:22Z</time></trkpt><trkpt lat="46.02997502263671" lon="9.380346999655966"><ele>710.0</ele><time>2026-04-25T15:05:23Z</time></trkpt><trkpt lat="46.030084683324745" lon="9.380340571038921"><ele>710.0</ele><time>2026-04-25T15:05:24Z</time></trkpt><trkpt lat="46.03019748139054" lon="9.380316684593657"><ele>710.0</ele><time>2026-04-25T15:05:25Z</time></trkpt><trkpt lat="46.03031965215179" lon="9.380298319386757"><ele>710.0</ele><time>2026-04-25T15:05:26Z</time></trkpt><trkpt lat="46.03045246682053" lon="9.380277411352179"><ele>710.0</ele><time>2026-04-25T15:05:27Z</time></trkpt><trkpt lat="46.030584396823684" lon="9.380257104670635"><ele>710.0</ele><time>2026-04-25T15:05:28Z</time></trkpt><trkpt lat="46.030721424681595" lon="9.380240046566012"><ele>710.0</ele><time>2026-04-25T15:05:29Z</time></trkpt><trkpt lat="46.03086243596046" lon="9.380222381855441"><ele>710.0</ele><time>2026-04-25T15:05:30Z</time></trkpt><trkpt lat="46.030983370247796" lon="9.380240427318"><ele>710.0</ele><time>2026-04-25T15:05:31Z</time></trkpt><trkpt lat="46.03109863580886" lon="9.380215369709498"><ele>711.25</ele><time>2026-04-25T15:05:32Z</time></trkpt><trkpt lat="46.03122081925847" lon="9.38026820348991"><ele>712.5</ele><time>2026-04-25T15:05:33Z</time></trkpt><trkpt lat="46.03135981121623" lon="9.380298356950078"><ele>713.75</ele><time>2026-04-25T15:05:34Z</time></trkpt><trkpt lat="46.031500131744394" lon="9.380332325210606"><ele>715.0</ele><time>2026-04-25T15:05:35Z</time></trkpt><trkpt lat="46.031635492792816" lon="9.380380859105378"><ele>715.5</ele><time>2026-04-25T15:05:36Z</time></trkpt><trkpt lat="46.03175665743403" lon="9.380451505140808"><ele>716.0</ele><time>2026-04-25T15:05:37Z</time></trkpt><trkpt lat="46.0318884697851" lon="9.380532056740963"><ele>716.5</ele><time>2026-04-25T15:05:38Z</time></trkpt><trkpt lat="46.03202389197401" lon="9.380614473433585"><ele>717.0</ele><time>2026-04-25T15:05:39Z</time></trkpt><trkpt lat="46.03219944431435" lon="9.380722304567241"><ele>719.6666666666666</ele><time>2026-04-25T15:05:40Z</time></trkpt><trkpt lat="46.03235385990453" lon="9.380818234383574"><ele>722.3333333333333</ele><time>2026-04-25T15:05:41Z</time></trkpt><trkpt lat="46.0324955086717" lon="9.380906092453056"><ele>725.0</ele><time>2026-04-25T15:05:42Z</time></trkpt><trkpt lat="46.03261687170172" lon="9.380982996573108"><ele>725.0</ele><time>2026-04-25T15:05:43Z</time></trkpt><trkpt lat="46.03271931299754" lon="9.381082213680815"><ele>725.0</ele><time>2026-04-25T15:05:44Z</time></trkpt><trkpt lat="46.032787205290745" lon="9.381245268024728"><ele>725.0</ele><time>2026-04-25T15:05:45Z</time></trkpt><trkpt lat="46.0328527498017" lon="9.381456107631191"><ele>725.0</ele><time>2026-04-25T15:05:46Z</time></trkpt><trkpt lat="46.03292717278885" lon="9.381694261351107"><ele>728.3333333333333</ele><time>2026-04-25T15:05:47Z</time></trkpt><trkpt lat="46.0330122550051" lon="9.38195077432372"><ele>731.6666666666666</ele><time>2026-04-25T15:05:48Z</time></trkpt><trkpt lat="46.033091075373264" lon="9.382231167914222"><ele>735.0</ele><time>2026-04-25T15:05:49Z</time></trkpt><trkpt lat="46.03315602049338" lon="9.38251797447111"><ele>738.6666666666666</ele><time>2026-04-25T15:05:50Z</time></trkpt><trkpt lat="46.03320858358695" lon="9.382748576167142"><ele>742.3333333333333</ele><time>2026-04-25T15:05:51Z</time></trkpt><trkpt lat="46.03325628366289" lon="9.382957843737303"><ele>746.0</ele><time>2026-04-25T15:05:52Z</time></trkpt><trkpt lat="46.03330946948976" lon="9.383185304821167"><ele>747.5</ele><time>2026-04-25T15:05:53Z</time></trkpt><trkpt lat="46.03335674369652" lon="9.383384430230493"><ele>749.0</ele><time>2026-04-25T15:05:54Z</time></trkpt><trkpt lat="46.03339704191972" lon="9.383554173657867"><ele>750.5</ele><time>2026-04-25T15:05:55Z</time></trkpt><trkpt lat="46.03343064510711" lon="9.383696795846385"><ele>752.0</ele><time>2026-04-25T15:05:56Z</time></trkpt><trkpt lat="46.033470930012044" lon="9.38383252418272"><ele>754.0</ele><time>2026-04-25T15:05:57Z</time></trkpt><trkpt lat="46.033547130113476" lon="9.383957610323309"><ele>756.0</ele><time>2026-04-25T15:05:58Z</time></trkpt><trkpt lat="46.033650084969814" lon="9.38406382459372"><ele>758.0</ele><time>2026-04-25T15:05:59Z</time></trkpt><trkpt lat="46.0337709531143" lon="9.384129595869942"><ele>760.0</ele><time>2026-04-25T15:06:00Z</time></trkpt><trkpt lat="46.033913119812986" lon="9.384080013296737"><ele>760.0</ele><time>2026-04-25T15:06:01Z</time></trkpt><trkpt lat="46.03405166210389" lon="9.384028420491834"><ele>760.0</ele><time>2026-04-25T15:06:02Z</time></trkpt><trkpt lat="46.034203559032036" lon="9.38395522387047"><ele>760.0</ele><time>2026-04-25T15:06:03Z</time></trkpt><trkpt lat="46.03435231801773" lon="9.383904140230456"><ele>757.6666666666667</ele><time>2026-04-25T15:06:04Z</time></trkpt><trkpt lat="46.034488872321354" lon="9.38393567137302"><ele>755.3333333333334</ele><time>2026-04-25T15:06:05Z</time></trkpt><trkpt lat="46.034627927936796" lon="9.384000098527258"><ele>753.0</ele><time>2026-04-25T15:06:06Z</time></trkpt><trkpt lat="46.03478606932275" lon="9.384088078802032"><ele>753.0</ele><time>2026-04-25T15:06:07Z</time></trkpt><trkpt lat="46.0349453792698" lon="9.384176215812728"><ele>753.0</ele><time>2026-04-25T15:06:08Z</time></trkpt><trkpt lat="46.03508955850897" lon="9.38424929891197"><ele>753.0</ele><time>2026-04-25T15:06:09Z</time></trkpt><trkpt lat="46.03520762045313" lon="9.384332279282969"><ele>755.3333333333334</ele><time>2026-04-25T15:06:10Z</time></trkpt><trkpt lat="46.03532498157924" lon="9.384444785794262"><ele>757.6666666666667</ele><time>2026-04-25T15:06:11Z</time></trkpt><trkpt lat="46.03544216139526" lon="9.384595202051173"><ele>760.0</ele><time>2026-04-25T15:06:12Z</time></trkpt><trkpt lat="46.03556415253631" lon="9.384764482661502"><ele>760.0</ele><time>2026-04-25T15:06:13Z</time></trkpt><trkpt lat="46.0356704480357" lon="9.384904311141257"><ele>760.0</ele><time>2026-04-25T15:06:14Z</time></trkpt><trkpt lat="46.035761056435014" lon="9.38502240039116"><ele>760.0</ele><time>2026-04-25T15:06:15Z</time></trkpt><trkpt lat="46.03583797258274" lon="9.385126625688857"><ele>760.0</ele><time>2026-04-25T15:06:16Z</time></trkpt><trkpt lat="46.035930595864606" lon="9.385218183413686"><ele>763.75</ele><time>2026-04-25T15:06:17Z</time></trkpt><trkpt lat="46.03605273999973" lon="9.385231368940735"><ele>767.5</ele><time>2026-04-25T15:06:18Z</time></trkpt><trkpt lat="46.03617710901066" lon="9.385286019298867"><ele>771.25</ele><time>2026-04-25T15:06:19Z</time></trkpt><trkpt lat="46.03630825251084" lon="9.385350890537412"><ele>775.0</ele><time>2026-04-25T15:06:20Z</time></trkpt><trkpt lat="46.03642589321645" lon="9.385419462910042"><ele>775.0</ele><time>2026-04-25T15:06:21Z</time></trkpt><trkpt lat="46.03652568713094" lon="9.38548076382302"><ele>775.0</ele><time>2026-04-25T15:06:22Z</time></trkpt><trkpt lat="46.03665851547531" lon="9.385562357016736"><ele>775.0</ele><time>2026-04-25T15:06:23Z</time></trkpt><trkpt lat="46.0368024854349" lon="9.385632165526717"><ele>775.0</ele><time>2026-04-25T15:06:24Z</time></trkpt><trkpt lat="46.0369908033603" lon="9.3856630451201"><ele>776.0</ele><time>2026-04-25T15:06:25Z</time></trkpt><trkpt lat="46.03712812567214" lon="9.3857008709933"><ele>777.0</ele><time>2026-04-25T15:06:26Z</time></trkpt><trkpt lat="46.03725499976031" lon="9.385771608726502"><ele>778.0</ele><time>2026-04-25T15:06:27Z</time></trkpt><trkpt lat="46.03737801887722" lon="9.385785247172702"><ele>779.0</ele><time>2026-04-25T15:06:28Z</time></trkpt><trkpt lat="46.03749929679435" lon="9.385895459295192"><ele>783.3333333333334</ele><time>2026-04-25T15:06:29Z</time></trkpt><trkpt lat="46.03763117939094" lon="9.386043278490202"><ele>787.6666666666667</ele><time>2026-04-25T15:06:30Z</time></trkpt><trkpt lat="46.03778355233232" lon="9.386208935802197"><ele>792.0</ele><time>2026-04-25T15:06:31Z</time></trkpt><trkpt lat="46.037916281586334" lon="9.386334126294525"><ele>791.0</ele><time>2026-04-25T15:06:32Z</time></trkpt><trkpt lat="46.03799470195429" lon="9.386474808120765"><ele>790.0</ele><time>2026-04-25T15:06:33Z</time></trkpt><trkpt lat="46.03807806753754" lon="9.386573897339657"><ele>789.0</ele><time>2026-04-25T15:06:34Z</time></trkpt><trkpt lat="46.0381627770551" lon="9.38668305372339"><ele>788.0</ele><time>2026-04-25T15:06:35Z</time></trkpt><trkpt lat="46.03823910328646" lon="9.386790572286388"><ele>790.4</ele><time>2026-04-25T15:06:36Z</time></trkpt><trkpt lat="46.03831210779178" lon="9.386894326117527"><ele>792.8</ele><time>2026-04-25T15:06:37Z</time></trkpt><trkpt lat="46.03838871622767" lon="9.387005597372253"><ele>795.2</ele><time>2026-04-25T15:06:38Z</time></trkpt><trkpt lat="46.0384622327129" lon="9.38711237761731"><ele>797.6</ele><time>2026-04-25T15:06:39Z</time></trkpt><trkpt lat="46.03853437230087" lon="9.38721715796099"><ele>800.0</ele><time>2026-04-25T15:06:40Z</time></trkpt><trkpt lat="46.03860712011271" lon="9.387322821837062"><ele>800.25</ele><time>2026-04-25T15:06:41Z</time></trkpt><trkpt lat="46.03868027857564" lon="9.387427779013603"><ele>800.5</ele><time>2026-04-25T15:06:42Z</time></trkpt><trkpt lat="46.03875613831113" lon="9.387536464420435"><ele>800.75</ele><time>2026-04-25T15:06:43Z</time></trkpt><trkpt lat="46.038855548860035" lon="9.387625848383307"><ele>801.0</ele><time>2026-04-25T15:06:44Z</time></trkpt><trkpt lat="46.03894595662594" lon="9.387758115385692"><ele>801.0</ele><time>2026-04-25T15:06:45Z</time></trkpt><trkpt lat="46.03902805719522" lon="9.38787776341641"><ele>801.0</ele><time>2026-04-25T15:06:46Z</time></trkpt><trkpt lat="46.03910482166726" lon="9.387994772110385"><ele>801.0</ele><time>2026-04-25T15:06:47Z</time></trkpt><trkpt lat="46.039198899787806" lon="9.38810554945958"><ele>801.0</ele><time>2026-04-25T15:06:48Z</time></trkpt><trkpt lat="46.03930220566286" lon="9.388179186203113"><ele>802.5999999999999</ele><time>2026-04-25T15:06:49Z</time></trkpt><trkpt lat="46.039422913662314" lon="9.388221425885416"><ele>804.2</ele><time>2026-04-25T15:06:50Z</time></trkpt><trkpt lat="46.039540040240254" lon="9.388266417276647"><ele>805.8</ele><time>2026-04-25T15:06:51Z</time></trkpt><trkpt lat="46.03963312053941" lon="9.388320433097999"><ele>807.4000000000001</ele><time>2026-04-25T15:06:52Z</time></trkpt><trkpt lat="46.03971405905229" lon="9.388371373493039"><ele>809.0</ele><time>2026-04-25T15:06:53Z</time></trkpt><trkpt lat="46.03980797314547" lon="9.388395665108868"><ele>809.0</ele><time>2026-04-25T15:06:54Z</time></trkpt><trkpt lat="46.03992213460795" lon="9.388409647497998"><ele>809.0</ele><time>2026-04-25T15:06:55Z</time></trkpt><trkpt lat="46.0400295841942" lon="9.3884264397277"><ele>809.0</ele><time>2026-04-25T15:06:56Z</time></trkpt><trkpt lat="46.04014178143622" lon="9.388430814260108"><ele>809.0</ele><time>2026-04-25T15:06:57Z</time></trkpt><trkpt lat="46.0402359694878" lon="9.388456693245114"><ele>809.0</ele><time>2026-04-25T15:06:58Z</time></trkpt><trkpt lat="46.04031070086728" lon="9.388444511073699"><ele>810.1666666666667</ele><time>2026-04-25T15:06:59Z</time></trkpt><trkpt lat="46.04038472473034" lon="9.388456103361385"><ele>811.3333333333334</ele><time>2026-04-25T15:06:59.999Z</time></trkpt><trkpt lat="46.04043968826055" lon="9.388506223980635"><ele>812.5</ele><time>2026-04-25T15:07:00.999Z</time></trkpt><trkpt lat="46.040519239646905" lon="9.388578581217388"><ele>813.6666666666667</ele><time>2026-04-25T15:07:01.999Z</time></trkpt><trkpt lat="46.040601801579335" lon="9.388648608941734"><ele>814.8333333333334</ele><time>2026-04-25T15:07:02.999Z</time></trkpt><trkpt lat="46.04070050780579" lon="9.388725718843766"><ele>816.0</ele><time>2026-04-25T15:07:03.999Z</time></trkpt><trkpt lat="46.0407925483754" lon="9.38879791268497"><ele>817.0</ele><time>2026-04-25T15:07:04.999Z</time></trkpt><trkpt lat="46.04087487669977" lon="9.388899702219318"><ele>818.0</ele><time>2026-04-25T15:07:05.999Z</time></trkpt><trkpt lat="46.04098188116453" lon="9.388982382891164"><ele>819.0</ele><time>2026-04-25T15:07:06.999Z</time></trkpt><trkpt lat="46.04110272870798" lon="9.389082138984076"><ele>820.0</ele><time>2026-04-25T15:07:07.999Z</time></trkpt><trkpt lat="46.04120460525924" lon="9.389172346199535"><ele>820.0</ele><time>2026-04-25T15:07:08.999Z</time></trkpt><trkpt lat="46.04131739687955" lon="9.389271657963022"><ele>820.0</ele><time>2026-04-25T15:07:09.999Z</time></trkpt><trkpt lat="46.04146254143208" lon="9.389396794955166"><ele>820.0</ele><time>2026-04-25T15:07:10.999Z</time></trkpt><trkpt lat="46.041589418881806" lon="9.389505588154826"><ele>820.0</ele><time>2026-04-25T15:07:11.999Z</time></trkpt><trkpt lat="46.04169740969594" lon="9.389598186744834"><ele>821.6666666666666</ele><time>2026-04-25T15:07:12.999Z</time></trkpt><trkpt lat="46.041821463082506" lon="9.389705553364431"><ele>823.3333333333333</ele><time>2026-04-25T15:07:13.999Z</time></trkpt><trkpt lat="46.04195702279843" lon="9.389824236258036"><ele>825.0</ele><time>2026-04-25T15:07:14.999Z</time></trkpt><trkpt lat="46.04209686531648" lon="9.389949282597922"><ele>825.0</ele><time>2026-04-25T15:07:15.999Z</time></trkpt><trkpt lat="46.04223286752996" lon="9.390059496158806"><ele>825.0</ele><time>2026-04-25T15:07:16.999Z</time></trkpt><trkpt lat="46.04235400818745" lon="9.390199696403926"><ele>825.0</ele><time>2026-04-25T15:07:17.999Z</time></trkpt><trkpt lat="46.04249495346771" lon="9.390336655296394"><ele>829.0</ele><time>2026-04-25T15:07:18.999Z</time></trkpt><trkpt lat="46.04264300008486" lon="9.390480314322875"><ele>833.0</ele><time>2026-04-25T15:07:19.999Z</time></trkpt><trkpt lat="46.04280399774772" lon="9.390638074214458"><ele>837.0</ele><time>2026-04-25T15:07:20.999Z</time></trkpt><trkpt lat="46.04297230214457" lon="9.390774348905087"><ele>837.0</ele><time>2026-04-25T15:07:21.999Z</time></trkpt><trkpt lat="46.04310058415973" lon="9.390902843590611"><ele>837.0</ele><time>2026-04-25T15:07:22.999Z</time></trkpt><trkpt lat="46.04321437933873" lon="9.391041005870292"><ele>837.0</ele><time>2026-04-25T15:07:24Z</time></trkpt><trkpt lat="46.04335450379419" lon="9.391178919059454"><ele>838.75</ele><time>2026-04-25T15:07:25Z</time></trkpt><trkpt lat="46.04348333808271" lon="9.391283570204152"><ele>840.5</ele><time>2026-04-25T15:07:26Z</time></trkpt><trkpt lat="46.04360041009949" lon="9.391398389214288"><ele>842.25</ele><time>2026-04-25T15:07:27Z</time></trkpt><trkpt lat="46.0437180696089" lon="9.391511493212283"><ele>844.0</ele><time>2026-04-25T15:07:28Z</time></trkpt><trkpt lat="46.043815618734115" lon="9.391613519204002"><ele>843.9999999999999</ele><time>2026-04-25T15:07:29Z</time></trkpt><trkpt lat="46.043900957100895" lon="9.391704715374678"><ele>844.0</ele><time>2026-04-25T15:07:30Z</time></trkpt><trkpt lat="46.04397073211298" lon="9.39178646704466"><ele>844.0</ele><time>2026-04-25T15:07:31Z</time></trkpt><trkpt lat="46.044037697545356" lon="9.391841028433161"><ele>844.0</ele><time>2026-04-25T15:07:32Z</time></trkpt><trkpt lat="46.044100712161274" lon="9.39188323950161"><ele>843.9999999999999</ele><time>2026-04-25T15:07:33Z</time></trkpt><trkpt lat="46.044164801806076" lon="9.391884345309657"><ele>844.0</ele><time>2026-04-25T15:07:34Z</time></trkpt><trkpt lat="46.04419771679435" lon="9.39179079953456"><ele>844.0</ele><time>2026-04-25T15:07:35Z</time></trkpt><trkpt lat="46.04420789319266" lon="9.391697289890992"><ele>844.0</ele><time>2026-04-25T15:07:36Z</time></trkpt><trkpt lat="46.044165607734655" lon="9.391601243723125"><ele>844.0</ele><time>2026-04-25T15:07:37Z</time></trkpt><trkpt lat="46.044092399358604" lon="9.391529908643244"><ele>844.0</ele><time>2026-04-25T15:07:38Z</time></trkpt><trkpt lat="46.04401783923018" lon="9.391425274533825"><ele>844.0</ele><time>2026-04-25T15:07:39Z</time></trkpt><trkpt lat="46.043943932191944" lon="9.391271343620861"><ele>845.6666666666666</ele><time>2026-04-25T15:07:40Z</time></trkpt><trkpt lat="46.04388266899178" lon="9.391135131284932"><ele>847.3333333333333</ele><time>2026-04-25T15:07:41Z</time></trkpt><trkpt lat="46.04382469084975" lon="9.39103842792859"><ele>849.0</ele><time>2026-04-25T15:07:42Z</time></trkpt><trkpt lat="46.04378093058451" lon="9.39094548426321"><ele>850.6666666666667</ele><time>2026-04-25T15:07:43Z</time></trkpt><trkpt lat="46.04379818235661" lon="9.390817528884615"><ele>852.3333333333334</ele><time>2026-04-25T15:07:45Z</time></trkpt><trkpt lat="46.04380620593888" lon="9.390711681023877"><ele>854.0</ele><time>2026-04-25T15:07:46Z</time></trkpt><trkpt lat="46.043864765764745" lon="9.39080836580435"><ele>854.0</ele><time>2026-04-25T15:07:47Z</time></trkpt><trkpt lat="46.043930109509965" lon="9.39085815054703"><ele>854.0</ele><time>2026-04-25T15:07:48Z</time></trkpt><trkpt lat="46.044019814170646" lon="9.390942157479445"><ele>854.0</ele><time>2026-04-25T15:07:49Z</time></trkpt><trkpt lat="46.04415255517779" lon="9.391046320956384"><ele>854.0</ele><time>2026-04-25T15:07:50Z</time></trkpt><trkpt lat="46.04426698934705" lon="9.391131553188945"><ele>854.75</ele><time>2026-04-25T15:07:51Z</time></trkpt><trkpt lat="46.044386770008195" lon="9.391213843985671"><ele>855.5</ele><time>2026-04-25T15:07:52Z</time></trkpt><trkpt lat="46.04451485770003" lon="9.391331170178667"><ele>856.25</ele><time>2026-04-25T15:07:53Z</time></trkpt><trkpt lat="46.04462202125968" lon="9.391450071069412"><ele>857.0</ele><time>2026-04-25T15:07:54Z</time></trkpt><trkpt lat="46.044744834832336" lon="9.391567853393378"><ele>857.0</ele><time>2026-04-25T15:07:55Z</time></trkpt><trkpt lat="46.04485937748482" lon="9.391649633466765"><ele>857.0</ele><time>2026-04-25T15:07:56Z</time></trkpt><trkpt lat="46.044987274526676" lon="9.391686562339592"><ele>857.0</ele><time>2026-04-25T15:07:57Z</time></trkpt><trkpt lat="46.045116172892484" lon="9.391766370969341"><ele>857.0</ele><time>2026-04-25T15:07:58Z</time></trkpt><trkpt lat="46.045266460824585" lon="9.391838247698745"><ele>862.3333333333334</ele><time>2026-04-25T15:07:59Z</time></trkpt><trkpt lat="46.04543021675419" lon="9.391913764853934"><ele>867.6666666666667</ele><time>2026-04-25T15:08:00Z</time></trkpt><trkpt lat="46.04557701841872" lon="9.391984360362429"><ele>873.0</ele><time>2026-04-25T15:08:01Z</time></trkpt><trkpt lat="46.045716627399074" lon="9.392063751684114"><ele>874.6666666666667</ele><time>2026-04-25T15:08:02Z</time></trkpt><trkpt lat="46.045847620937764" lon="9.39217452313232"><ele>876.3333333333334</ele><time>2026-04-25T15:08:03Z</time></trkpt><trkpt lat="46.04596922152628" lon="9.392302825297062"><ele>878.0</ele><time>2026-04-25T15:08:04Z</time></trkpt><trkpt lat="46.04608835855672" lon="9.392449449235052"><ele>878.0</ele><time>2026-04-25T15:08:05Z</time></trkpt><trkpt lat="46.04623483800196" lon="9.392604511298423"><ele>878.0</ele><time>2026-04-25T15:08:06Z</time></trkpt><trkpt lat="46.04638621738456" lon="9.392733586487623"><ele>878.0</ele><time>2026-04-25T15:08:07Z</time></trkpt><trkpt lat="46.04654028639965" lon="9.392855393079422"><ele>881.75</ele><time>2026-04-25T15:08:08Z</time></trkpt><trkpt lat="46.04668361735192" lon="9.392971695581016"><ele>885.5</ele><time>2026-04-25T15:08:09Z</time></trkpt><trkpt lat="46.04679406550249" lon="9.393084728767661"><ele>889.25</ele><time>2026-04-25T15:08:10Z</time></trkpt><trkpt lat="46.046869412180506" lon="9.393209531924649"><ele>893.0</ele><time>2026-04-25T15:08:11Z</time></trkpt><trkpt lat="46.04690198816826" lon="9.393353827097803"><ele>893.0</ele><time>2026-04-25T15:08:12Z</time></trkpt><trkpt lat="46.04693476977932" lon="9.393533551050504"><ele>893.0</ele><time>2026-04-25T15:08:13Z</time></trkpt><trkpt lat="46.046957987776246" lon="9.393759897721603"><ele>893.0</ele><time>2026-04-25T15:08:14Z</time></trkpt><trkpt lat="46.04698270371981" lon="9.394002290908801"><ele>896.0</ele><time>2026-04-25T15:08:15Z</time></trkpt><trkpt lat="46.04701736432304" lon="9.394259585679361"><ele>899.0</ele><time>2026-04-25T15:08:16Z</time></trkpt><trkpt lat="46.047098393664776" lon="9.39449963068399"><ele>902.0</ele><time>2026-04-25T15:08:17Z</time></trkpt><trkpt lat="46.0471522954673" lon="9.39472219916589"><ele>905.0</ele><time>2026-04-25T15:08:18Z</time></trkpt><trkpt lat="46.04722596429706" lon="9.39489288724123"><ele>908.0</ele><time>2026-04-25T15:08:19Z</time></trkpt><trkpt lat="46.047273238859006" lon="9.395084488132163"><ele>911.0</ele><time>2026-04-25T15:08:20Z</time></trkpt><trkpt lat="46.04734861482674" lon="9.395267174253616"><ele>914.0</ele><time>2026-04-25T15:08:21Z</time></trkpt><trkpt lat="46.04743971163427" lon="9.395443610231961"><ele>919.6666666666667</ele><time>2026-04-25T15:08:22Z</time></trkpt><trkpt lat="46.04758440083045" lon="9.395586495140865"><ele>925.3333333333333</ele><time>2026-04-25T15:08:23Z</time></trkpt><trkpt lat="46.04770627391301" lon="9.395745411353662"><ele>931.0</ele><time>2026-04-25T15:08:24Z</time></trkpt><trkpt lat="46.04784804353627" lon="9.395851751555412"><ele>931.0</ele><time>2026-04-25T15:08:25Z</time></trkpt><trkpt lat="46.04798131913907" lon="9.39591322473586"><ele>931.0</ele><time>2026-04-25T15:08:26Z</time></trkpt><trkpt lat="46.04813183691876" lon="9.395985694357199"><ele>931.0</ele><time>2026-04-25T15:08:27Z</time></trkpt><trkpt lat="46.04830999674748" lon="9.39606440574842"><ele>929.3333333333333</ele><time>2026-04-25T15:08:28Z</time></trkpt><trkpt lat="46.048504672482174" lon="9.396152165059268"><ele>927.6666666666667</ele><time>2026-04-25T15:08:29Z</time></trkpt><trkpt lat="46.048670704962866" lon="9.396233229169086"><ele>926.0</ele><time>2026-04-25T15:08:30Z</time></trkpt><trkpt lat="46.04881808133042" lon="9.396301162306933"><ele>927.6666666666667</ele><time>2026-04-25T15:08:31Z</time></trkpt><trkpt lat="46.048951851415225" lon="9.396390944892712"><ele>929.3333333333333</ele><time>2026-04-25T15:08:32Z</time></trkpt><trkpt lat="46.04909069147773" lon="9.396456355546576"><ele>931.0</ele><time>2026-04-25T15:08:33Z</time></trkpt><trkpt lat="46.04925706907724" lon="9.39653706601824"><ele>931.0</ele><time>2026-04-25T15:08:34Z</time></trkpt><trkpt lat="46.04942361953346" lon="9.39659492700174"><ele>931.0</ele><time>2026-04-25T15:08:35Z</time></trkpt><trkpt lat="46.0495733159768" lon="9.396672730608648"><ele>931.0</ele><time>2026-04-25T15:08:36Z</time></trkpt><trkpt lat="46.049719697337515" lon="9.396740997859585"><ele>931.0</ele><time>2026-04-25T15:08:37Z</time></trkpt><trkpt lat="46.049848404099386" lon="9.396828284639978"><ele>931.0</ele><time>2026-04-25T15:08:38Z</time></trkpt><trkpt lat="46.049975114384345" lon="9.396869169199665"><ele>931.0</ele><time>2026-04-25T15:08:39Z</time></trkpt><trkpt lat="46.050088821924" lon="9.396930839928512"><ele>931.0</ele><time>2026-04-25T15:08:40Z</time></trkpt><trkpt lat="46.05020097326901" lon="9.396994813012236"><ele>930.0</ele><time>2026-04-25T15:08:41Z</time></trkpt><trkpt lat="46.05030808778379" lon="9.397058138973563"><ele>929.0</ele><time>2026-04-25T15:08:42Z</time></trkpt><trkpt lat="46.05039552843313" lon="9.397148023021863"><ele>928.0</ele><time>2026-04-25T15:08:43Z</time></trkpt><trkpt lat="46.05046134457955" lon="9.397282914496639"><ele>927.0</ele><time>2026-04-25T15:08:44Z</time></trkpt><trkpt lat="46.05047811226649" lon="9.397494947672726"><ele>927.0</ele><time>2026-04-25T15:08:45Z</time></trkpt><trkpt lat="46.05051674544631" lon="9.39771662156598"><ele>927.0</ele><time>2026-04-25T15:08:46Z</time></trkpt><trkpt lat="46.05055396459453" lon="9.397973772142528"><ele>927.0</ele><time>2026-04-25T15:08:47Z</time></trkpt><trkpt lat="46.05058625275826" lon="9.39820227606015"><ele>930.75</ele><time>2026-04-25T15:08:48Z</time></trkpt><trkpt lat="46.05061544747116" lon="9.398410423615484"><ele>934.5</ele><time>2026-04-25T15:08:49Z</time></trkpt><trkpt lat="46.05064456421007" lon="9.39859673226537"><ele>938.25</ele><time>2026-04-25T15:08:50Z</time></trkpt><trkpt lat="46.05068730542233" lon="9.398763440855738"><ele>942.0</ele><time>2026-04-25T15:08:51Z</time></trkpt><trkpt lat="46.05071358916548" lon="9.3989164957912"><ele>943.6</ele><time>2026-04-25T15:08:52Z</time></trkpt><trkpt lat="46.05072636042983" lon="9.399060792207761"><ele>945.2</ele><time>2026-04-25T15:08:53Z</time></trkpt><trkpt lat="46.050706034455864" lon="9.399198601445573"><ele>946.8</ele><time>2026-04-25T15:08:54Z</time></trkpt><trkpt lat="46.05073604816331" lon="9.39931572642441"><ele>948.4</ele><time>2026-04-25T15:08:55Z</time></trkpt><trkpt lat="46.050795118030635" lon="9.399459250352422"><ele>950.0</ele><time>2026-04-25T15:08:56Z</time></trkpt><trkpt lat="46.05085972553299" lon="9.399612860366885"><ele>943.4</ele><time>2026-04-25T15:08:57Z</time></trkpt><trkpt lat="46.05090757520633" lon="9.39973410789206"><ele>936.8</ele><time>2026-04-25T15:08:58Z</time></trkpt><trkpt lat="46.050947068751185" lon="9.39984395703197"><ele>930.2</ele><time>2026-04-25T15:08:59Z</time></trkpt><trkpt lat="46.050977107967235" lon="9.399961931537206"><ele>923.6</ele><time>2026-04-25T15:09:00Z</time></trkpt><trkpt lat="46.05094217875671" lon="9.400097423627242"><ele>917.0</ele><time>2026-04-25T15:09:01Z</time></trkpt><trkpt lat="46.05091332016389" lon="9.400243775407407"><ele>917.0</ele><time>2026-04-25T15:09:02Z</time></trkpt><trkpt lat="46.05087597911639" lon="9.400406125501267"><ele>917.0</ele><time>2026-04-25T15:09:03Z</time></trkpt><trkpt lat="46.05083301711193" lon="9.400592933666099"><ele>917.0</ele><time>2026-04-25T15:09:04Z</time></trkpt><trkpt lat="46.050789552189265" lon="9.400791524480427"><ele>917.0</ele><time>2026-04-25T15:09:05Z</time></trkpt><trkpt lat="46.05074787341292" lon="9.400982683138798"><ele>923.75</ele><time>2026-04-25T15:09:06Z</time></trkpt><trkpt lat="46.0507077721524" lon="9.401171639493347"><ele>930.5</ele><time>2026-04-25T15:09:07Z</time></trkpt><trkpt lat="46.0506714091318" lon="9.4013373456331"><ele>937.25</ele><time>2026-04-25T15:09:07.999Z</time></trkpt><trkpt lat="46.050635555395516" lon="9.401486681898282"><ele>944.0</ele><time>2026-04-25T15:09:08.999Z</time></trkpt><trkpt lat="46.05059646163716" lon="9.401641658533123"><ele>944.0</ele><time>2026-04-25T15:09:09.999Z</time></trkpt><trkpt lat="46.05055079966438" lon="9.401819040166423"><ele>944.0</ele><time>2026-04-25T15:09:10.999Z</time></trkpt><trkpt lat="46.05051259089897" lon="9.40202646491632"><ele>944.0</ele><time>2026-04-25T15:09:11.999Z</time></trkpt><trkpt lat="46.05045468196428" lon="9.40222347503657"><ele>944.0</ele><time>2026-04-25T15:09:12.999Z</time></trkpt><trkpt lat="46.05041178624064" lon="9.402399363600127"><ele>942.5</ele><time>2026-04-25T15:09:13.999Z</time></trkpt><trkpt lat="46.05035225045615" lon="9.402574736894387"><ele>941.0</ele><time>2026-04-25T15:09:14.999Z</time></trkpt><trkpt lat="46.050299652297056" lon="9.402781710921058"><ele>939.5</ele><time>2026-04-25T15:09:15.999Z</time></trkpt><trkpt lat="46.05026110623342" lon="9.402991369308229"><ele>938.0</ele><time>2026-04-25T15:09:16.999Z</time></trkpt><trkpt lat="46.05020649259415" lon="9.403218634841588"><ele>935.25</ele><time>2026-04-25T15:09:17.999Z</time></trkpt><trkpt lat="46.05016055983997" lon="9.403418037386798"><ele>932.5</ele><time>2026-04-25T15:09:18.999Z</time></trkpt><trkpt lat="46.05009857346617" lon="9.403615352536798"><ele>929.75</ele><time>2026-04-25T15:09:19.999Z</time></trkpt><trkpt lat="46.0500525453595" lon="9.403817272783993"><ele>927.0</ele><time>2026-04-25T15:09:20.999Z</time></trkpt><trkpt lat="46.05000877880722" lon="9.404018358593055"><ele>924.25</ele><time>2026-04-25T15:09:21.999Z</time></trkpt><trkpt lat="46.049968920929615" lon="9.404203714803419"><ele>921.5</ele><time>2026-04-25T15:09:22.999Z</time></trkpt><trkpt lat="46.049930939856104" lon="9.40437887442477"><ele>918.75</ele><time>2026-04-25T15:09:23.999Z</time></trkpt><trkpt lat="46.04989129198075" lon="9.404560263462573"><ele>916.0</ele><time>2026-04-25T15:09:24.999Z</time></trkpt><trkpt lat="46.0498496509272" lon="9.404750182501232"><ele>925.75</ele><time>2026-04-25T15:09:25.999Z</time></trkpt><trkpt lat="46.04980794300991" lon="9.40494024695779"><ele>935.5</ele><time>2026-04-25T15:09:26.999Z</time></trkpt><trkpt lat="46.04976829520936" lon="9.405120923448393"><ele>945.25</ele><time>2026-04-25T15:09:27.999Z</time></trkpt><trkpt lat="46.04973064221729" lon="9.405288192637729"><ele>955.0</ele><time>2026-04-25T15:09:28.999Z</time></trkpt><trkpt lat="46.04968815462773" lon="9.405476025717812"><ele>951.25</ele><time>2026-04-25T15:09:30Z</time></trkpt><trkpt lat="46.04964716107113" lon="9.405646036205457"><ele>947.5</ele><time>2026-04-25T15:09:31Z</time></trkpt><trkpt lat="46.04960111040537" lon="9.405794125202583"><ele>943.75</ele><time>2026-04-25T15:09:32Z</time></trkpt><trkpt lat="46.049540242045936" lon="9.405955342473792"><ele>940.0</ele><time>2026-04-25T15:09:33Z</time></trkpt><trkpt lat="46.049473647484" lon="9.406135244011514"><ele>940.0</ele><time>2026-04-25T15:09:34Z</time></trkpt><trkpt lat="46.049384627855794" lon="9.406310112216495"><ele>940.0</ele><time>2026-04-25T15:09:35Z</time></trkpt><trkpt lat="46.04929410307461" lon="9.406489479673162"><ele>940.0</ele><time>2026-04-25T15:09:36Z</time></trkpt><trkpt lat="46.04920913133146" lon="9.406681897924553"><ele>936.0</ele><time>2026-04-25T15:09:37Z</time></trkpt><trkpt lat="46.04913000357751" lon="9.406889798431658"><ele>932.0</ele><time>2026-04-25T15:09:38Z</time></trkpt><trkpt lat="46.049050882375674" lon="9.407088437041908"><ele>928.0</ele><time>2026-04-25T15:09:39Z</time></trkpt><trkpt lat="46.04896904649667" lon="9.407293042507199"><ele>936.6666666666666</ele><time>2026-04-25T15:09:40Z</time></trkpt><trkpt lat="46.048877280376075" lon="9.407500866843378"><ele>945.3333333333333</ele><time>2026-04-25T15:09:41Z</time></trkpt><trkpt lat="46.04873557861495" lon="9.407658582667985"><ele>954.0</ele><time>2026-04-25T15:09:42Z</time></trkpt><trkpt lat="46.048647029536525" lon="9.407845998738592"><ele>949.0</ele><time>2026-04-25T15:09:43Z</time></trkpt><trkpt lat="46.048566601208535" lon="9.408014946912045"><ele>944.0</ele><time>2026-04-25T15:09:44Z</time></trkpt><trkpt lat="46.048479198229046" lon="9.408192718390616"><ele>939.0</ele><time>2026-04-25T15:09:45Z</time></trkpt><trkpt lat="46.04838236541026" lon="9.408397050309807"><ele>945.6666666666667</ele><time>2026-04-25T15:09:46Z</time></trkpt><trkpt lat="46.0482691046533" lon="9.408591597423507"><ele>952.3333333333334</ele><time>2026-04-25T15:09:47Z</time></trkpt><trkpt lat="46.048163587214894" lon="9.408779860636592"><ele>959.0</ele><time>2026-04-25T15:09:48Z</time></trkpt><trkpt lat="46.04805848358775" lon="9.408918439322205"><ele>959.0</ele><time>2026-04-25T15:09:49Z</time></trkpt><trkpt lat="46.047964894831814" lon="9.409073847858116"><ele>959.0</ele><time>2026-04-25T15:09:50Z</time></trkpt><trkpt lat="46.04785909226402" lon="9.409248025821094"><ele>959.0</ele><time>2026-04-25T15:09:51Z</time></trkpt><trkpt lat="46.0477538645961" lon="9.409418505349272"><ele>959.0</ele><time>2026-04-25T15:09:52Z</time></trkpt><trkpt lat="46.047646606927884" lon="9.409591712400932"><ele>959.0</ele><time>2026-04-25T15:09:53Z</time></trkpt><trkpt lat="46.04753886264463" lon="9.409764426407758"><ele>959.0</ele><time>2026-04-25T15:09:54Z</time></trkpt><trkpt lat="46.047428691838974" lon="9.409936207515795"><ele>965.75</ele><time>2026-04-25T15:09:55Z</time></trkpt><trkpt lat="46.047333491209194" lon="9.410084646711642"><ele>972.5</ele><time>2026-04-25T15:09:56Z</time></trkpt><trkpt lat="46.047244402340105" lon="9.410224508276153"><ele>979.25</ele><time>2026-04-25T15:09:57Z</time></trkpt><trkpt lat="46.04716836738065" lon="9.410346679037472"><ele>986.0</ele><time>2026-04-25T15:09:58Z</time></trkpt><trkpt lat="46.047094693491026" lon="9.410465056117621"><ele>980.25</ele><time>2026-04-25T15:09:59Z</time></trkpt><trkpt lat="46.04701817095069" lon="9.410588011160081"><ele>974.5</ele><time>2026-04-25T15:10:00Z</time></trkpt><trkpt lat="46.04694200308142" lon="9.410710240559562"><ele>968.75</ele><time>2026-04-25T15:10:01Z</time></trkpt><trkpt lat="46.04686035061931" lon="9.410839998356401"><ele>963.0</ele><time>2026-04-25T15:10:02Z</time></trkpt><trkpt lat="46.04678854920445" lon="9.410954101409104"><ele>963.0</ele><time>2026-04-25T15:10:03Z</time></trkpt><trkpt lat="46.046725555321075" lon="9.41105420794791"><ele>963.0</ele><time>2026-04-25T15:10:04Z</time></trkpt><trkpt lat="46.04666732278099" lon="9.41114483272961"><ele>963.0</ele><time>2026-04-25T15:10:05Z</time></trkpt><trkpt lat="46.0465967540399" lon="9.411240777804307"><ele>963.0</ele><time>2026-04-25T15:10:06Z</time></trkpt><trkpt lat="46.04651172778961" lon="9.41134300616203"><ele>963.0</ele><time>2026-04-25T15:10:07Z</time></trkpt><trkpt lat="46.046417602124016" lon="9.411445873936158"><ele>965.4</ele><time>2026-04-25T15:10:08Z</time></trkpt><trkpt lat="46.04633631730347" lon="9.411523701802313"><ele>967.8</ele><time>2026-04-25T15:10:09Z</time></trkpt><trkpt lat="46.04625372112571" lon="9.411592188681437"><ele>970.2</ele><time>2026-04-25T15:10:10Z</time></trkpt><trkpt lat="46.04616866603116" lon="9.41163116384522"><ele>972.6</ele><time>2026-04-25T15:10:11Z</time></trkpt><trkpt lat="46.04608381202375" lon="9.411636483144296"><ele>975.0</ele><time>2026-04-25T15:10:12Z</time></trkpt><trkpt lat="46.046004191666874" lon="9.41166869672022"><ele>975.0</ele><time>2026-04-25T15:10:13Z</time></trkpt><trkpt lat="46.04593399333163" lon="9.411713277758812"><ele>975.0</ele><time>2026-04-25T15:10:14Z</time></trkpt><trkpt lat="46.04586771903778" lon="9.411741671279167"><ele>975.0</ele><time>2026-04-25T15:10:15Z</time></trkpt><trkpt lat="46.04582289503517" lon="9.41181027497129"><ele>975.0</ele><time>2026-04-25T15:10:16Z</time></trkpt><trkpt lat="46.04577716428041" lon="9.411914765935064"><ele>975.0</ele><time>2026-04-25T15:10:17Z</time></trkpt><trkpt lat="46.04574331541665" lon="9.412043870855538"><ele>975.0</ele><time>2026-04-25T15:10:18Z</time></trkpt><trkpt lat="46.04570225107454" lon="9.41216970568164"><ele>976.8333333333334</ele><time>2026-04-25T15:10:19Z</time></trkpt><trkpt lat="46.04565313654991" lon="9.412247377950088"><ele>978.6666666666667</ele><time>2026-04-25T15:10:20Z</time></trkpt><trkpt lat="46.04559295832737" lon="9.41230716534397"><ele>980.5</ele><time>2026-04-25T15:10:21Z</time></trkpt><trkpt lat="46.0454861559933" lon="9.412327444639992"><ele>982.3333333333334</ele><time>2026-04-25T15:10:22Z</time></trkpt><trkpt lat="46.04540512448462" lon="9.412415419816018"><ele>984.1666666666667</ele><time>2026-04-25T15:10:23Z</time></trkpt><trkpt lat="46.045335446475306" lon="9.412484197073077"><ele>986.0</ele><time>2026-04-25T15:10:24Z</time></trkpt><trkpt lat="46.04528740571915" lon="9.412560364319654"><ele>986.0000000000001</ele><time>2026-04-25T15:10:25Z</time></trkpt><trkpt lat="46.045204697808266" lon="9.41266652853978"><ele>986.0</ele><time>2026-04-25T15:10:27Z</time></trkpt><trkpt lat="46.04516717241918" lon="9.41277107441908"><ele>986.0</ele><time>2026-04-25T15:10:29Z</time></trkpt><trkpt lat="46.04515765641371" lon="9.412864749501479"><ele>986.0</ele><time>2026-04-25T15:10:30Z</time></trkpt><trkpt lat="46.04514544152189" lon="9.412987391255319"><ele>986.0000000000001</ele><time>2026-04-25T15:10:31Z</time></trkpt><trkpt lat="46.0451235284982" lon="9.413104178463549"><ele>986.0</ele><time>2026-04-25T15:10:32Z</time></trkpt><trkpt lat="46.045137450996066" lon="9.413250588657672"><ele>985.4</ele><time>2026-04-25T15:10:33Z</time></trkpt><trkpt lat="46.04513902006258" lon="9.413406521974904"><ele>984.8</ele><time>2026-04-25T15:10:34Z</time></trkpt><trkpt lat="46.04514619587342" lon="9.413519882130348"><ele>984.1999999999999</ele><time>2026-04-25T15:10:35Z</time></trkpt><trkpt lat="46.04513285931034" lon="9.413691243379432"><ele>983.5999999999999</ele><time>2026-04-25T15:10:37Z</time></trkpt><trkpt lat="46.04511274240067" lon="9.413790813493096"><ele>983.0</ele><time>2026-04-25T15:10:38Z</time></trkpt><trkpt lat="46.04503812413758" lon="9.413864131803193"><ele>982.2</ele><time>2026-04-25T15:10:39Z</time></trkpt><trkpt lat="46.04497025548518" lon="9.413960724059784"><ele>981.4</ele><time>2026-04-25T15:10:40Z</time></trkpt><trkpt lat="46.044899625430084" lon="9.414073088511772"><ele>980.6000000000001</ele><time>2026-04-25T15:10:41Z</time></trkpt><trkpt lat="46.0448210147013" lon="9.414194852892773"><ele>979.8000000000001</ele><time>2026-04-25T15:10:42Z</time></trkpt><trkpt lat="46.04474810403649" lon="9.414315200254597"><ele>979.0</ele><time>2026-04-25T15:10:43Z</time></trkpt><trkpt lat="46.044683803085725" lon="9.414440490029033"><ele>986.25</ele><time>2026-04-25T15:10:44Z</time></trkpt><trkpt lat="46.04461984872988" lon="9.414587511457952"><ele>993.5</ele><time>2026-04-25T15:10:45Z</time></trkpt><trkpt lat="46.0445621969835" lon="9.414749728037618"><ele>1000.75</ele><time>2026-04-25T15:10:46Z</time></trkpt><trkpt lat="46.04450643859419" lon="9.414907500429043"><ele>1008.0</ele><time>2026-04-25T15:10:47Z</time></trkpt><trkpt lat="46.044456590911736" lon="9.415038152259141"><ele>1008.0</ele><time>2026-04-25T15:10:48Z</time></trkpt><trkpt lat="46.044399868918134" lon="9.415171604531137"><ele>1008.0</ele><time>2026-04-25T15:10:49Z</time></trkpt><trkpt lat="46.04433440076172" lon="9.415304567718678"><ele>1008.0</ele><time>2026-04-25T15:10:50Z</time></trkpt><trkpt lat="46.044262149634335" lon="9.415464530703288"><ele>1008.0</ele><time>2026-04-25T15:10:51Z</time></trkpt><trkpt lat="46.04419803516309" lon="9.415631001448709"><ele>1006.5999999999999</ele><time>2026-04-25T15:10:52Z</time></trkpt><trkpt lat="46.04415159218705" lon="9.41576796412203"><ele>1005.1999999999999</ele><time>2026-04-25T15:10:53Z</time></trkpt><trkpt lat="46.044117185082705" lon="9.415915590116574"><ele>1003.8</ele><time>2026-04-25T15:10:54Z</time></trkpt><trkpt lat="46.04408893839043" lon="9.416069157903861"><ele>1002.4</ele><time>2026-04-25T15:10:55Z</time></trkpt><trkpt lat="46.04405760050657" lon="9.416175664521885"><ele>1001.0</ele><time>2026-04-25T15:10:56Z</time></trkpt><trkpt lat="46.04400651931886" lon="9.416307735316824"><ele>1009.0</ele><time>2026-04-25T15:10:58Z</time></trkpt><trkpt lat="46.04394800237841" lon="9.41644320964962"><ele>1016.9999999999999</ele><time>2026-04-25T15:11:00Z</time></trkpt><trkpt lat="46.0438423987902" lon="9.416567452329156"><ele>1025.0</ele><time>2026-04-25T15:11:02Z</time></trkpt><trkpt lat="46.04379623515569" lon="9.416663089006317"><ele>1033.0</ele><time>2026-04-25T15:11:03Z</time></trkpt><trkpt lat="46.04375114822969" lon="9.416761716676747"><ele>1041.0</ele><time>2026-04-25T15:11:04Z</time></trkpt><trkpt lat="46.043702757810024" lon="9.416861210375648"><ele>1041.0</ele><time>2026-04-25T15:11:05Z</time></trkpt><trkpt lat="46.04365169997439" lon="9.416954713089316"><ele>1041.0</ele><time>2026-04-25T15:11:06Z</time></trkpt><trkpt lat="46.04360815169138" lon="9.417031948288766"><ele>1041.0</ele><time>2026-04-25T15:11:06.999Z</time></trkpt><trkpt lat="46.043576862810596" lon="9.417125289528776"><ele>1041.0</ele><time>2026-04-25T15:11:07.999Z</time></trkpt><trkpt lat="46.04349601831348" lon="9.417262846315934"><ele>1041.0</ele><time>2026-04-25T15:11:09.999Z</time></trkpt><trkpt lat="46.04346124045349" lon="9.41735118064786"><ele>1041.0</ele><time>2026-04-25T15:11:10.999Z</time></trkpt><trkpt lat="46.04341095025038" lon="9.417436122549308"><ele>1038.6</ele><time>2026-04-25T15:11:11.999Z</time></trkpt><trkpt lat="46.043360590966294" lon="9.417567799125322"><ele>1036.1999999999998</ele><time>2026-04-25T15:11:13.999Z</time></trkpt><trkpt lat="46.0433254330081" lon="9.417713009307244"><ele>1033.8000000000002</ele><time>2026-04-25T15:11:15.999Z</time></trkpt><trkpt lat="46.0432815508521" lon="9.417818942039998"><ele>1031.4</ele><time>2026-04-25T15:11:17.999Z</time></trkpt><trkpt lat="46.043269664562764" lon="9.417944465405187"><ele>1029.0</ele><time>2026-04-25T15:11:19.999Z</time></trkpt><trkpt lat="46.04324375196026" lon="9.418090796669"><ele>1039.0</ele><time>2026-04-25T15:11:21.999Z</time></trkpt><trkpt lat="46.04328420092442" lon="9.418168719464827"><ele>1049.0</ele><time>2026-04-25T15:11:23.999Z</time></trkpt><trkpt lat="46.043276799683845" lon="9.418269744884636"><ele>1059.0</ele><time>2026-04-25T15:11:25.999Z</time></trkpt><trkpt lat="46.04288856882122" lon="9.418382489103099"><ele>1059.0</ele><time>2026-04-25T15:11:26.999Z</time></trkpt><trkpt lat="46.04280639485355" lon="9.41848876557719"><ele>1059.0</ele><time>2026-04-25T15:11:28.999Z</time></trkpt><trkpt lat="46.04272654698456" lon="9.418550093321628"><ele>1059.0</ele><time>2026-04-25T15:11:30.999Z</time></trkpt><trkpt lat="46.04264481607344" lon="9.418656066706069"><ele>1059.0</ele><time>2026-04-25T15:11:32.999Z</time></trkpt><trkpt lat="46.04260162399415" lon="9.4187702534947"><ele>1059.0</ele><time>2026-04-25T15:11:34.999Z</time></trkpt><trkpt lat="46.04257960380668" lon="9.418906600018865"><ele>1056.8333333333333</ele><time>2026-04-25T15:11:37Z</time></trkpt><trkpt lat="46.042554483025" lon="9.41902913189762"><ele>1054.6666666666667</ele><time>2026-04-25T15:11:39Z</time></trkpt><trkpt lat="46.04255838929359" lon="9.419149765202498"><ele>1052.5</ele><time>2026-04-25T15:11:41Z</time></trkpt><trkpt lat="46.04254809308514" lon="9.419311694059248"><ele>1050.3333333333335</ele><time>2026-04-25T15:11:43Z</time></trkpt><trkpt lat="46.04254413557617" lon="9.419404922891221"><ele>1048.1666666666667</ele><time>2026-04-25T15:11:44Z</time></trkpt><trkpt lat="46.04253193362483" lon="9.419511903582935"><ele>1046.0</ele><time>2026-04-25T15:11:46Z</time></trkpt><trkpt lat="46.04251183576946" lon="9.419637916702642"><ele>1052.8</ele><time>2026-04-25T15:11:48Z</time></trkpt><trkpt lat="46.04244012999717" lon="9.419776845631754"><ele>1059.6</ele><time>2026-04-25T15:11:50Z</time></trkpt><trkpt lat="46.042379206320355" lon="9.419881355837571"><ele>1066.4</ele><time>2026-04-25T15:11:52Z</time></trkpt><trkpt lat="46.0423140703072" lon="9.420014017513473"><ele>1073.2</ele><time>2026-04-25T15:11:54Z</time></trkpt><trkpt lat="46.04223165406641" lon="9.420123213639076"><ele>1080.0</ele><time>2026-04-25T15:11:56Z</time></trkpt><trkpt lat="46.04216833389337" lon="9.420219958696459"><ele>1080.0</ele><time>2026-04-25T15:11:58Z</time></trkpt><trkpt lat="46.04212361821523" lon="9.420285107630006"><ele>1080.0</ele><time>2026-04-25T15:12:00Z</time></trkpt><trkpt lat="46.04202806588644" lon="9.42040771343543"><ele>1080.0</ele><time>2026-04-25T15:12:02Z</time></trkpt><trkpt lat="46.041938426374784" lon="9.420486571401215"><ele>1080.0</ele><time>2026-04-25T15:12:04Z</time></trkpt><trkpt lat="46.041853657448186" lon="9.420573760800988"><ele>1080.0</ele><time>2026-04-25T15:12:06Z</time></trkpt><trkpt lat="46.04176596872608" lon="9.420645012130747"><ele>1079.8</ele><time>2026-04-25T15:12:08Z</time></trkpt><trkpt lat="46.04169399597709" lon="9.420669321245459"><ele>1079.6</ele><time>2026-04-25T15:12:10Z</time></trkpt><trkpt lat="46.0415734516218" lon="9.420699131675638"><ele>1079.4</ele><time>2026-04-25T15:12:12Z</time></trkpt><trkpt lat="46.04147317396849" lon="9.420753924685192"><ele>1079.2</ele><time>2026-04-25T15:12:14Z</time></trkpt><trkpt lat="46.04137854594449" lon="9.420786256620037"><ele>1079.0</ele><time>2026-04-25T15:12:15Z</time></trkpt><trkpt lat="46.04130830305979" lon="9.420811005909199"><ele>1079.0</ele><time>2026-04-25T15:12:16Z</time></trkpt><trkpt lat="46.04121784885462" lon="9.420870597152287"><ele>1079.0</ele><time>2026-04-25T15:12:18Z</time></trkpt><trkpt lat="46.04111489028793" lon="9.420983844203372"><ele>1079.0</ele><time>2026-04-25T15:12:20Z</time></trkpt><trkpt lat="46.04104083344128" lon="9.42102412310892"><ele>1079.0</ele><time>2026-04-25T15:12:21Z</time></trkpt><trkpt lat="46.0409777840988" lon="9.42104662094879"><ele>1079.0</ele><time>2026-04-25T15:12:22Z</time></trkpt><trkpt lat="46.04088511091388" lon="9.42108582842907"><ele>1082.3333333333335</ele><time>2026-04-25T15:12:24Z</time></trkpt><trkpt lat="46.04077645773933" lon="9.421060170972819"><ele>1085.6666666666667</ele><time>2026-04-25T15:12:26Z</time></trkpt><trkpt lat="46.0407112747412" lon="9.421035025776941"><ele>1089.0</ele><time>2026-04-25T15:12:27Z</time></trkpt><trkpt lat="46.04064349825612" lon="9.42101790133056"><ele>1092.3333333333333</ele><time>2026-04-25T15:12:28Z</time></trkpt><trkpt lat="46.040574509488295" lon="9.421018478616222"><ele>1095.6666666666665</ele><time>2026-04-25T15:12:29Z</time></trkpt><trkpt lat="46.04050845061159" lon="9.42102518559122"><ele>1099.0</ele><time>2026-04-25T15:12:30Z</time></trkpt><trkpt lat="46.04039530984207" lon="9.421052815578198"><ele>1099.0</ele><time>2026-04-25T15:12:32Z</time></trkpt><trkpt lat="46.040323198556166" lon="9.42108029656056"><ele>1099.0</ele><time>2026-04-25T15:12:33Z</time></trkpt><trkpt lat="46.040248897252056" lon="9.421092684814557"><ele>1099.0</ele><time>2026-04-25T15:12:34Z</time></trkpt><trkpt lat="46.04017875926269" lon="9.421101817741105"><ele>1099.0</ele><time>2026-04-25T15:12:35Z</time></trkpt><trkpt lat="46.04009322304534" lon="9.421144293553938"><ele>1099.0</ele><time>2026-04-25T15:12:36Z</time></trkpt><trkpt lat="46.03999567965751" lon="9.42120353200482"><ele>1099.0</ele><time>2026-04-25T15:12:37Z</time></trkpt><trkpt lat="46.03992365705361" lon="9.421246494785999"><ele>1096.2</ele><time>2026-04-25T15:12:38Z</time></trkpt><trkpt lat="46.03983393238342" lon="9.421339181773465"><ele>1093.4</ele><time>2026-04-25T15:12:40Z</time></trkpt><trkpt lat="46.03974593227247" lon="9.421466072050173"><ele>1090.6</ele><time>2026-04-25T15:12:42Z</time></trkpt><trkpt lat="46.039700904707956" lon="9.421531916203758"><ele>1087.8</ele><time>2026-04-25T15:12:43Z</time></trkpt><trkpt lat="46.039615007647186" lon="9.42160407872985"><ele>1085.0</ele><time>2026-04-25T15:12:45Z</time></trkpt><trkpt lat="46.03949690207556" lon="9.421653804813065"><ele>1085.0</ele><time>2026-04-25T15:12:47Z</time></trkpt><trkpt lat="46.03943789965283" lon="9.421692374479303"><ele>1085.0</ele><time>2026-04-25T15:12:48Z</time></trkpt><trkpt lat="46.03937670847116" lon="9.421722795443914"><ele>1085.0</ele><time>2026-04-25T15:12:49Z</time></trkpt><trkpt lat="46.03925965208653" lon="9.421751302952007"><ele>1085.0</ele><time>2026-04-25T15:12:51Z</time></trkpt><trkpt lat="46.03914535752721" lon="9.421778711002384"><ele>1085.0</ele><time>2026-04-25T15:12:53Z</time></trkpt><trkpt lat="46.039088313718764" lon="9.421830459215448"><ele>1085.0</ele><time>2026-04-25T15:12:54Z</time></trkpt><trkpt lat="46.03901835287934" lon="9.421875921559558"><ele>1085.8333333333335</ele><time>2026-04-25T15:12:56Z</time></trkpt><trkpt lat="46.03893319740891" lon="9.421827450088967"><ele>1086.6666666666667</ele><time>2026-04-25T15:13:09Z</time></trkpt><trkpt lat="46.03886090548244" lon="9.421811471741135"><ele>1087.5</ele><time>2026-04-25T15:13:10Z</time></trkpt><trkpt lat="46.038778348236164" lon="9.421778984661426"><ele>1088.3333333333333</ele><time>2026-04-25T15:13:11Z</time></trkpt><trkpt lat="46.0386982053508" lon="9.421752061183437"><ele>1089.1666666666665</ele><time>2026-04-25T15:13:12Z</time></trkpt><trkpt lat="46.03860330514057" lon="9.42173242021612"><ele>1090.0</ele><time>2026-04-25T15:13:13Z</time></trkpt><trkpt lat="46.03851785412596" lon="9.421731544935366"><ele>1090.0</ele><time>2026-04-25T15:13:14Z</time></trkpt><trkpt lat="46.03844545161908" lon="9.421740187958225"><ele>1090.0</ele><time>2026-04-25T15:13:14.999Z</time></trkpt><trkpt lat="46.03836353590064" lon="9.4217300853872"><ele>1090.0</ele><time>2026-04-25T15:13:15.999Z</time></trkpt><trkpt lat="46.038288800885844" lon="9.421700965849999"><ele>1090.0</ele><time>2026-04-25T15:13:16.999Z</time></trkpt><trkpt lat="46.038221251782915" lon="9.421665422430431"><ele>1090.0</ele><time>2026-04-25T15:13:17.999Z</time></trkpt><trkpt lat="46.03813957825444" lon="9.421615591263047"><ele>1090.0</ele><time>2026-04-25T15:13:18.999Z</time></trkpt><trkpt lat="46.038073090724225" lon="9.42151784606444"><ele>1090.6</ele><time>2026-04-25T15:13:19.999Z</time></trkpt><trkpt lat="46.038002781658285" lon="9.421482070790294"><ele>1091.2</ele><time>2026-04-25T15:13:20.999Z</time></trkpt><trkpt lat="46.037870486479946" lon="9.4214393155293"><ele>1091.8</ele><time>2026-04-25T15:13:22.999Z</time></trkpt><trkpt lat="46.037780952004695" lon="9.421459744501622"><ele>1092.4</ele><time>2026-04-25T15:13:23.999Z</time></trkpt><trkpt lat="46.03772502315555" lon="9.421502339070456"><ele>1093.0</ele><time>2026-04-25T15:13:24.999Z</time></trkpt><trkpt lat="46.03761559197055" lon="9.421625317814977"><ele>1093.0</ele><time>2026-04-25T15:13:26.999Z</time></trkpt><trkpt lat="46.03755332046839" lon="9.421665018961601"><ele>1093.0</ele><time>2026-04-25T15:13:27.999Z</time></trkpt><trkpt lat="46.037477259417045" lon="9.421693026678797"><ele>1093.0</ele><time>2026-04-25T15:13:28.999Z</time></trkpt><trkpt lat="46.037403110678895" lon="9.421704233984803"><ele>1093.0</ele><time>2026-04-25T15:13:29.999Z</time></trkpt><trkpt lat="46.0373268901528" lon="9.42176773534753"><ele>1093.0</ele><time>2026-04-25T15:13:31.999Z</time></trkpt><trkpt lat="46.037293889595325" lon="9.421848043541234"><ele>1093.0</ele><time>2026-04-25T15:13:32.999Z</time></trkpt><trkpt lat="46.037213275158344" lon="9.42191178476101"><ele>1095.0</ele><time>2026-04-25T15:13:34.999Z</time></trkpt><trkpt lat="46.037095522028075" lon="9.421894747933317"><ele>1097.0</ele><time>2026-04-25T15:13:36.999Z</time></trkpt><trkpt lat="46.037014596039874" lon="9.421987579292512"><ele>1099.0</ele><time>2026-04-25T15:13:38.999Z</time></trkpt><trkpt lat="46.03698468375197" lon="9.422178306895693"><ele>1101.0</ele><time>2026-04-25T15:13:40.999Z</time></trkpt><trkpt lat="46.036955321299736" lon="9.42227408317917"><ele>1103.0</ele><time>2026-04-25T15:13:42Z</time></trkpt><trkpt lat="46.03685673485138" lon="9.4223671782857"><ele>1103.0</ele><time>2026-04-25T15:13:44Z</time></trkpt><trkpt lat="46.03679270266405" lon="9.422420203918964"><ele>1103.0</ele><time>2026-04-25T15:13:45Z</time></trkpt><trkpt lat="46.0367150773433" lon="9.4224876814191"><ele>1103.0</ele><time>2026-04-25T15:13:46Z</time></trkpt><trkpt lat="46.036616582107044" lon="9.42257516781854"><ele>1103.0</ele><time>2026-04-25T15:13:47Z</time></trkpt><trkpt lat="46.036551550734764" lon="9.422667251741101"><ele>1103.0</ele><time>2026-04-25T15:13:48Z</time></trkpt><trkpt lat="46.03648237552256" lon="9.422749580318033"><ele>1105.0</ele><time>2026-04-25T15:13:49Z</time></trkpt><trkpt lat="46.03641358700817" lon="9.422829885976764"><ele>1107.0</ele><time>2026-04-25T15:13:50Z</time></trkpt><trkpt lat="46.03634890154446" lon="9.422888786005913"><ele>1109.0</ele><time>2026-04-25T15:13:51Z</time></trkpt><trkpt lat="46.03628412316829" lon="9.422934707018902"><ele>1111.0</ele><time>2026-04-25T15:13:52Z</time></trkpt><trkpt lat="46.03622506777368" lon="9.4229782159994"><ele>1113.0</ele><time>2026-04-25T15:13:53Z</time></trkpt><trkpt lat="46.03612941404334" lon="9.423040522867883"><ele>1115.0</ele><time>2026-04-25T15:13:55Z</time></trkpt><trkpt lat="46.03607345812874" lon="9.423129258160978"><ele>1115.0</ele><time>2026-04-25T15:13:57Z</time></trkpt><trkpt lat="46.03603516850865" lon="9.423275229409802"><ele>1115.0</ele><time>2026-04-25T15:13:59Z</time></trkpt><trkpt lat="46.03597073193173" lon="9.423330692669206"><ele>1115.0</ele><time>2026-04-25T15:14:00Z</time></trkpt><trkpt lat="46.035912335344875" lon="9.423384809181382"><ele>1115.0</ele><time>2026-04-25T15:14:01Z</time></trkpt><trkpt lat="46.035839286297126" lon="9.42346202696351"><ele>1115.0</ele><time>2026-04-25T15:14:02Z</time></trkpt><trkpt lat="46.03577729297976" lon="9.4235440067866"><ele>1115.0</ele><time>2026-04-25T15:14:03Z</time></trkpt><trkpt lat="46.035718807330035" lon="9.423600861467836"><ele>1116.8</ele><time>2026-04-25T15:14:04Z</time></trkpt><trkpt lat="46.03564264154867" lon="9.42368687631428"><ele>1118.6</ele><time>2026-04-25T15:14:05Z</time></trkpt><trkpt lat="46.035575936956214" lon="9.423721458592487"><ele>1120.4</ele><time>2026-04-25T15:14:06Z</time></trkpt><trkpt lat="46.035505876082084" lon="9.423757503776272"><ele>1122.2</ele><time>2026-04-25T15:14:08Z</time></trkpt><trkpt lat="46.035395001174024" lon="9.423874703272476"><ele>1124.0</ele><time>2026-04-25T15:14:10Z</time></trkpt><trkpt lat="46.035330587547556" lon="9.423917648162288"><ele>1124.0</ele><time>2026-04-25T15:14:11Z</time></trkpt><trkpt lat="46.0352030686149" lon="9.42399726237132"><ele>1124.0</ele><time>2026-04-25T15:14:13Z</time></trkpt><trkpt lat="46.03514258606842" lon="9.424049778607138"><ele>1124.0</ele><time>2026-04-25T15:14:14Z</time></trkpt><trkpt lat="46.035081156958945" lon="9.42411071828862"><ele>1124.0</ele><time>2026-04-25T15:14:15Z</time></trkpt><trkpt lat="46.03500638557496" lon="9.424165749360567"><ele>1124.0</ele><time>2026-04-25T15:14:16Z</time></trkpt><trkpt lat="46.03494028774076" lon="9.42421444982545"><ele>1124.0</ele><time>2026-04-25T15:14:17Z</time></trkpt><trkpt lat="46.03486034106368" lon="9.424272221811146"><ele>1130.6666666666667</ele><time>2026-04-25T15:14:18Z</time></trkpt><trkpt lat="46.03478638392829" lon="9.424333682648214"><ele>1137.3333333333335</ele><time>2026-04-25T15:14:19Z</time></trkpt><trkpt lat="46.03472529492248" lon="9.424367882202375"><ele>1144.0</ele><time>2026-04-25T15:14:20Z</time></trkpt><trkpt lat="46.0346316357578" lon="9.424402962439478"><ele>1150.6666666666667</ele><time>2026-04-25T15:14:22Z</time></trkpt><trkpt lat="46.0345257835959" lon="9.424447997070837"><ele>1157.3333333333333</ele><time>2026-04-25T15:14:24Z</time></trkpt><trkpt lat="46.03445897822699" lon="9.424476453389245"><ele>1164.0</ele><time>2026-04-25T15:14:25Z</time></trkpt><trkpt lat="46.034375673248846" lon="9.424496648984967"><ele>1164.0</ele><time>2026-04-25T15:14:27Z</time></trkpt><trkpt lat="46.03432998976" lon="9.424563736943725"><ele>1164.0</ele><time>2026-04-25T15:14:30Z</time></trkpt><trkpt lat="46.03432681463245" lon="9.424668227248246"><ele>1164.0</ele><time>2026-04-25T15:14:32Z</time></trkpt><trkpt lat="46.03431978449024" lon="9.424850892456542"><ele>1164.0</ele><time>2026-04-25T15:14:34Z</time></trkpt><trkpt lat="46.034273844918445" lon="9.424947769660202"><ele>1164.0</ele><time>2026-04-25T15:14:35Z</time></trkpt><trkpt lat="46.034216652008354" lon="9.42505691803209"><ele>1164.0</ele><time>2026-04-25T15:14:36Z</time></trkpt><trkpt lat="46.03415747816226" lon="9.425167606298736"><ele>1167.8</ele><time>2026-04-25T15:14:37Z</time></trkpt><trkpt lat="46.03410916489526" lon="9.425265059819367"><ele>1171.6000000000001</ele><time>2026-04-25T15:14:38Z</time></trkpt><trkpt lat="46.03406397402696" lon="9.425369210968915"><ele>1175.4</ele><time>2026-04-25T15:14:39Z</time></trkpt><trkpt lat="46.034011168428314" lon="9.42548423636361"><ele>1179.2</ele><time>2026-04-25T15:14:40Z</time></trkpt><trkpt lat="46.03396436944239" lon="9.425606761247996"><ele>1183.0</ele><time>2026-04-25T15:14:41Z</time></trkpt><trkpt lat="46.03390538919252" lon="9.425726067447018"><ele>1183.0</ele><time>2026-04-25T15:14:42Z</time></trkpt><trkpt lat="46.03384009143372" lon="9.425836528983016"><ele>1183.0</ele><time>2026-04-25T15:14:43Z</time></trkpt><trkpt lat="46.033768851321554" lon="9.425954399051625"><ele>1183.0</ele><time>2026-04-25T15:14:44Z</time></trkpt><trkpt lat="46.03368738728424" lon="9.426084229132249"><ele>1183.0</ele><time>2026-04-25T15:14:45Z</time></trkpt><trkpt lat="46.03360553344157" lon="9.426234315920079"><ele>1177.2</ele><time>2026-04-25T15:14:46Z</time></trkpt><trkpt lat="46.03352769320494" lon="9.426384706553216"><ele>1171.4</ele><time>2026-04-25T15:14:47Z</time></trkpt><trkpt lat="46.03346805237938" lon="9.426518882458737"><ele>1165.6000000000001</ele><time>2026-04-25T15:14:48Z</time></trkpt><trkpt lat="46.03340782629785" lon="9.426626288646442"><ele>1159.8</ele><time>2026-04-25T15:14:49Z</time></trkpt><trkpt lat="46.03336680331353" lon="9.426720905788908"><ele>1154.0</ele><time>2026-04-25T15:14:50Z</time></trkpt><trkpt lat="46.033336011065174" lon="9.426828327941811"><ele>1154.1666666666667</ele><time>2026-04-25T15:14:51Z</time></trkpt><trkpt lat="46.03327723698803" lon="9.426932560164818"><ele>1154.3333333333335</ele><time>2026-04-25T15:14:52Z</time></trkpt><trkpt lat="46.03322173168455" lon="9.42700647556484"><ele>1154.5</ele><time>2026-04-25T15:14:53Z</time></trkpt><trkpt lat="46.03315147580896" lon="9.427071064330944"><ele>1154.6666666666667</ele><time>2026-04-25T15:14:54Z</time></trkpt><trkpt lat="46.0330784358522" lon="9.427129149890755"><ele>1154.8333333333333</ele><time>2026-04-25T15:14:55Z</time></trkpt><trkpt lat="46.03301075727937" lon="9.427196188607734"><ele>1155.0</ele><time>2026-04-25T15:14:56Z</time></trkpt><trkpt lat="46.03293785089191" lon="9.427253667022336"><ele>1155.0</ele><time>2026-04-25T15:14:57Z</time></trkpt><trkpt lat="46.03284322436303" lon="9.427299310678857"><ele>1155.0</ele><time>2026-04-25T15:14:58Z</time></trkpt><trkpt lat="46.03274995411475" lon="9.427336820561562"><ele>1155.0</ele><time>2026-04-25T15:14:59Z</time></trkpt><trkpt lat="46.03266076606063" lon="9.427368413824869"><ele>1155.0</ele><time>2026-04-25T15:15:00Z</time></trkpt><trkpt lat="46.03257637897201" lon="9.427415962633127"><ele>1155.0</ele><time>2026-04-25T15:15:02Z</time></trkpt><trkpt lat="46.032492154287205" lon="9.427482033115929"><ele>1153.8333333333333</ele><time>2026-04-25T15:15:04Z</time></trkpt><trkpt lat="46.03242462294395" lon="9.427534807214801"><ele>1152.6666666666667</ele><time>2026-04-25T15:15:06Z</time></trkpt><trkpt lat="46.03235877770222" lon="9.427521160343753"><ele>1151.5</ele><time>2026-04-25T15:15:10Z</time></trkpt><trkpt lat="46.03225311820885" lon="9.427470584036794"><ele>1150.3333333333335</ele><time>2026-04-25T15:15:17.999Z</time></trkpt><trkpt lat="46.032181088787574" lon="9.427439165140267"><ele>1149.1666666666667</ele><time>2026-04-25T15:15:18.999Z</time></trkpt><trkpt lat="46.03209981632202" lon="9.427405092487342"><ele>1148.0</ele><time>2026-04-25T15:15:20.999Z</time></trkpt><trkpt lat="46.03202200972801" lon="9.427297263401764"><ele>1148.0</ele><time>2026-04-25T15:15:22.999Z</time></trkpt><trkpt lat="46.031935925160354" lon="9.427207495977042"><ele>1148.0</ele><time>2026-04-25T15:15:24.999Z</time></trkpt><trkpt lat="46.03183792049665" lon="9.427147578002229"><ele>1148.0</ele><time>2026-04-25T15:15:26.999Z</time></trkpt><trkpt lat="46.03178248513436" lon="9.427092757974421"><ele>1148.0</ele><time>2026-04-25T15:15:27.999Z</time></trkpt><trkpt lat="46.03170531742313" lon="9.426975490002848"><ele>1148.0</ele><time>2026-04-25T15:15:29.999Z</time></trkpt><trkpt lat="46.031640776127894" lon="9.426897946514641"><ele>1152.5</ele><time>2026-04-25T15:15:31.999Z</time></trkpt><trkpt lat="46.03156974614531" lon="9.426825776261312"><ele>1157.0</ele><time>2026-04-25T15:15:33.999Z</time></trkpt><trkpt lat="46.031479266131996" lon="9.426795536918968"><ele>1161.5</ele><time>2026-04-25T15:15:35.999Z</time></trkpt><trkpt lat="46.03138913894296" lon="9.426836515742085"><ele>1166.0</ele><time>2026-04-25T15:15:37.999Z</time></trkpt><trkpt lat="46.03132732047342" lon="9.426868488530562"><ele>1170.5</ele><time>2026-04-25T15:15:38.999Z</time></trkpt><trkpt lat="46.03124292670818" lon="9.426882283882305"><ele>1175.0</ele><time>2026-04-25T15:15:39.999Z</time></trkpt><trkpt lat="46.03117056848997" lon="9.426894722975348"><ele>1175.0</ele><time>2026-04-25T15:15:40.999Z</time></trkpt><trkpt lat="46.031063814974175" lon="9.426854465576165"><ele>1175.0</ele><time>2026-04-25T15:15:42.999Z</time></trkpt><trkpt lat="46.03100380390243" lon="9.426821418328384"><ele>1175.0</ele><time>2026-04-25T15:15:44.999Z</time></trkpt><trkpt lat="46.030906647070985" lon="9.426809468557117"><ele>1175.0</ele><time>2026-04-25T15:15:46.999Z</time></trkpt><trkpt lat="46.030816923948855" lon="9.426841637995292"><ele>1175.0</ele><time>2026-04-25T15:15:49Z</time></trkpt><trkpt lat="46.03077092387137" lon="9.42691226884941"><ele>1175.0</ele><time>2026-04-25T15:15:52Z</time></trkpt><trkpt lat="46.03079124797526" lon="9.427026880924316"><ele>1175.0</ele><time>2026-04-25T15:15:54Z</time></trkpt><trkpt lat="46.0308479895746" lon="9.427129799740687"><ele>1175.0</ele><time>2026-04-25T15:15:56Z</time></trkpt><trkpt lat="46.030876869551406" lon="9.427213418347051"><ele>1175.0</ele><time>2026-04-25T15:15:57Z</time></trkpt><trkpt lat="46.03088278102801" lon="9.427343008965188"><ele>1175.0</ele><time>2026-04-25T15:15:59Z</time></trkpt><trkpt lat="46.030857808666475" lon="9.427489417938158"><ele>1175.0</ele><time>2026-04-25T15:16:02Z</time></trkpt><trkpt lat="46.030820753059984" lon="9.427600732689594"><ele>1175.0</ele><time>2026-04-25T15:16:04Z</time></trkpt><trkpt lat="46.03082001018595" lon="9.427691809969081"><ele>1173.3333333333335</ele><time>2026-04-25T15:16:05Z</time></trkpt><trkpt lat="46.03081766562071" lon="9.42781349434344"><ele>1171.6666666666667</ele><time>2026-04-25T15:16:06Z</time></trkpt><trkpt lat="46.03079793662003" lon="9.427936625367211"><ele>1170.0</ele><time>2026-04-25T15:16:07Z</time></trkpt><trkpt lat="46.0307711463873" lon="9.428045797462923"><ele>1168.3333333333333</ele><time>2026-04-25T15:16:08Z</time></trkpt><trkpt lat="46.030762917945275" lon="9.428137790208785"><ele>1166.6666666666665</ele><time>2026-04-25T15:16:09Z</time></trkpt><trkpt lat="46.03076612351975" lon="9.428246685905972"><ele>1165.0</ele><time>2026-04-25T15:16:10Z</time></trkpt><trkpt lat="46.03077116692737" lon="9.428363745395819"><ele>1166.0</ele><time>2026-04-25T15:16:11Z</time></trkpt><trkpt lat="46.030775731567424" lon="9.42846611439217"><ele>1167.0</ele><time>2026-04-25T15:16:12Z</time></trkpt><trkpt lat="46.03078066244666" lon="9.428598312494017"><ele>1168.0</ele><time>2026-04-25T15:16:14Z</time></trkpt><trkpt lat="46.030754298577676" lon="9.428732212311278"><ele>1169.0</ele><time>2026-04-25T15:16:16Z</time></trkpt><trkpt lat="46.03072855348341" lon="9.428849770401722"><ele>1170.0</ele><time>2026-04-25T15:16:18Z</time></trkpt><trkpt lat="46.03070138403451" lon="9.428958978363044"><ele>1171.0</ele><time>2026-04-25T15:16:20Z</time></trkpt><trkpt lat="46.03064425612502" lon="9.429088953869188"><ele>1171.0</ele><time>2026-04-25T15:16:22Z</time></trkpt><trkpt lat="46.0306168899069" lon="9.429176337461275"><ele>1171.0</ele><time>2026-04-25T15:16:23Z</time></trkpt><trkpt lat="46.030572130377415" lon="9.429340266451185"><ele>1171.0</ele><time>2026-04-25T15:16:25Z</time></trkpt><trkpt lat="46.03054148555027" lon="9.42942169286028"><ele>1171.0</ele><time>2026-04-25T15:16:26Z</time></trkpt><trkpt lat="46.03046194991337" lon="9.429564792461038"><ele>1171.0</ele><time>2026-04-25T15:16:28Z</time></trkpt><trkpt lat="46.030382395549914" lon="9.429682171094086"><ele>1166.3999999999999</ele><time>2026-04-25T15:16:30Z</time></trkpt><trkpt lat="46.03033197764609" lon="9.429743772885118"><ele>1161.8</ele><time>2026-04-25T15:16:31Z</time></trkpt><trkpt lat="46.03026812716295" lon="9.429810907346003"><ele>1157.1999999999998</ele><time>2026-04-25T15:16:33Z</time></trkpt><trkpt lat="46.030152829661596" lon="9.429828266038585"><ele>1152.6</ele><time>2026-04-25T15:16:35Z</time></trkpt><trkpt lat="46.03006649853013" lon="9.429829394400777"><ele>1148.0</ele><time>2026-04-25T15:16:36Z</time></trkpt><trkpt lat="46.02995338847231" lon="9.42981420773832"><ele>1148.0</ele><time>2026-04-25T15:16:37Z</time></trkpt><trkpt lat="46.029846396457245" lon="9.429811792918695"><ele>1148.0</ele><time>2026-04-25T15:16:38Z</time></trkpt><trkpt lat="46.0297691270437" lon="9.429796207743127"><ele>1148.0</ele><time>2026-04-25T15:16:39Z</time></trkpt><trkpt lat="46.029696321220435" lon="9.429806676992277"><ele>1148.0</ele><time>2026-04-25T15:16:40Z</time></trkpt><trkpt lat="46.02960755311226" lon="9.429828379843554"><ele>1148.0</ele><time>2026-04-25T15:16:42Z</time></trkpt><trkpt lat="46.02952807996198" lon="9.42989553369523"><ele>1148.0</ele><time>2026-04-25T15:16:44Z</time></trkpt><trkpt lat="46.029461729362126" lon="9.42995562756629"><ele>1148.0</ele><time>2026-04-25T15:16:45Z</time></trkpt><trkpt lat="46.02940440395852" lon="9.430008612719584"><ele>1148.0</ele><time>2026-04-25T15:16:46Z</time></trkpt><trkpt lat="46.02932129655825" lon="9.430036511002992"><ele>1148.0</ele><time>2026-04-25T15:16:47Z</time></trkpt><trkpt lat="46.029239076223085" lon="9.43004997570921"><ele>1148.0</ele><time>2026-04-25T15:16:48Z</time></trkpt><trkpt lat="46.0291645292915" lon="9.430059346848655"><ele>1148.0</ele><time>2026-04-25T15:16:49Z</time></trkpt><trkpt lat="46.02908677236104" lon="9.430050460016743"><ele>1148.0</ele><time>2026-04-25T15:16:50Z</time></trkpt><trkpt lat="46.029003902942264" lon="9.430026596498026"><ele>1148.0</ele><time>2026-04-25T15:16:51Z</time></trkpt><trkpt lat="46.02890600479016" lon="9.430001128139905"><ele>1148.0</ele><time>2026-04-25T15:16:53Z</time></trkpt><trkpt lat="46.02898230235953" lon="9.430009542106884"><ele>1148.0</ele><time>2026-04-25T15:19:42.999Z</time></trkpt><trkpt lat="46.02905697135838" lon="9.430018621770875"><ele>1148.0</ele><time>2026-04-25T15:20:21Z</time></trkpt><trkpt lat="46.02916011815476" lon="9.43005498581163"><ele>1148.0</ele><time>2026-04-25T15:20:25Z</time></trkpt><trkpt lat="46.02926295790687" lon="9.430057498667566"><ele>1148.0</ele><time>2026-04-25T15:20:27Z</time></trkpt><trkpt lat="46.02932578974343" lon="9.430042342138222"><ele>1148.0</ele><time>2026-04-25T15:20:28Z</time></trkpt><trkpt lat="46.02939676283059" lon="9.430011897856415"><ele>1148.0</ele><time>2026-04-25T15:20:29Z</time></trkpt><trkpt lat="46.029498253401435" lon="9.42996578510977"><ele>1148.0</ele><time>2026-04-25T15:20:31Z</time></trkpt><trkpt lat="46.02959652447445" lon="9.429864486205537"><ele>1148.0</ele><time>2026-04-25T15:20:33Z</time></trkpt><trkpt lat="46.02967714326952" lon="9.429843736418123"><ele>1148.0</ele><time>2026-04-25T15:20:35Z</time></trkpt><trkpt lat="46.02980135728969" lon="9.429861857713346"><ele>1148.0</ele><time>2026-04-25T15:20:37Z</time></trkpt><trkpt lat="46.029865504854186" lon="9.42986768001479"><ele>1148.0</ele><time>2026-04-25T15:20:38Z</time></trkpt><trkpt lat="46.03001927793245" lon="9.429872277455301"><ele>1148.0</ele><time>2026-04-25T15:20:40Z</time></trkpt><trkpt lat="46.030098070902405" lon="9.429873175726508"><ele>1148.0</ele><time>2026-04-25T15:20:41Z</time></trkpt><trkpt lat="46.03019482520091" lon="9.429873194316814"><ele>1148.0</ele><time>2026-04-25T15:20:43Z</time></trkpt><trkpt lat="46.03029699789294" lon="9.429844109180825"><ele>1144.4</ele><time>2026-04-25T15:20:45Z</time></trkpt><trkpt lat="46.030368095857796" lon="9.429785672475568"><ele>1140.8</ele><time>2026-04-25T15:20:47Z</time></trkpt><trkpt lat="46.03045354119485" lon="9.429664691378479"><ele>1137.2</ele><time>2026-04-25T15:20:49Z</time></trkpt><trkpt lat="46.030525307458596" lon="9.42955681761656"><ele>1133.6</ele><time>2026-04-25T15:20:51Z</time></trkpt><trkpt lat="46.03059569476785" lon="9.429432254448516"><ele>1130.0</ele><time>2026-04-25T15:20:53Z</time></trkpt><trkpt lat="46.03062701540964" lon="9.429351277580698"><ele>1136.8333333333335</ele><time>2026-04-25T15:20:54Z</time></trkpt><trkpt lat="46.03065811922854" lon="9.42924834991953"><ele>1143.6666666666667</ele><time>2026-04-25T15:20:55Z</time></trkpt><trkpt lat="46.03069074718695" lon="9.429167070084214"><ele>1150.5</ele><time>2026-04-25T15:20:56Z</time></trkpt><trkpt lat="46.03073423340327" lon="9.429041154941576"><ele>1157.3333333333333</ele><time>2026-04-25T15:20:58Z</time></trkpt><trkpt lat="46.030767359542516" lon="9.42889652097709"><ele>1164.1666666666665</ele><time>2026-04-25T15:21:00Z</time></trkpt><trkpt lat="46.03078736899127" lon="9.428770565643948"><ele>1171.0</ele><time>2026-04-25T15:21:02Z</time></trkpt><trkpt lat="46.03080755207157" lon="9.428662470165497"><ele>1166.8</ele><time>2026-04-25T15:21:04Z</time></trkpt><trkpt lat="46.030816834582936" lon="9.428551114200665"><ele>1162.6</ele><time>2026-04-25T15:21:06Z</time></trkpt><trkpt lat="46.030791974264694" lon="9.428404962818226"><ele>1158.4</ele><time>2026-04-25T15:21:08Z</time></trkpt><trkpt lat="46.030779609679016" lon="9.428243997811794"><ele>1154.2</ele><time>2026-04-25T15:21:10Z</time></trkpt><trkpt lat="46.03080900511736" lon="9.428085809633737"><ele>1150.0</ele><time>2026-04-25T15:21:12Z</time></trkpt><trkpt lat="46.03082930113871" lon="9.427995425462163"><ele>1152.5</ele><time>2026-04-25T15:21:13Z</time></trkpt><trkpt lat="46.03086178448643" lon="9.427864987939783"><ele>1155.0</ele><time>2026-04-25T15:21:14.999Z</time></trkpt><trkpt lat="46.030872997373024" lon="9.427737567012615"><ele>1157.5</ele><time>2026-04-25T15:21:16.999Z</time></trkpt><trkpt lat="46.03087410231133" lon="9.427643065347539"><ele>1160.0</ele><time>2026-04-25T15:21:20.999Z</time></trkpt><trkpt lat="46.030875828956944" lon="9.427543565521765"><ele>1162.5</ele><time>2026-04-25T15:21:23.999Z</time></trkpt><trkpt lat="46.03085998226886" lon="9.427424078775505"><ele>1165.0</ele><time>2026-04-25T15:21:25.999Z</time></trkpt><trkpt lat="46.03084673374045" lon="9.427284168241748"><ele>1166.6666666666665</ele><time>2026-04-25T15:21:27.999Z</time></trkpt><trkpt lat="46.0307952876492" lon="9.427172928741276"><ele>1168.3333333333333</ele><time>2026-04-25T15:21:29.999Z</time></trkpt><trkpt lat="46.03077566515844" lon="9.427074502509745"><ele>1170.0</ele><time>2026-04-25T15:21:31.999Z</time></trkpt><trkpt lat="46.030797500897826" lon="9.426979990779909"><ele>1171.6666666666667</ele><time>2026-04-25T15:21:33.999Z</time></trkpt><trkpt lat="46.0308424021067" lon="9.426902272246043"><ele>1173.3333333333335</ele><time>2026-04-25T15:21:35.999Z</time></trkpt><trkpt lat="46.03092930197567" lon="9.426860131901671"><ele>1175.0</ele><time>2026-04-25T15:21:38.999Z</time></trkpt><trkpt lat="46.031036977079005" lon="9.426897272616085"><ele>1175.0</ele><time>2026-04-25T15:21:40.999Z</time></trkpt><trkpt lat="46.03110431278168" lon="9.426922986516631"><ele>1175.0</ele><time>2026-04-25T15:21:42.999Z</time></trkpt><trkpt lat="46.03121471552174" lon="9.42693849163657"><ele>1175.0</ele><time>2026-04-25T15:21:44.999Z</time></trkpt><trkpt lat="46.031300836999115" lon="9.426947074475457"><ele>1175.0</ele><time>2026-04-25T15:21:45.999Z</time></trkpt><trkpt lat="46.03137502813322" lon="9.426925011179454"><ele>1175.0</ele><time>2026-04-25T15:21:46.999Z</time></trkpt><trkpt lat="46.03147725667601" lon="9.426871652937878"><ele>1175.0</ele><time>2026-04-25T15:21:48.999Z</time></trkpt><trkpt lat="46.0315500410491" lon="9.426890168718257"><ele>1175.0</ele><time>2026-04-25T15:21:52.999Z</time></trkpt><trkpt lat="46.03164075651338" lon="9.42699897316536"><ele>1175.0</ele><time>2026-04-25T15:21:54.999Z</time></trkpt><trkpt lat="46.031746977551414" lon="9.427113125276037"><ele>1175.0</ele><time>2026-04-25T15:21:56.999Z</time></trkpt><trkpt lat="46.031803438777466" lon="9.427167448902702"><ele>1175.0</ele><time>2026-04-25T15:21:57.999Z</time></trkpt><trkpt lat="46.03185776913427" lon="9.42722581970337"><ele>1169.6</ele><time>2026-04-25T15:21:58.999Z</time></trkpt><trkpt lat="46.03195975625109" lon="9.427319127397551"><ele>1164.2</ele><time>2026-04-25T15:22:00.999Z</time></trkpt><trkpt lat="46.03203594294896" lon="9.427400187607875"><ele>1158.8</ele><time>2026-04-25T15:22:02.999Z</time></trkpt><trkpt lat="46.0321527041233" lon="9.4274665958581"><ele>1153.4</ele><time>2026-04-25T15:22:04.999Z</time></trkpt><trkpt lat="46.03223167148973" lon="9.427506964953778"><ele>1148.0</ele><time>2026-04-25T15:22:06Z</time></trkpt><trkpt lat="46.03233463775797" lon="9.427562017057383"><ele>1148.0</ele><time>2026-04-25T15:22:08Z</time></trkpt><trkpt lat="46.03240210764568" lon="9.427556038167559"><ele>1148.0</ele><time>2026-04-25T15:22:10Z</time></trkpt><trkpt lat="46.03248075061697" lon="9.427533440677323"><ele>1148.0</ele><time>2026-04-25T15:22:13Z</time></trkpt><trkpt lat="46.03256995697104" lon="9.427497253996513"><ele>1148.0</ele><time>2026-04-25T15:22:16Z</time></trkpt><trkpt lat="46.03263135540917" lon="9.42743912829489"><ele>1148.0</ele><time>2026-04-25T15:22:18Z</time></trkpt><trkpt lat="46.03272353875161" lon="9.427389928078398"><ele>1148.0</ele><time>2026-04-25T15:22:20Z</time></trkpt><trkpt lat="46.03278841941557" lon="9.42737006583789"><ele>1149.1666666666667</ele><time>2026-04-25T15:22:21Z</time></trkpt><trkpt lat="46.03284972396633" lon="9.427331884844735"><ele>1150.3333333333335</ele><time>2026-04-25T15:22:22Z</time></trkpt><trkpt lat="46.03290787330964" lon="9.427296835459433"><ele>1151.5</ele><time>2026-04-25T15:22:23Z</time></trkpt><trkpt lat="46.033004842116426" lon="9.427238156858849"><ele>1152.6666666666667</ele><time>2026-04-25T15:22:25Z</time></trkpt><trkpt lat="46.033061365788754" lon="9.427182510336454"><ele>1153.8333333333333</ele><time>2026-04-25T15:22:26Z</time></trkpt><trkpt lat="46.0331171625462" lon="9.427132773697439"><ele>1155.0</ele><time>2026-04-25T15:22:27Z</time></trkpt><trkpt lat="46.033209713994594" lon="9.427025172201487"><ele>1154.8333333333333</ele><time>2026-04-25T15:22:29Z</time></trkpt><trkpt lat="46.03325977575332" lon="9.426960807535323"><ele>1154.6666666666667</ele><time>2026-04-25T15:22:30Z</time></trkpt><trkpt lat="46.033300390837695" lon="9.426871530566997"><ele>1154.5</ele><time>2026-04-25T15:22:31Z</time></trkpt><trkpt lat="46.03333005092456" lon="9.426785273782958"><ele>1154.3333333333335</ele><time>2026-04-25T15:22:32Z</time></trkpt><trkpt lat="46.033360630157446" lon="9.426672817398776"><ele>1154.1666666666667</ele><time>2026-04-25T15:22:33Z</time></trkpt><trkpt lat="46.033436883298506" lon="9.4265529992146"><ele>1154.0</ele><time>2026-04-25T15:22:34Z</time></trkpt><trkpt lat="46.03351047164864" lon="9.426438111104915"><ele>1154.0</ele><time>2026-04-25T15:22:35Z</time></trkpt><trkpt lat="46.033572168802856" lon="9.426348747472753"><ele>1154.0</ele><time>2026-04-25T15:22:36Z</time></trkpt><trkpt lat="46.03363515699722" lon="9.426237887199633"><ele>1154.0</ele><time>2026-04-25T15:22:37Z</time></trkpt><trkpt lat="46.03368586329932" lon="9.426139885758179"><ele>1154.0</ele><time>2026-04-25T15:22:38Z</time></trkpt><trkpt lat="46.03372601727767" lon="9.426064821985777"><ele>1154.0</ele><time>2026-04-25T15:22:39Z</time></trkpt><trkpt lat="46.03381283238197" lon="9.425936270239019"><ele>1158.8333333333335</ele><time>2026-04-25T15:22:41Z</time></trkpt><trkpt lat="46.03386271689535" lon="9.425838106911463"><ele>1163.6666666666667</ele><time>2026-04-25T15:22:42Z</time></trkpt><trkpt lat="46.03391287642918" lon="9.425751674047737"><ele>1168.5</ele><time>2026-04-25T15:22:43Z</time></trkpt><trkpt lat="46.033958732484024" lon="9.425649913928424"><ele>1173.3333333333333</ele><time>2026-04-25T15:22:44Z</time></trkpt><trkpt lat="46.03400761553428" lon="9.425568775589175"><ele>1178.1666666666665</ele><time>2026-04-25T15:22:45Z</time></trkpt><trkpt lat="46.034045415280495" lon="9.425481613852094"><ele>1183.0</ele><time>2026-04-25T15:22:46Z</time></trkpt><trkpt lat="46.034098632924746" lon="9.425376124919943"><ele>1175.6666666666665</ele><time>2026-04-25T15:22:47Z</time></trkpt><trkpt lat="46.034145364130204" lon="9.425268547393696"><ele>1168.3333333333333</ele><time>2026-04-25T15:22:48Z</time></trkpt><trkpt lat="46.03419793501726" lon="9.425175558149911"><ele>1161.0</ele><time>2026-04-25T15:22:49Z</time></trkpt><trkpt lat="46.03424815463909" lon="9.425094780049216"><ele>1153.6666666666667</ele><time>2026-04-25T15:22:50Z</time></trkpt><trkpt lat="46.03428795635584" lon="9.425015338434129"><ele>1146.3333333333335</ele><time>2026-04-25T15:22:51Z</time></trkpt><trkpt lat="46.03431826807372" lon="9.424930371292207"><ele>1139.0</ele><time>2026-04-25T15:22:52Z</time></trkpt><trkpt lat="46.03433452435499" lon="9.424789157304401"><ele>1139.0</ele><time>2026-04-25T15:22:54Z</time></trkpt><trkpt lat="46.0343302387192" lon="9.424675104600396"><ele>1139.0</ele><time>2026-04-25T15:22:56Z</time></trkpt><trkpt lat="46.034388629035035" lon="9.424608692558834"><ele>1139.0</ele><time>2026-04-25T15:22:58Z</time></trkpt><trkpt lat="46.03449507728883" lon="9.424571327157594"><ele>1139.0</ele><time>2026-04-25T15:23:00Z</time></trkpt><trkpt lat="46.03456710155422" lon="9.42454808382418"><ele>1139.0</ele><time>2026-04-25T15:23:01Z</time></trkpt><trkpt lat="46.03465398588423" lon="9.424525100724567"><ele>1139.0</ele><time>2026-04-25T15:23:02Z</time></trkpt><trkpt lat="46.034720830208435" lon="9.424493280169335"><ele>1136.0</ele><time>2026-04-25T15:23:03Z</time></trkpt><trkpt lat="46.03477806673416" lon="9.424451966244705"><ele>1133.0</ele><time>2026-04-25T15:23:04Z</time></trkpt><trkpt lat="46.03489352046734" lon="9.424356946600522"><ele>1130.0</ele><time>2026-04-25T15:23:06Z</time></trkpt><trkpt lat="46.034967800310625" lon="9.424288994170887"><ele>1127.0</ele><time>2026-04-25T15:23:07Z</time></trkpt><trkpt lat="46.03502972116209" lon="9.424241328649515"><ele>1124.0</ele><time>2026-04-25T15:23:08Z</time></trkpt><trkpt lat="46.03513058972216" lon="9.424156909226951"><ele>1124.0</ele><time>2026-04-25T15:23:10Z</time></trkpt><trkpt lat="46.03522588725534" lon="9.424114418664702"><ele>1124.0</ele><time>2026-04-25T15:23:12Z</time></trkpt><trkpt lat="46.0352779919838" lon="9.424061701763154"><ele>1124.0</ele><time>2026-04-25T15:23:13Z</time></trkpt><trkpt lat="46.03536251908658" lon="9.423994721668032"><ele>1124.0</ele><time>2026-04-25T15:23:15Z</time></trkpt><trkpt lat="46.03544455666733" lon="9.423910682507707"><ele>1124.0</ele><time>2026-04-25T15:23:16.999Z</time></trkpt><trkpt lat="46.035524310897486" lon="9.423824180306038"><ele>1122.2</ele><time>2026-04-25T15:23:18.999Z</time></trkpt><trkpt lat="46.0356224802169" lon="9.423784335130765"><ele>1120.4</ele><time>2026-04-25T15:23:20.999Z</time></trkpt><trkpt lat="46.03573979944448" lon="9.423662416320814"><ele>1118.6</ele><time>2026-04-25T15:23:22.999Z</time></trkpt><trkpt lat="46.03579742638362" lon="9.423602143612467"><ele>1116.8</ele><time>2026-04-25T15:23:23.999Z</time></trkpt><trkpt lat="46.03585239515206" lon="9.423542144128355"><ele>1115.0</ele><time>2026-04-25T15:23:24.999Z</time></trkpt><trkpt lat="46.03590614348368" lon="9.423480974275495"><ele>1115.0</ele><time>2026-04-25T15:23:25.999Z</time></trkpt><trkpt lat="46.035989493317935" lon="9.423380083186213"><ele>1115.0</ele><time>2026-04-25T15:23:27.999Z</time></trkpt><trkpt lat="46.036047256044704" lon="9.423292067659025"><ele>1115.0</ele><time>2026-04-25T15:23:29.999Z</time></trkpt><trkpt lat="46.03609334811129" lon="9.423179644598646"><ele>1115.0</ele><time>2026-04-25T15:23:31.999Z</time></trkpt><trkpt lat="46.03615624490843" lon="9.423131123393356"><ele>1115.0</ele><time>2026-04-25T15:23:33.999Z</time></trkpt><trkpt lat="46.036247749583396" lon="9.42311008948274"><ele>1115.0</ele><time>2026-04-25T15:23:35.999Z</time></trkpt><trkpt lat="46.03649495006033" lon="9.422855463789226"><ele>1112.6</ele><time>2026-04-25T15:23:38.999Z</time></trkpt><trkpt lat="46.036541259403975" lon="9.422793787955857"><ele>1110.2</ele><time>2026-04-25T15:23:39.999Z</time></trkpt><trkpt lat="46.03663609167791" lon="9.422692429429764"><ele>1107.8</ele><time>2026-04-25T15:23:41.999Z</time></trkpt><trkpt lat="46.036736831704395" lon="9.422594822412556"><ele>1105.4</ele><time>2026-04-25T15:23:43.999Z</time></trkpt><trkpt lat="46.0367987759028" lon="9.422523949326383"><ele>1103.0</ele><time>2026-04-25T15:23:44.999Z</time></trkpt><trkpt lat="46.03690449599706" lon="9.42243315409291"><ele>1103.0</ele><time>2026-04-25T15:23:46.999Z</time></trkpt><trkpt lat="46.03697921237178" lon="9.422336583221865"><ele>1103.0</ele><time>2026-04-25T15:23:48.999Z</time></trkpt><trkpt lat="46.037017605437136" lon="9.42220420118331"><ele>1103.0</ele><time>2026-04-25T15:23:50.999Z</time></trkpt><trkpt lat="46.03703804148508" lon="9.422051057571412"><ele>1103.0</ele><time>2026-04-25T15:23:52.999Z</time></trkpt><trkpt lat="46.0371077197175" lon="9.421954054883125"><ele>1103.0</ele><time>2026-04-25T15:23:54.999Z</time></trkpt><trkpt lat="46.037174116041605" lon="9.421944465450865"><ele>1101.0</ele><time>2026-04-25T15:23:55.999Z</time></trkpt><trkpt lat="46.037253967525224" lon="9.421962315001952"><ele>1099.0</ele><time>2026-04-25T15:23:57.999Z</time></trkpt><trkpt lat="46.037338985284485" lon="9.42188202689947"><ele>1097.0</ele><time>2026-04-25T15:23:59.999Z</time></trkpt><trkpt lat="46.03740719264631" lon="9.421769119770303"><ele>1095.0</ele><time>2026-04-25T15:24:01.999Z</time></trkpt><trkpt lat="46.037499845896335" lon="9.421711102528882"><ele>1093.0</ele><time>2026-04-25T15:24:03.999Z</time></trkpt><trkpt lat="46.03756632702721" lon="9.421700570753453"><ele>1093.0</ele><time>2026-04-25T15:24:04.999Z</time></trkpt><trkpt lat="46.03764024844533" lon="9.421683217515925"><ele>1093.0</ele><time>2026-04-25T15:24:05.999Z</time></trkpt><trkpt lat="46.03770041013381" lon="9.421640263741915"><ele>1093.0</ele><time>2026-04-25T15:24:06.999Z</time></trkpt><trkpt lat="46.037807775309375" lon="9.42157052824088"><ele>1093.0</ele><time>2026-04-25T15:24:08.999Z</time></trkpt><trkpt lat="46.03793888489138" lon="9.421549905123301"><ele>1093.0</ele><time>2026-04-25T15:24:10.999Z</time></trkpt><trkpt lat="46.03800200692525" lon="9.421552018701455"><ele>1093.0</ele><time>2026-04-25T15:24:12Z</time></trkpt><trkpt lat="46.03812158197987" lon="9.421625487445068"><ele>1093.0</ele><time>2026-04-25T15:24:14Z</time></trkpt><trkpt lat="46.03819215184715" lon="9.421675342027571"><ele>1093.0</ele><time>2026-04-25T15:24:15Z</time></trkpt><trkpt lat="46.03824976934727" lon="9.42173555509034"><ele>1093.0</ele><time>2026-04-25T15:24:16Z</time></trkpt><trkpt lat="46.03831153216189" lon="9.421776958460878"><ele>1093.0</ele><time>2026-04-25T15:24:17Z</time></trkpt><trkpt lat="46.038382654585" lon="9.421810617832733"><ele>1093.0</ele><time>2026-04-25T15:24:18Z</time></trkpt><trkpt lat="46.038471230610064" lon="9.421825906917952"><ele>1092.5</ele><time>2026-04-25T15:24:19Z</time></trkpt><trkpt lat="46.03856864993756" lon="9.42181568837868"><ele>1092.0</ele><time>2026-04-25T15:24:20Z</time></trkpt><trkpt lat="46.0386518652538" lon="9.421835282355225"><ele>1091.5</ele><time>2026-04-25T15:24:21Z</time></trkpt><trkpt lat="46.03874549049502" lon="9.421844546174576"><ele>1091.0</ele><time>2026-04-25T15:24:22Z</time></trkpt><trkpt lat="46.038827883566384" lon="9.421870547663225"><ele>1090.5</ele><time>2026-04-25T15:24:23Z</time></trkpt><trkpt lat="46.03890399710184" lon="9.421906086841306"><ele>1090.0</ele><time>2026-04-25T15:24:24Z</time></trkpt><trkpt lat="46.038971590535624" lon="9.421931815823818"><ele>1090.0</ele><time>2026-04-25T15:24:26Z</time></trkpt><trkpt lat="46.03905240581681" lon="9.421906049698876"><ele>1090.0</ele><time>2026-04-25T15:24:36Z</time></trkpt><trkpt lat="46.03913419131281" lon="9.421861079475425"><ele>1090.0</ele><time>2026-04-25T15:24:38Z</time></trkpt><trkpt lat="46.03924687882706" lon="9.421793773606977"><ele>1090.0</ele><time>2026-04-25T15:24:40Z</time></trkpt><trkpt lat="46.03933837506951" lon="9.421798350844794"><ele>1090.0</ele><time>2026-04-25T15:24:42Z</time></trkpt><trkpt lat="46.03942904433357" lon="9.42176386511182"><ele>1088.75</ele><time>2026-04-25T15:24:44Z</time></trkpt><trkpt lat="46.039544742943605" lon="9.42168950770861"><ele>1087.5</ele><time>2026-04-25T15:24:46Z</time></trkpt><trkpt lat="46.03965385262568" lon="9.421628178502887"><ele>1086.25</ele><time>2026-04-25T15:24:48Z</time></trkpt><trkpt lat="46.03975272060819" lon="9.421538232134553"><ele>1085.0</ele><time>2026-04-25T15:24:50Z</time></trkpt><trkpt lat="46.03984594894943" lon="9.421409595885363"><ele>1085.0</ele><time>2026-04-25T15:24:52Z</time></trkpt><trkpt lat="46.03989140507504" lon="9.421335290116103"><ele>1085.0</ele><time>2026-04-25T15:24:53Z</time></trkpt><trkpt lat="46.04000294107322" lon="9.421260614478296"><ele>1085.0</ele><time>2026-04-25T15:24:55Z</time></trkpt><trkpt lat="46.04007166702189" lon="9.421230676111005"><ele>1085.0</ele><time>2026-04-25T15:24:56Z</time></trkpt><trkpt lat="46.04014776625164" lon="9.421190306903599"><ele>1085.0</ele><time>2026-04-25T15:24:57Z</time></trkpt><trkpt lat="46.04021905338923" lon="9.421150040079018"><ele>1085.0</ele><time>2026-04-25T15:24:58Z</time></trkpt><trkpt lat="46.040341559518154" lon="9.42111127667434"><ele>1084.0</ele><time>2026-04-25T15:25:00Z</time></trkpt><trkpt lat="46.040459996811244" lon="9.421108296574651"><ele>1083.0</ele><time>2026-04-25T15:25:02Z</time></trkpt><trkpt lat="46.040522940691766" lon="9.421101652589948"><ele>1082.0</ele><time>2026-04-25T15:25:03Z</time></trkpt><trkpt lat="46.04059473125568" lon="9.421090352293696"><ele>1081.0</ele><time>2026-04-25T15:25:04Z</time></trkpt><trkpt lat="46.040665599827925" lon="9.421108433057187"><ele>1080.0</ele><time>2026-04-25T15:25:05Z</time></trkpt><trkpt lat="46.040737081018456" lon="9.421119511062434"><ele>1079.0</ele><time>2026-04-25T15:25:06Z</time></trkpt><trkpt lat="46.04080489720273" lon="9.421141845864165"><ele>1079.0</ele><time>2026-04-25T15:25:07Z</time></trkpt><trkpt lat="46.04090997660756" lon="9.421154751741598"><ele>1079.0</ele><time>2026-04-25T15:25:09Z</time></trkpt><trkpt lat="46.04102532774937" lon="9.421087969957902"><ele>1079.0</ele><time>2026-04-25T15:25:11Z</time></trkpt><trkpt lat="46.04112185608985" lon="9.421009242019807"><ele>1079.0</ele><time>2026-04-25T15:25:12.999Z</time></trkpt><trkpt lat="46.041224649244036" lon="9.420944791522357"><ele>1079.0</ele><time>2026-04-25T15:25:14.999Z</time></trkpt><trkpt lat="46.04132850027584" lon="9.42087878453629"><ele>1079.0</ele><time>2026-04-25T15:25:16.999Z</time></trkpt><trkpt lat="46.04144699424874" lon="9.420851805073399"><ele>1079.0</ele><time>2026-04-25T15:25:18.999Z</time></trkpt><trkpt lat="46.04151530208691" lon="9.420820696204268"><ele>1079.0</ele><time>2026-04-25T15:25:19.999Z</time></trkpt><trkpt lat="46.041619202606405" lon="9.420786055495206"><ele>1079.0</ele><time>2026-04-25T15:25:21.999Z</time></trkpt><trkpt lat="46.04170686433494" lon="9.42076833183696"><ele>1079.1666666666667</ele><time>2026-04-25T15:25:23.999Z</time></trkpt><trkpt lat="46.04179773364454" lon="9.420764453215435"><ele>1079.3333333333335</ele><time>2026-04-25T15:25:25.999Z</time></trkpt><trkpt lat="46.04186696831124" lon="9.420704971576164"><ele>1079.5</ele><time>2026-04-25T15:25:27.999Z</time></trkpt><trkpt lat="46.04196798594785" lon="9.420644436168338"><ele>1079.6666666666667</ele><time>2026-04-25T15:25:29.999Z</time></trkpt><trkpt lat="46.042023638738506" lon="9.42057375878114"><ele>1079.8333333333333</ele><time>2026-04-25T15:25:30.999Z</time></trkpt><trkpt lat="46.042072371566476" lon="9.420514778295239"><ele>1080.0</ele><time>2026-04-25T15:25:31.999Z</time></trkpt><trkpt lat="46.04215090934644" lon="9.420399374615076"><ele>1080.0</ele><time>2026-04-25T15:25:33.999Z</time></trkpt><trkpt lat="46.04221019917403" lon="9.42030728668982"><ele>1080.0</ele><time>2026-04-25T15:25:35.999Z</time></trkpt><trkpt lat="46.04228205898757" lon="9.420230898358202"><ele>1080.0</ele><time>2026-04-25T15:25:37.999Z</time></trkpt><trkpt lat="46.0423512358657" lon="9.420083250385046"><ele>1080.0</ele><time>2026-04-25T15:25:39.999Z</time></trkpt><trkpt lat="46.042379239309575" lon="9.419999047033114"><ele>1080.0</ele><time>2026-04-25T15:25:40.999Z</time></trkpt><trkpt lat="46.04242312727929" lon="9.419932408363394"><ele>1080.0</ele><time>2026-04-25T15:25:41.999Z</time></trkpt><trkpt lat="46.042488027831354" lon="9.419804469652762"><ele>1073.2</ele><time>2026-04-25T15:25:43.999Z</time></trkpt><trkpt lat="46.04253792545992" lon="9.419673977913972"><ele>1066.4</ele><time>2026-04-25T15:25:45.999Z</time></trkpt><trkpt lat="46.04255663173416" lon="9.419530952033611"><ele>1059.6</ele><time>2026-04-25T15:25:47.999Z</time></trkpt><trkpt lat="46.04256568734322" lon="9.419357055992045"><ele>1052.8</ele><time>2026-04-25T15:25:49.999Z</time></trkpt><trkpt lat="46.0425891123052" lon="9.419215347000689"><ele>1046.0</ele><time>2026-04-25T15:25:51.999Z</time></trkpt><trkpt lat="46.04261878255788" lon="9.419055827825362"><ele>1046.0</ele><time>2026-04-25T15:25:54.999Z</time></trkpt><trkpt lat="46.04266423454638" lon="9.418925819006585"><ele>1046.0</ele><time>2026-04-25T15:25:56.999Z</time></trkpt><trkpt lat="46.04273002750096" lon="9.418797674129241"><ele>1046.0</ele><time>2026-04-25T15:25:58.999Z</time></trkpt><trkpt lat="46.04281946312278" lon="9.418701842454176"><ele>1046.0</ele><time>2026-04-25T15:26:00.999Z</time></trkpt><trkpt lat="46.042921592128714" lon="9.418568872390999"><ele>1047.8571428571427</ele><time>2026-04-25T15:26:02.999Z</time></trkpt><trkpt lat="46.04296884347685" lon="9.418475888975681"><ele>1049.7142857142858</ele><time>2026-04-25T15:26:03.999Z</time></trkpt><trkpt lat="46.043011219236845" lon="9.418387571654597"><ele>1051.5714285714284</ele><time>2026-04-25T15:26:04.999Z</time></trkpt><trkpt lat="46.043052670472356" lon="9.418287374300782"><ele>1053.4285714285713</ele><time>2026-04-25T15:26:05.999Z</time></trkpt><trkpt lat="46.04309530461912" lon="9.418202426267992"><ele>1055.2857142857142</ele><time>2026-04-25T15:26:06.999Z</time></trkpt><trkpt lat="46.043132974220235" lon="9.41812426320627"><ele>1057.142857142857</ele><time>2026-04-25T15:26:07.999Z</time></trkpt><trkpt lat="46.043177276518804" lon="9.418044257281998"><ele>1059.0</ele><time>2026-04-25T15:26:08.999Z</time></trkpt><trkpt lat="46.04322001458478" lon="9.417953927492556"><ele>1061.6000000000001</ele><time>2026-04-25T15:26:09.999Z</time></trkpt><trkpt lat="46.04326906591606" lon="9.417896142483432"><ele>1064.2</ele><time>2026-04-25T15:26:10.999Z</time></trkpt><trkpt lat="46.04335001390263" lon="9.417768402541737"><ele>1066.8000000000002</ele><time>2026-04-25T15:26:12.999Z</time></trkpt><trkpt lat="46.04336337617877" lon="9.417664814497847"><ele>1069.4</ele><time>2026-04-25T15:26:13.999Z</time></trkpt><trkpt lat="46.04339260839316" lon="9.417582876631972"><ele>1072.0</ele><time>2026-04-25T15:26:14.999Z</time></trkpt><trkpt lat="46.04345794053485" lon="9.417416801310853"><ele>1066.8333333333333</ele><time>2026-04-25T15:26:16.999Z</time></trkpt><trkpt lat="46.04350370090526" lon="9.417335818271663"><ele>1061.6666666666665</ele><time>2026-04-25T15:26:18Z</time></trkpt><trkpt lat="46.04353287056909" lon="9.417255202350535"><ele>1056.5</ele><time>2026-04-25T15:26:19Z</time></trkpt><trkpt lat="46.04357332685516" lon="9.417172740805908"><ele>1051.3333333333333</ele><time>2026-04-25T15:26:20Z</time></trkpt><trkpt lat="46.04361366719496" lon="9.417086060754512"><ele>1046.1666666666667</ele><time>2026-04-25T15:26:21Z</time></trkpt><trkpt lat="46.043675437058134" lon="9.416956643940743"><ele>1041.0</ele><time>2026-04-25T15:26:23Z</time></trkpt><trkpt lat="46.04375670842831" lon="9.416823803500714"><ele>1041.0</ele><time>2026-04-25T15:26:25Z</time></trkpt><trkpt lat="46.043813297846405" lon="9.416697215595594"><ele>1041.0</ele><time>2026-04-25T15:26:27Z</time></trkpt><trkpt lat="46.043875256255276" lon="9.416590638862608"><ele>1041.0</ele><time>2026-04-25T15:26:29Z</time></trkpt><trkpt lat="46.043940739436835" lon="9.416498188112858"><ele>1041.0</ele><time>2026-04-25T15:26:31Z</time></trkpt><trkpt lat="46.04399801569245" lon="9.416417812948982"><ele>1041.0</ele><time>2026-04-25T15:26:33Z</time></trkpt><trkpt lat="46.044048070398844" lon="9.41630701590339"><ele>1041.1666666666667</ele><time>2026-04-25T15:26:36Z</time></trkpt><trkpt lat="46.044084833683996" lon="9.416188799728044"><ele>1041.3333333333333</ele><time>2026-04-25T15:26:38Z</time></trkpt><trkpt lat="46.04411361013347" lon="9.416071667037105"><ele>1041.5</ele><time>2026-04-25T15:26:40Z</time></trkpt><trkpt lat="46.0441490196877" lon="9.415974473533613"><ele>1041.6666666666665</ele><time>2026-04-25T15:26:42Z</time></trkpt><trkpt lat="46.044196732281456" lon="9.415865057312532"><ele>1041.8333333333333</ele><time>2026-04-25T15:26:44Z</time></trkpt><trkpt lat="46.04424805800791" lon="9.4157407769969"><ele>1042.0</ele><time>2026-04-25T15:26:46Z</time></trkpt><trkpt lat="46.04428175626082" lon="9.415628432544217"><ele>1030.6666666666665</ele><time>2026-04-25T15:26:48Z</time></trkpt><trkpt lat="46.04429936796981" lon="9.415515337154895"><ele>1019.3333333333333</ele><time>2026-04-25T15:26:51Z</time></trkpt><trkpt lat="46.04445345187202" lon="9.415214078806763"><ele>1008.0</ele><time>2026-04-25T15:26:53Z</time></trkpt><trkpt lat="46.04450105425464" lon="9.4150717546992"><ele>1008.0</ele><time>2026-04-25T15:26:55Z</time></trkpt><trkpt lat="46.04453229857675" lon="9.41498990772974"><ele>1008.0</ele><time>2026-04-25T15:26:56Z</time></trkpt><trkpt lat="46.044584190965914" lon="9.414847797551047"><ele>1008.0</ele><time>2026-04-25T15:26:57Z</time></trkpt><trkpt lat="46.04462025749372" lon="9.414742740176182"><ele>1008.0</ele><time>2026-04-25T15:26:58Z</time></trkpt><trkpt lat="46.044670437430085" lon="9.41464684258835"><ele>1008.0</ele><time>2026-04-25T15:26:59Z</time></trkpt><trkpt lat="46.044708685182385" lon="9.414551066391802"><ele>1008.0</ele><time>2026-04-25T15:27:00Z</time></trkpt><trkpt lat="46.04474958321618" lon="9.41446776242108"><ele>1008.8571428571429</ele><time>2026-04-25T15:27:01Z</time></trkpt><trkpt lat="46.04477739779556" lon="9.414379155607481"><ele>1009.7142857142858</ele><time>2026-04-25T15:27:02Z</time></trkpt><trkpt lat="46.04482190596614" lon="9.414300299441766"><ele>1010.5714285714286</ele><time>2026-04-25T15:27:03Z</time></trkpt><trkpt lat="46.04486966721805" lon="9.414224944982106"><ele>1011.4285714285714</ele><time>2026-04-25T15:27:04Z</time></trkpt><trkpt lat="46.04491692890279" lon="9.414151738847936"><ele>1012.2857142857143</ele><time>2026-04-25T15:27:05Z</time></trkpt><trkpt lat="46.04496588997816" lon="9.414075900387369"><ele>1013.1428571428571</ele><time>2026-04-25T15:27:06Z</time></trkpt><trkpt lat="46.04503374174004" lon="9.413988205639477"><ele>1014.0</ele><time>2026-04-25T15:27:07Z</time></trkpt><trkpt lat="46.045088108377726" lon="9.413899018875865"><ele>1008.8333333333334</ele><time>2026-04-25T15:27:08Z</time></trkpt><trkpt lat="46.04513375727173" lon="9.413823673003105"><ele>1003.6666666666667</ele><time>2026-04-25T15:27:09Z</time></trkpt><trkpt lat="46.045171647431445" lon="9.413652100323999"><ele>998.5</ele><time>2026-04-25T15:27:11Z</time></trkpt><trkpt lat="46.0451995124329" lon="9.413567476984447"><ele>993.3333333333334</ele><time>2026-04-25T15:27:12Z</time></trkpt><trkpt lat="46.04519476886907" lon="9.413464589104025"><ele>988.1666666666667</ele><time>2026-04-25T15:27:13Z</time></trkpt><trkpt lat="46.045179221541105" lon="9.413337849041929"><ele>983.0</ele><time>2026-04-25T15:27:14Z</time></trkpt><trkpt lat="46.04515902456712" lon="9.413230809026231"><ele>983.0000000000001</ele><time>2026-04-25T15:27:15Z</time></trkpt><trkpt lat="46.0451527836254" lon="9.413121825057408"><ele>983.0</ele><time>2026-04-25T15:27:15.999Z</time></trkpt><trkpt lat="46.045158730986614" lon="9.413010896933306"><ele>983.0</ele><time>2026-04-25T15:27:16.999Z</time></trkpt><trkpt lat="46.04518007661886" lon="9.41287566291672"><ele>983.0</ele><time>2026-04-25T15:27:17.999Z</time></trkpt><trkpt lat="46.04521676886553" lon="9.412750675305244"><ele>983.0000000000001</ele><time>2026-04-25T15:27:18.999Z</time></trkpt><trkpt lat="46.045259778741666" lon="9.412645940905875"><ele>983.0</ele><time>2026-04-25T15:27:19.999Z</time></trkpt><trkpt lat="46.045311279963265" lon="9.412558023431053"><ele>983.4285714285713</ele><time>2026-04-25T15:27:20.999Z</time></trkpt><trkpt lat="46.04536687331041" lon="9.412494197187911"><ele>983.8571428571429</ele><time>2026-04-25T15:27:21.999Z</time></trkpt><trkpt lat="46.045433377159604" lon="9.412432922676754"><ele>984.2857142857142</ele><time>2026-04-25T15:27:22.999Z</time></trkpt><trkpt lat="46.045512055532946" lon="9.41237529560738"><ele>984.7142857142857</ele><time>2026-04-25T15:27:23.999Z</time></trkpt><trkpt lat="46.045576795374686" lon="9.412332695055106"><ele>985.1428571428571</ele><time>2026-04-25T15:27:24.999Z</time></trkpt><trkpt lat="46.045640581199564" lon="9.412279597139632"><ele>985.5714285714286</ele><time>2026-04-25T15:27:25.999Z</time></trkpt><trkpt lat="46.04568836246239" lon="9.412215002966485"><ele>986.0</ele><time>2026-04-25T15:27:26.999Z</time></trkpt><trkpt lat="46.045740666900954" lon="9.41212565509792"><ele>984.1666666666667</ele><time>2026-04-25T15:27:27.999Z</time></trkpt><trkpt lat="46.04578528650598" lon="9.411999078541065"><ele>982.3333333333334</ele><time>2026-04-25T15:27:28.999Z</time></trkpt><trkpt lat="46.04582242979898" lon="9.411879115942172"><ele>980.5</ele><time>2026-04-25T15:27:29.999Z</time></trkpt><trkpt lat="46.04586845708635" lon="9.411793519479785"><ele>978.6666666666667</ele><time>2026-04-25T15:27:30.999Z</time></trkpt><trkpt lat="46.045925177741246" lon="9.411731980448986"><ele>976.8333333333334</ele><time>2026-04-25T15:27:31.999Z</time></trkpt><trkpt lat="46.04599037884095" lon="9.411698232307597"><ele>975.0</ele><time>2026-04-25T15:27:32.999Z</time></trkpt><trkpt lat="46.04607707677903" lon="9.411699568228112"><ele>975.0</ele><time>2026-04-25T15:27:33.999Z</time></trkpt><trkpt lat="46.04616107433821" lon="9.411686342963531"><ele>975.0</ele><time>2026-04-25T15:27:34.999Z</time></trkpt><trkpt lat="46.04623997953459" lon="9.411655803176908"><ele>975.0</ele><time>2026-04-25T15:27:35.999Z</time></trkpt><trkpt lat="46.046309509394945" lon="9.411628709424747"><ele>975.0</ele><time>2026-04-25T15:27:36.999Z</time></trkpt><trkpt lat="46.04638185173292" lon="9.411591740109012"><ele>975.0</ele><time>2026-04-25T15:27:37.999Z</time></trkpt><trkpt lat="46.04646109640285" lon="9.411512696632022"><ele>975.0</ele><time>2026-04-25T15:27:38.999Z</time></trkpt><trkpt lat="46.04653549906819" lon="9.411415520795984"><ele>975.0</ele><time>2026-04-25T15:27:39.999Z</time></trkpt><trkpt lat="46.046601297932455" lon="9.411327003556536"><ele>975.0</ele><time>2026-04-25T15:27:40.999Z</time></trkpt><trkpt lat="46.04666746621234" lon="9.4112458986907"><ele>975.0</ele><time>2026-04-25T15:27:41.999Z</time></trkpt><trkpt lat="46.046731336826944" lon="9.411167905360374"><ele>975.0</ele><time>2026-04-25T15:27:42.999Z</time></trkpt><trkpt lat="46.04679412972129" lon="9.411072091469775"><ele>975.0</ele><time>2026-04-25T15:27:43.999Z</time></trkpt><trkpt lat="46.04686035914603" lon="9.410964281877288"><ele>977.75</ele><time>2026-04-25T15:27:44.999Z</time></trkpt><trkpt lat="46.04692862608992" lon="9.410852838693176"><ele>980.5</ele><time>2026-04-25T15:27:45.999Z</time></trkpt><trkpt lat="46.047003556871694" lon="9.410740976370946"><ele>983.25</ele><time>2026-04-25T15:27:46.999Z</time></trkpt><trkpt lat="46.04708463682022" lon="9.410597488816475"><ele>986.0</ele><time>2026-04-25T15:27:47.999Z</time></trkpt><trkpt lat="46.047160285008594" lon="9.410459599870471"><ele>986.0</ele><time>2026-04-25T15:27:48.999Z</time></trkpt><trkpt lat="46.04722681361291" lon="9.410319940505017"><ele>986.0</ele><time>2026-04-25T15:27:49.999Z</time></trkpt><trkpt lat="46.04730423709538" lon="9.410198218768045"><ele>986.0</ele><time>2026-04-25T15:27:50.999Z</time></trkpt><trkpt lat="46.04738595973239" lon="9.410086129903107"><ele>986.0</ele><time>2026-04-25T15:27:51.999Z</time></trkpt><trkpt lat="46.04746271224663" lon="9.409969085126109"><ele>980.5999999999999</ele><time>2026-04-25T15:27:52.999Z</time></trkpt><trkpt lat="46.047539728545104" lon="9.40985233965832"><ele>975.1999999999999</ele><time>2026-04-25T15:27:53.999Z</time></trkpt><trkpt lat="46.04761532866669" lon="9.409741058869695"><ele>969.8000000000001</ele><time>2026-04-25T15:27:54.999Z</time></trkpt><trkpt lat="46.04768942705356" lon="9.409633650548658"><ele>964.4000000000001</ele><time>2026-04-25T15:27:55.999Z</time></trkpt><trkpt lat="46.04776395841601" lon="9.40952713737212"><ele>959.0</ele><time>2026-04-25T15:27:56.999Z</time></trkpt><trkpt lat="46.047837760545384" lon="9.409411547507949"><ele>959.0</ele><time>2026-04-25T15:27:57.999Z</time></trkpt><trkpt lat="46.04791763516938" lon="9.40926546766658"><ele>959.0</ele><time>2026-04-25T15:27:58.999Z</time></trkpt><trkpt lat="46.04800741673069" lon="9.409109361155252"><ele>959.0</ele><time>2026-04-25T15:27:59.999Z</time></trkpt><trkpt lat="46.04809176852854" lon="9.408972168362151"><ele>959.0</ele><time>2026-04-25T15:28:00.999Z</time></trkpt><trkpt lat="46.048167316943704" lon="9.408835099108085"><ele>962.75</ele><time>2026-04-25T15:28:01.999Z</time></trkpt><trkpt lat="46.04824103912205" lon="9.408699268227807"><ele>966.5</ele><time>2026-04-25T15:28:02.999Z</time></trkpt><trkpt lat="46.048312762646944" lon="9.408566806695559"><ele>970.25</ele><time>2026-04-25T15:28:03.999Z</time></trkpt><trkpt lat="46.04838606435099" lon="9.408440115299912"><ele>974.0</ele><time>2026-04-25T15:28:04.999Z</time></trkpt><trkpt lat="46.04846453399524" lon="9.408322669121816"><ele>969.0</ele><time>2026-04-25T15:28:05.999Z</time></trkpt><trkpt lat="46.048540974629475" lon="9.408195296287493"><ele>964.0</ele><time>2026-04-25T15:28:06.999Z</time></trkpt><trkpt lat="46.04862772403171" lon="9.408042884625445"><ele>959.0</ele><time>2026-04-25T15:28:07.999Z</time></trkpt><trkpt lat="46.048698641138635" lon="9.407864621476683"><ele>954.0</ele><time>2026-04-25T15:28:08.999Z</time></trkpt><trkpt lat="46.04878329951587" lon="9.407716633566832"><ele>954.0</ele><time>2026-04-25T15:28:09.999Z</time></trkpt><trkpt lat="46.04884269194399" lon="9.407559975806132"><ele>954.0</ele><time>2026-04-25T15:28:10.999Z</time></trkpt><trkpt lat="46.0489096129696" lon="9.407420086511205"><ele>954.0</ele><time>2026-04-25T15:28:11.999Z</time></trkpt><trkpt lat="46.04897302328307" lon="9.407287535869932"><ele>954.0</ele><time>2026-04-25T15:28:12.999Z</time></trkpt><trkpt lat="46.049037795205095" lon="9.407152253760724"><ele>958.5</ele><time>2026-04-25T15:28:13.999Z</time></trkpt><trkpt lat="46.0491090958799" lon="9.407031867563324"><ele>963.0</ele><time>2026-04-25T15:28:14.999Z</time></trkpt><trkpt lat="46.04915710627651" lon="9.40687579646756"><ele>967.5</ele><time>2026-04-25T15:28:15.999Z</time></trkpt><trkpt lat="46.04922471131282" lon="9.4067105204218"><ele>972.0</ele><time>2026-04-25T15:28:16.999Z</time></trkpt><trkpt lat="46.049311142941015" lon="9.406555323422713"><ele>964.0</ele><time>2026-04-25T15:28:17.999Z</time></trkpt><trkpt lat="46.04938752403237" lon="9.406389532105406"><ele>956.0</ele><time>2026-04-25T15:28:18.999Z</time></trkpt><trkpt lat="46.04946917326738" lon="9.406222089745794"><ele>948.0</ele><time>2026-04-25T15:28:19.999Z</time></trkpt><trkpt lat="46.04954008955401" lon="9.406072290730433"><ele>940.0</ele><time>2026-04-25T15:28:20.999Z</time></trkpt><trkpt lat="46.04960479038344" lon="9.40591801513412"><ele>940.0</ele><time>2026-04-25T15:28:21.999Z</time></trkpt><trkpt lat="46.049666755924015" lon="9.40574168071131"><ele>940.0</ele><time>2026-04-25T15:28:22.999Z</time></trkpt><trkpt lat="46.04971907833195" lon="9.405562912688005"><ele>940.0</ele><time>2026-04-25T15:28:24Z</time></trkpt><trkpt lat="46.049755978605226" lon="9.405396993517051"><ele>940.0</ele><time>2026-04-25T15:28:25Z</time></trkpt><trkpt lat="46.049789038986006" lon="9.405258772027707"><ele>943.0</ele><time>2026-04-25T15:28:26Z</time></trkpt><trkpt lat="46.04981870977145" lon="9.405129227203178"><ele>946.0</ele><time>2026-04-25T15:28:27Z</time></trkpt><trkpt lat="46.04984541310984" lon="9.405007900187814"><ele>949.0</ele><time>2026-04-25T15:28:28Z</time></trkpt><trkpt lat="46.04987370606022" lon="9.40485974140323"><ele>952.0</ele><time>2026-04-25T15:28:29Z</time></trkpt><trkpt lat="46.04990793370789" lon="9.40469109063969"><ele>955.0</ele><time>2026-04-25T15:28:30Z</time></trkpt><trkpt lat="46.04994490785681" lon="9.404511023615328"><ele>948.0</ele><time>2026-04-25T15:28:31Z</time></trkpt><trkpt lat="46.049987303503954" lon="9.40432582265317"><ele>941.0</ele><time>2026-04-25T15:28:32Z</time></trkpt><trkpt lat="46.050029857357366" lon="9.40414563352969"><ele>934.0</ele><time>2026-04-25T15:28:33Z</time></trkpt><trkpt lat="46.05006502627936" lon="9.403959041456739"><ele>927.0</ele><time>2026-04-25T15:28:34Z</time></trkpt><trkpt lat="46.05010581755699" lon="9.403771824555704"><ele>927.0</ele><time>2026-04-25T15:28:35Z</time></trkpt><trkpt lat="46.05014077785162" lon="9.403574809652595"><ele>927.0</ele><time>2026-04-25T15:28:36Z</time></trkpt><trkpt lat="46.05017856002224" lon="9.403375278136386"><ele>927.0</ele><time>2026-04-25T15:28:37Z</time></trkpt><trkpt lat="46.05023146515208" lon="9.403180691875818"><ele>927.0</ele><time>2026-04-25T15:28:38Z</time></trkpt><trkpt lat="46.05028108320348" lon="9.402978506877478"><ele>929.75</ele><time>2026-04-25T15:28:39Z</time></trkpt><trkpt lat="46.050337108401585" lon="9.402776074258808"><ele>932.5</ele><time>2026-04-25T15:28:40Z</time></trkpt><trkpt lat="46.050391960044415" lon="9.40259961203448"><ele>935.25</ele><time>2026-04-25T15:28:41Z</time></trkpt><trkpt lat="46.05044041031712" lon="9.402401451922287"><ele>938.0</ele><time>2026-04-25T15:28:42Z</time></trkpt><trkpt lat="46.050495007243185" lon="9.402199491270766"><ele>939.5</ele><time>2026-04-25T15:28:43Z</time></trkpt><trkpt lat="46.05055402885619" lon="9.4019868721062"><ele>941.0</ele><time>2026-04-25T15:28:44Z</time></trkpt><trkpt lat="46.050606366185356" lon="9.401792092162218"><ele>942.5</ele><time>2026-04-25T15:28:45Z</time></trkpt><trkpt lat="46.050653083276146" lon="9.401624139885465"><ele>944.0</ele><time>2026-04-25T15:28:46Z</time></trkpt><trkpt lat="46.05068511259497" lon="9.401469969828831"><ele>945.75</ele><time>2026-04-25T15:28:47Z</time></trkpt><trkpt lat="46.05072808115199" lon="9.401291389537537"><ele>947.5</ele><time>2026-04-25T15:28:48Z</time></trkpt><trkpt lat="46.05076911309651" lon="9.401115851962999"><ele>949.25</ele><time>2026-04-25T15:28:49Z</time></trkpt><trkpt lat="46.05080813894165" lon="9.400935960355692"><ele>951.0</ele><time>2026-04-25T15:28:50Z</time></trkpt><trkpt lat="46.050843196681825" lon="9.40074856650522"><ele>944.1999999999999</ele><time>2026-04-25T15:28:51Z</time></trkpt><trkpt lat="46.050875454995065" lon="9.400585290347705"><ele>937.3999999999999</ele><time>2026-04-25T15:28:52Z</time></trkpt><trkpt lat="46.05090729313" lon="9.400447224759596"><ele>930.6</ele><time>2026-04-25T15:28:53Z</time></trkpt><trkpt lat="46.050936755410035" lon="9.40031844284938"><ele>923.8</ele><time>2026-04-25T15:28:54Z</time></trkpt><trkpt lat="46.05096286258378" lon="9.400200181594222"><ele>917.0</ele><time>2026-04-25T15:28:55Z</time></trkpt><trkpt lat="46.05098457782406" lon="9.400088311911956"><ele>917.0000000000001</ele><time>2026-04-25T15:28:56Z</time></trkpt><trkpt lat="46.05099190732034" lon="9.399969866355285"><ele>917.0</ele><time>2026-04-25T15:28:57Z</time></trkpt><trkpt lat="46.05097968613015" lon="9.39985674839657"><ele>917.0</ele><time>2026-04-25T15:28:58Z</time></trkpt><trkpt lat="46.05096379413702" lon="9.399737061459431"><ele>917.0</ele><time>2026-04-25T15:28:59Z</time></trkpt><trkpt lat="46.050932765259475" lon="9.399629403470627"><ele>917.0000000000001</ele><time>2026-04-25T15:29:00Z</time></trkpt><trkpt lat="46.050894258594866" lon="9.399538952159512"><ele>917.0</ele><time>2026-04-25T15:29:01Z</time></trkpt><trkpt lat="46.05085581712218" lon="9.399455127957854"><ele>921.1666666666667</ele><time>2026-04-25T15:29:02Z</time></trkpt><trkpt lat="46.05077132426654" lon="9.399293728306684"><ele>925.3333333333334</ele><time>2026-04-25T15:29:04Z</time></trkpt><trkpt lat="46.050743322351266" lon="9.399202379526205"><ele>929.5</ele><time>2026-04-25T15:29:05Z</time></trkpt><trkpt lat="46.05073778293601" lon="9.399104945271976"><ele>933.6666666666667</ele><time>2026-04-25T15:29:06Z</time></trkpt><trkpt lat="46.05074404494999" lon="9.398995365044811"><ele>937.8333333333334</ele><time>2026-04-25T15:29:07Z</time></trkpt><trkpt lat="46.050760365257446" lon="9.398868786269782"><ele>942.0</ele><time>2026-04-25T15:29:08Z</time></trkpt><trkpt lat="46.0507220372739" lon="9.398712303155998"><ele>942.0</ele><time>2026-04-25T15:29:09Z</time></trkpt><trkpt lat="46.050695257719106" lon="9.39854714583045"><ele>942.0</ele><time>2026-04-25T15:29:10Z</time></trkpt><trkpt lat="46.05067411468114" lon="9.398382448067366"><ele>942.0</ele><time>2026-04-25T15:29:10.999Z</time></trkpt><trkpt lat="46.05065433097502" lon="9.398230227284877"><ele>942.0</ele><time>2026-04-25T15:29:11.999Z</time></trkpt><trkpt lat="46.050630653012064" lon="9.3980831314983"><ele>942.0</ele><time>2026-04-25T15:29:12.999Z</time></trkpt><trkpt lat="46.05060475170684" lon="9.39793579722182"><ele>939.0</ele><time>2026-04-25T15:29:13.999Z</time></trkpt><trkpt lat="46.0505811778605" lon="9.397796748164206"><ele>936.0</ele><time>2026-04-25T15:29:14.999Z</time></trkpt><trkpt lat="46.050563078581966" lon="9.397658288693084"><ele>933.0</ele><time>2026-04-25T15:29:15.999Z</time></trkpt><trkpt lat="46.05053941285527" lon="9.397520688469767"><ele>930.0</ele><time>2026-04-25T15:29:16.999Z</time></trkpt><trkpt lat="46.050512564321416" lon="9.397379833846873"><ele>927.0</ele><time>2026-04-25T15:29:17.999Z</time></trkpt><trkpt lat="46.05047983316171" lon="9.397234089643014"><ele>925.75</ele><time>2026-04-25T15:29:18.999Z</time></trkpt><trkpt lat="46.05040761275673" lon="9.397106732257171"><ele>924.5</ele><time>2026-04-25T15:29:19.999Z</time></trkpt><trkpt lat="46.05029409181435" lon="9.3970026824377"><ele>923.25</ele><time>2026-04-25T15:29:20.999Z</time></trkpt><trkpt lat="46.050160060100204" lon="9.396926331054473"><ele>922.0</ele><time>2026-04-25T15:29:21.999Z</time></trkpt><trkpt lat="46.05001460637464" lon="9.396864180572146"><ele>925.0</ele><time>2026-04-25T15:29:22.999Z</time></trkpt><trkpt lat="46.04986732527925" lon="9.39679551333217"><ele>928.0</ele><time>2026-04-25T15:29:23.999Z</time></trkpt><trkpt lat="46.049725070531665" lon="9.396723564576943"><ele>931.0</ele><time>2026-04-25T15:29:24.999Z</time></trkpt><trkpt lat="46.0495827764534" lon="9.396645127925547"><ele>931.0</ele><time>2026-04-25T15:29:25.999Z</time></trkpt><trkpt lat="46.04945221279977" lon="9.396579677069917"><ele>931.0</ele><time>2026-04-25T15:29:26.999Z</time></trkpt><trkpt lat="46.04932246375763" lon="9.396512932050276"><ele>931.0</ele><time>2026-04-25T15:29:27.999Z</time></trkpt><trkpt lat="46.049182274581355" lon="9.396451610257204"><ele>931.0</ele><time>2026-04-25T15:29:28.999Z</time></trkpt><trkpt lat="46.049038648581465" lon="9.396380785380355"><ele>929.75</ele><time>2026-04-25T15:29:29.999Z</time></trkpt><trkpt lat="46.0489079194724" lon="9.396319761126945"><ele>928.5</ele><time>2026-04-25T15:29:30.999Z</time></trkpt><trkpt lat="46.04878466241423" lon="9.396259186784173"><ele>927.25</ele><time>2026-04-25T15:29:31.999Z</time></trkpt><trkpt lat="46.04865414366665" lon="9.396193452543837"><ele>926.0</ele><time>2026-04-25T15:29:32.999Z</time></trkpt><trkpt lat="46.04852210049816" lon="9.396132601857728"><ele>926.0</ele><time>2026-04-25T15:29:33.999Z</time></trkpt><trkpt lat="46.0483875426627" lon="9.396075577217875"><ele>926.0</ele><time>2026-04-25T15:29:34.999Z</time></trkpt><trkpt lat="46.048253096432084" lon="9.396011447756102"><ele>926.0</ele><time>2026-04-25T15:29:35.999Z</time></trkpt><trkpt lat="46.04812844270419" lon="9.395953817785786"><ele>926.0</ele><time>2026-04-25T15:29:36.999Z</time></trkpt><trkpt lat="46.048012676567694" lon="9.395898589209004"><ele>927.25</ele><time>2026-04-25T15:29:37.999Z</time></trkpt><trkpt lat="46.047900854426445" lon="9.395845290860995"><ele>928.5</ele><time>2026-04-25T15:29:38.999Z</time></trkpt><trkpt lat="46.04779199795866" lon="9.395777783328336"><ele>929.75</ele><time>2026-04-25T15:29:39.999Z</time></trkpt><trkpt lat="46.047691377321435" lon="9.395678549334475"><ele>931.0</ele><time>2026-04-25T15:29:40.999Z</time></trkpt><trkpt lat="46.047583513560944" lon="9.395560883898511"><ele>927.25</ele><time>2026-04-25T15:29:41.999Z</time></trkpt><trkpt lat="46.047492619678245" lon="9.395424183409954"><ele>923.5</ele><time>2026-04-25T15:29:42.999Z</time></trkpt><trkpt lat="46.04741286192175" lon="9.395298528091283"><ele>919.75</ele><time>2026-04-25T15:29:43.999Z</time></trkpt><trkpt lat="46.04733381890121" lon="9.395152792771032"><ele>916.0</ele><time>2026-04-25T15:29:44.999Z</time></trkpt><trkpt lat="46.047268756575065" lon="9.394977758871294"><ele>915.5</ele><time>2026-04-25T15:29:45.999Z</time></trkpt><trkpt lat="46.04721467169807" lon="9.394793700389375"><ele>915.0</ele><time>2026-04-25T15:29:46.999Z</time></trkpt><trkpt lat="46.04716547239087" lon="9.394620278792537"><ele>914.5</ele><time>2026-04-25T15:29:47.999Z</time></trkpt><trkpt lat="46.04711053937078" lon="9.394456124864785"><ele>914.0</ele><time>2026-04-25T15:29:48.999Z</time></trkpt><trkpt lat="46.04706576266712" lon="9.394284047580856"><ele>911.0</ele><time>2026-04-25T15:29:49.999Z</time></trkpt><trkpt lat="46.0470398366784" lon="9.39410286230109"><ele>908.0</ele><time>2026-04-25T15:29:50.999Z</time></trkpt><trkpt lat="46.04702208462279" lon="9.393894065104227"><ele>905.0</ele><time>2026-04-25T15:29:51.999Z</time></trkpt><trkpt lat="46.04699835590708" lon="9.393693366960058"><ele>902.0</ele><time>2026-04-25T15:29:52.999Z</time></trkpt><trkpt lat="46.04697419370044" lon="9.393506323085425"><ele>900.5</ele><time>2026-04-25T15:29:53.999Z</time></trkpt><trkpt lat="46.046942757469786" lon="9.393331873200307"><ele>899.0</ele><time>2026-04-25T15:29:54.999Z</time></trkpt><trkpt lat="46.04688738680859" lon="9.393172667546054"><ele>897.5</ele><time>2026-04-25T15:29:55.999Z</time></trkpt><trkpt lat="46.04679181310786" lon="9.39302421189997"><ele>896.0</ele><time>2026-04-25T15:29:56.999Z</time></trkpt><trkpt lat="46.04666804418749" lon="9.392912351724425"><ele>891.5</ele><time>2026-04-25T15:29:57.999Z</time></trkpt><trkpt lat="46.04655248118005" lon="9.392816031142619"><ele>887.0</ele><time>2026-04-25T15:29:58.999Z</time></trkpt><trkpt lat="46.046441776200034" lon="9.392729643379415"><ele>882.5</ele><time>2026-04-25T15:29:59.999Z</time></trkpt><trkpt lat="46.046340043234295" lon="9.39264861797708"><ele>878.0</ele><time>2026-04-25T15:30:00.999Z</time></trkpt><trkpt lat="46.046246183123685" lon="9.392566882934617"><ele>878.0</ele><time>2026-04-25T15:30:01.999Z</time></trkpt><trkpt lat="46.04616129318977" lon="9.392480717496083"><ele>878.0</ele><time>2026-04-25T15:30:02.999Z</time></trkpt><trkpt lat="46.04608255784979" lon="9.392386635741092"><ele>878.0</ele><time>2026-04-25T15:30:03.999Z</time></trkpt><trkpt lat="46.04600519019788" lon="9.392305912814246"><ele>878.0</ele><time>2026-04-25T15:30:04.999Z</time></trkpt><trkpt lat="46.0459346218959" lon="9.392201302931522"><ele>878.0</ele><time>2026-04-25T15:30:05.999Z</time></trkpt><trkpt lat="46.045836748069256" lon="9.392107718201075"><ele>876.3333333333334</ele><time>2026-04-25T15:30:06.999Z</time></trkpt><trkpt lat="46.04571980746972" lon="9.392014017943811"><ele>874.6666666666667</ele><time>2026-04-25T15:30:07.999Z</time></trkpt><trkpt lat="46.04558389418329" lon="9.391937075328611"><ele>873.0</ele><time>2026-04-25T15:30:08.999Z</time></trkpt><trkpt lat="46.045413184469226" lon="9.391889743402702"><ele>873.0</ele><time>2026-04-25T15:30:09.999Z</time></trkpt><trkpt lat="46.04526178408727" lon="9.391807154789053"><ele>873.0</ele><time>2026-04-25T15:30:10.999Z</time></trkpt><trkpt lat="46.04512490880403" lon="9.391699806411749"><ele>873.0</ele><time>2026-04-25T15:30:11.999Z</time></trkpt><trkpt lat="46.04499338032066" lon="9.391639805669747"><ele>872.0</ele><time>2026-04-25T15:30:12.999Z</time></trkpt><trkpt lat="46.04487444804201" lon="9.391586201142964"><ele>871.0</ele><time>2026-04-25T15:30:13.999Z</time></trkpt><trkpt lat="46.044763108121074" lon="9.391517293480991"><ele>870.0</ele><time>2026-04-25T15:30:14.999Z</time></trkpt><trkpt lat="46.04466799792705" lon="9.391427002396313"><ele>869.0</ele><time>2026-04-25T15:30:15.999Z</time></trkpt><trkpt lat="46.04457618230518" lon="9.391311427075816"><ele>869.0</ele><time>2026-04-25T15:30:16.999Z</time></trkpt><trkpt lat="46.04446687368416" lon="9.391209109559899"><ele>869.0</ele><time>2026-04-25T15:30:17.999Z</time></trkpt><trkpt lat="46.04433052253835" lon="9.391100086406231"><ele>869.0</ele><time>2026-04-25T15:30:18.999Z</time></trkpt><trkpt lat="46.044181880899735" lon="9.390994985994816"><ele>865.25</ele><time>2026-04-25T15:30:19.999Z</time></trkpt><trkpt lat="46.044060954870126" lon="9.390900194881798"><ele>861.5</ele><time>2026-04-25T15:30:20.999Z</time></trkpt><trkpt lat="46.043943035859584" lon="9.390806475171289"><ele>857.75</ele><time>2026-04-25T15:30:21.999Z</time></trkpt><trkpt lat="46.04383665249691" lon="9.39072641177903"><ele>854.0</ele><time>2026-04-25T15:30:22.999Z</time></trkpt><trkpt lat="46.04373937167752" lon="9.390646871264305"><ele>854.0</ele><time>2026-04-25T15:30:23.999Z</time></trkpt><trkpt lat="46.04364105636404" lon="9.390545036581758"><ele>854.0</ele><time>2026-04-25T15:30:24.999Z</time></trkpt><trkpt lat="46.04353533510312" lon="9.39042066441761"><ele>854.0</ele><time>2026-04-25T15:30:25.999Z</time></trkpt><trkpt lat="46.043436089385516" lon="9.390258382603667"><ele>854.0</ele><time>2026-04-25T15:30:26.999Z</time></trkpt><trkpt lat="46.04334086060346" lon="9.390108877672358"><ele>855.3333333333334</ele><time>2026-04-25T15:30:27.999Z</time></trkpt><trkpt lat="46.04324359893076" lon="9.389932688166239"><ele>856.6666666666667</ele><time>2026-04-25T15:30:28.999Z</time></trkpt><trkpt lat="46.04313370906816" lon="9.389748860027442"><ele>858.0</ele><time>2026-04-25T15:30:30Z</time></trkpt><trkpt lat="46.04303290388174" lon="9.389592130281805"><ele>858.0</ele><time>2026-04-25T15:30:31Z</time></trkpt><trkpt lat="46.04293374809531" lon="9.389456327484858"><ele>858.0</ele><time>2026-04-25T15:30:32Z</time></trkpt><trkpt lat="46.042814597895976" lon="9.389327834797362"><ele>858.0</ele><time>2026-04-25T15:30:33Z</time></trkpt><trkpt lat="46.04267774811318" lon="9.389209446996075"><ele>858.0</ele><time>2026-04-25T15:30:34Z</time></trkpt><trkpt lat="46.04255114063552" lon="9.389102459138586"><ele>854.0</ele><time>2026-04-25T15:30:35Z</time></trkpt><trkpt lat="46.04242184110066" lon="9.389005670224806"><ele>850.0</ele><time>2026-04-25T15:30:36Z</time></trkpt><trkpt lat="46.0422816227264" lon="9.388894220944303"><ele>846.0</ele><time>2026-04-25T15:30:37Z</time></trkpt><trkpt lat="46.04214301742589" lon="9.388778539449406"><ele>846.0</ele><time>2026-04-25T15:30:38Z</time></trkpt><trkpt lat="46.04200855940704" lon="9.388664925286095"><ele>846.0</ele><time>2026-04-25T15:30:39Z</time></trkpt><trkpt lat="46.04188872198839" lon="9.38855261423664"><ele>846.0</ele><time>2026-04-25T15:30:40Z</time></trkpt><trkpt lat="46.04176890504657" lon="9.388423104992109"><ele>846.0</ele><time>2026-04-25T15:30:41Z</time></trkpt><trkpt lat="46.04165436178239" lon="9.388260402331303"><ele>845.3333333333333</ele><time>2026-04-25T15:30:42Z</time></trkpt><trkpt lat="46.04152788218565" lon="9.388115360035602"><ele>844.6666666666666</ele><time>2026-04-25T15:30:43Z</time></trkpt><trkpt lat="46.04137811251398" lon="9.387965504476256"><ele>844.0</ele><time>2026-04-25T15:30:44Z</time></trkpt><trkpt lat="46.04121190742942" lon="9.387828896819768"><ele>844.0</ele><time>2026-04-25T15:30:45Z</time></trkpt><trkpt lat="46.04105748227896" lon="9.387724662238007"><ele>844.0</ele><time>2026-04-25T15:30:46Z</time></trkpt><trkpt lat="46.040920376650135" lon="9.38762562665854"><ele>844.0</ele><time>2026-04-25T15:30:47Z</time></trkpt><trkpt lat="46.0407953478998" lon="9.387527048098368"><ele>838.5</ele><time>2026-04-25T15:30:48Z</time></trkpt><trkpt lat="46.04067724831861" lon="9.387433596655523"><ele>833.0</ele><time>2026-04-25T15:30:49Z</time></trkpt><trkpt lat="46.040563538622564" lon="9.387342723015315"><ele>827.5</ele><time>2026-04-25T15:30:50Z</time></trkpt><trkpt lat="46.04045253543174" lon="9.387260375813234"><ele>822.0</ele><time>2026-04-25T15:30:51Z</time></trkpt><trkpt lat="46.04033202256231" lon="9.387185874776414"><ele>822.0</ele><time>2026-04-25T15:30:52Z</time></trkpt><trkpt lat="46.04018833623319" lon="9.38711423975305"><ele>822.0</ele><time>2026-04-25T15:30:53Z</time></trkpt><trkpt lat="46.04004090562693" lon="9.387039193037056"><ele>822.0</ele><time>2026-04-25T15:30:54Z</time></trkpt><trkpt lat="46.03990349142098" lon="9.38696875013546"><ele>822.0</ele><time>2026-04-25T15:30:55Z</time></trkpt><trkpt lat="46.03977764113539" lon="9.386896966319052"><ele>822.0</ele><time>2026-04-25T15:30:56Z</time></trkpt><trkpt lat="46.03965044855844" lon="9.386828979945243"><ele>822.0</ele><time>2026-04-25T15:30:57Z</time></trkpt><trkpt lat="46.03951373217225" lon="9.38673790442877"><ele>822.0</ele><time>2026-04-25T15:30:58Z</time></trkpt><trkpt lat="46.03938124380787" lon="9.386609737143392"><ele>822.0</ele><time>2026-04-25T15:30:59Z</time></trkpt><trkpt lat="46.03924491643962" lon="9.386461455391306"><ele>822.0</ele><time>2026-04-25T15:31:00Z</time></trkpt><trkpt lat="46.039109591709845" lon="9.386321336811724"><ele>822.0</ele><time>2026-04-25T15:31:01Z</time></trkpt><trkpt lat="46.03898434792946" lon="9.38619653407048"><ele>817.6666666666667</ele><time>2026-04-25T15:31:02Z</time></trkpt><trkpt lat="46.03886123714318" lon="9.386071196347183"><ele>813.3333333333334</ele><time>2026-04-25T15:31:03Z</time></trkpt><trkpt lat="46.03873648491822" lon="9.385947284243471"><ele>809.0</ele><time>2026-04-25T15:31:04Z</time></trkpt><trkpt lat="46.03860297791123" lon="9.385814459298643"><ele>809.0</ele><time>2026-04-25T15:31:05Z</time></trkpt><trkpt lat="46.038477893044075" lon="9.385683293915728"><ele>809.0</ele><time>2026-04-25T15:31:06Z</time></trkpt><trkpt lat="46.038361805336756" lon="9.385556698602437"><ele>809.0</ele><time>2026-04-25T15:31:07Z</time></trkpt><trkpt lat="46.038241816468876" lon="9.385428066513505"><ele>807.0</ele><time>2026-04-25T15:31:08Z</time></trkpt><trkpt lat="46.03811699326024" lon="9.385297719069415"><ele>805.0</ele><time>2026-04-25T15:31:09Z</time></trkpt><trkpt lat="46.03798690577616" lon="9.385164674317707"><ele>803.0</ele><time>2026-04-25T15:31:10Z</time></trkpt><trkpt lat="46.037854935040734" lon="9.38502666233074"><ele>803.0</ele><time>2026-04-25T15:31:11Z</time></trkpt><trkpt lat="46.03772236508183" lon="9.384886055906733"><ele>803.0</ele><time>2026-04-25T15:31:12Z</time></trkpt><trkpt lat="46.0375953602034" lon="9.384749299696162"><ele>803.0</ele><time>2026-04-25T15:31:13Z</time></trkpt><trkpt lat="46.03747867838534" lon="9.384626651071494"><ele>801.5</ele><time>2026-04-25T15:31:14Z</time></trkpt><trkpt lat="46.03737084588136" lon="9.384509146500678"><ele>800.0</ele><time>2026-04-25T15:31:15Z</time></trkpt><trkpt lat="46.03726499378851" lon="9.384385886566049"><ele>798.5</ele><time>2026-04-25T15:31:15.999Z</time></trkpt><trkpt lat="46.037159045874915" lon="9.384233242916496"><ele>797.0</ele><time>2026-04-25T15:31:16.999Z</time></trkpt><trkpt lat="46.03706447771439" lon="9.384074422654274"><ele>797.0</ele><time>2026-04-25T15:31:17.999Z</time></trkpt><trkpt lat="46.036962020972844" lon="9.38392676467062"><ele>797.0</ele><time>2026-04-25T15:31:18.999Z</time></trkpt><trkpt lat="46.03683242005797" lon="9.383794887083825"><ele>797.0</ele><time>2026-04-25T15:31:19.999Z</time></trkpt><trkpt lat="46.03669399008408" lon="9.383685871563712"><ele>795.25</ele><time>2026-04-25T15:31:20.999Z</time></trkpt><trkpt lat="46.03656283741864" lon="9.383586232191025"><ele>793.5</ele><time>2026-04-25T15:31:21.999Z</time></trkpt><trkpt lat="46.036437066793866" lon="9.38346674210201"><ele>791.75</ele><time>2026-04-25T15:31:22.999Z</time></trkpt><trkpt lat="46.03631887115501" lon="9.383338375708565"><ele>790.0</ele><time>2026-04-25T15:31:23.999Z</time></trkpt><trkpt lat="46.036214986441244" lon="9.38321238316019"><ele>790.0</ele><time>2026-04-25T15:31:24.999Z</time></trkpt><trkpt lat="46.036115212587255" lon="9.383082864780706"><ele>790.0</ele><time>2026-04-25T15:31:25.999Z</time></trkpt><trkpt lat="46.03600783704562" lon="9.382944207001259"><ele>790.0</ele><time>2026-04-25T15:31:26.999Z</time></trkpt><trkpt lat="46.035895372221304" lon="9.38279046114958"><ele>790.0</ele><time>2026-04-25T15:31:27.999Z</time></trkpt><trkpt lat="46.035786458672725" lon="9.382641961468101"><ele>792.25</ele><time>2026-04-25T15:31:28.999Z</time></trkpt><trkpt lat="46.03568431766597" lon="9.382510559384865"><ele>794.5</ele><time>2026-04-25T15:31:29.999Z</time></trkpt><trkpt lat="46.0355811326708" lon="9.382371326225755"><ele>796.75</ele><time>2026-04-25T15:31:30.999Z</time></trkpt><trkpt lat="46.03548393950515" lon="9.382225896677783"><ele>799.0</ele><time>2026-04-25T15:31:31.999Z</time></trkpt><trkpt lat="46.03540283756783" lon="9.382090923582401"><ele>798.9999999999999</ele><time>2026-04-25T15:31:32.999Z</time></trkpt><trkpt lat="46.03534134007495" lon="9.381967941926007"><ele>799.0</ele><time>2026-04-25T15:31:33.999Z</time></trkpt><trkpt lat="46.03529533213642" lon="9.381850267923808"><ele>799.0</ele><time>2026-04-25T15:31:34.999Z</time></trkpt><trkpt lat="46.03525444414988" lon="9.381748063181343"><ele>799.0</ele><time>2026-04-25T15:31:35.999Z</time></trkpt><trkpt lat="46.035214269308604" lon="9.381674992709764"><ele>798.9999999999999</ele><time>2026-04-25T15:31:36.999Z</time></trkpt><trkpt lat="46.035144125957274" lon="9.381606803602422"><ele>799.0</ele><time>2026-04-25T15:31:38.999Z</time></trkpt><trkpt lat="46.03507679521618" lon="9.381614974115001"><ele>799.0</ele><time>2026-04-25T15:31:45.999Z</time></trkpt><trkpt lat="46.03505913873038" lon="9.381804591658652"><ele>799.0</ele><time>2026-04-25T15:31:47.999Z</time></trkpt><trkpt lat="46.03507043783612" lon="9.381896406684904"><ele>799.0</ele><time>2026-04-25T15:31:48.999Z</time></trkpt><trkpt lat="46.03509984439618" lon="9.382054748766421"><ele>799.0</ele><time>2026-04-25T15:31:49.999Z</time></trkpt><trkpt lat="46.03513997441918" lon="9.382202130218815"><ele>799.0</ele><time>2026-04-25T15:31:50.999Z</time></trkpt><trkpt lat="46.03518187826243" lon="9.382341020525589"><ele>795.6666666666666</ele><time>2026-04-25T15:31:51.999Z</time></trkpt><trkpt lat="46.03522412275216" lon="9.382478544532843"><ele>792.3333333333333</ele><time>2026-04-25T15:31:52.999Z</time></trkpt><trkpt lat="46.035258165144825" lon="9.382589383076892"><ele>789.0</ele><time>2026-04-25T15:31:53.999Z</time></trkpt><trkpt lat="46.03529159887431" lon="9.382700679318317"><ele>785.6666666666667</ele><time>2026-04-25T15:31:54.999Z</time></trkpt><trkpt lat="46.03532211708317" lon="9.382807042012567"><ele>782.3333333333334</ele><time>2026-04-25T15:31:55.999Z</time></trkpt><trkpt lat="46.03535176268467" lon="9.382912953110862"><ele>779.0</ele><time>2026-04-25T15:31:56.999Z</time></trkpt><trkpt lat="46.03538117716499" lon="9.383018038513908"><ele>777.6666666666667</ele><time>2026-04-25T15:31:57.999Z</time></trkpt><trkpt lat="46.03541243781615" lon="9.383127688100476"><ele>776.3333333333334</ele><time>2026-04-25T15:31:58.999Z</time></trkpt><trkpt lat="46.03544793572626" lon="9.383251295079914"><ele>775.0</ele><time>2026-04-25T15:31:59.999Z</time></trkpt><trkpt lat="46.03548422320528" lon="9.383377651548633"><ele>773.6666666666667</ele><time>2026-04-25T15:32:00.999Z</time></trkpt><trkpt lat="46.035518585398115" lon="9.383497303968765"><ele>772.3333333333334</ele><time>2026-04-25T15:32:01.999Z</time></trkpt><trkpt lat="46.03555127637481" lon="9.383611138464298"><ele>771.0</ele><time>2026-04-25T15:32:02.999Z</time></trkpt><trkpt lat="46.03558953407875" lon="9.383739123069693"><ele>770.0</ele><time>2026-04-25T15:32:03.999Z</time></trkpt><trkpt lat="46.035632421070986" lon="9.383884326948406"><ele>769.0</ele><time>2026-04-25T15:32:04.999Z</time></trkpt><trkpt lat="46.03567596535466" lon="9.384031756542592"><ele>768.0</ele><time>2026-04-25T15:32:05.999Z</time></trkpt><trkpt lat="46.03572953216108" lon="9.384164479982553"><ele>767.0</ele><time>2026-04-25T15:32:06.999Z</time></trkpt><trkpt lat="46.03576071155497" lon="9.384294969889345"><ele>766.0</ele><time>2026-04-25T15:32:07.999Z</time></trkpt><trkpt lat="46.035809213590774" lon="9.384433891778055"><ele>767.5</ele><time>2026-04-25T15:32:08.999Z</time></trkpt><trkpt lat="46.035836429539714" lon="9.384573117784432"><ele>769.0</ele><time>2026-04-25T15:32:09.999Z</time></trkpt><trkpt lat="46.03589430185304" lon="9.384680533215375"><ele>770.5</ele><time>2026-04-25T15:32:10.999Z</time></trkpt><trkpt lat="46.03592597687466" lon="9.384787749561495"><ele>772.0</ele><time>2026-04-25T15:32:11.999Z</time></trkpt><trkpt lat="46.035958826985514" lon="9.384877956664566"><ele>773.4999999999999</ele><time>2026-04-25T15:32:12.999Z</time></trkpt><trkpt lat="46.03600973730317" lon="9.384995431403322"><ele>775.0</ele><time>2026-04-25T15:32:14.999Z</time></trkpt><trkpt lat="46.03594299879838" lon="9.385068023996077"><ele>775.0</ele><time>2026-04-25T15:32:16.999Z</time></trkpt><trkpt lat="46.035824305001015" lon="9.3850279473762"><ele>775.0</ele><time>2026-04-25T15:32:18.999Z</time></trkpt><trkpt lat="46.035764590962515" lon="9.384931531163566"><ele>775.0</ele><time>2026-04-25T15:32:19.999Z</time></trkpt><trkpt lat="46.035698773433154" lon="9.384824009084161"><ele>775.0</ele><time>2026-04-25T15:32:20.999Z</time></trkpt><trkpt lat="46.03563252356714" lon="9.384727145182184"><ele>775.0</ele><time>2026-04-25T15:32:21.999Z</time></trkpt><trkpt lat="46.035554844791854" lon="9.384632151367486"><ele>773.2</ele><time>2026-04-25T15:32:22.999Z</time></trkpt><trkpt lat="46.03546873810634" lon="9.384522276102711"><ele>771.4</ele><time>2026-04-25T15:32:23.999Z</time></trkpt><trkpt lat="46.035391352167444" lon="9.384420980804075"><ele>769.5999999999999</ele><time>2026-04-25T15:32:24.999Z</time></trkpt><trkpt lat="46.03531561851376" lon="9.384327937124215"><ele>767.8</ele><time>2026-04-25T15:32:25.999Z</time></trkpt><trkpt lat="46.03523063163184" lon="9.384247689295849"><ele>766.0</ele><time>2026-04-25T15:32:26.999Z</time></trkpt><trkpt lat="46.03512776822252" lon="9.384184331162182"><ele>766.0</ele><time>2026-04-25T15:32:27.999Z</time></trkpt><trkpt lat="46.035011206546216" lon="9.384131471969788"><ele>766.0</ele><time>2026-04-25T15:32:28.999Z</time></trkpt><trkpt lat="46.03489240998731" lon="9.384078981790346"><ele>766.0</ele><time>2026-04-25T15:32:29.999Z</time></trkpt><trkpt lat="46.03478792502621" lon="9.384016332220668"><ele>766.0</ele><time>2026-04-25T15:32:30.999Z</time></trkpt><trkpt lat="46.03468955438064" lon="9.383957469834044"><ele>762.75</ele><time>2026-04-25T15:32:31.999Z</time></trkpt><trkpt lat="46.03459481137294" lon="9.383900165062833"><ele>759.5</ele><time>2026-04-25T15:32:32.999Z</time></trkpt><trkpt lat="46.03449788150644" lon="9.383853524441575"><ele>756.25</ele><time>2026-04-25T15:32:33.999Z</time></trkpt><trkpt lat="46.034381076615986" lon="9.38384420858393"><ele>753.0</ele><time>2026-04-25T15:32:34.999Z</time></trkpt><trkpt lat="46.03424049020868" lon="9.383880178547921"><ele>754.75</ele><time>2026-04-25T15:32:36Z</time></trkpt><trkpt lat="46.03410752112664" lon="9.383941868622443"><ele>756.5</ele><time>2026-04-25T15:32:37Z</time></trkpt><trkpt lat="46.033991763989484" lon="9.38399961831209"><ele>758.25</ele><time>2026-04-25T15:32:38Z</time></trkpt><trkpt lat="46.03388183598697" lon="9.38403848637636"><ele>760.0</ele><time>2026-04-25T15:32:39Z</time></trkpt><trkpt lat="46.033780507992596" lon="9.384050176387426"><ele>760.0</ele><time>2026-04-25T15:32:40Z</time></trkpt><trkpt lat="46.033683060488926" lon="9.384017896579959"><ele>760.0</ele><time>2026-04-25T15:32:41Z</time></trkpt><trkpt lat="46.03359787715351" lon="9.38393548921852"><ele>760.0</ele><time>2026-04-25T15:32:42Z</time></trkpt><trkpt lat="46.03352425104338" lon="9.383801668556062"><ele>760.0</ele><time>2026-04-25T15:32:43Z</time></trkpt><trkpt lat="46.03347142557962" lon="9.383639435121873"><ele>760.0</ele><time>2026-04-25T15:32:44Z</time></trkpt><trkpt lat="46.033439499119616" lon="9.383453930450969"><ele>758.0</ele><time>2026-04-25T15:32:45Z</time></trkpt><trkpt lat="46.03340585765906" lon="9.383271860325701"><ele>756.0</ele><time>2026-04-25T15:32:46Z</time></trkpt><trkpt lat="46.03336478235642" lon="9.383108273209228"><ele>754.0</ele><time>2026-04-25T15:32:47Z</time></trkpt><trkpt lat="46.033322916744844" lon="9.382951493905251"><ele>752.0</ele><time>2026-04-25T15:32:48Z</time></trkpt><trkpt lat="46.033283678552934" lon="9.3827890599755"><ele>750.5</ele><time>2026-04-25T15:32:49Z</time></trkpt><trkpt lat="46.033245550091756" lon="9.382613320038063"><ele>749.0</ele><time>2026-04-25T15:32:50Z</time></trkpt><trkpt lat="46.03320384121019" lon="9.38243921325391"><ele>747.5</ele><time>2026-04-25T15:32:51Z</time></trkpt><trkpt lat="46.0331640598793" lon="9.382277706168571"><ele>746.0</ele><time>2026-04-25T15:32:52Z</time></trkpt><trkpt lat="46.03312355290992" lon="9.38211999939427"><ele>743.8</ele><time>2026-04-25T15:32:53Z</time></trkpt><trkpt lat="46.0330797891053" lon="9.3819679090291"><ele>741.5999999999999</ele><time>2026-04-25T15:32:54Z</time></trkpt><trkpt lat="46.03303466162239" lon="9.381820659371444"><ele>739.4</ele><time>2026-04-25T15:32:55Z</time></trkpt><trkpt lat="46.032984082251964" lon="9.381679776947983"><ele>737.2</ele><time>2026-04-25T15:32:56Z</time></trkpt><trkpt lat="46.032932565865785" lon="9.381540280718607"><ele>735.0</ele><time>2026-04-25T15:32:57Z</time></trkpt><trkpt lat="46.032883364613944" lon="9.381400847839966"><ele>733.0</ele><time>2026-04-25T15:32:58Z</time></trkpt><trkpt lat="46.032840067396286" lon="9.381262299994447"><ele>731.0</ele><time>2026-04-25T15:32:59Z</time></trkpt><trkpt lat="46.03279318354282" lon="9.381129236135994"><ele>729.0</ele><time>2026-04-25T15:33:00Z</time></trkpt><trkpt lat="46.03273201889051" lon="9.381007855012383"><ele>727.0</ele><time>2026-04-25T15:33:01Z</time></trkpt><trkpt lat="46.032646175367454" lon="9.380921277265674"><ele>725.0</ele><time>2026-04-25T15:33:02Z</time></trkpt><trkpt lat="46.03254173700335" lon="9.380858921544316"><ele>725.25</ele><time>2026-04-25T15:33:03Z</time></trkpt><trkpt lat="46.03242066797603" lon="9.380800966373744"><ele>725.5</ele><time>2026-04-25T15:33:04Z</time></trkpt><trkpt lat="46.03230203421956" lon="9.380733210001019"><ele>725.75</ele><time>2026-04-25T15:33:05Z</time></trkpt><trkpt lat="46.0321968416642" lon="9.380668315313557"><ele>726.0</ele><time>2026-04-25T15:33:06Z</time></trkpt><trkpt lat="46.03209230632384" lon="9.38060443755897"><ele>726.0</ele><time>2026-04-25T15:33:07Z</time></trkpt><trkpt lat="46.031993470395044" lon="9.380538887020691"><ele>726.0</ele><time>2026-04-25T15:33:08Z</time></trkpt><trkpt lat="46.03189654371885" lon="9.380469422212792"><ele>726.0</ele><time>2026-04-25T15:33:09Z</time></trkpt><trkpt lat="46.031799735387956" lon="9.380414660362577"><ele>726.0</ele><time>2026-04-25T15:33:10Z</time></trkpt><trkpt lat="46.03170376975712" lon="9.380364083399183"><ele>726.0</ele><time>2026-04-25T15:33:11Z</time></trkpt><trkpt lat="46.03161257600814" lon="9.380326274134571"><ele>724.1666666666666</ele><time>2026-04-25T15:33:12Z</time></trkpt><trkpt lat="46.03153766428241" lon="9.380289412286565"><ele>722.3333333333334</ele><time>2026-04-25T15:33:13Z</time></trkpt><trkpt lat="46.031456727723345" lon="9.38027772522547"><ele>720.5</ele><time>2026-04-25T15:33:14Z</time></trkpt><trkpt lat="46.03138398276013" lon="9.380259906591064"><ele>718.6666666666667</ele><time>2026-04-25T15:33:15Z</time></trkpt><trkpt lat="46.031279870100555" lon="9.380228381550973"><ele>716.8333333333334</ele><time>2026-04-25T15:33:17Z</time></trkpt><trkpt lat="46.03118087941451" lon="9.380219301717942"><ele>715.0</ele><time>2026-04-25T15:33:19Z</time></trkpt><trkpt lat="46.031101970470694" lon="9.380205704875728"><ele>715.0</ele><time>2026-04-25T15:33:20.999Z</time></trkpt><trkpt lat="46.03102796041328" lon="9.380192210024687"><ele>715.0</ele><time>2026-04-25T15:33:23.999Z</time></trkpt><trkpt lat="46.031002565301485" lon="9.380364455582086"><ele>715.0</ele><time>2026-04-25T15:33:25.999Z</time></trkpt><trkpt lat="46.03098056227724" lon="9.380458456946634"><ele>715.0</ele><time>2026-04-25T15:33:27.999Z</time></trkpt><trkpt lat="46.03093396317467" lon="9.380544567508824"><ele>725.0</ele><time>2026-04-25T15:34:42Z</time></trkpt><trkpt lat="46.03093781083462" lon="9.38044398055907"><ele>715.0</ele><time>2026-04-25T15:34:50Z</time></trkpt></trkseg></trk></gpx>